<?xml version='1.0' encoding='UTF-8'?><gpx version="1.1" creator="JPX - https://github.com/jenetics/jpx" xmlns="http://www.topografix.com/GPX/1/1"><trk><trkseg><trkpt lat="42.2513708" lon="12.065865"><ele>341.0</ele><time>2026-04-30T13:07:54.552Z</time></trkpt><trkpt lat="42.2513008" lon="12.0658193"><ele>341.0</ele><time>2026-04-30T13:07:58.558Z</time></trkpt><trkpt lat="42.2513357" lon="12.0658936"><ele>341.0</ele><time>2026-04-30T13:08:28.559Z</time></trkpt><trkpt lat="42.2513606" lon="12.0659811"><ele>341.0</ele><time>2026-04-30T13:08:32.574Z</time></trkpt><trkpt lat="42.2512904" lon="12.0660202"><ele>341.0</ele><time>2026-04-30T13:08:39.578Z</time></trkpt><trkpt lat="42.2512834" lon="12.0658818"><ele>341.0</ele><time>2026-04-30T13:08:43.552Z</time></trkpt><trkpt lat="42.2513353" lon="12.0657633"><ele>340.7142857142857</ele><time>2026-04-30T13:08:45.546Z</time></trkpt><trkpt lat="42.2513916" lon="12.0657126"><ele>340.42857142857144</ele><time>2026-04-30T13:08:47.552Z</time></trkpt><trkpt lat="42.2514636" lon="12.0656808"><ele>340.1428571428571</ele><time>2026-04-30T13:08:50.574Z</time></trkpt><trkpt lat="42.2514458" lon="12.065767"><ele>339.8571428571429</ele><time>2026-04-30T13:09:12.569Z</time></trkpt><trkpt lat="42.2515012" lon="12.0658154"><ele>339.5714285714286</ele><time>2026-04-30T13:09:26.561Z</time></trkpt><trkpt lat="42.2515483" lon="12.0658728"><ele>339.2857142857143</ele><time>2026-04-30T13:09:36.57Z</time></trkpt><trkpt lat="42.2515373" lon="12.065961"><ele>339.0</ele><time>2026-04-30T13:09:58.566Z</time></trkpt><trkpt lat="42.2514733" lon="12.0659499"><ele>339.4</ele><time>2026-04-30T13:10:02.574Z</time></trkpt><trkpt lat="42.2514215" lon="12.0660084"><ele>339.79999999999995</ele><time>2026-04-30T13:10:07.564Z</time></trkpt><trkpt lat="42.2512266" lon="12.065965"><ele>340.20000000000005</ele><time>2026-04-30T13:10:09.551Z</time></trkpt><trkpt lat="42.2511605" lon="12.065996"><ele>340.6</ele><time>2026-04-30T13:10:11.558Z</time></trkpt><trkpt lat="42.2510934" lon="12.0660219"><ele>341.0</ele><time>2026-04-30T13:10:13.562Z</time></trkpt><trkpt lat="42.2510007" lon="12.066069"><ele>341.0</ele><time>2026-04-30T13:10:16.57Z</time></trkpt><trkpt lat="42.250931" lon="12.0661199"><ele>341.0</ele><time>2026-04-30T13:10:18.567Z</time></trkpt><trkpt lat="42.2508621" lon="12.0661569"><ele>341.0</ele><time>2026-04-30T13:10:20.571Z</time></trkpt><trkpt lat="42.2507931" lon="12.0662068"><ele>341.0</ele><time>2026-04-30T13:10:22.565Z</time></trkpt><trkpt lat="42.2507199" lon="12.0662695"><ele>341.0</ele><time>2026-04-30T13:10:24.567Z</time></trkpt><trkpt lat="42.2506626" lon="12.0663285"><ele>341.0</ele><time>2026-04-30T13:10:26.577Z</time></trkpt><trkpt lat="42.2506023" lon="12.0663639"><ele>340.83333333333337</ele><time>2026-04-30T13:10:28.564Z</time></trkpt><trkpt lat="42.2505256" lon="12.0664481"><ele>340.6666666666667</ele><time>2026-04-30T13:10:31.572Z</time></trkpt><trkpt lat="42.2504555" lon="12.0664897"><ele>340.5</ele><time>2026-04-30T13:10:33.561Z</time></trkpt><trkpt lat="42.2503728" lon="12.0665197"><ele>340.3333333333333</ele><time>2026-04-30T13:10:35.567Z</time></trkpt><trkpt lat="42.2503072" lon="12.0665808"><ele>340.16666666666663</ele><time>2026-04-30T13:10:37.564Z</time></trkpt><trkpt lat="42.2502357" lon="12.0666311"><ele>340.0</ele><time>2026-04-30T13:10:39.576Z</time></trkpt><trkpt lat="42.2501607" lon="12.0666717"><ele>340.0</ele><time>2026-04-30T13:10:41.556Z</time></trkpt><trkpt lat="42.2500776" lon="12.0667134"><ele>340.0</ele><time>2026-04-30T13:10:43.57Z</time></trkpt><trkpt lat="42.2499995" lon="12.0667493"><ele>340.0</ele><time>2026-04-30T13:10:45.573Z</time></trkpt><trkpt lat="42.2499226" lon="12.0668087"><ele>340.0</ele><time>2026-04-30T13:10:47.571Z</time></trkpt><trkpt lat="42.249859" lon="12.066877"><ele>340.0</ele><time>2026-04-30T13:10:49.592Z</time></trkpt><trkpt lat="42.2497889" lon="12.0669437"><ele>340.0</ele><time>2026-04-30T13:10:51.584Z</time></trkpt><trkpt lat="42.2497117" lon="12.067004"><ele>339.16666666666663</ele><time>2026-04-30T13:10:53.588Z</time></trkpt><trkpt lat="42.2496333" lon="12.0670492"><ele>338.3333333333333</ele><time>2026-04-30T13:10:55.589Z</time></trkpt><trkpt lat="42.2495511" lon="12.0670891"><ele>337.5</ele><time>2026-04-30T13:10:57.574Z</time></trkpt><trkpt lat="42.2494777" lon="12.0671386"><ele>336.6666666666667</ele><time>2026-04-30T13:10:59.585Z</time></trkpt><trkpt lat="42.2494065" lon="12.0672158"><ele>335.83333333333337</ele><time>2026-04-30T13:11:01.592Z</time></trkpt><trkpt lat="42.2493259" lon="12.0672809"><ele>335.0</ele><time>2026-04-30T13:11:03.593Z</time></trkpt><trkpt lat="42.2492483" lon="12.0673478"><ele>335.0</ele><time>2026-04-30T13:11:05.585Z</time></trkpt><trkpt lat="42.2491676" lon="12.0674113"><ele>335.0</ele><time>2026-04-30T13:11:07.585Z</time></trkpt><trkpt lat="42.2490886" lon="12.0674791"><ele>335.0</ele><time>2026-04-30T13:11:09.58Z</time></trkpt><trkpt lat="42.2490146" lon="12.0675425"><ele>335.0</ele><time>2026-04-30T13:11:11.587Z</time></trkpt><trkpt lat="42.2489479" lon="12.0676096"><ele>335.0</ele><time>2026-04-30T13:11:13.593Z</time></trkpt><trkpt lat="42.2488727" lon="12.0676663"><ele>335.0</ele><time>2026-04-30T13:11:15.58Z</time></trkpt><trkpt lat="42.2487873" lon="12.0677294"><ele>335.5</ele><time>2026-04-30T13:11:17.598Z</time></trkpt><trkpt lat="42.2487162" lon="12.0677958"><ele>336.0</ele><time>2026-04-30T13:11:19.586Z</time></trkpt><trkpt lat="42.2486438" lon="12.0678567"><ele>336.5</ele><time>2026-04-30T13:11:21.577Z</time></trkpt><trkpt lat="42.248571" lon="12.06793"><ele>337.0</ele><time>2026-04-30T13:11:23.583Z</time></trkpt><trkpt lat="42.2484956" lon="12.0679948"><ele>337.5</ele><time>2026-04-30T13:11:25.585Z</time></trkpt><trkpt lat="42.2484131" lon="12.0680429"><ele>338.0</ele><time>2026-04-30T13:11:27.587Z</time></trkpt><trkpt lat="42.2483393" lon="12.0680991"><ele>338.0</ele><time>2026-04-30T13:11:29.583Z</time></trkpt><trkpt lat="42.2482636" lon="12.0681442"><ele>338.0</ele><time>2026-04-30T13:11:31.578Z</time></trkpt><trkpt lat="42.2481936" lon="12.0681979"><ele>338.0</ele><time>2026-04-30T13:11:33.576Z</time></trkpt><trkpt lat="42.2481212" lon="12.068261"><ele>338.0</ele><time>2026-04-30T13:11:35.582Z</time></trkpt><trkpt lat="42.248056" lon="12.0683274"><ele>338.0</ele><time>2026-04-30T13:11:37.574Z</time></trkpt><trkpt lat="42.2479954" lon="12.0683879"><ele>338.0</ele><time>2026-04-30T13:11:39.583Z</time></trkpt><trkpt lat="42.2479172" lon="12.0684486"><ele>338.83333333333337</ele><time>2026-04-30T13:11:41.58Z</time></trkpt><trkpt lat="42.2478339" lon="12.0685147"><ele>339.6666666666667</ele><time>2026-04-30T13:11:43.583Z</time></trkpt><trkpt lat="42.2477619" lon="12.0685864"><ele>340.5</ele><time>2026-04-30T13:11:45.58Z</time></trkpt><trkpt lat="42.2476955" lon="12.0686623"><ele>341.3333333333333</ele><time>2026-04-30T13:11:47.573Z</time></trkpt><trkpt lat="42.2476292" lon="12.0687423"><ele>342.16666666666663</ele><time>2026-04-30T13:11:49.588Z</time></trkpt><trkpt lat="42.2475622" lon="12.0688139"><ele>343.0</ele><time>2026-04-30T13:11:51.583Z</time></trkpt><trkpt lat="42.2474936" lon="12.0688873"><ele>343.0</ele><time>2026-04-30T13:11:53.579Z</time></trkpt><trkpt lat="42.2474238" lon="12.0689579"><ele>343.0</ele><time>2026-04-30T13:11:55.58Z</time></trkpt><trkpt lat="42.2473508" lon="12.0690168"><ele>343.0</ele><time>2026-04-30T13:11:57.585Z</time></trkpt><trkpt lat="42.2472734" lon="12.0690606"><ele>343.0</ele><time>2026-04-30T13:11:59.588Z</time></trkpt><trkpt lat="42.2471916" lon="12.0690954"><ele>343.0</ele><time>2026-04-30T13:12:01.572Z</time></trkpt><trkpt lat="42.2471104" lon="12.0691292"><ele>343.0</ele><time>2026-04-30T13:12:03.581Z</time></trkpt><trkpt lat="42.2470296" lon="12.0691685"><ele>343.5</ele><time>2026-04-30T13:12:05.574Z</time></trkpt><trkpt lat="42.2469452" lon="12.0692024"><ele>344.0</ele><time>2026-04-30T13:12:07.573Z</time></trkpt><trkpt lat="42.2468674" lon="12.0692298"><ele>344.5</ele><time>2026-04-30T13:12:09.579Z</time></trkpt><trkpt lat="42.2467856" lon="12.069265"><ele>345.0</ele><time>2026-04-30T13:12:11.574Z</time></trkpt><trkpt lat="42.2467104" lon="12.0693267"><ele>345.5</ele><time>2026-04-30T13:12:13.585Z</time></trkpt><trkpt lat="42.2466389" lon="12.0693843"><ele>346.0</ele><time>2026-04-30T13:12:15.58Z</time></trkpt><trkpt lat="42.2465713" lon="12.0694383"><ele>346.0</ele><time>2026-04-30T13:12:17.587Z</time></trkpt><trkpt lat="42.2465289" lon="12.0695172"><ele>346.0</ele><time>2026-04-30T13:12:19.586Z</time></trkpt><trkpt lat="42.2465188" lon="12.0696425"><ele>346.0</ele><time>2026-04-30T13:12:21.598Z</time></trkpt><trkpt lat="42.2465114" lon="12.0697817"><ele>346.0</ele><time>2026-04-30T13:12:23.587Z</time></trkpt><trkpt lat="42.2464874" lon="12.0699448"><ele>346.0</ele><time>2026-04-30T13:12:25.588Z</time></trkpt><trkpt lat="42.2464738" lon="12.0700318"><ele>345.8333333333333</ele><time>2026-04-30T13:12:26.593Z</time></trkpt><trkpt lat="42.2464613" lon="12.0701236"><ele>345.66666666666663</ele><time>2026-04-30T13:12:27.596Z</time></trkpt><trkpt lat="42.2464479" lon="12.0702219"><ele>345.5</ele><time>2026-04-30T13:12:28.581Z</time></trkpt><trkpt lat="42.2464383" lon="12.0703248"><ele>345.3333333333333</ele><time>2026-04-30T13:12:29.591Z</time></trkpt><trkpt lat="42.2464281" lon="12.0704292"><ele>345.1666666666667</ele><time>2026-04-30T13:12:30.588Z</time></trkpt><trkpt lat="42.2464164" lon="12.0705381"><ele>345.0</ele><time>2026-04-30T13:12:31.579Z</time></trkpt><trkpt lat="42.2464042" lon="12.0706521"><ele>345.3333333333333</ele><time>2026-04-30T13:12:32.596Z</time></trkpt><trkpt lat="42.246392" lon="12.0707669"><ele>345.6666666666667</ele><time>2026-04-30T13:12:33.601Z</time></trkpt><trkpt lat="42.2463807" lon="12.0708783"><ele>346.0</ele><time>2026-04-30T13:12:34.593Z</time></trkpt><trkpt lat="42.246367" lon="12.0709962"><ele>346.33333333333337</ele><time>2026-04-30T13:12:35.594Z</time></trkpt><trkpt lat="42.2463499" lon="12.0711179"><ele>346.6666666666667</ele><time>2026-04-30T13:12:36.589Z</time></trkpt><trkpt lat="42.2463322" lon="12.0712368"><ele>347.0</ele><time>2026-04-30T13:12:37.589Z</time></trkpt><trkpt lat="42.2463206" lon="12.0713502"><ele>347.0</ele><time>2026-04-30T13:12:38.582Z</time></trkpt><trkpt lat="42.2463065" lon="12.0714675"><ele>347.0</ele><time>2026-04-30T13:12:39.583Z</time></trkpt><trkpt lat="42.2462949" lon="12.0715864"><ele>347.0</ele><time>2026-04-30T13:12:40.585Z</time></trkpt><trkpt lat="42.2462866" lon="12.0717039"><ele>347.0</ele><time>2026-04-30T13:12:41.583Z</time></trkpt><trkpt lat="42.2462781" lon="12.0718234"><ele>347.0</ele><time>2026-04-30T13:12:42.589Z</time></trkpt><trkpt lat="42.2462719" lon="12.0719356"><ele>347.0</ele><time>2026-04-30T13:12:43.59Z</time></trkpt><trkpt lat="42.246267" lon="12.0720524"><ele>345.83333333333337</ele><time>2026-04-30T13:12:44.588Z</time></trkpt><trkpt lat="42.2462632" lon="12.0721654"><ele>344.6666666666667</ele><time>2026-04-30T13:12:45.591Z</time></trkpt><trkpt lat="42.2462637" lon="12.0722821"><ele>343.5</ele><time>2026-04-30T13:12:46.601Z</time></trkpt><trkpt lat="42.246273" lon="12.0723914"><ele>342.3333333333333</ele><time>2026-04-30T13:12:47.568Z</time></trkpt><trkpt lat="42.2462875" lon="12.0725029"><ele>341.16666666666663</ele><time>2026-04-30T13:12:48.597Z</time></trkpt><trkpt lat="42.2463043" lon="12.0726105"><ele>340.0</ele><time>2026-04-30T13:12:49.593Z</time></trkpt><trkpt lat="42.2463239" lon="12.0727137"><ele>340.0</ele><time>2026-04-30T13:12:50.591Z</time></trkpt><trkpt lat="42.2463498" lon="12.0728126"><ele>340.0</ele><time>2026-04-30T13:12:51.583Z</time></trkpt><trkpt lat="42.2463821" lon="12.0729059"><ele>340.0</ele><time>2026-04-30T13:12:52.59Z</time></trkpt><trkpt lat="42.2464161" lon="12.0729965"><ele>340.0</ele><time>2026-04-30T13:12:53.595Z</time></trkpt><trkpt lat="42.2464515" lon="12.0730902"><ele>340.0</ele><time>2026-04-30T13:12:54.6Z</time></trkpt><trkpt lat="42.2464936" lon="12.0731787"><ele>340.0</ele><time>2026-04-30T13:12:55.582Z</time></trkpt><trkpt lat="42.2465409" lon="12.0732587"><ele>340.2857142857143</ele><time>2026-04-30T13:12:56.585Z</time></trkpt><trkpt lat="42.2465922" lon="12.0733355"><ele>340.57142857142856</ele><time>2026-04-30T13:12:57.594Z</time></trkpt><trkpt lat="42.246649" lon="12.0734073"><ele>340.85714285714283</ele><time>2026-04-30T13:12:58.586Z</time></trkpt><trkpt lat="42.246707" lon="12.0734677"><ele>341.1428571428571</ele><time>2026-04-30T13:12:59.597Z</time></trkpt><trkpt lat="42.2467702" lon="12.0735206"><ele>341.42857142857144</ele><time>2026-04-30T13:13:00.592Z</time></trkpt><trkpt lat="42.2468326" lon="12.0735669"><ele>341.71428571428567</ele><time>2026-04-30T13:13:01.603Z</time></trkpt><trkpt lat="42.2468957" lon="12.0736112"><ele>342.0</ele><time>2026-04-30T13:13:02.587Z</time></trkpt><trkpt lat="42.2469595" lon="12.0736513"><ele>341.99999999999994</ele><time>2026-04-30T13:13:03.604Z</time></trkpt><trkpt lat="42.2470261" lon="12.0736895"><ele>342.0</ele><time>2026-04-30T13:13:04.598Z</time></trkpt><trkpt lat="42.247092" lon="12.0737308"><ele>342.0</ele><time>2026-04-30T13:13:05.57Z</time></trkpt><trkpt lat="42.2471582" lon="12.073771"><ele>342.0</ele><time>2026-04-30T13:13:06.588Z</time></trkpt><trkpt lat="42.2472234" lon="12.0738106"><ele>342.0</ele><time>2026-04-30T13:13:07.576Z</time></trkpt><trkpt lat="42.2472952" lon="12.0738562"><ele>341.99999999999994</ele><time>2026-04-30T13:13:08.607Z</time></trkpt><trkpt lat="42.2473672" lon="12.0738976"><ele>342.0</ele><time>2026-04-30T13:13:09.588Z</time></trkpt><trkpt lat="42.2474377" lon="12.0739397"><ele>341.3333333333333</ele><time>2026-04-30T13:13:10.584Z</time></trkpt><trkpt lat="42.2475054" lon="12.0739864"><ele>340.6666666666667</ele><time>2026-04-30T13:13:11.583Z</time></trkpt><trkpt lat="42.2475765" lon="12.0740307"><ele>340.0</ele><time>2026-04-30T13:13:12.587Z</time></trkpt><trkpt lat="42.2476482" lon="12.0740732"><ele>339.33333333333337</ele><time>2026-04-30T13:13:13.575Z</time></trkpt><trkpt lat="42.2477212" lon="12.0741158"><ele>338.6666666666667</ele><time>2026-04-30T13:13:14.599Z</time></trkpt><trkpt lat="42.2477907" lon="12.0741522"><ele>338.0</ele><time>2026-04-30T13:13:15.591Z</time></trkpt><trkpt lat="42.2478616" lon="12.0741803"><ele>337.57142857142856</ele><time>2026-04-30T13:13:16.588Z</time></trkpt><trkpt lat="42.2479334" lon="12.0742074"><ele>337.1428571428571</ele><time>2026-04-30T13:13:17.594Z</time></trkpt><trkpt lat="42.2480056" lon="12.0742262"><ele>336.71428571428567</ele><time>2026-04-30T13:13:18.585Z</time></trkpt><trkpt lat="42.2480737" lon="12.074246"><ele>336.2857142857143</ele><time>2026-04-30T13:13:19.599Z</time></trkpt><trkpt lat="42.248143" lon="12.0742609"><ele>335.85714285714283</ele><time>2026-04-30T13:13:20.6Z</time></trkpt><trkpt lat="42.2482119" lon="12.0742743"><ele>335.4285714285714</ele><time>2026-04-30T13:13:21.586Z</time></trkpt><trkpt lat="42.2482776" lon="12.0742908"><ele>335.0</ele><time>2026-04-30T13:13:22.614Z</time></trkpt><trkpt lat="42.2483417" lon="12.0743044"><ele>335.0</ele><time>2026-04-30T13:13:23.585Z</time></trkpt><trkpt lat="42.2484043" lon="12.0743173"><ele>335.0</ele><time>2026-04-30T13:13:24.582Z</time></trkpt><trkpt lat="42.2485166" lon="12.0743426"><ele>335.0</ele><time>2026-04-30T13:13:26.588Z</time></trkpt><trkpt lat="42.2486213" lon="12.0743695"><ele>335.0</ele><time>2026-04-30T13:13:28.591Z</time></trkpt><trkpt lat="42.248728" lon="12.0743954"><ele>335.0</ele><time>2026-04-30T13:13:30.592Z</time></trkpt><trkpt lat="42.248832" lon="12.0744215"><ele>335.0</ele><time>2026-04-30T13:13:32.605Z</time></trkpt><trkpt lat="42.2489298" lon="12.0744446"><ele>335.0</ele><time>2026-04-30T13:13:34.585Z</time></trkpt><trkpt lat="42.249025" lon="12.0744681"><ele>335.0</ele><time>2026-04-30T13:13:36.6Z</time></trkpt><trkpt lat="42.2491124" lon="12.0744909"><ele>335.0</ele><time>2026-04-30T13:13:38.58Z</time></trkpt><trkpt lat="42.2492064" lon="12.0745103"><ele>335.0</ele><time>2026-04-30T13:13:40.581Z</time></trkpt><trkpt lat="42.2492998" lon="12.0745183"><ele>335.83333333333337</ele><time>2026-04-30T13:13:42.586Z</time></trkpt><trkpt lat="42.2493895" lon="12.0745128"><ele>336.6666666666667</ele><time>2026-04-30T13:13:44.584Z</time></trkpt><trkpt lat="42.2494723" lon="12.0744971"><ele>337.5</ele><time>2026-04-30T13:13:46.592Z</time></trkpt><trkpt lat="42.2495563" lon="12.0744707"><ele>338.3333333333333</ele><time>2026-04-30T13:13:48.585Z</time></trkpt><trkpt lat="42.2496388" lon="12.0744604"><ele>339.16666666666663</ele><time>2026-04-30T13:13:50.595Z</time></trkpt><trkpt lat="42.249715" lon="12.0744352"><ele>340.0</ele><time>2026-04-30T13:13:52.591Z</time></trkpt><trkpt lat="42.2497938" lon="12.0744162"><ele>340.8333333333333</ele><time>2026-04-30T13:13:54.583Z</time></trkpt><trkpt lat="42.2498688" lon="12.0743878"><ele>341.66666666666663</ele><time>2026-04-30T13:13:56.588Z</time></trkpt><trkpt lat="42.2499446" lon="12.0743633"><ele>342.5</ele><time>2026-04-30T13:13:58.596Z</time></trkpt><trkpt lat="42.2500198" lon="12.0743386"><ele>343.3333333333333</ele><time>2026-04-30T13:14:00.597Z</time></trkpt><trkpt lat="42.2500943" lon="12.0743163"><ele>344.1666666666667</ele><time>2026-04-30T13:14:02.589Z</time></trkpt><trkpt lat="42.2501693" lon="12.0742916"><ele>345.0</ele><time>2026-04-30T13:14:04.579Z</time></trkpt><trkpt lat="42.2502416" lon="12.0742667"><ele>345.0</ele><time>2026-04-30T13:14:06.604Z</time></trkpt><trkpt lat="42.2503136" lon="12.0742425"><ele>345.0</ele><time>2026-04-30T13:14:08.602Z</time></trkpt><trkpt lat="42.2503832" lon="12.0742225"><ele>345.0</ele><time>2026-04-30T13:14:10.6Z</time></trkpt><trkpt lat="42.2504496" lon="12.0742075"><ele>345.0</ele><time>2026-04-30T13:14:12.587Z</time></trkpt><trkpt lat="42.2505172" lon="12.0741873"><ele>345.0</ele><time>2026-04-30T13:14:14.569Z</time></trkpt><trkpt lat="42.2505819" lon="12.0741674"><ele>345.0</ele><time>2026-04-30T13:14:16.592Z</time></trkpt><trkpt lat="42.2506439" lon="12.0741473"><ele>345.0</ele><time>2026-04-30T13:14:18.587Z</time></trkpt><trkpt lat="42.2507058" lon="12.0741299"><ele>345.2857142857143</ele><time>2026-04-30T13:14:20.592Z</time></trkpt><trkpt lat="42.2507734" lon="12.074115"><ele>345.57142857142856</ele><time>2026-04-30T13:14:22.598Z</time></trkpt><trkpt lat="42.2508366" lon="12.0741134"><ele>345.8571428571429</ele><time>2026-04-30T13:14:24.591Z</time></trkpt><trkpt lat="42.2509046" lon="12.074108"><ele>346.1428571428571</ele><time>2026-04-30T13:14:26.598Z</time></trkpt><trkpt lat="42.250971" lon="12.0741157"><ele>346.4285714285714</ele><time>2026-04-30T13:14:28.597Z</time></trkpt><trkpt lat="42.2510572" lon="12.0741439"><ele>346.7142857142857</ele><time>2026-04-30T13:14:31.594Z</time></trkpt><trkpt lat="42.2511274" lon="12.0741666"><ele>347.0</ele><time>2026-04-30T13:14:33.597Z</time></trkpt><trkpt lat="42.2511913" lon="12.0741978"><ele>347.0</ele><time>2026-04-30T13:14:35.587Z</time></trkpt><trkpt lat="42.2512647" lon="12.0742375"><ele>347.0</ele><time>2026-04-30T13:14:37.594Z</time></trkpt><trkpt lat="42.2513381" lon="12.0742894"><ele>347.0</ele><time>2026-04-30T13:14:39.597Z</time></trkpt><trkpt lat="42.2514082" lon="12.074351"><ele>347.0</ele><time>2026-04-30T13:14:41.588Z</time></trkpt><trkpt lat="42.2514778" lon="12.0744111"><ele>347.0</ele><time>2026-04-30T13:14:43.584Z</time></trkpt><trkpt lat="42.2515432" lon="12.0744758"><ele>347.0</ele><time>2026-04-30T13:14:45.587Z</time></trkpt><trkpt lat="42.2516188" lon="12.0745343"><ele>346.83333333333337</ele><time>2026-04-30T13:14:47.589Z</time></trkpt><trkpt lat="42.2516982" lon="12.0745934"><ele>346.6666666666667</ele><time>2026-04-30T13:14:49.593Z</time></trkpt><trkpt lat="42.2517747" lon="12.0746579"><ele>346.5</ele><time>2026-04-30T13:14:51.574Z</time></trkpt><trkpt lat="42.2518575" lon="12.0747109"><ele>346.3333333333333</ele><time>2026-04-30T13:14:53.563Z</time></trkpt><trkpt lat="42.251925" lon="12.0747735"><ele>346.16666666666663</ele><time>2026-04-30T13:14:55.569Z</time></trkpt><trkpt lat="42.2519789" lon="12.0748271"><ele>346.0</ele><time>2026-04-30T13:14:57.572Z</time></trkpt><trkpt lat="42.2520596" lon="12.0749244"><ele>345.4</ele><time>2026-04-30T13:14:59.603Z</time></trkpt><trkpt lat="42.2521451" lon="12.0750026"><ele>344.8</ele><time>2026-04-30T13:15:01.6Z</time></trkpt><trkpt lat="42.2522311" lon="12.0750814"><ele>344.2</ele><time>2026-04-30T13:15:03.582Z</time></trkpt><trkpt lat="42.2523086" lon="12.0751772"><ele>343.59999999999997</ele><time>2026-04-30T13:15:05.601Z</time></trkpt><trkpt lat="42.2523962" lon="12.0752882"><ele>343.0</ele><time>2026-04-30T13:15:07.596Z</time></trkpt><trkpt lat="42.2524693" lon="12.0754201"><ele>343.0</ele><time>2026-04-30T13:15:09.604Z</time></trkpt><trkpt lat="42.2525001" lon="12.0754972"><ele>343.0</ele><time>2026-04-30T13:15:10.745Z</time></trkpt><trkpt lat="42.2525587" lon="12.0756388"><ele>343.0</ele><time>2026-04-30T13:15:12.623Z</time></trkpt><trkpt lat="42.2525908" lon="12.0757125"><ele>343.0</ele><time>2026-04-30T13:15:13.593Z</time></trkpt><trkpt lat="42.2526261" lon="12.0757908"><ele>343.0</ele><time>2026-04-30T13:15:14.615Z</time></trkpt><trkpt lat="42.2526572" lon="12.0758687"><ele>343.0</ele><time>2026-04-30T13:15:15.73Z</time></trkpt><trkpt lat="42.2527028" lon="12.0760183"><ele>344.0</ele><time>2026-04-30T13:15:17.659Z</time></trkpt><trkpt lat="42.2527725" lon="12.0762624"><ele>345.0</ele><time>2026-04-30T13:15:20.723Z</time></trkpt><trkpt lat="42.2527978" lon="12.0763453"><ele>346.0</ele><time>2026-04-30T13:15:21.669Z</time></trkpt><trkpt lat="42.2528247" lon="12.0764272"><ele>347.0</ele><time>2026-04-30T13:15:22.603Z</time></trkpt><trkpt lat="42.2528515" lon="12.0765121"><ele>348.0</ele><time>2026-04-30T13:15:23.589Z</time></trkpt><trkpt lat="42.2528752" lon="12.0766013"><ele>349.0</ele><time>2026-04-30T13:15:24.621Z</time></trkpt><trkpt lat="42.2528939" lon="12.0766893"><ele>350.0</ele><time>2026-04-30T13:15:25.595Z</time></trkpt><trkpt lat="42.252914" lon="12.076778"><ele>351.0</ele><time>2026-04-30T13:15:26.635Z</time></trkpt><trkpt lat="42.2529352" lon="12.0768696"><ele>352.0</ele><time>2026-04-30T13:15:27.607Z</time></trkpt><trkpt lat="42.2529558" lon="12.0769624"><ele>353.0</ele><time>2026-04-30T13:15:28.592Z</time></trkpt><trkpt lat="42.2529775" lon="12.0770586"><ele>354.0</ele><time>2026-04-30T13:15:29.614Z</time></trkpt><trkpt lat="42.2529983" lon="12.0771526"><ele>355.0</ele><time>2026-04-30T13:15:30.679Z</time></trkpt><trkpt lat="42.2530175" lon="12.0772449"><ele>355.0</ele><time>2026-04-30T13:15:31.612Z</time></trkpt><trkpt lat="42.253037" lon="12.0773411"><ele>355.0</ele><time>2026-04-30T13:15:32.617Z</time></trkpt><trkpt lat="42.2530582" lon="12.0774387"><ele>355.0</ele><time>2026-04-30T13:15:33.604Z</time></trkpt><trkpt lat="42.2530772" lon="12.0775387"><ele>355.0</ele><time>2026-04-30T13:15:34.576Z</time></trkpt><trkpt lat="42.2530892" lon="12.0776404"><ele>355.0</ele><time>2026-04-30T13:15:35.591Z</time></trkpt><trkpt lat="42.2530916" lon="12.0777408"><ele>355.0</ele><time>2026-04-30T13:15:36.607Z</time></trkpt><trkpt lat="42.2530881" lon="12.0778381"><ele>355.0</ele><time>2026-04-30T13:15:37.616Z</time></trkpt><trkpt lat="42.2530807" lon="12.0779284"><ele>355.2</ele><time>2026-04-30T13:15:38.612Z</time></trkpt><trkpt lat="42.2530673" lon="12.0780154"><ele>355.4</ele><time>2026-04-30T13:15:39.627Z</time></trkpt><trkpt lat="42.2530363" lon="12.0781757"><ele>355.6</ele><time>2026-04-30T13:15:41.597Z</time></trkpt><trkpt lat="42.2530164" lon="12.0783267"><ele>355.8</ele><time>2026-04-30T13:15:43.621Z</time></trkpt><trkpt lat="42.2530039" lon="12.078482"><ele>356.0</ele><time>2026-04-30T13:15:45.602Z</time></trkpt><trkpt lat="42.2530242" lon="12.0786278"><ele>356.0</ele><time>2026-04-30T13:15:47.581Z</time></trkpt><trkpt lat="42.2530656" lon="12.0787778"><ele>356.0</ele><time>2026-04-30T13:15:49.601Z</time></trkpt><trkpt lat="42.2531358" lon="12.0789186"><ele>356.0</ele><time>2026-04-30T13:15:51.567Z</time></trkpt><trkpt lat="42.2531832" lon="12.078989"><ele>356.0</ele><time>2026-04-30T13:15:52.61Z</time></trkpt><trkpt lat="42.2532346" lon="12.0790632"><ele>356.0</ele><time>2026-04-30T13:15:53.589Z</time></trkpt><trkpt lat="42.2532938" lon="12.0791274"><ele>353.0</ele><time>2026-04-30T13:15:54.582Z</time></trkpt><trkpt lat="42.2533563" lon="12.0791952"><ele>350.0</ele><time>2026-04-30T13:15:55.602Z</time></trkpt><trkpt lat="42.2534264" lon="12.0792669"><ele>347.0</ele><time>2026-04-30T13:15:56.585Z</time></trkpt><trkpt lat="42.2534998" lon="12.0793412"><ele>344.0</ele><time>2026-04-30T13:15:57.603Z</time></trkpt><trkpt lat="42.2535771" lon="12.0794192"><ele>341.0</ele><time>2026-04-30T13:15:58.611Z</time></trkpt><trkpt lat="42.2536543" lon="12.0794964"><ele>341.0</ele><time>2026-04-30T13:15:59.594Z</time></trkpt><trkpt lat="42.2537397" lon="12.0795705"><ele>341.0</ele><time>2026-04-30T13:16:00.612Z</time></trkpt><trkpt lat="42.2538298" lon="12.0796352"><ele>341.0</ele><time>2026-04-30T13:16:01.594Z</time></trkpt><trkpt lat="42.2539223" lon="12.0796849"><ele>341.0</ele><time>2026-04-30T13:16:02.601Z</time></trkpt><trkpt lat="42.2540133" lon="12.0797244"><ele>341.0</ele><time>2026-04-30T13:16:03.595Z</time></trkpt><trkpt lat="42.2540973" lon="12.0797573"><ele>340.83333333333337</ele><time>2026-04-30T13:16:04.595Z</time></trkpt><trkpt lat="42.2541756" lon="12.079784"><ele>340.6666666666667</ele><time>2026-04-30T13:16:05.597Z</time></trkpt><trkpt lat="42.2542511" lon="12.0798051"><ele>340.5</ele><time>2026-04-30T13:16:06.607Z</time></trkpt><trkpt lat="42.2543193" lon="12.0798305"><ele>340.3333333333333</ele><time>2026-04-30T13:16:07.612Z</time></trkpt><trkpt lat="42.2543818" lon="12.0798515"><ele>340.16666666666663</ele><time>2026-04-30T13:16:08.593Z</time></trkpt><trkpt lat="42.2544947" lon="12.0798849"><ele>340.0</ele><time>2026-04-30T13:16:10.602Z</time></trkpt><trkpt lat="42.2545964" lon="12.0799198"><ele>339.66666666666663</ele><time>2026-04-30T13:16:12.615Z</time></trkpt><trkpt lat="42.2546838" lon="12.0799528"><ele>339.3333333333333</ele><time>2026-04-30T13:16:14.601Z</time></trkpt><trkpt lat="42.2547721" lon="12.07998"><ele>339.0</ele><time>2026-04-30T13:16:16.615Z</time></trkpt><trkpt lat="42.2548526" lon="12.0800154"><ele>338.6666666666667</ele><time>2026-04-30T13:16:18.596Z</time></trkpt><trkpt lat="42.2549279" lon="12.0800489"><ele>338.33333333333337</ele><time>2026-04-30T13:16:20.581Z</time></trkpt><trkpt lat="42.2550047" lon="12.0800732"><ele>338.0</ele><time>2026-04-30T13:16:22.59Z</time></trkpt><trkpt lat="42.2550736" lon="12.0800949"><ele>339.83333333333337</ele><time>2026-04-30T13:16:24.589Z</time></trkpt><trkpt lat="42.2551521" lon="12.0801211"><ele>341.6666666666667</ele><time>2026-04-30T13:16:26.592Z</time></trkpt><trkpt lat="42.2552314" lon="12.0801476"><ele>343.5</ele><time>2026-04-30T13:16:28.606Z</time></trkpt><trkpt lat="42.2553052" lon="12.0801682"><ele>345.3333333333333</ele><time>2026-04-30T13:16:30.599Z</time></trkpt><trkpt lat="42.2553757" lon="12.0801958"><ele>347.16666666666663</ele><time>2026-04-30T13:16:32.605Z</time></trkpt><trkpt lat="42.2554454" lon="12.0802206"><ele>349.0</ele><time>2026-04-30T13:16:34.593Z</time></trkpt><trkpt lat="42.2555134" lon="12.0802416"><ele>348.99999999999994</ele><time>2026-04-30T13:16:36.588Z</time></trkpt><trkpt lat="42.2555828" lon="12.080261"><ele>349.0</ele><time>2026-04-30T13:16:38.591Z</time></trkpt><trkpt lat="42.2556492" lon="12.0802808"><ele>349.0</ele><time>2026-04-30T13:16:40.599Z</time></trkpt><trkpt lat="42.2557126" lon="12.0803029"><ele>349.0</ele><time>2026-04-30T13:16:42.619Z</time></trkpt><trkpt lat="42.2557831" lon="12.0803283"><ele>349.0</ele><time>2026-04-30T13:16:44.596Z</time></trkpt><trkpt lat="42.2558496" lon="12.0803558"><ele>348.99999999999994</ele><time>2026-04-30T13:16:46.592Z</time></trkpt><trkpt lat="42.2559165" lon="12.0803722"><ele>349.0</ele><time>2026-04-30T13:16:48.61Z</time></trkpt><trkpt lat="42.256003" lon="12.0803969"><ele>349.2857142857143</ele><time>2026-04-30T13:16:51.607Z</time></trkpt><trkpt lat="42.2560902" lon="12.0804199"><ele>349.57142857142856</ele><time>2026-04-30T13:16:54.595Z</time></trkpt><trkpt lat="42.2561801" lon="12.08043"><ele>349.8571428571429</ele><time>2026-04-30T13:16:57.591Z</time></trkpt><trkpt lat="42.2562433" lon="12.0804427"><ele>350.1428571428571</ele><time>2026-04-30T13:16:59.6Z</time></trkpt><trkpt lat="42.2563086" lon="12.080458"><ele>350.42857142857144</ele><time>2026-04-30T13:17:01.602Z</time></trkpt><trkpt lat="42.2563728" lon="12.0804682"><ele>350.7142857142857</ele><time>2026-04-30T13:17:03.584Z</time></trkpt><trkpt lat="42.2564377" lon="12.0804804"><ele>351.0</ele><time>2026-04-30T13:17:05.591Z</time></trkpt><trkpt lat="42.256508" lon="12.0804981"><ele>351.1666666666667</ele><time>2026-04-30T13:17:07.602Z</time></trkpt><trkpt lat="42.2565868" lon="12.0805054"><ele>351.3333333333333</ele><time>2026-04-30T13:17:09.603Z</time></trkpt><trkpt lat="42.2566612" lon="12.0805123"><ele>351.5</ele><time>2026-04-30T13:17:11.592Z</time></trkpt><trkpt lat="42.2567461" lon="12.0805246"><ele>351.66666666666663</ele><time>2026-04-30T13:17:13.597Z</time></trkpt><trkpt lat="42.2568338" lon="12.0805273"><ele>351.8333333333333</ele><time>2026-04-30T13:17:15.599Z</time></trkpt><trkpt lat="42.2569079" lon="12.080529"><ele>352.0</ele><time>2026-04-30T13:17:17.602Z</time></trkpt><trkpt lat="42.256998" lon="12.080534"><ele>352.0</ele><time>2026-04-30T13:17:19.6Z</time></trkpt><trkpt lat="42.2570881" lon="12.0805493"><ele>352.0</ele><time>2026-04-30T13:17:21.582Z</time></trkpt><trkpt lat="42.2571857" lon="12.0805685"><ele>352.0</ele><time>2026-04-30T13:17:23.601Z</time></trkpt><trkpt lat="42.2572889" lon="12.0805977"><ele>352.0</ele><time>2026-04-30T13:17:25.597Z</time></trkpt><trkpt lat="42.2573905" lon="12.0806292"><ele>352.0</ele><time>2026-04-30T13:17:27.586Z</time></trkpt><trkpt lat="42.2574905" lon="12.0806651"><ele>352.0</ele><time>2026-04-30T13:17:29.606Z</time></trkpt><trkpt lat="42.2575935" lon="12.0807075"><ele>352.0</ele><time>2026-04-30T13:17:31.614Z</time></trkpt><trkpt lat="42.2576899" lon="12.0807642"><ele>352.0</ele><time>2026-04-30T13:17:33.593Z</time></trkpt><trkpt lat="42.2577811" lon="12.0808485"><ele>352.0</ele><time>2026-04-30T13:17:35.601Z</time></trkpt><trkpt lat="42.2578693" lon="12.08094"><ele>352.0</ele><time>2026-04-30T13:17:37.601Z</time></trkpt><trkpt lat="42.2579478" lon="12.0810468"><ele>352.40000000000003</ele><time>2026-04-30T13:17:39.572Z</time></trkpt><trkpt lat="42.2580035" lon="12.0811873"><ele>352.8</ele><time>2026-04-30T13:17:41.607Z</time></trkpt><trkpt lat="42.2580417" lon="12.0813311"><ele>353.2</ele><time>2026-04-30T13:17:43.607Z</time></trkpt><trkpt lat="42.2580675" lon="12.0814711"><ele>353.6</ele><time>2026-04-30T13:17:45.592Z</time></trkpt><trkpt lat="42.2580759" lon="12.081612"><ele>354.0</ele><time>2026-04-30T13:17:47.6Z</time></trkpt><trkpt lat="42.2580737" lon="12.0817448"><ele>355.2</ele><time>2026-04-30T13:17:49.595Z</time></trkpt><trkpt lat="42.2580595" lon="12.0818766"><ele>356.4</ele><time>2026-04-30T13:17:51.616Z</time></trkpt><trkpt lat="42.2580414" lon="12.082013"><ele>357.6</ele><time>2026-04-30T13:17:53.598Z</time></trkpt><trkpt lat="42.2580207" lon="12.0821514"><ele>358.8</ele><time>2026-04-30T13:17:55.598Z</time></trkpt><trkpt lat="42.2579998" lon="12.082291"><ele>360.0</ele><time>2026-04-30T13:17:57.599Z</time></trkpt><trkpt lat="42.2579815" lon="12.0824325"><ele>360.0</ele><time>2026-04-30T13:17:59.598Z</time></trkpt><trkpt lat="42.2579634" lon="12.0825651"><ele>360.0</ele><time>2026-04-30T13:18:01.601Z</time></trkpt><trkpt lat="42.2579508" lon="12.0826934"><ele>360.0</ele><time>2026-04-30T13:18:03.602Z</time></trkpt><trkpt lat="42.2579504" lon="12.082809"><ele>360.0</ele><time>2026-04-30T13:18:05.588Z</time></trkpt><trkpt lat="42.2579553" lon="12.0829232"><ele>360.0</ele><time>2026-04-30T13:18:07.589Z</time></trkpt><trkpt lat="42.2579681" lon="12.0830287"><ele>360.0</ele><time>2026-04-30T13:18:09.602Z</time></trkpt><trkpt lat="42.2579969" lon="12.0831214"><ele>360.0</ele><time>2026-04-30T13:18:11.586Z</time></trkpt><trkpt lat="42.2580268" lon="12.0832043"><ele>360.0</ele><time>2026-04-30T13:18:13.597Z</time></trkpt><trkpt lat="42.2580648" lon="12.0832813"><ele>360.0</ele><time>2026-04-30T13:18:15.592Z</time></trkpt><trkpt lat="42.2581049" lon="12.0833489"><ele>360.0</ele><time>2026-04-30T13:18:17.598Z</time></trkpt><trkpt lat="42.258148" lon="12.0834135"><ele>360.0</ele><time>2026-04-30T13:18:19.587Z</time></trkpt><trkpt lat="42.2582093" lon="12.0835001"><ele>360.0</ele><time>2026-04-30T13:18:22.614Z</time></trkpt><trkpt lat="42.2582581" lon="12.0835541"><ele>360.0</ele><time>2026-04-30T13:18:25.597Z</time></trkpt><trkpt lat="42.2583293" lon="12.0835961"><ele>358.4285714285714</ele><time>2026-04-30T13:18:28.594Z</time></trkpt><trkpt lat="42.2583954" lon="12.0836415"><ele>356.8571428571429</ele><time>2026-04-30T13:18:31.608Z</time></trkpt><trkpt lat="42.2584542" lon="12.0836897"><ele>355.2857142857143</ele><time>2026-04-30T13:18:34.589Z</time></trkpt><trkpt lat="42.2585205" lon="12.0837295"><ele>353.71428571428567</ele><time>2026-04-30T13:18:37.598Z</time></trkpt><trkpt lat="42.2585838" lon="12.0837633"><ele>352.1428571428571</ele><time>2026-04-30T13:18:40.594Z</time></trkpt><trkpt lat="42.2586433" lon="12.0837979"><ele>350.57142857142856</ele><time>2026-04-30T13:18:43.594Z</time></trkpt><trkpt lat="42.2587062" lon="12.0838281"><ele>349.0</ele><time>2026-04-30T13:18:46.577Z</time></trkpt><trkpt lat="42.2587668" lon="12.0838606"><ele>348.99999999999994</ele><time>2026-04-30T13:18:49.576Z</time></trkpt><trkpt lat="42.258839" lon="12.0838999"><ele>349.0</ele><time>2026-04-30T13:18:53.603Z</time></trkpt><trkpt lat="42.2589083" lon="12.08394"><ele>349.0</ele><time>2026-04-30T13:18:57.597Z</time></trkpt><trkpt lat="42.2589803" lon="12.0839696"><ele>349.0</ele><time>2026-04-30T13:19:01.6Z</time></trkpt><trkpt lat="42.2590399" lon="12.0840086"><ele>349.0</ele><time>2026-04-30T13:19:05.587Z</time></trkpt><trkpt lat="42.2591102" lon="12.0840426"><ele>348.99999999999994</ele><time>2026-04-30T13:19:09.598Z</time></trkpt><trkpt lat="42.2591825" lon="12.0840796"><ele>349.0</ele><time>2026-04-30T13:19:13.588Z</time></trkpt><trkpt lat="42.2592449" lon="12.0841159"><ele>350.57142857142856</ele><time>2026-04-30T13:19:17.582Z</time></trkpt><trkpt lat="42.2593134" lon="12.0841574"><ele>352.1428571428571</ele><time>2026-04-30T13:19:21.589Z</time></trkpt><trkpt lat="42.2593841" lon="12.0841965"><ele>353.71428571428567</ele><time>2026-04-30T13:19:25.601Z</time></trkpt><trkpt lat="42.2594587" lon="12.0842365"><ele>355.2857142857143</ele><time>2026-04-30T13:19:29.61Z</time></trkpt><trkpt lat="42.259528" lon="12.0842723"><ele>356.8571428571429</ele><time>2026-04-30T13:19:33.603Z</time></trkpt><trkpt lat="42.259591" lon="12.0843047"><ele>358.4285714285714</ele><time>2026-04-30T13:19:37.591Z</time></trkpt><trkpt lat="42.259659" lon="12.084341"><ele>360.0</ele><time>2026-04-30T13:19:41.621Z</time></trkpt><trkpt lat="42.2597303" lon="12.0843733"><ele>360.5</ele><time>2026-04-30T13:19:45.598Z</time></trkpt><trkpt lat="42.2597904" lon="12.0844035"><ele>361.0</ele><time>2026-04-30T13:19:49.601Z</time></trkpt><trkpt lat="42.2598628" lon="12.084456"><ele>361.5</ele><time>2026-04-30T13:19:53.593Z</time></trkpt><trkpt lat="42.2599286" lon="12.0844917"><ele>362.0</ele><time>2026-04-30T13:19:57.585Z</time></trkpt><trkpt lat="42.2600068" lon="12.0845415"><ele>362.5</ele><time>2026-04-30T13:20:01.587Z</time></trkpt><trkpt lat="42.2600794" lon="12.0845722"><ele>363.0</ele><time>2026-04-30T13:20:04.597Z</time></trkpt><trkpt lat="42.2601668" lon="12.0846179"><ele>363.0</ele><time>2026-04-30T13:20:07.589Z</time></trkpt><trkpt lat="42.2602331" lon="12.0846576"><ele>363.0</ele><time>2026-04-30T13:20:09.6Z</time></trkpt><trkpt lat="42.2603142" lon="12.0846991"><ele>363.0</ele><time>2026-04-30T13:20:11.605Z</time></trkpt><trkpt lat="42.260396" lon="12.084737"><ele>363.0</ele><time>2026-04-30T13:20:13.598Z</time></trkpt><trkpt lat="42.2604989" lon="12.0847853"><ele>363.0</ele><time>2026-04-30T13:20:15.584Z</time></trkpt><trkpt lat="42.2606149" lon="12.0848503"><ele>362.5</ele><time>2026-04-30T13:20:17.593Z</time></trkpt><trkpt lat="42.2606798" lon="12.0848894"><ele>362.0</ele><time>2026-04-30T13:20:18.609Z</time></trkpt><trkpt lat="42.2607505" lon="12.0849287"><ele>361.5</ele><time>2026-04-30T13:20:19.592Z</time></trkpt><trkpt lat="42.260828" lon="12.0849663"><ele>361.0</ele><time>2026-04-30T13:20:20.63Z</time></trkpt><trkpt lat="42.2609084" lon="12.0850067"><ele>360.5</ele><time>2026-04-30T13:20:21.592Z</time></trkpt><trkpt lat="42.2609947" lon="12.0850456"><ele>360.0</ele><time>2026-04-30T13:20:22.604Z</time></trkpt><trkpt lat="42.2610788" lon="12.0850914"><ele>360.0</ele><time>2026-04-30T13:20:23.626Z</time></trkpt><trkpt lat="42.2611688" lon="12.0851406"><ele>360.0</ele><time>2026-04-30T13:20:24.605Z</time></trkpt><trkpt lat="42.2612599" lon="12.0851896"><ele>360.0</ele><time>2026-04-30T13:20:25.589Z</time></trkpt><trkpt lat="42.2613528" lon="12.0852419"><ele>360.0</ele><time>2026-04-30T13:20:26.614Z</time></trkpt><trkpt lat="42.2614478" lon="12.0852944"><ele>360.0</ele><time>2026-04-30T13:20:27.599Z</time></trkpt><trkpt lat="42.2615447" lon="12.0853468"><ele>357.2</ele><time>2026-04-30T13:20:28.62Z</time></trkpt><trkpt lat="42.2616431" lon="12.0854001"><ele>354.4</ele><time>2026-04-30T13:20:29.597Z</time></trkpt><trkpt lat="42.2617403" lon="12.0854553"><ele>351.6</ele><time>2026-04-30T13:20:30.597Z</time></trkpt><trkpt lat="42.2618356" lon="12.0855037"><ele>348.8</ele><time>2026-04-30T13:20:31.607Z</time></trkpt><trkpt lat="42.2619274" lon="12.0855576"><ele>346.0</ele><time>2026-04-30T13:20:32.602Z</time></trkpt><trkpt lat="42.2620172" lon="12.0856081"><ele>346.0</ele><time>2026-04-30T13:20:33.597Z</time></trkpt><trkpt lat="42.2621063" lon="12.0856547"><ele>346.0</ele><time>2026-04-30T13:20:34.605Z</time></trkpt><trkpt lat="42.2621931" lon="12.0857012"><ele>346.0</ele><time>2026-04-30T13:20:35.599Z</time></trkpt><trkpt lat="42.2622778" lon="12.0857404"><ele>346.0</ele><time>2026-04-30T13:20:36.594Z</time></trkpt><trkpt lat="42.2623579" lon="12.0857862"><ele>346.0</ele><time>2026-04-30T13:20:37.6Z</time></trkpt><trkpt lat="42.2624345" lon="12.0858255"><ele>346.0</ele><time>2026-04-30T13:20:38.61Z</time></trkpt><trkpt lat="42.2625055" lon="12.0858587"><ele>346.66666666666663</ele><time>2026-04-30T13:20:39.603Z</time></trkpt><trkpt lat="42.2625733" lon="12.0858856"><ele>347.3333333333333</ele><time>2026-04-30T13:20:40.6Z</time></trkpt><trkpt lat="42.2626868" lon="12.0859258"><ele>348.0</ele><time>2026-04-30T13:20:42.608Z</time></trkpt><trkpt lat="42.2627808" lon="12.0859404"><ele>348.6666666666667</ele><time>2026-04-30T13:20:44.603Z</time></trkpt><trkpt lat="42.2628443" lon="12.0859421"><ele>349.33333333333337</ele><time>2026-04-30T13:20:46.58Z</time></trkpt><trkpt lat="42.2629075" lon="12.0859337"><ele>350.0</ele><time>2026-04-30T13:20:48.612Z</time></trkpt><trkpt lat="42.2629706" lon="12.0859122"><ele>350.0</ele><time>2026-04-30T13:20:50.61Z</time></trkpt><trkpt lat="42.263038" lon="12.0858807"><ele>350.0</ele><time>2026-04-30T13:20:52.589Z</time></trkpt><trkpt lat="42.2631027" lon="12.0858401"><ele>350.0</ele><time>2026-04-30T13:20:54.607Z</time></trkpt><trkpt lat="42.2631658" lon="12.0857989"><ele>350.0</ele><time>2026-04-30T13:20:56.6Z</time></trkpt><trkpt lat="42.2632236" lon="12.0857512"><ele>350.0</ele><time>2026-04-30T13:20:58.564Z</time></trkpt><trkpt lat="42.2632836" lon="12.085704"><ele>350.0</ele><time>2026-04-30T13:21:00.598Z</time></trkpt><trkpt lat="42.2633541" lon="12.0856325"><ele>350.0</ele><time>2026-04-30T13:21:03.611Z</time></trkpt><trkpt lat="42.2634249" lon="12.0855611"><ele>350.6666666666667</ele><time>2026-04-30T13:21:06.599Z</time></trkpt><trkpt lat="42.2634873" lon="12.0854851"><ele>351.33333333333337</ele><time>2026-04-30T13:21:09.574Z</time></trkpt><trkpt lat="42.2635535" lon="12.0854162"><ele>352.0</ele><time>2026-04-30T13:21:12.58Z</time></trkpt><trkpt lat="42.2636082" lon="12.0853494"><ele>352.6666666666667</ele><time>2026-04-30T13:21:15.586Z</time></trkpt><trkpt lat="42.2636604" lon="12.0852888"><ele>353.3333333333333</ele><time>2026-04-30T13:21:18.593Z</time></trkpt><trkpt lat="42.2637249" lon="12.0852129"><ele>354.0</ele><time>2026-04-30T13:21:22.603Z</time></trkpt><trkpt lat="42.2637745" lon="12.0851556"><ele>354.0</ele><time>2026-04-30T13:21:25.589Z</time></trkpt><trkpt lat="42.2638236" lon="12.0851018"><ele>354.0</ele><time>2026-04-30T13:21:28.603Z</time></trkpt><trkpt lat="42.263889" lon="12.0850326"><ele>354.0</ele><time>2026-04-30T13:21:32.586Z</time></trkpt><trkpt lat="42.263937" lon="12.0849766"><ele>354.0</ele><time>2026-04-30T13:21:35.602Z</time></trkpt><trkpt lat="42.2639864" lon="12.0849235"><ele>354.0</ele><time>2026-04-30T13:21:38.604Z</time></trkpt><trkpt lat="42.264037" lon="12.0848657"><ele>354.0</ele><time>2026-04-30T13:21:41.587Z</time></trkpt><trkpt lat="42.2640852" lon="12.084804"><ele>354.0</ele><time>2026-04-30T13:21:44.618Z</time></trkpt><trkpt lat="42.2641373" lon="12.0847438"><ele>356.3333333333333</ele><time>2026-04-30T13:21:47.602Z</time></trkpt><trkpt lat="42.264191" lon="12.0846718"><ele>358.6666666666667</ele><time>2026-04-30T13:21:51.575Z</time></trkpt><trkpt lat="42.2642534" lon="12.0846136"><ele>361.0</ele><time>2026-04-30T13:21:55.589Z</time></trkpt><trkpt lat="42.264307" lon="12.0845487"><ele>363.33333333333337</ele><time>2026-04-30T13:21:59.587Z</time></trkpt><trkpt lat="42.2643669" lon="12.0844919"><ele>365.6666666666667</ele><time>2026-04-30T13:22:03.586Z</time></trkpt><trkpt lat="42.2644248" lon="12.0844207"><ele>368.0</ele><time>2026-04-30T13:22:07.586Z</time></trkpt><trkpt lat="42.2644871" lon="12.0843571"><ele>368.0</ele><time>2026-04-30T13:22:11.592Z</time></trkpt><trkpt lat="42.2645485" lon="12.0842844"><ele>368.0</ele><time>2026-04-30T13:22:15.602Z</time></trkpt><trkpt lat="42.2646095" lon="12.0842191"><ele>368.0</ele><time>2026-04-30T13:22:19.594Z</time></trkpt><trkpt lat="42.2646745" lon="12.0841462"><ele>368.0</ele><time>2026-04-30T13:22:22.616Z</time></trkpt><trkpt lat="42.2647312" lon="12.0840906"><ele>368.0</ele><time>2026-04-30T13:22:24.599Z</time></trkpt><trkpt lat="42.2647964" lon="12.0840162"><ele>368.0</ele><time>2026-04-30T13:22:26.587Z</time></trkpt><trkpt lat="42.2648745" lon="12.0839381"><ele>367.1666666666667</ele><time>2026-04-30T13:22:28.603Z</time></trkpt><trkpt lat="42.2649509" lon="12.0838461"><ele>366.33333333333337</ele><time>2026-04-30T13:22:30.602Z</time></trkpt><trkpt lat="42.2650393" lon="12.0837448"><ele>365.5</ele><time>2026-04-30T13:22:32.63Z</time></trkpt><trkpt lat="42.2650893" lon="12.0836908"><ele>364.6666666666667</ele><time>2026-04-30T13:22:33.6Z</time></trkpt><trkpt lat="42.2651431" lon="12.0836332"><ele>363.8333333333333</ele><time>2026-04-30T13:22:34.6Z</time></trkpt><trkpt lat="42.2652001" lon="12.0835697"><ele>363.0</ele><time>2026-04-30T13:22:35.59Z</time></trkpt><trkpt lat="42.2652627" lon="12.0835"><ele>363.0</ele><time>2026-04-30T13:22:36.611Z</time></trkpt><trkpt lat="42.2653251" lon="12.0834262"><ele>363.0</ele><time>2026-04-30T13:22:37.602Z</time></trkpt><trkpt lat="42.2653907" lon="12.0833532"><ele>363.0</ele><time>2026-04-30T13:22:38.603Z</time></trkpt><trkpt lat="42.2654614" lon="12.0832756"><ele>363.0</ele><time>2026-04-30T13:22:39.591Z</time></trkpt><trkpt lat="42.2655322" lon="12.0831974"><ele>363.0</ele><time>2026-04-30T13:22:40.614Z</time></trkpt><trkpt lat="42.2656032" lon="12.0831169"><ele>363.0</ele><time>2026-04-30T13:22:41.609Z</time></trkpt><trkpt lat="42.2656778" lon="12.0830376"><ele>360.4</ele><time>2026-04-30T13:22:42.615Z</time></trkpt><trkpt lat="42.2657519" lon="12.0829607"><ele>357.79999999999995</ele><time>2026-04-30T13:22:43.602Z</time></trkpt><trkpt lat="42.2658246" lon="12.0828842"><ele>355.2</ele><time>2026-04-30T13:22:44.613Z</time></trkpt><trkpt lat="42.2658974" lon="12.0828018"><ele>352.6</ele><time>2026-04-30T13:22:45.595Z</time></trkpt><trkpt lat="42.2659723" lon="12.0827231"><ele>350.0</ele><time>2026-04-30T13:22:46.637Z</time></trkpt><trkpt lat="42.2660453" lon="12.0826397"><ele>350.0</ele><time>2026-04-30T13:22:47.608Z</time></trkpt><trkpt lat="42.2661191" lon="12.0825569"><ele>350.0</ele><time>2026-04-30T13:22:48.607Z</time></trkpt><trkpt lat="42.2661935" lon="12.0824776"><ele>350.0</ele><time>2026-04-30T13:22:49.602Z</time></trkpt><trkpt lat="42.2662678" lon="12.0823952"><ele>350.0</ele><time>2026-04-30T13:22:50.621Z</time></trkpt><trkpt lat="42.266343" lon="12.0823132"><ele>350.0</ele><time>2026-04-30T13:22:51.607Z</time></trkpt><trkpt lat="42.2664192" lon="12.0822271"><ele>349.0</ele><time>2026-04-30T13:22:52.611Z</time></trkpt><trkpt lat="42.2664977" lon="12.0821393"><ele>348.0</ele><time>2026-04-30T13:22:53.596Z</time></trkpt><trkpt lat="42.2665766" lon="12.0820532"><ele>347.0</ele><time>2026-04-30T13:22:54.617Z</time></trkpt><trkpt lat="42.2666527" lon="12.0819691"><ele>346.0</ele><time>2026-04-30T13:22:55.602Z</time></trkpt><trkpt lat="42.2667254" lon="12.0818909"><ele>345.0</ele><time>2026-04-30T13:22:56.607Z</time></trkpt><trkpt lat="42.266796" lon="12.0818181"><ele>345.0</ele><time>2026-04-30T13:22:57.601Z</time></trkpt><trkpt lat="42.2668626" lon="12.0817455"><ele>345.0</ele><time>2026-04-30T13:22:58.593Z</time></trkpt><trkpt lat="42.2669266" lon="12.0816757"><ele>345.0</ele><time>2026-04-30T13:22:59.587Z</time></trkpt><trkpt lat="42.2669853" lon="12.0816068"><ele>345.0</ele><time>2026-04-30T13:23:00.601Z</time></trkpt><trkpt lat="42.2670451" lon="12.0815459"><ele>345.0</ele><time>2026-04-30T13:23:01.602Z</time></trkpt><trkpt lat="42.267099" lon="12.0814839"><ele>345.0</ele><time>2026-04-30T13:23:02.603Z</time></trkpt><trkpt lat="42.2671525" lon="12.0814253"><ele>345.3333333333333</ele><time>2026-04-30T13:23:03.605Z</time></trkpt><trkpt lat="42.2672041" lon="12.081367"><ele>345.6666666666667</ele><time>2026-04-30T13:23:04.614Z</time></trkpt><trkpt lat="42.2672535" lon="12.0813071"><ele>346.0</ele><time>2026-04-30T13:23:05.602Z</time></trkpt><trkpt lat="42.2673013" lon="12.0812498"><ele>346.33333333333337</ele><time>2026-04-30T13:23:06.596Z</time></trkpt><trkpt lat="42.2673888" lon="12.0811374"><ele>346.6666666666667</ele><time>2026-04-30T13:23:08.604Z</time></trkpt><trkpt lat="42.2674722" lon="12.0810228"><ele>347.0</ele><time>2026-04-30T13:23:10.612Z</time></trkpt><trkpt lat="42.2675501" lon="12.0809009"><ele>347.42857142857144</ele><time>2026-04-30T13:23:12.599Z</time></trkpt><trkpt lat="42.2675886" lon="12.0808329"><ele>347.85714285714283</ele><time>2026-04-30T13:23:13.597Z</time></trkpt><trkpt lat="42.2676213" lon="12.0807591"><ele>348.2857142857143</ele><time>2026-04-30T13:23:14.597Z</time></trkpt><trkpt lat="42.2676498" lon="12.0806797"><ele>348.7142857142857</ele><time>2026-04-30T13:23:15.592Z</time></trkpt><trkpt lat="42.2676797" lon="12.0805981"><ele>349.1428571428571</ele><time>2026-04-30T13:23:16.606Z</time></trkpt><trkpt lat="42.2677111" lon="12.0805133"><ele>349.57142857142856</ele><time>2026-04-30T13:23:17.595Z</time></trkpt><trkpt lat="42.2677375" lon="12.0804164"><ele>350.0</ele><time>2026-04-30T13:23:18.598Z</time></trkpt><trkpt lat="42.2677629" lon="12.0803257"><ele>350.0</ele><time>2026-04-30T13:23:19.602Z</time></trkpt><trkpt lat="42.2677906" lon="12.0802309"><ele>350.0</ele><time>2026-04-30T13:23:20.596Z</time></trkpt><trkpt lat="42.2678159" lon="12.0801309"><ele>350.0</ele><time>2026-04-30T13:23:21.607Z</time></trkpt><trkpt lat="42.2678449" lon="12.0800256"><ele>350.0</ele><time>2026-04-30T13:23:22.615Z</time></trkpt><trkpt lat="42.2678729" lon="12.0799157"><ele>350.0</ele><time>2026-04-30T13:23:23.613Z</time></trkpt><trkpt lat="42.2679039" lon="12.0798056"><ele>350.0</ele><time>2026-04-30T13:23:24.605Z</time></trkpt><trkpt lat="42.2679357" lon="12.0796948"><ele>348.6666666666667</ele><time>2026-04-30T13:23:25.583Z</time></trkpt><trkpt lat="42.2679644" lon="12.0795864"><ele>347.33333333333337</ele><time>2026-04-30T13:23:26.62Z</time></trkpt><trkpt lat="42.2679931" lon="12.079476"><ele>346.0</ele><time>2026-04-30T13:23:27.594Z</time></trkpt><trkpt lat="42.2680231" lon="12.0793653"><ele>344.6666666666667</ele><time>2026-04-30T13:23:28.605Z</time></trkpt><trkpt lat="42.2680485" lon="12.0792607"><ele>343.3333333333333</ele><time>2026-04-30T13:23:29.609Z</time></trkpt><trkpt lat="42.2680715" lon="12.0791638"><ele>342.0</ele><time>2026-04-30T13:23:30.633Z</time></trkpt><trkpt lat="42.2680953" lon="12.0790734"><ele>342.0</ele><time>2026-04-30T13:23:31.577Z</time></trkpt><trkpt lat="42.2681117" lon="12.0789869"><ele>342.0</ele><time>2026-04-30T13:23:32.594Z</time></trkpt><trkpt lat="42.268127" lon="12.0789012"><ele>342.0</ele><time>2026-04-30T13:23:33.611Z</time></trkpt><trkpt lat="42.2681416" lon="12.0787455"><ele>342.0</ele><time>2026-04-30T13:23:35.606Z</time></trkpt><trkpt lat="42.2681224" lon="12.0785977"><ele>342.0</ele><time>2026-04-30T13:23:37.6Z</time></trkpt><trkpt lat="42.2681093" lon="12.0784708"><ele>342.0</ele><time>2026-04-30T13:23:39.607Z</time></trkpt><trkpt lat="42.2680861" lon="12.0783614"><ele>342.0</ele><time>2026-04-30T13:23:41.608Z</time></trkpt><trkpt lat="42.2680694" lon="12.0782554"><ele>342.0</ele><time>2026-04-30T13:23:43.607Z</time></trkpt><trkpt lat="42.2680513" lon="12.0781573"><ele>342.0</ele><time>2026-04-30T13:23:45.588Z</time></trkpt><trkpt lat="42.2680299" lon="12.0780713"><ele>342.0</ele><time>2026-04-30T13:23:47.581Z</time></trkpt><trkpt lat="42.2680044" lon="12.0779589"><ele>342.0</ele><time>2026-04-30T13:23:50.599Z</time></trkpt><trkpt lat="42.2679776" lon="12.0778497"><ele>343.2857142857143</ele><time>2026-04-30T13:23:53.614Z</time></trkpt><trkpt lat="42.2679569" lon="12.0777476"><ele>344.57142857142856</ele><time>2026-04-30T13:23:56.608Z</time></trkpt><trkpt lat="42.2679696" lon="12.0776571"><ele>345.8571428571429</ele><time>2026-04-30T13:24:00.589Z</time></trkpt><trkpt lat="42.2679345" lon="12.077583"><ele>347.1428571428571</ele><time>2026-04-30T13:24:39.598Z</time></trkpt><trkpt lat="42.2679286" lon="12.0776679"><ele>348.42857142857144</ele><time>2026-04-30T13:24:45.599Z</time></trkpt><trkpt lat="42.2679989" lon="12.0776758"><ele>349.7142857142857</ele><time>2026-04-30T13:24:48.578Z</time></trkpt><trkpt lat="42.2680619" lon="12.0777084"><ele>351.0</ele><time>2026-04-30T13:24:53.58Z</time></trkpt><trkpt lat="42.2680002" lon="12.0776722"><ele>351.00000000000006</ele><time>2026-04-30T13:25:08.601Z</time></trkpt><trkpt lat="42.2679444" lon="12.077613"><ele>351.0</ele><time>2026-04-30T13:25:12.608Z</time></trkpt><trkpt lat="42.2679804" lon="12.077689"><ele>351.0</ele><time>2026-04-30T13:25:27.603Z</time></trkpt><trkpt lat="42.2680611" lon="12.0777082"><ele>351.0</ele><time>2026-04-30T13:25:31.603Z</time></trkpt><trkpt lat="42.2681277" lon="12.0777389"><ele>351.0</ele><time>2026-04-30T13:25:34.618Z</time></trkpt><trkpt lat="42.2681946" lon="12.0777665"><ele>351.00000000000006</ele><time>2026-04-30T13:25:37.605Z</time></trkpt><trkpt lat="42.2682622" lon="12.0777916"><ele>351.0</ele><time>2026-04-30T13:25:40.604Z</time></trkpt><trkpt lat="42.2683292" lon="12.0778188"><ele>352.5714285714286</ele><time>2026-04-30T13:25:43.59Z</time></trkpt><trkpt lat="42.2683981" lon="12.07785"><ele>354.14285714285717</ele><time>2026-04-30T13:25:46.593Z</time></trkpt><trkpt lat="42.2684638" lon="12.0778745"><ele>355.7142857142857</ele><time>2026-04-30T13:25:49.613Z</time></trkpt><trkpt lat="42.2685256" lon="12.0779014"><ele>357.28571428571433</ele><time>2026-04-30T13:25:52.623Z</time></trkpt><trkpt lat="42.2685865" lon="12.0779286"><ele>358.85714285714283</ele><time>2026-04-30T13:25:55.599Z</time></trkpt><trkpt lat="42.2686585" lon="12.077971"><ele>360.42857142857144</ele><time>2026-04-30T13:25:59.598Z</time></trkpt><trkpt lat="42.2687254" lon="12.0779726"><ele>362.0</ele><time>2026-04-30T13:26:03.613Z</time></trkpt><trkpt lat="42.2687859" lon="12.0780055"><ele>362.0</ele><time>2026-04-30T13:26:07.604Z</time></trkpt><trkpt lat="42.2688493" lon="12.0780345"><ele>362.0</ele><time>2026-04-30T13:26:11.607Z</time></trkpt><trkpt lat="42.2689251" lon="12.0780482"><ele>362.0</ele><time>2026-04-30T13:26:16.588Z</time></trkpt><trkpt lat="42.2689875" lon="12.0780941"><ele>362.0</ele><time>2026-04-30T13:26:21.572Z</time></trkpt><trkpt lat="42.2690532" lon="12.0781309"><ele>362.0</ele><time>2026-04-30T13:26:26.607Z</time></trkpt><trkpt lat="42.2691226" lon="12.0781583"><ele>362.0</ele><time>2026-04-30T13:26:31.595Z</time></trkpt><trkpt lat="42.2691936" lon="12.078166"><ele>362.0</ele><time>2026-04-30T13:26:36.592Z</time></trkpt><trkpt lat="42.26925" lon="12.0782048"><ele>362.7142857142857</ele><time>2026-04-30T13:26:48.604Z</time></trkpt><trkpt lat="42.2693155" lon="12.0782353"><ele>363.42857142857144</ele><time>2026-04-30T13:26:55.594Z</time></trkpt><trkpt lat="42.2693755" lon="12.0782641"><ele>364.1428571428571</ele><time>2026-04-30T13:27:01.596Z</time></trkpt><trkpt lat="42.2694467" lon="12.0782842"><ele>364.8571428571429</ele><time>2026-04-30T13:27:08.604Z</time></trkpt><trkpt lat="42.2695057" lon="12.0783228"><ele>365.5714285714286</ele><time>2026-04-30T13:27:14.599Z</time></trkpt><trkpt lat="42.2695771" lon="12.0783496"><ele>366.2857142857143</ele><time>2026-04-30T13:27:20.596Z</time></trkpt><trkpt lat="42.2696373" lon="12.0783749"><ele>367.0</ele><time>2026-04-30T13:27:26.593Z</time></trkpt><trkpt lat="42.2697013" lon="12.0784135"><ele>367.0</ele><time>2026-04-30T13:27:32.611Z</time></trkpt><trkpt lat="42.2697658" lon="12.078442"><ele>367.0</ele><time>2026-04-30T13:27:38.604Z</time></trkpt><trkpt lat="42.2698352" lon="12.0784827"><ele>367.0</ele><time>2026-04-30T13:27:44.608Z</time></trkpt><trkpt lat="42.2698971" lon="12.0785101"><ele>367.0</ele><time>2026-04-30T13:27:50.606Z</time></trkpt><trkpt lat="42.2699662" lon="12.078539"><ele>367.0</ele><time>2026-04-30T13:28:00.585Z</time></trkpt><trkpt lat="42.2700309" lon="12.0785559"><ele>367.0</ele><time>2026-04-30T13:28:07.584Z</time></trkpt><trkpt lat="42.2700951" lon="12.0785772"><ele>367.0</ele><time>2026-04-30T13:28:24.6Z</time></trkpt><trkpt lat="42.2701636" lon="12.0785842"><ele>369.0</ele><time>2026-04-30T13:28:32.602Z</time></trkpt><trkpt lat="42.2702283" lon="12.0786129"><ele>371.0</ele><time>2026-04-30T13:28:38.615Z</time></trkpt><trkpt lat="42.2702949" lon="12.0786432"><ele>373.0</ele><time>2026-04-30T13:28:44.587Z</time></trkpt><trkpt lat="42.2703686" lon="12.078688"><ele>375.0</ele><time>2026-04-30T13:28:49.596Z</time></trkpt><trkpt lat="42.2704443" lon="12.0787201"><ele>377.0</ele><time>2026-04-30T13:28:53.589Z</time></trkpt><trkpt lat="42.2705083" lon="12.0787484"><ele>379.0</ele><time>2026-04-30T13:28:56.591Z</time></trkpt><trkpt lat="42.2705857" lon="12.0787771"><ele>381.0</ele><time>2026-04-30T13:28:59.593Z</time></trkpt><trkpt lat="42.2706611" lon="12.0788152"><ele>382.3333333333333</ele><time>2026-04-30T13:29:02.599Z</time></trkpt><trkpt lat="42.2707339" lon="12.0788537"><ele>383.66666666666663</ele><time>2026-04-30T13:29:05.601Z</time></trkpt><trkpt lat="42.2708071" lon="12.0788837"><ele>385.0</ele><time>2026-04-30T13:29:08.61Z</time></trkpt><trkpt lat="42.2708793" lon="12.0789203"><ele>386.3333333333333</ele><time>2026-04-30T13:29:11.615Z</time></trkpt><trkpt lat="42.2709497" lon="12.0789429"><ele>387.66666666666663</ele><time>2026-04-30T13:29:14.606Z</time></trkpt><trkpt lat="42.2710253" lon="12.0789029"><ele>389.0</ele><time>2026-04-30T13:29:18.602Z</time></trkpt><trkpt lat="42.2710546" lon="12.0788144"><ele>389.0</ele><time>2026-04-30T13:29:22.6Z</time></trkpt><trkpt lat="42.2710612" lon="12.0787234"><ele>389.0</ele><time>2026-04-30T13:29:26.59Z</time></trkpt><trkpt lat="42.2710598" lon="12.078633"><ele>389.0</ele><time>2026-04-30T13:29:30.611Z</time></trkpt><trkpt lat="42.2710514" lon="12.0785483"><ele>389.0</ele><time>2026-04-30T13:29:34.603Z</time></trkpt><trkpt lat="42.2710288" lon="12.0784647"><ele>389.0</ele><time>2026-04-30T13:29:38.598Z</time></trkpt><trkpt lat="42.2710078" lon="12.0783746"><ele>389.0</ele><time>2026-04-30T13:29:42.601Z</time></trkpt><trkpt lat="42.2709631" lon="12.0782796"><ele>389.0</ele><time>2026-04-30T13:29:46.596Z</time></trkpt><trkpt lat="42.2709271" lon="12.0781966"><ele>389.2857142857143</ele><time>2026-04-30T13:29:49.603Z</time></trkpt><trkpt lat="42.2708949" lon="12.0781094"><ele>389.57142857142856</ele><time>2026-04-30T13:29:52.624Z</time></trkpt><trkpt lat="42.2708688" lon="12.0780145"><ele>389.85714285714283</ele><time>2026-04-30T13:29:55.615Z</time></trkpt><trkpt lat="42.2708441" lon="12.0779148"><ele>390.1428571428571</ele><time>2026-04-30T13:29:58.605Z</time></trkpt><trkpt lat="42.2708323" lon="12.0778209"><ele>390.42857142857144</ele><time>2026-04-30T13:30:01.577Z</time></trkpt><trkpt lat="42.2708249" lon="12.0777259"><ele>390.71428571428567</ele><time>2026-04-30T13:30:04.606Z</time></trkpt><trkpt lat="42.270819" lon="12.0776226"><ele>391.0</ele><time>2026-04-30T13:30:07.598Z</time></trkpt><trkpt lat="42.2708115" lon="12.0775368"><ele>391.00000000000006</ele><time>2026-04-30T13:30:09.603Z</time></trkpt><trkpt lat="42.2708286" lon="12.0774341"><ele>391.0</ele><time>2026-04-30T13:30:11.603Z</time></trkpt><trkpt lat="42.2708942" lon="12.0773453"><ele>391.0</ele><time>2026-04-30T13:30:13.595Z</time></trkpt><trkpt lat="42.2709657" lon="12.0773358"><ele>391.0</ele><time>2026-04-30T13:30:15.589Z</time></trkpt><trkpt lat="42.2710439" lon="12.0773786"><ele>391.00000000000006</ele><time>2026-04-30T13:30:18.605Z</time></trkpt><trkpt lat="42.27112" lon="12.0774305"><ele>391.0</ele><time>2026-04-30T13:30:21.609Z</time></trkpt><trkpt lat="42.2711786" lon="12.0774642"><ele>391.00000000000006</ele><time>2026-04-30T13:30:23.576Z</time></trkpt><trkpt lat="42.2712581" lon="12.0774963"><ele>391.0</ele><time>2026-04-30T13:30:26.596Z</time></trkpt><trkpt lat="42.2713441" lon="12.0775389"><ele>391.0</ele><time>2026-04-30T13:30:29.603Z</time></trkpt><trkpt lat="42.2714146" lon="12.0775754"><ele>391.0</ele><time>2026-04-30T13:30:32.604Z</time></trkpt><trkpt lat="42.271487" lon="12.0776134"><ele>391.00000000000006</ele><time>2026-04-30T13:30:35.595Z</time></trkpt><trkpt lat="42.2715588" lon="12.0776507"><ele>391.0</ele><time>2026-04-30T13:30:38.602Z</time></trkpt><trkpt lat="42.2716274" lon="12.0776833"><ele>391.50000000000006</ele><time>2026-04-30T13:30:41.604Z</time></trkpt><trkpt lat="42.2716962" lon="12.0777224"><ele>392.0</ele><time>2026-04-30T13:30:44.597Z</time></trkpt><trkpt lat="42.2717727" lon="12.0777594"><ele>392.5</ele><time>2026-04-30T13:30:47.606Z</time></trkpt><trkpt lat="42.2718465" lon="12.0777944"><ele>393.0</ele><time>2026-04-30T13:30:50.604Z</time></trkpt><trkpt lat="42.2719229" lon="12.0778299"><ele>393.50000000000006</ele><time>2026-04-30T13:30:53.612Z</time></trkpt><trkpt lat="42.2719911" lon="12.0778649"><ele>394.0</ele><time>2026-04-30T13:30:56.61Z</time></trkpt><trkpt lat="42.2720658" lon="12.0779027"><ele>394.00000000000006</ele><time>2026-04-30T13:30:59.585Z</time></trkpt><trkpt lat="42.2721369" lon="12.0779372"><ele>394.0</ele><time>2026-04-30T13:31:02.608Z</time></trkpt><trkpt lat="42.2722087" lon="12.0779722"><ele>394.0</ele><time>2026-04-30T13:31:05.62Z</time></trkpt><trkpt lat="42.2722796" lon="12.078011"><ele>394.0</ele><time>2026-04-30T13:31:08.609Z</time></trkpt><trkpt lat="42.2723584" lon="12.0780471"><ele>394.00000000000006</ele><time>2026-04-30T13:31:11.58Z</time></trkpt><trkpt lat="42.2724429" lon="12.0780968"><ele>394.0</ele><time>2026-04-30T13:31:14.604Z</time></trkpt><trkpt lat="42.2725057" lon="12.0781293"><ele>394.1666666666667</ele><time>2026-04-30T13:31:16.602Z</time></trkpt><trkpt lat="42.2725763" lon="12.0781568"><ele>394.33333333333337</ele><time>2026-04-30T13:31:18.596Z</time></trkpt><trkpt lat="42.2726509" lon="12.0781943"><ele>394.5</ele><time>2026-04-30T13:31:20.6Z</time></trkpt><trkpt lat="42.2727221" lon="12.0782282"><ele>394.66666666666663</ele><time>2026-04-30T13:31:22.577Z</time></trkpt><trkpt lat="42.2727993" lon="12.078266"><ele>394.8333333333333</ele><time>2026-04-30T13:31:24.608Z</time></trkpt><trkpt lat="42.2728813" lon="12.0782986"><ele>395.0</ele><time>2026-04-30T13:31:26.595Z</time></trkpt><trkpt lat="42.2729609" lon="12.0783371"><ele>395.0</ele><time>2026-04-30T13:31:28.602Z</time></trkpt><trkpt lat="42.2730387" lon="12.0783749"><ele>395.0</ele><time>2026-04-30T13:31:30.617Z</time></trkpt><trkpt lat="42.2731052" lon="12.0784064"><ele>395.0</ele><time>2026-04-30T13:31:32.599Z</time></trkpt><trkpt lat="42.2731703" lon="12.0784401"><ele>395.0</ele><time>2026-04-30T13:31:34.591Z</time></trkpt><trkpt lat="42.2732303" lon="12.0784746"><ele>395.0</ele><time>2026-04-30T13:31:36.589Z</time></trkpt><trkpt lat="42.2732922" lon="12.0785049"><ele>395.0</ele><time>2026-04-30T13:31:38.606Z</time></trkpt><trkpt lat="42.273354" lon="12.0785369"><ele>395.0</ele><time>2026-04-30T13:31:40.616Z</time></trkpt><trkpt lat="42.2734434" lon="12.0785795"><ele>395.8333333333333</ele><time>2026-04-30T13:31:43.591Z</time></trkpt><trkpt lat="42.2735304" lon="12.0786261"><ele>396.66666666666663</ele><time>2026-04-30T13:31:46.602Z</time></trkpt><trkpt lat="42.2735935" lon="12.0786522"><ele>397.5</ele><time>2026-04-30T13:31:48.615Z</time></trkpt><trkpt lat="42.2736815" lon="12.078693"><ele>398.33333333333337</ele><time>2026-04-30T13:31:51.582Z</time></trkpt><trkpt lat="42.2737651" lon="12.0787342"><ele>399.1666666666667</ele><time>2026-04-30T13:31:54.62Z</time></trkpt><trkpt lat="42.2738503" lon="12.0787795"><ele>400.0</ele><time>2026-04-30T13:31:57.591Z</time></trkpt><trkpt lat="42.2739113" lon="12.0788132"><ele>399.7142857142857</ele><time>2026-04-30T13:31:59.608Z</time></trkpt><trkpt lat="42.2739794" lon="12.0788442"><ele>399.42857142857144</ele><time>2026-04-30T13:32:01.585Z</time></trkpt><trkpt lat="42.2740504" lon="12.0788841"><ele>399.1428571428571</ele><time>2026-04-30T13:32:03.599Z</time></trkpt><trkpt lat="42.2741146" lon="12.0789126"><ele>398.8571428571429</ele><time>2026-04-30T13:32:05.569Z</time></trkpt><trkpt lat="42.2741704" lon="12.0789526"><ele>398.57142857142856</ele><time>2026-04-30T13:32:07.586Z</time></trkpt><trkpt lat="42.2742538" lon="12.0789917"><ele>398.2857142857143</ele><time>2026-04-30T13:32:10.601Z</time></trkpt><trkpt lat="42.2743138" lon="12.0790255"><ele>398.0</ele><time>2026-04-30T13:32:12.62Z</time></trkpt><trkpt lat="42.2743758" lon="12.0790623"><ele>397.99999999999994</ele><time>2026-04-30T13:32:14.607Z</time></trkpt><trkpt lat="42.2744407" lon="12.0790872"><ele>398.0</ele><time>2026-04-30T13:32:16.597Z</time></trkpt><trkpt lat="42.2745036" lon="12.0791177"><ele>398.0</ele><time>2026-04-30T13:32:18.61Z</time></trkpt><trkpt lat="42.2745673" lon="12.079141"><ele>398.0</ele><time>2026-04-30T13:32:20.582Z</time></trkpt><trkpt lat="42.2746552" lon="12.0791858"><ele>397.99999999999994</ele><time>2026-04-30T13:32:23.595Z</time></trkpt><trkpt lat="42.2747187" lon="12.0792116"><ele>398.0</ele><time>2026-04-30T13:32:25.591Z</time></trkpt><trkpt lat="42.2748073" lon="12.0792534"><ele>398.99999999999994</ele><time>2026-04-30T13:32:28.607Z</time></trkpt><trkpt lat="42.274894" lon="12.0792954"><ele>400.0</ele><time>2026-04-30T13:32:31.587Z</time></trkpt><trkpt lat="42.2749701" lon="12.0793334"><ele>401.0</ele><time>2026-04-30T13:32:34.601Z</time></trkpt><trkpt lat="42.2750376" lon="12.0793676"><ele>402.0</ele><time>2026-04-30T13:32:37.592Z</time></trkpt><trkpt lat="42.2751002" lon="12.079396"><ele>403.0</ele><time>2026-04-30T13:32:40.596Z</time></trkpt><trkpt lat="42.2751603" lon="12.0794258"><ele>403.99999999999994</ele><time>2026-04-30T13:32:43.609Z</time></trkpt><trkpt lat="42.2752253" lon="12.0794647"><ele>405.0</ele><time>2026-04-30T13:32:47.598Z</time></trkpt><trkpt lat="42.2753061" lon="12.079482"><ele>404.99999999999994</ele><time>2026-04-30T13:32:59.599Z</time></trkpt><trkpt lat="42.2753687" lon="12.0795168"><ele>405.0</ele><time>2026-04-30T13:33:06.615Z</time></trkpt><trkpt lat="42.27543" lon="12.0795531"><ele>405.0</ele><time>2026-04-30T13:33:13.607Z</time></trkpt><trkpt lat="42.2754897" lon="12.0795936"><ele>405.0</ele><time>2026-04-30T13:33:19.605Z</time></trkpt><trkpt lat="42.2755608" lon="12.0796247"><ele>405.0</ele><time>2026-04-30T13:33:26.591Z</time></trkpt><trkpt lat="42.2756199" lon="12.0796611"><ele>404.99999999999994</ele><time>2026-04-30T13:33:33.574Z</time></trkpt><trkpt lat="42.275679" lon="12.0796979"><ele>405.0</ele><time>2026-04-30T13:33:38.582Z</time></trkpt><trkpt lat="42.2757484" lon="12.0797212"><ele>405.85714285714283</ele><time>2026-04-30T13:33:44.614Z</time></trkpt><trkpt lat="42.2758099" lon="12.079758"><ele>406.7142857142857</ele><time>2026-04-30T13:33:49.608Z</time></trkpt><trkpt lat="42.2758738" lon="12.0797801"><ele>407.57142857142856</ele><time>2026-04-30T13:33:54.591Z</time></trkpt><trkpt lat="42.2759394" lon="12.0798139"><ele>408.42857142857144</ele><time>2026-04-30T13:34:00.604Z</time></trkpt><trkpt lat="42.2760005" lon="12.0798528"><ele>409.2857142857143</ele><time>2026-04-30T13:34:06.599Z</time></trkpt><trkpt lat="42.2760659" lon="12.0798885"><ele>410.1428571428571</ele><time>2026-04-30T13:34:12.601Z</time></trkpt><trkpt lat="42.2761276" lon="12.0799191"><ele>411.0</ele><time>2026-04-30T13:34:17.589Z</time></trkpt><trkpt lat="42.2761964" lon="12.0799437"><ele>412.7142857142857</ele><time>2026-04-30T13:34:24.604Z</time></trkpt><trkpt lat="42.2762597" lon="12.0799785"><ele>414.42857142857144</ele><time>2026-04-30T13:34:30.597Z</time></trkpt><trkpt lat="42.2763246" lon="12.0800049"><ele>416.1428571428571</ele><time>2026-04-30T13:34:36.612Z</time></trkpt><trkpt lat="42.2763878" lon="12.0800325"><ele>417.8571428571429</ele><time>2026-04-30T13:34:42.596Z</time></trkpt><trkpt lat="42.2764571" lon="12.0800596"><ele>419.5714285714286</ele><time>2026-04-30T13:34:48.611Z</time></trkpt><trkpt lat="42.2765156" lon="12.0800916"><ele>421.2857142857143</ele><time>2026-04-30T13:34:53.602Z</time></trkpt><trkpt lat="42.2765864" lon="12.0801175"><ele>423.0</ele><time>2026-04-30T13:34:59.596Z</time></trkpt><trkpt lat="42.276649" lon="12.0801465"><ele>423.1428571428571</ele><time>2026-04-30T13:35:04.599Z</time></trkpt><trkpt lat="42.2767111" lon="12.0801917"><ele>423.28571428571433</ele><time>2026-04-30T13:35:10.594Z</time></trkpt><trkpt lat="42.2767766" lon="12.0802257"><ele>423.42857142857144</ele><time>2026-04-30T13:35:16.6Z</time></trkpt><trkpt lat="42.2768342" lon="12.080263"><ele>423.57142857142856</ele><time>2026-04-30T13:35:22.599Z</time></trkpt><trkpt lat="42.2768935" lon="12.0802987"><ele>423.71428571428567</ele><time>2026-04-30T13:35:28.596Z</time></trkpt><trkpt lat="42.2769551" lon="12.0803396"><ele>423.8571428571429</ele><time>2026-04-30T13:35:35.599Z</time></trkpt><trkpt lat="42.2770162" lon="12.0803718"><ele>424.0</ele><time>2026-04-30T13:35:42.599Z</time></trkpt><trkpt lat="42.2770835" lon="12.0803924"><ele>424.0</ele><time>2026-04-30T13:35:48.591Z</time></trkpt></trkseg><trkseg><trkpt lat="42.2802529" lon="12.0828461"><ele>415.00000000000006</ele><time>2026-04-30T13:38:45.588Z</time></trkpt><trkpt lat="42.2802397" lon="12.0829513"><ele>415.0</ele><time>2026-04-30T13:38:49.592Z</time></trkpt><trkpt lat="42.280237" lon="12.0830558"><ele>415.0</ele><time>2026-04-30T13:38:52.607Z</time></trkpt><trkpt lat="42.2802365" lon="12.0831449"><ele>415.0</ele><time>2026-04-30T13:38:55.56Z</time></trkpt><trkpt lat="42.2802301" lon="12.0832313"><ele>415.00000000000006</ele><time>2026-04-30T13:38:58.605Z</time></trkpt><trkpt lat="42.2802247" lon="12.0833489"><ele>415.0</ele><time>2026-04-30T13:39:01.612Z</time></trkpt><trkpt lat="42.2802114" lon="12.083461"><ele>415.6666666666667</ele><time>2026-04-30T13:39:04.591Z</time></trkpt><trkpt lat="42.2802029" lon="12.0835664"><ele>416.33333333333337</ele><time>2026-04-30T13:39:07.602Z</time></trkpt><trkpt lat="42.2801901" lon="12.0836783"><ele>417.0</ele><time>2026-04-30T13:39:10.609Z</time></trkpt><trkpt lat="42.2801796" lon="12.0837898"><ele>417.66666666666663</ele><time>2026-04-30T13:39:13.61Z</time></trkpt><trkpt lat="42.2801679" lon="12.0838943"><ele>418.3333333333333</ele><time>2026-04-30T13:39:16.6Z</time></trkpt><trkpt lat="42.2801596" lon="12.0839989"><ele>419.0</ele><time>2026-04-30T13:39:19.602Z</time></trkpt><trkpt lat="42.2801481" lon="12.0841032"><ele>419.16666666666663</ele><time>2026-04-30T13:39:22.604Z</time></trkpt><trkpt lat="42.2801353" lon="12.0842117"><ele>419.3333333333333</ele><time>2026-04-30T13:39:25.61Z</time></trkpt><trkpt lat="42.2801266" lon="12.0843207"><ele>419.5</ele><time>2026-04-30T13:39:28.591Z</time></trkpt><trkpt lat="42.2801201" lon="12.0844242"><ele>419.66666666666663</ele><time>2026-04-30T13:39:31.603Z</time></trkpt><trkpt lat="42.280105" lon="12.0845304"><ele>419.8333333333333</ele><time>2026-04-30T13:39:34.606Z</time></trkpt><trkpt lat="42.2800929" lon="12.0846355"><ele>420.0</ele><time>2026-04-30T13:39:37.593Z</time></trkpt><trkpt lat="42.2800791" lon="12.0847449"><ele>420.0</ele><time>2026-04-30T13:39:40.593Z</time></trkpt><trkpt lat="42.2800637" lon="12.0848588"><ele>420.0</ele><time>2026-04-30T13:39:43.603Z</time></trkpt><trkpt lat="42.2800461" lon="12.0849666"><ele>420.0</ele><time>2026-04-30T13:39:46.598Z</time></trkpt><trkpt lat="42.2800294" lon="12.085065"><ele>420.0</ele><time>2026-04-30T13:39:49.575Z</time></trkpt><trkpt lat="42.2800123" lon="12.085164"><ele>420.0</ele><time>2026-04-30T13:39:52.603Z</time></trkpt><trkpt lat="42.2799993" lon="12.0852648"><ele>420.0</ele><time>2026-04-30T13:39:55.595Z</time></trkpt><trkpt lat="42.2799857" lon="12.0853572"><ele>420.3333333333333</ele><time>2026-04-30T13:39:58.604Z</time></trkpt><trkpt lat="42.2799684" lon="12.0854629"><ele>420.66666666666663</ele><time>2026-04-30T13:40:02.611Z</time></trkpt><trkpt lat="42.2799507" lon="12.0855501"><ele>421.0</ele><time>2026-04-30T13:40:05.593Z</time></trkpt><trkpt lat="42.2799304" lon="12.0856588"><ele>421.3333333333333</ele><time>2026-04-30T13:40:09.594Z</time></trkpt><trkpt lat="42.2799078" lon="12.0857643"><ele>421.66666666666663</ele><time>2026-04-30T13:40:13.593Z</time></trkpt><trkpt lat="42.279885" lon="12.0858687"><ele>422.0</ele><time>2026-04-30T13:40:17.605Z</time></trkpt><trkpt lat="42.2798724" lon="12.0859684"><ele>422.42857142857144</ele><time>2026-04-30T13:40:21.615Z</time></trkpt><trkpt lat="42.2798536" lon="12.0860554"><ele>422.8571428571429</ele><time>2026-04-30T13:40:24.613Z</time></trkpt><trkpt lat="42.2798322" lon="12.0861357"><ele>423.2857142857143</ele><time>2026-04-30T13:40:27.596Z</time></trkpt><trkpt lat="42.279827" lon="12.0862394"><ele>423.7142857142857</ele><time>2026-04-30T13:40:31.611Z</time></trkpt><trkpt lat="42.2798069" lon="12.0863231"><ele>424.1428571428571</ele><time>2026-04-30T13:40:34.594Z</time></trkpt><trkpt lat="42.2797911" lon="12.0864176"><ele>424.57142857142856</ele><time>2026-04-30T13:40:39.616Z</time></trkpt><trkpt lat="42.2797805" lon="12.086514"><ele>425.0</ele><time>2026-04-30T13:40:45.601Z</time></trkpt><trkpt lat="42.2797523" lon="12.086603"><ele>425.8333333333333</ele><time>2026-04-30T13:40:50.611Z</time></trkpt><trkpt lat="42.2797321" lon="12.0867125"><ele>426.66666666666663</ele><time>2026-04-30T13:40:54.602Z</time></trkpt><trkpt lat="42.2797227" lon="12.0868071"><ele>427.5</ele><time>2026-04-30T13:40:58.61Z</time></trkpt><trkpt lat="42.2796952" lon="12.0869131"><ele>428.33333333333337</ele><time>2026-04-30T13:41:02.605Z</time></trkpt><trkpt lat="42.279672" lon="12.0870271"><ele>429.1666666666667</ele><time>2026-04-30T13:41:05.616Z</time></trkpt><trkpt lat="42.2796607" lon="12.0871171"><ele>430.0</ele><time>2026-04-30T13:41:07.596Z</time></trkpt><trkpt lat="42.2796382" lon="12.0872199"><ele>430.00000000000006</ele><time>2026-04-30T13:41:09.6Z</time></trkpt><trkpt lat="42.279599" lon="12.0873422"><ele>430.0</ele><time>2026-04-30T13:41:11.603Z</time></trkpt><trkpt lat="42.2795474" lon="12.0874908"><ele>430.0</ele><time>2026-04-30T13:41:13.601Z</time></trkpt><trkpt lat="42.2795175" lon="12.0875717"><ele>430.0</ele><time>2026-04-30T13:41:14.616Z</time></trkpt><trkpt lat="42.2794915" lon="12.0876549"><ele>430.00000000000006</ele><time>2026-04-30T13:41:15.616Z</time></trkpt><trkpt lat="42.2794638" lon="12.0877406"><ele>430.0</ele><time>2026-04-30T13:41:16.605Z</time></trkpt><trkpt lat="42.2794366" lon="12.0878268"><ele>429.85714285714283</ele><time>2026-04-30T13:41:17.594Z</time></trkpt><trkpt lat="42.2794068" lon="12.087912"><ele>429.7142857142857</ele><time>2026-04-30T13:41:18.619Z</time></trkpt><trkpt lat="42.2793781" lon="12.0879968"><ele>429.57142857142856</ele><time>2026-04-30T13:41:19.593Z</time></trkpt><trkpt lat="42.2793531" lon="12.0880822"><ele>429.42857142857144</ele><time>2026-04-30T13:41:20.656Z</time></trkpt><trkpt lat="42.2793297" lon="12.0881676"><ele>429.28571428571433</ele><time>2026-04-30T13:41:21.626Z</time></trkpt><trkpt lat="42.2793061" lon="12.0882524"><ele>429.14285714285717</ele><time>2026-04-30T13:41:22.628Z</time></trkpt><trkpt lat="42.2792814" lon="12.0883331"><ele>429.0</ele><time>2026-04-30T13:41:23.599Z</time></trkpt><trkpt lat="42.279256" lon="12.0884139"><ele>428.57142857142856</ele><time>2026-04-30T13:41:24.586Z</time></trkpt><trkpt lat="42.2792298" lon="12.0884933"><ele>428.14285714285717</ele><time>2026-04-30T13:41:25.588Z</time></trkpt><trkpt lat="42.2792048" lon="12.0885725"><ele>427.71428571428567</ele><time>2026-04-30T13:41:26.617Z</time></trkpt><trkpt lat="42.2791774" lon="12.0886576"><ele>427.2857142857143</ele><time>2026-04-30T13:41:27.603Z</time></trkpt><trkpt lat="42.2791515" lon="12.0887399"><ele>426.85714285714283</ele><time>2026-04-30T13:41:28.611Z</time></trkpt><trkpt lat="42.2791241" lon="12.0888237"><ele>426.4285714285714</ele><time>2026-04-30T13:41:29.61Z</time></trkpt><trkpt lat="42.279099" lon="12.0889069"><ele>426.0</ele><time>2026-04-30T13:41:30.612Z</time></trkpt><trkpt lat="42.2790489" lon="12.0890644"><ele>425.6</ele><time>2026-04-30T13:41:32.594Z</time></trkpt><trkpt lat="42.279019" lon="12.0891454"><ele>425.20000000000005</ele><time>2026-04-30T13:41:33.606Z</time></trkpt><trkpt lat="42.2789761" lon="12.0892919"><ele>424.79999999999995</ele><time>2026-04-30T13:41:35.605Z</time></trkpt><trkpt lat="42.278928" lon="12.0894362"><ele>424.4</ele><time>2026-04-30T13:41:37.617Z</time></trkpt><trkpt lat="42.278884" lon="12.0895663"><ele>424.0</ele><time>2026-04-30T13:41:39.606Z</time></trkpt><trkpt lat="42.2788387" lon="12.0896831"><ele>423.50000000000006</ele><time>2026-04-30T13:41:41.595Z</time></trkpt><trkpt lat="42.2787974" lon="12.0897974"><ele>423.0</ele><time>2026-04-30T13:41:43.595Z</time></trkpt><trkpt lat="42.2787492" lon="12.089903"><ele>422.5</ele><time>2026-04-30T13:41:45.613Z</time></trkpt><trkpt lat="42.2787025" lon="12.0899986"><ele>422.0</ele><time>2026-04-30T13:41:47.575Z</time></trkpt><trkpt lat="42.2786593" lon="12.0900828"><ele>421.50000000000006</ele><time>2026-04-30T13:41:49.591Z</time></trkpt><trkpt lat="42.2786203" lon="12.0901658"><ele>421.0</ele><time>2026-04-30T13:41:51.594Z</time></trkpt><trkpt lat="42.2785825" lon="12.0902477"><ele>421.8571428571429</ele><time>2026-04-30T13:41:53.59Z</time></trkpt><trkpt lat="42.2785514" lon="12.0903306"><ele>422.7142857142857</ele><time>2026-04-30T13:41:55.585Z</time></trkpt><trkpt lat="42.2785243" lon="12.0904185"><ele>423.57142857142856</ele><time>2026-04-30T13:41:57.599Z</time></trkpt><trkpt lat="42.2784961" lon="12.0905032"><ele>424.42857142857144</ele><time>2026-04-30T13:41:59.591Z</time></trkpt><trkpt lat="42.278467" lon="12.0905885"><ele>425.2857142857143</ele><time>2026-04-30T13:42:01.595Z</time></trkpt><trkpt lat="42.2784414" lon="12.0906665"><ele>426.14285714285717</ele><time>2026-04-30T13:42:03.603Z</time></trkpt><trkpt lat="42.2784045" lon="12.0907599"><ele>427.0</ele><time>2026-04-30T13:42:06.602Z</time></trkpt><trkpt lat="42.2783775" lon="12.0908533"><ele>428.0</ele><time>2026-04-30T13:42:09.597Z</time></trkpt><trkpt lat="42.2783456" lon="12.0909479"><ele>429.0</ele><time>2026-04-30T13:42:14.597Z</time></trkpt><trkpt lat="42.2783162" lon="12.0910403"><ele>430.0</ele><time>2026-04-30T13:42:18.614Z</time></trkpt><trkpt lat="42.278287" lon="12.0911253"><ele>431.0</ele><time>2026-04-30T13:42:21.608Z</time></trkpt><trkpt lat="42.2782562" lon="12.0912247"><ele>432.0</ele><time>2026-04-30T13:42:25.59Z</time></trkpt><trkpt lat="42.2782233" lon="12.0913269"><ele>433.0</ele><time>2026-04-30T13:42:29.586Z</time></trkpt><trkpt lat="42.2781968" lon="12.0914044"><ele>434.0</ele><time>2026-04-30T13:42:32.623Z</time></trkpt><trkpt lat="42.2781711" lon="12.0915039"><ele>434.14285714285717</ele><time>2026-04-30T13:42:36.603Z</time></trkpt><trkpt lat="42.2781401" lon="12.091606"><ele>434.2857142857143</ele><time>2026-04-30T13:42:40.605Z</time></trkpt><trkpt lat="42.2781156" lon="12.0916872"><ele>434.42857142857144</ele><time>2026-04-30T13:42:43.592Z</time></trkpt><trkpt lat="42.2780844" lon="12.091774"><ele>434.57142857142856</ele><time>2026-04-30T13:42:46.593Z</time></trkpt><trkpt lat="42.2780553" lon="12.0918656"><ele>434.7142857142857</ele><time>2026-04-30T13:42:49.601Z</time></trkpt><trkpt lat="42.2780186" lon="12.0919573"><ele>434.8571428571429</ele><time>2026-04-30T13:42:52.594Z</time></trkpt><trkpt lat="42.277988" lon="12.0920436"><ele>435.0</ele><time>2026-04-30T13:42:55.592Z</time></trkpt><trkpt lat="42.2779551" lon="12.0921401"><ele>435.00000000000006</ele><time>2026-04-30T13:42:59.598Z</time></trkpt><trkpt lat="42.2779295" lon="12.0922184"><ele>435.0</ele><time>2026-04-30T13:43:02.589Z</time></trkpt><trkpt lat="42.2779075" lon="12.0923004"><ele>435.0</ele><time>2026-04-30T13:43:05.597Z</time></trkpt><trkpt lat="42.2778828" lon="12.0923902"><ele>435.0</ele><time>2026-04-30T13:43:08.595Z</time></trkpt><trkpt lat="42.2778612" lon="12.0924798"><ele>435.0</ele><time>2026-04-30T13:43:11.605Z</time></trkpt><trkpt lat="42.2778441" lon="12.0925627"><ele>435.00000000000006</ele><time>2026-04-30T13:43:14.576Z</time></trkpt><trkpt lat="42.2778229" lon="12.0926725"><ele>435.0</ele><time>2026-04-30T13:43:18.587Z</time></trkpt><trkpt lat="42.2777973" lon="12.0927802"><ele>435.7142857142857</ele><time>2026-04-30T13:43:22.618Z</time></trkpt><trkpt lat="42.2777751" lon="12.0928665"><ele>436.42857142857144</ele><time>2026-04-30T13:43:25.59Z</time></trkpt><trkpt lat="42.2777542" lon="12.0929532"><ele>437.1428571428571</ele><time>2026-04-30T13:43:28.582Z</time></trkpt><trkpt lat="42.2777302" lon="12.0930564"><ele>437.8571428571429</ele><time>2026-04-30T13:43:32.6Z</time></trkpt><trkpt lat="42.2777062" lon="12.0931651"><ele>438.57142857142856</ele><time>2026-04-30T13:43:36.683Z</time></trkpt><trkpt lat="42.2776837" lon="12.0932488"><ele>439.2857142857143</ele><time>2026-04-30T13:43:39.6Z</time></trkpt><trkpt lat="42.2776676" lon="12.0933326"><ele>440.0</ele><time>2026-04-30T13:43:42.605Z</time></trkpt><trkpt lat="42.277641" lon="12.093426"><ele>440.4285714285714</ele><time>2026-04-30T13:43:45.585Z</time></trkpt><trkpt lat="42.2776236" lon="12.093514"><ele>440.85714285714283</ele><time>2026-04-30T13:43:48.615Z</time></trkpt><trkpt lat="42.2776001" lon="12.0936006"><ele>441.2857142857143</ele><time>2026-04-30T13:43:51.604Z</time></trkpt><trkpt lat="42.2775792" lon="12.0937057"><ele>441.71428571428567</ele><time>2026-04-30T13:43:55.61Z</time></trkpt><trkpt lat="42.2775579" lon="12.0937901"><ele>442.14285714285717</ele><time>2026-04-30T13:43:58.606Z</time></trkpt><trkpt lat="42.2775346" lon="12.0938789"><ele>442.57142857142856</ele><time>2026-04-30T13:44:01.593Z</time></trkpt><trkpt lat="42.2775118" lon="12.0939714"><ele>443.0</ele><time>2026-04-30T13:44:04.625Z</time></trkpt><trkpt lat="42.2774921" lon="12.0940582"><ele>443.2857142857143</ele><time>2026-04-30T13:44:07.59Z</time></trkpt><trkpt lat="42.2774666" lon="12.0941691"><ele>443.57142857142856</ele><time>2026-04-30T13:44:11.601Z</time></trkpt><trkpt lat="42.2774496" lon="12.0942545"><ele>443.8571428571429</ele><time>2026-04-30T13:44:14.591Z</time></trkpt><trkpt lat="42.2774276" lon="12.0943438"><ele>444.1428571428571</ele><time>2026-04-30T13:44:17.591Z</time></trkpt><trkpt lat="42.2774055" lon="12.0944265"><ele>444.4285714285714</ele><time>2026-04-30T13:44:20.602Z</time></trkpt><trkpt lat="42.2773861" lon="12.0945088"><ele>444.7142857142857</ele><time>2026-04-30T13:44:23.593Z</time></trkpt><trkpt lat="42.2773645" lon="12.094594"><ele>445.0</ele><time>2026-04-30T13:44:26.6Z</time></trkpt><trkpt lat="42.2773412" lon="12.0946788"><ele>445.0</ele><time>2026-04-30T13:44:29.59Z</time></trkpt><trkpt lat="42.2773208" lon="12.0947709"><ele>445.0</ele><time>2026-04-30T13:44:32.598Z</time></trkpt><trkpt lat="42.277297" lon="12.0948557"><ele>445.0</ele><time>2026-04-30T13:44:35.591Z</time></trkpt><trkpt lat="42.2772758" lon="12.0949613"><ele>445.0</ele><time>2026-04-30T13:44:39.583Z</time></trkpt><trkpt lat="42.2772533" lon="12.0950649"><ele>445.0</ele><time>2026-04-30T13:44:43.598Z</time></trkpt><trkpt lat="42.2772255" lon="12.0951711"><ele>445.0</ele><time>2026-04-30T13:44:47.602Z</time></trkpt><trkpt lat="42.2772066" lon="12.0952541"><ele>445.0</ele><time>2026-04-30T13:44:50.595Z</time></trkpt><trkpt lat="42.2771854" lon="12.0953371"><ele>445.1666666666667</ele><time>2026-04-30T13:44:53.592Z</time></trkpt><trkpt lat="42.277167" lon="12.0954252"><ele>445.33333333333337</ele><time>2026-04-30T13:44:56.596Z</time></trkpt><trkpt lat="42.2771507" lon="12.095516"><ele>445.5</ele><time>2026-04-30T13:44:59.595Z</time></trkpt><trkpt lat="42.2771403" lon="12.0956283"><ele>445.66666666666663</ele><time>2026-04-30T13:45:03.6Z</time></trkpt><trkpt lat="42.2771348" lon="12.0957398"><ele>445.8333333333333</ele><time>2026-04-30T13:45:07.603Z</time></trkpt><trkpt lat="42.2771315" lon="12.0958262"><ele>446.0</ele><time>2026-04-30T13:45:10.595Z</time></trkpt><trkpt lat="42.2771313" lon="12.0959388"><ele>446.1428571428571</ele><time>2026-04-30T13:45:14.623Z</time></trkpt><trkpt lat="42.2771353" lon="12.0960477"><ele>446.2857142857143</ele><time>2026-04-30T13:45:18.615Z</time></trkpt><trkpt lat="42.2771416" lon="12.096137"><ele>446.42857142857144</ele><time>2026-04-30T13:45:21.59Z</time></trkpt><trkpt lat="42.2771513" lon="12.0962235"><ele>446.57142857142856</ele><time>2026-04-30T13:45:24.602Z</time></trkpt><trkpt lat="42.2771567" lon="12.0963103"><ele>446.7142857142857</ele><time>2026-04-30T13:45:27.596Z</time></trkpt><trkpt lat="42.2771674" lon="12.0963985"><ele>446.85714285714283</ele><time>2026-04-30T13:45:30.596Z</time></trkpt><trkpt lat="42.2771745" lon="12.0964907"><ele>447.0</ele><time>2026-04-30T13:45:33.569Z</time></trkpt><trkpt lat="42.2771797" lon="12.0965773"><ele>446.71428571428567</ele><time>2026-04-30T13:45:36.595Z</time></trkpt><trkpt lat="42.277189" lon="12.0966714"><ele>446.42857142857144</ele><time>2026-04-30T13:45:39.595Z</time></trkpt><trkpt lat="42.2771994" lon="12.0967585"><ele>446.1428571428571</ele><time>2026-04-30T13:45:42.602Z</time></trkpt><trkpt lat="42.277205" lon="12.0968455"><ele>445.85714285714283</ele><time>2026-04-30T13:45:45.613Z</time></trkpt><trkpt lat="42.2772112" lon="12.0969369"><ele>445.57142857142856</ele><time>2026-04-30T13:45:48.615Z</time></trkpt><trkpt lat="42.2772214" lon="12.097025"><ele>445.2857142857143</ele><time>2026-04-30T13:45:51.608Z</time></trkpt><trkpt lat="42.2772328" lon="12.097134"><ele>445.0</ele><time>2026-04-30T13:45:54.59Z</time></trkpt><trkpt lat="42.2772373" lon="12.0972481"><ele>445.00000000000006</ele><time>2026-04-30T13:45:57.558Z</time></trkpt><trkpt lat="42.2772464" lon="12.0973672"><ele>445.0</ele><time>2026-04-30T13:46:00.608Z</time></trkpt><trkpt lat="42.2772543" lon="12.0974822"><ele>445.0</ele><time>2026-04-30T13:46:03.606Z</time></trkpt><trkpt lat="42.2772656" lon="12.0976029"><ele>445.0</ele><time>2026-04-30T13:46:06.604Z</time></trkpt><trkpt lat="42.2772721" lon="12.0977167"><ele>445.00000000000006</ele><time>2026-04-30T13:46:09.614Z</time></trkpt><trkpt lat="42.2772842" lon="12.0978421"><ele>445.0</ele><time>2026-04-30T13:46:12.6Z</time></trkpt><trkpt lat="42.2772892" lon="12.0979327"><ele>446.0</ele><time>2026-04-30T13:46:14.596Z</time></trkpt><trkpt lat="42.2772934" lon="12.0980245"><ele>447.0</ele><time>2026-04-30T13:46:16.601Z</time></trkpt><trkpt lat="42.2773012" lon="12.0981186"><ele>448.0</ele><time>2026-04-30T13:46:18.586Z</time></trkpt><trkpt lat="42.2773089" lon="12.0982072"><ele>449.0</ele><time>2026-04-30T13:46:20.594Z</time></trkpt><trkpt lat="42.2773105" lon="12.0982946"><ele>450.0</ele><time>2026-04-30T13:46:22.607Z</time></trkpt><trkpt lat="42.2773158" lon="12.0984195"><ele>451.0</ele><time>2026-04-30T13:46:25.599Z</time></trkpt><trkpt lat="42.2773231" lon="12.0985046"><ele>452.0</ele><time>2026-04-30T13:46:27.569Z</time></trkpt><trkpt lat="42.2773343" lon="12.0986317"><ele>451.99999999999994</ele><time>2026-04-30T13:46:30.615Z</time></trkpt><trkpt lat="42.2773349" lon="12.0987534"><ele>452.0</ele><time>2026-04-30T13:46:33.597Z</time></trkpt><trkpt lat="42.2773447" lon="12.0988715"><ele>452.0</ele><time>2026-04-30T13:46:36.609Z</time></trkpt><trkpt lat="42.2773541" lon="12.098999"><ele>452.0</ele><time>2026-04-30T13:46:39.585Z</time></trkpt><trkpt lat="42.2773631" lon="12.0991217"><ele>451.99999999999994</ele><time>2026-04-30T13:46:42.603Z</time></trkpt><trkpt lat="42.2773773" lon="12.0992047"><ele>452.0</ele><time>2026-04-30T13:46:44.591Z</time></trkpt><trkpt lat="42.2773812" lon="12.0993227"><ele>452.16666666666663</ele><time>2026-04-30T13:46:47.589Z</time></trkpt><trkpt lat="42.2773879" lon="12.099431"><ele>452.3333333333333</ele><time>2026-04-30T13:46:50.608Z</time></trkpt><trkpt lat="42.2773938" lon="12.0995438"><ele>452.5</ele><time>2026-04-30T13:46:53.596Z</time></trkpt><trkpt lat="42.2773952" lon="12.099668"><ele>452.66666666666663</ele><time>2026-04-30T13:46:56.598Z</time></trkpt><trkpt lat="42.2774056" lon="12.0997866"><ele>452.8333333333333</ele><time>2026-04-30T13:46:59.619Z</time></trkpt><trkpt lat="42.2774205" lon="12.0999109"><ele>453.0</ele><time>2026-04-30T13:47:02.596Z</time></trkpt><trkpt lat="42.2774302" lon="12.0999969"><ele>453.2857142857142</ele><time>2026-04-30T13:47:04.604Z</time></trkpt><trkpt lat="42.2774391" lon="12.1000826"><ele>453.57142857142856</ele><time>2026-04-30T13:47:06.581Z</time></trkpt><trkpt lat="42.2774528" lon="12.1001679"><ele>453.85714285714283</ele><time>2026-04-30T13:47:08.587Z</time></trkpt><trkpt lat="42.277467" lon="12.100257"><ele>454.1428571428571</ele><time>2026-04-30T13:47:10.585Z</time></trkpt><trkpt lat="42.27749" lon="12.1003538"><ele>454.42857142857144</ele><time>2026-04-30T13:47:12.611Z</time></trkpt><trkpt lat="42.2775049" lon="12.1004592"><ele>454.7142857142857</ele><time>2026-04-30T13:47:14.601Z</time></trkpt><trkpt lat="42.2775198" lon="12.1005576"><ele>455.0</ele><time>2026-04-30T13:47:16.602Z</time></trkpt><trkpt lat="42.2775393" lon="12.1006541"><ele>454.7142857142857</ele><time>2026-04-30T13:47:18.602Z</time></trkpt><trkpt lat="42.2775581" lon="12.1007516"><ele>454.42857142857144</ele><time>2026-04-30T13:47:20.598Z</time></trkpt><trkpt lat="42.277576" lon="12.1008481"><ele>454.1428571428571</ele><time>2026-04-30T13:47:22.604Z</time></trkpt><trkpt lat="42.2775899" lon="12.1009369"><ele>453.85714285714283</ele><time>2026-04-30T13:47:24.59Z</time></trkpt><trkpt lat="42.2776032" lon="12.1010323"><ele>453.57142857142856</ele><time>2026-04-30T13:47:26.605Z</time></trkpt><trkpt lat="42.2776195" lon="12.1011314"><ele>453.2857142857142</ele><time>2026-04-30T13:47:28.606Z</time></trkpt><trkpt lat="42.2776329" lon="12.1012318"><ele>452.99999999999994</ele><time>2026-04-30T13:47:30.618Z</time></trkpt><trkpt lat="42.2776451" lon="12.1013322"><ele>452.99999999999994</ele><time>2026-04-30T13:47:32.599Z</time></trkpt><trkpt lat="42.2776594" lon="12.1014304"><ele>453.0</ele><time>2026-04-30T13:47:34.598Z</time></trkpt><trkpt lat="42.2776748" lon="12.1015222"><ele>452.99999999999994</ele><time>2026-04-30T13:47:36.601Z</time></trkpt><trkpt lat="42.277689" lon="12.1016182"><ele>452.99999999999994</ele><time>2026-04-30T13:47:38.606Z</time></trkpt><trkpt lat="42.2777064" lon="12.1017182"><ele>453.0</ele><time>2026-04-30T13:47:40.639Z</time></trkpt><trkpt lat="42.2777208" lon="12.101814"><ele>452.99999999999994</ele><time>2026-04-30T13:47:42.624Z</time></trkpt><trkpt lat="42.2777364" lon="12.1019169"><ele>452.99999999999994</ele><time>2026-04-30T13:47:44.597Z</time></trkpt><trkpt lat="42.2777523" lon="12.1020144"><ele>452.8333333333333</ele><time>2026-04-30T13:47:46.583Z</time></trkpt><trkpt lat="42.2777692" lon="12.1021202"><ele>452.66666666666663</ele><time>2026-04-30T13:47:48.601Z</time></trkpt><trkpt lat="42.2777786" lon="12.1022134"><ele>452.5</ele><time>2026-04-30T13:47:50.602Z</time></trkpt><trkpt lat="42.277801" lon="12.1023409"><ele>452.3333333333333</ele><time>2026-04-30T13:47:53.596Z</time></trkpt><trkpt lat="42.2778169" lon="12.1024339"><ele>452.16666666666663</ele><time>2026-04-30T13:47:55.596Z</time></trkpt><trkpt lat="42.2778298" lon="12.1025343"><ele>452.0</ele><time>2026-04-30T13:47:57.6Z</time></trkpt><trkpt lat="42.2778523" lon="12.1026273"><ele>451.99999999999994</ele><time>2026-04-30T13:47:59.604Z</time></trkpt><trkpt lat="42.2778665" lon="12.1027219"><ele>452.0</ele><time>2026-04-30T13:48:01.591Z</time></trkpt><trkpt lat="42.2778852" lon="12.1028149"><ele>452.0</ele><time>2026-04-30T13:48:03.599Z</time></trkpt><trkpt lat="42.2778979" lon="12.1029161"><ele>452.0</ele><time>2026-04-30T13:48:05.603Z</time></trkpt><trkpt lat="42.2779077" lon="12.1030159"><ele>451.99999999999994</ele><time>2026-04-30T13:48:07.612Z</time></trkpt><trkpt lat="42.2779218" lon="12.1031295"><ele>452.0</ele><time>2026-04-30T13:48:09.586Z</time></trkpt><trkpt lat="42.2779384" lon="12.1032489"><ele>451.49999999999994</ele><time>2026-04-30T13:48:11.564Z</time></trkpt><trkpt lat="42.2779581" lon="12.1033575"><ele>451.0</ele><time>2026-04-30T13:48:13.59Z</time></trkpt><trkpt lat="42.2779751" lon="12.1034818"><ele>450.5</ele><time>2026-04-30T13:48:15.599Z</time></trkpt><trkpt lat="42.2779941" lon="12.1035901"><ele>450.0</ele><time>2026-04-30T13:48:17.59Z</time></trkpt><trkpt lat="42.278008" lon="12.1036962"><ele>449.49999999999994</ele><time>2026-04-30T13:48:19.589Z</time></trkpt><trkpt lat="42.2780191" lon="12.1038119"><ele>449.0</ele><time>2026-04-30T13:48:21.585Z</time></trkpt><trkpt lat="42.2780287" lon="12.1039182"><ele>448.99999999999994</ele><time>2026-04-30T13:48:23.582Z</time></trkpt><trkpt lat="42.2780414" lon="12.1040311"><ele>449.0</ele><time>2026-04-30T13:48:25.6Z</time></trkpt><trkpt lat="42.2780577" lon="12.104144"><ele>449.0</ele><time>2026-04-30T13:48:27.578Z</time></trkpt><trkpt lat="42.2780631" lon="12.1042474"><ele>449.0</ele><time>2026-04-30T13:48:29.596Z</time></trkpt><trkpt lat="42.2780646" lon="12.104352"><ele>448.99999999999994</ele><time>2026-04-30T13:48:31.591Z</time></trkpt><trkpt lat="42.278072" lon="12.1044613"><ele>449.0</ele><time>2026-04-30T13:48:33.598Z</time></trkpt><trkpt lat="42.278074" lon="12.1045632"><ele>449.2857142857143</ele><time>2026-04-30T13:48:35.599Z</time></trkpt><trkpt lat="42.2780766" lon="12.1046657"><ele>449.57142857142856</ele><time>2026-04-30T13:48:37.602Z</time></trkpt><trkpt lat="42.2780826" lon="12.1047616"><ele>449.85714285714283</ele><time>2026-04-30T13:48:39.584Z</time></trkpt><trkpt lat="42.278089" lon="12.1048585"><ele>450.1428571428571</ele><time>2026-04-30T13:48:41.598Z</time></trkpt><trkpt lat="42.2780945" lon="12.1049549"><ele>450.42857142857144</ele><time>2026-04-30T13:48:43.591Z</time></trkpt><trkpt lat="42.278101" lon="12.1050446"><ele>450.71428571428567</ele><time>2026-04-30T13:48:45.588Z</time></trkpt><trkpt lat="42.2781025" lon="12.1051358"><ele>451.0</ele><time>2026-04-30T13:48:47.609Z</time></trkpt><trkpt lat="42.2781051" lon="12.1052209"><ele>451.33333333333337</ele><time>2026-04-30T13:48:49.603Z</time></trkpt><trkpt lat="42.2781106" lon="12.1053468"><ele>451.6666666666667</ele><time>2026-04-30T13:48:52.595Z</time></trkpt><trkpt lat="42.2781157" lon="12.1054658"><ele>452.0</ele><time>2026-04-30T13:48:55.602Z</time></trkpt><trkpt lat="42.2781173" lon="12.1055892"><ele>452.33333333333337</ele><time>2026-04-30T13:48:58.61Z</time></trkpt><trkpt lat="42.2781138" lon="12.105717"><ele>452.6666666666667</ele><time>2026-04-30T13:49:01.615Z</time></trkpt><trkpt lat="42.2781179" lon="12.1058079"><ele>453.0</ele><time>2026-04-30T13:49:03.604Z</time></trkpt><trkpt lat="42.2781258" lon="12.1059064"><ele>453.0</ele><time>2026-04-30T13:49:05.621Z</time></trkpt><trkpt lat="42.2781297" lon="12.1060134"><ele>453.0</ele><time>2026-04-30T13:49:07.587Z</time></trkpt><trkpt lat="42.278139" lon="12.1061252"><ele>453.0</ele><time>2026-04-30T13:49:09.598Z</time></trkpt><trkpt lat="42.2781494" lon="12.1062691"><ele>453.0</ele><time>2026-04-30T13:49:11.607Z</time></trkpt><trkpt lat="42.2781537" lon="12.1063557"><ele>453.0</ele><time>2026-04-30T13:49:12.596Z</time></trkpt><trkpt lat="42.2781545" lon="12.1064473"><ele>453.0</ele><time>2026-04-30T13:49:13.583Z</time></trkpt><trkpt lat="42.2781563" lon="12.1065477"><ele>451.79999999999995</ele><time>2026-04-30T13:49:14.602Z</time></trkpt><trkpt lat="42.2781645" lon="12.1066614"><ele>450.59999999999997</ele><time>2026-04-30T13:49:15.596Z</time></trkpt><trkpt lat="42.2781761" lon="12.106794"><ele>449.40000000000003</ele><time>2026-04-30T13:49:16.593Z</time></trkpt><trkpt lat="42.2781836" lon="12.1069434"><ele>448.20000000000005</ele><time>2026-04-30T13:49:17.582Z</time></trkpt><trkpt lat="42.2781876" lon="12.1071048"><ele>447.0</ele><time>2026-04-30T13:49:18.609Z</time></trkpt><trkpt lat="42.2781894" lon="12.1072752"><ele>445.0</ele><time>2026-04-30T13:49:19.61Z</time></trkpt><trkpt lat="42.2781937" lon="12.1074407"><ele>443.0</ele><time>2026-04-30T13:49:20.613Z</time></trkpt><trkpt lat="42.2781988" lon="12.1076134"><ele>441.0</ele><time>2026-04-30T13:49:21.614Z</time></trkpt><trkpt lat="42.2782156" lon="12.1077864"><ele>439.0</ele><time>2026-04-30T13:49:22.616Z</time></trkpt><trkpt lat="42.2782451" lon="12.1079476"><ele>439.0</ele><time>2026-04-30T13:49:23.588Z</time></trkpt><trkpt lat="42.2782802" lon="12.1081012"><ele>439.0</ele><time>2026-04-30T13:49:24.607Z</time></trkpt><trkpt lat="42.2783121" lon="12.1082499"><ele>439.0</ele><time>2026-04-30T13:49:25.6Z</time></trkpt><trkpt lat="42.2783401" lon="12.1083894"><ele>439.0</ele><time>2026-04-30T13:49:26.616Z</time></trkpt><trkpt lat="42.2783683" lon="12.1085256"><ele>439.0</ele><time>2026-04-30T13:49:27.617Z</time></trkpt><trkpt lat="42.2783885" lon="12.1086598"><ele>439.1666666666667</ele><time>2026-04-30T13:49:28.612Z</time></trkpt><trkpt lat="42.278408" lon="12.1087843"><ele>439.33333333333337</ele><time>2026-04-30T13:49:29.599Z</time></trkpt><trkpt lat="42.2784206" lon="12.1089026"><ele>439.5</ele><time>2026-04-30T13:49:30.603Z</time></trkpt><trkpt lat="42.2784327" lon="12.1090193"><ele>439.66666666666663</ele><time>2026-04-30T13:49:31.606Z</time></trkpt><trkpt lat="42.2784386" lon="12.1091239"><ele>439.8333333333333</ele><time>2026-04-30T13:49:32.603Z</time></trkpt><trkpt lat="42.2784357" lon="12.1092264"><ele>440.0</ele><time>2026-04-30T13:49:33.599Z</time></trkpt><trkpt lat="42.2784293" lon="12.1093236"><ele>440.4</ele><time>2026-04-30T13:49:34.604Z</time></trkpt><trkpt lat="42.2784038" lon="12.1094824"><ele>440.8</ele><time>2026-04-30T13:49:36.597Z</time></trkpt><trkpt lat="42.2783812" lon="12.1096288"><ele>441.20000000000005</ele><time>2026-04-30T13:49:38.606Z</time></trkpt><trkpt lat="42.2783605" lon="12.1097496"><ele>441.6</ele><time>2026-04-30T13:49:40.613Z</time></trkpt><trkpt lat="42.2783379" lon="12.1098608"><ele>442.0</ele><time>2026-04-30T13:49:42.57Z</time></trkpt><trkpt lat="42.278316" lon="12.1099652"><ele>442.33333333333337</ele><time>2026-04-30T13:49:44.615Z</time></trkpt><trkpt lat="42.2783014" lon="12.1100661"><ele>442.6666666666667</ele><time>2026-04-30T13:49:46.605Z</time></trkpt><trkpt lat="42.2782941" lon="12.1101673"><ele>443.0</ele><time>2026-04-30T13:49:48.577Z</time></trkpt><trkpt lat="42.2782895" lon="12.1102624"><ele>443.33333333333337</ele><time>2026-04-30T13:49:50.603Z</time></trkpt><trkpt lat="42.2782885" lon="12.1103617"><ele>443.6666666666667</ele><time>2026-04-30T13:49:52.595Z</time></trkpt><trkpt lat="42.2782787" lon="12.1104577"><ele>444.0</ele><time>2026-04-30T13:49:54.587Z</time></trkpt><trkpt lat="42.2782647" lon="12.1105688"><ele>444.0</ele><time>2026-04-30T13:49:56.582Z</time></trkpt><trkpt lat="42.2782474" lon="12.1106784"><ele>444.0</ele><time>2026-04-30T13:49:58.595Z</time></trkpt><trkpt lat="42.278224" lon="12.1107776"><ele>444.0</ele><time>2026-04-30T13:50:00.566Z</time></trkpt><trkpt lat="42.2781906" lon="12.1108813"><ele>444.0</ele><time>2026-04-30T13:50:02.585Z</time></trkpt><trkpt lat="42.2781543" lon="12.1109773"><ele>444.0</ele><time>2026-04-30T13:50:04.6Z</time></trkpt><trkpt lat="42.2781217" lon="12.1110693"><ele>444.0</ele><time>2026-04-30T13:50:06.596Z</time></trkpt><trkpt lat="42.2780869" lon="12.1111622"><ele>444.3333333333333</ele><time>2026-04-30T13:50:08.602Z</time></trkpt><trkpt lat="42.2780498" lon="12.1112542"><ele>444.66666666666663</ele><time>2026-04-30T13:50:10.605Z</time></trkpt><trkpt lat="42.2780121" lon="12.1113478"><ele>445.0</ele><time>2026-04-30T13:50:12.6Z</time></trkpt><trkpt lat="42.2779778" lon="12.1114456"><ele>445.3333333333333</ele><time>2026-04-30T13:50:14.6Z</time></trkpt><trkpt lat="42.2779414" lon="12.1115415"><ele>445.66666666666663</ele><time>2026-04-30T13:50:16.604Z</time></trkpt><trkpt lat="42.2779027" lon="12.1116415"><ele>446.0</ele><time>2026-04-30T13:50:18.589Z</time></trkpt><trkpt lat="42.2778716" lon="12.1117395"><ele>446.0</ele><time>2026-04-30T13:50:20.604Z</time></trkpt><trkpt lat="42.2778427" lon="12.1118258"><ele>446.0</ele><time>2026-04-30T13:50:22.589Z</time></trkpt><trkpt lat="42.2778147" lon="12.1119065"><ele>446.0</ele><time>2026-04-30T13:50:24.589Z</time></trkpt><trkpt lat="42.2777971" lon="12.1119905"><ele>446.0</ele><time>2026-04-30T13:50:26.603Z</time></trkpt><trkpt lat="42.2777555" lon="12.1120675"><ele>446.0</ele><time>2026-04-30T13:50:28.608Z</time></trkpt><trkpt lat="42.2777178" lon="12.1121444"><ele>446.0</ele><time>2026-04-30T13:50:30.62Z</time></trkpt><trkpt lat="42.2776804" lon="12.1122253"><ele>446.0</ele><time>2026-04-30T13:50:32.595Z</time></trkpt><trkpt lat="42.2776508" lon="12.1123095"><ele>446.0</ele><time>2026-04-30T13:50:34.598Z</time></trkpt><trkpt lat="42.2776206" lon="12.1123898"><ele>446.0</ele><time>2026-04-30T13:50:36.568Z</time></trkpt><trkpt lat="42.2775912" lon="12.112477"><ele>446.0</ele><time>2026-04-30T13:50:38.599Z</time></trkpt><trkpt lat="42.2775597" lon="12.1125641"><ele>446.0</ele><time>2026-04-30T13:50:40.605Z</time></trkpt><trkpt lat="42.277526" lon="12.1126533"><ele>446.0</ele><time>2026-04-30T13:50:42.606Z</time></trkpt><trkpt lat="42.2774967" lon="12.1127481"><ele>446.0</ele><time>2026-04-30T13:50:44.584Z</time></trkpt><trkpt lat="42.2774744" lon="12.1128385"><ele>446.0</ele><time>2026-04-30T13:50:46.601Z</time></trkpt><trkpt lat="42.2774614" lon="12.1129276"><ele>446.2857142857143</ele><time>2026-04-30T13:50:48.611Z</time></trkpt><trkpt lat="42.2774469" lon="12.113015"><ele>446.57142857142856</ele><time>2026-04-30T13:50:50.605Z</time></trkpt><trkpt lat="42.2774423" lon="12.1131038"><ele>446.8571428571429</ele><time>2026-04-30T13:50:52.598Z</time></trkpt><trkpt lat="42.2774343" lon="12.1131971"><ele>447.1428571428571</ele><time>2026-04-30T13:50:54.624Z</time></trkpt><trkpt lat="42.2774334" lon="12.1132917"><ele>447.42857142857144</ele><time>2026-04-30T13:50:56.599Z</time></trkpt><trkpt lat="42.2774383" lon="12.1133883"><ele>447.7142857142857</ele><time>2026-04-30T13:50:58.579Z</time></trkpt><trkpt lat="42.277455" lon="12.1134745"><ele>448.0</ele><time>2026-04-30T13:51:00.591Z</time></trkpt><trkpt lat="42.2774765" lon="12.1136008"><ele>448.1428571428571</ele><time>2026-04-30T13:51:03.589Z</time></trkpt><trkpt lat="42.2774949" lon="12.1136861"><ele>448.2857142857143</ele><time>2026-04-30T13:51:05.594Z</time></trkpt><trkpt lat="42.2775194" lon="12.1137666"><ele>448.42857142857144</ele><time>2026-04-30T13:51:07.592Z</time></trkpt><trkpt lat="42.2775451" lon="12.1138452"><ele>448.57142857142856</ele><time>2026-04-30T13:51:09.588Z</time></trkpt><trkpt lat="42.2775766" lon="12.1139249"><ele>448.71428571428567</ele><time>2026-04-30T13:51:11.609Z</time></trkpt><trkpt lat="42.2776155" lon="12.1139935"><ele>448.85714285714283</ele><time>2026-04-30T13:51:13.592Z</time></trkpt><trkpt lat="42.2776599" lon="12.1140543"><ele>449.0</ele><time>2026-04-30T13:51:15.597Z</time></trkpt><trkpt lat="42.2777022" lon="12.1141479"><ele>448.99999999999994</ele><time>2026-04-30T13:51:18.605Z</time></trkpt><trkpt lat="42.277704" lon="12.114263"><ele>449.0</ele><time>2026-04-30T13:51:21.594Z</time></trkpt><trkpt lat="42.2776642" lon="12.1143695"><ele>449.0</ele><time>2026-04-30T13:51:24.578Z</time></trkpt><trkpt lat="42.2776247" lon="12.1144718"><ele>449.0</ele><time>2026-04-30T13:51:27.583Z</time></trkpt><trkpt lat="42.2775833" lon="12.114576"><ele>448.99999999999994</ele><time>2026-04-30T13:51:30.614Z</time></trkpt><trkpt lat="42.2775466" lon="12.1146848"><ele>449.0</ele><time>2026-04-30T13:51:33.589Z</time></trkpt><trkpt lat="42.2775123" lon="12.1147868"><ele>448.99999999999994</ele><time>2026-04-30T13:51:36.586Z</time></trkpt><trkpt lat="42.277479" lon="12.11489"><ele>449.0</ele><time>2026-04-30T13:51:39.602Z</time></trkpt><trkpt lat="42.2774472" lon="12.114995"><ele>449.0</ele><time>2026-04-30T13:51:42.575Z</time></trkpt><trkpt lat="42.2774334" lon="12.1150797"><ele>449.0</ele><time>2026-04-30T13:51:45.591Z</time></trkpt><trkpt lat="42.2774079" lon="12.1151614"><ele>448.99999999999994</ele><time>2026-04-30T13:51:48.665Z</time></trkpt><trkpt lat="42.2773863" lon="12.1152656"><ele>449.0</ele><time>2026-04-30T13:51:51.598Z</time></trkpt><trkpt lat="42.2773643" lon="12.1153641"><ele>449.66666666666663</ele><time>2026-04-30T13:51:54.667Z</time></trkpt><trkpt lat="42.2773437" lon="12.1154661"><ele>450.3333333333333</ele><time>2026-04-30T13:51:57.585Z</time></trkpt><trkpt lat="42.2773215" lon="12.1155789"><ele>451.0</ele><time>2026-04-30T13:52:00.613Z</time></trkpt><trkpt lat="42.2772986" lon="12.1156913"><ele>451.66666666666663</ele><time>2026-04-30T13:52:03.57Z</time></trkpt><trkpt lat="42.2772778" lon="12.1158092"><ele>452.3333333333333</ele><time>2026-04-30T13:52:06.581Z</time></trkpt><trkpt lat="42.277257" lon="12.1159275"><ele>453.0</ele><time>2026-04-30T13:52:09.587Z</time></trkpt><trkpt lat="42.2772332" lon="12.1160424"><ele>452.99999999999994</ele><time>2026-04-30T13:52:12.602Z</time></trkpt><trkpt lat="42.2772084" lon="12.1161593"><ele>453.0</ele><time>2026-04-30T13:52:15.591Z</time></trkpt><trkpt lat="42.2771882" lon="12.1162404"><ele>452.99999999999994</ele><time>2026-04-30T13:52:17.601Z</time></trkpt><trkpt lat="42.2771642" lon="12.1163254"><ele>452.99999999999994</ele><time>2026-04-30T13:52:19.584Z</time></trkpt><trkpt lat="42.2771401" lon="12.1164043"><ele>453.0</ele><time>2026-04-30T13:52:21.594Z</time></trkpt><trkpt lat="42.27711" lon="12.1164831"><ele>452.99999999999994</ele><time>2026-04-30T13:52:23.617Z</time></trkpt><trkpt lat="42.2770732" lon="12.116555"><ele>452.99999999999994</ele><time>2026-04-30T13:52:25.58Z</time></trkpt><trkpt lat="42.2770355" lon="12.1166237"><ele>452.8571428571428</ele><time>2026-04-30T13:52:27.572Z</time></trkpt><trkpt lat="42.2769932" lon="12.1166934"><ele>452.71428571428567</ele><time>2026-04-30T13:52:29.593Z</time></trkpt><trkpt lat="42.2769436" lon="12.1167524"><ele>452.57142857142856</ele><time>2026-04-30T13:52:31.598Z</time></trkpt><trkpt lat="42.2768936" lon="12.1168115"><ele>452.4285714285714</ele><time>2026-04-30T13:52:33.608Z</time></trkpt><trkpt lat="42.2768397" lon="12.1168713"><ele>452.2857142857142</ele><time>2026-04-30T13:52:35.607Z</time></trkpt><trkpt lat="42.2767854" lon="12.1169548"><ele>452.14285714285717</ele><time>2026-04-30T13:52:37.598Z</time></trkpt><trkpt lat="42.276726" lon="12.1170364"><ele>452.0</ele><time>2026-04-30T13:52:39.595Z</time></trkpt><trkpt lat="42.2766589" lon="12.1171184"><ele>452.0</ele><time>2026-04-30T13:52:41.588Z</time></trkpt><trkpt lat="42.2765929" lon="12.1171979"><ele>452.00000000000006</ele><time>2026-04-30T13:52:43.578Z</time></trkpt><trkpt lat="42.2765287" lon="12.1172728"><ele>452.00000000000006</ele><time>2026-04-30T13:52:45.612Z</time></trkpt><trkpt lat="42.2764594" lon="12.1173611"><ele>452.0</ele><time>2026-04-30T13:52:47.597Z</time></trkpt><trkpt lat="42.2763885" lon="12.1174436"><ele>452.0</ele><time>2026-04-30T13:52:49.601Z</time></trkpt><trkpt lat="42.2763231" lon="12.1175251"><ele>451.99999999999994</ele><time>2026-04-30T13:52:51.602Z</time></trkpt><trkpt lat="42.2762615" lon="12.1175941"><ele>452.0</ele><time>2026-04-30T13:52:53.592Z</time></trkpt><trkpt lat="42.27621" lon="12.1176692"><ele>452.0</ele><time>2026-04-30T13:52:55.59Z</time></trkpt><trkpt lat="42.2761436" lon="12.1177561"><ele>452.0</ele><time>2026-04-30T13:52:57.587Z</time></trkpt><trkpt lat="42.2760919" lon="12.1178375"><ele>451.99999999999994</ele><time>2026-04-30T13:52:59.599Z</time></trkpt><trkpt lat="42.2760463" lon="12.1179415"><ele>452.0</ele><time>2026-04-30T13:53:01.593Z</time></trkpt><trkpt lat="42.2760258" lon="12.1180465"><ele>451.99999999999994</ele><time>2026-04-30T13:53:03.596Z</time></trkpt><trkpt lat="42.2760359" lon="12.1181533"><ele>452.0</ele><time>2026-04-30T13:53:05.582Z</time></trkpt><trkpt lat="42.2760469" lon="12.1182626"><ele>452.0</ele><time>2026-04-30T13:53:07.594Z</time></trkpt><trkpt lat="42.2760612" lon="12.1183699"><ele>452.0</ele><time>2026-04-30T13:53:09.604Z</time></trkpt><trkpt lat="42.2760802" lon="12.1184819"><ele>451.99999999999994</ele><time>2026-04-30T13:53:11.603Z</time></trkpt><trkpt lat="42.2760914" lon="12.118593"><ele>452.0</ele><time>2026-04-30T13:53:13.605Z</time></trkpt><trkpt lat="42.2760984" lon="12.1187037"><ele>451.99999999999994</ele><time>2026-04-30T13:53:15.607Z</time></trkpt><trkpt lat="42.2761012" lon="12.1188178"><ele>452.0</ele><time>2026-04-30T13:53:17.599Z</time></trkpt><trkpt lat="42.2761148" lon="12.1189203"><ele>452.0</ele><time>2026-04-30T13:53:19.592Z</time></trkpt><trkpt lat="42.2761322" lon="12.1190158"><ele>452.0</ele><time>2026-04-30T13:53:21.611Z</time></trkpt><trkpt lat="42.2761464" lon="12.1191148"><ele>451.99999999999994</ele><time>2026-04-30T13:53:23.601Z</time></trkpt><trkpt lat="42.2761534" lon="12.1192215"><ele>452.0</ele><time>2026-04-30T13:53:25.606Z</time></trkpt><trkpt lat="42.2761663" lon="12.1193182"><ele>452.28571428571433</ele><time>2026-04-30T13:53:27.606Z</time></trkpt><trkpt lat="42.2761805" lon="12.1194084"><ele>452.57142857142856</ele><time>2026-04-30T13:53:29.606Z</time></trkpt><trkpt lat="42.2761951" lon="12.1194999"><ele>452.8571428571429</ele><time>2026-04-30T13:53:31.589Z</time></trkpt><trkpt lat="42.2762177" lon="12.1195913"><ele>453.14285714285717</ele><time>2026-04-30T13:53:33.602Z</time></trkpt><trkpt lat="42.2762512" lon="12.1196814"><ele>453.42857142857144</ele><time>2026-04-30T13:53:35.589Z</time></trkpt><trkpt lat="42.2762589" lon="12.1197691"><ele>453.7142857142857</ele><time>2026-04-30T13:53:37.605Z</time></trkpt><trkpt lat="42.276267" lon="12.1198603"><ele>454.0</ele><time>2026-04-30T13:53:39.593Z</time></trkpt><trkpt lat="42.2762791" lon="12.1199526"><ele>454.0</ele><time>2026-04-30T13:53:41.588Z</time></trkpt><trkpt lat="42.2762923" lon="12.1200386"><ele>454.00000000000006</ele><time>2026-04-30T13:53:43.613Z</time></trkpt><trkpt lat="42.2763059" lon="12.1201256"><ele>454.0</ele><time>2026-04-30T13:53:45.608Z</time></trkpt><trkpt lat="42.2763197" lon="12.1202113"><ele>454.0</ele><time>2026-04-30T13:53:47.606Z</time></trkpt><trkpt lat="42.2763378" lon="12.1202978"><ele>454.00000000000006</ele><time>2026-04-30T13:53:49.604Z</time></trkpt><trkpt lat="42.2763646" lon="12.1204175"><ele>454.0</ele><time>2026-04-30T13:53:52.589Z</time></trkpt><trkpt lat="42.2763935" lon="12.1205333"><ele>454.0</ele><time>2026-04-30T13:53:55.592Z</time></trkpt><trkpt lat="42.2764266" lon="12.1206481"><ele>454.1666666666667</ele><time>2026-04-30T13:53:58.616Z</time></trkpt><trkpt lat="42.2764516" lon="12.1207653"><ele>454.33333333333337</ele><time>2026-04-30T13:54:01.603Z</time></trkpt><trkpt lat="42.276472" lon="12.1208772"><ele>454.5</ele><time>2026-04-30T13:54:04.597Z</time></trkpt><trkpt lat="42.2764874" lon="12.1209888"><ele>454.66666666666663</ele><time>2026-04-30T13:54:07.589Z</time></trkpt><trkpt lat="42.2764536" lon="12.121061"><ele>454.8333333333333</ele><time>2026-04-30T13:54:30.567Z</time></trkpt><trkpt lat="42.2765151" lon="12.1210379"><ele>455.0</ele><time>2026-04-30T13:54:55.573Z</time></trkpt><trkpt lat="42.2764946" lon="12.1211423"><ele>454.99999999999994</ele><time>2026-04-30T13:54:59.581Z</time></trkpt><trkpt lat="42.2764389" lon="12.1212202"><ele>455.0</ele><time>2026-04-30T13:55:02.572Z</time></trkpt><trkpt lat="42.2763839" lon="12.1213147"><ele>455.0</ele><time>2026-04-30T13:55:05.609Z</time></trkpt><trkpt lat="42.2763199" lon="12.1214005"><ele>455.0</ele><time>2026-04-30T13:55:08.589Z</time></trkpt><trkpt lat="42.2762602" lon="12.1214826"><ele>454.99999999999994</ele><time>2026-04-30T13:55:11.595Z</time></trkpt><trkpt lat="42.2762402" lon="12.1216001"><ele>455.0</ele><time>2026-04-30T13:55:14.622Z</time></trkpt><trkpt lat="42.2762904" lon="12.1216674"><ele>455.1428571428571</ele><time>2026-04-30T13:55:16.596Z</time></trkpt><trkpt lat="42.2763491" lon="12.1217269"><ele>455.2857142857143</ele><time>2026-04-30T13:55:18.603Z</time></trkpt><trkpt lat="42.2763981" lon="12.1217874"><ele>455.42857142857144</ele><time>2026-04-30T13:55:20.613Z</time></trkpt><trkpt lat="42.2764556" lon="12.1218523"><ele>455.57142857142856</ele><time>2026-04-30T13:55:22.6Z</time></trkpt><trkpt lat="42.2765099" lon="12.1219188"><ele>455.71428571428567</ele><time>2026-04-30T13:55:24.621Z</time></trkpt><trkpt lat="42.2765625" lon="12.1219889"><ele>455.85714285714283</ele><time>2026-04-30T13:55:26.603Z</time></trkpt><trkpt lat="42.2766104" lon="12.1220693"><ele>456.0</ele><time>2026-04-30T13:55:28.585Z</time></trkpt><trkpt lat="42.2766506" lon="12.1221516"><ele>456.0</ele><time>2026-04-30T13:55:30.605Z</time></trkpt><trkpt lat="42.2766754" lon="12.1222574"><ele>456.0</ele><time>2026-04-30T13:55:32.597Z</time></trkpt><trkpt lat="42.2766876" lon="12.1223647"><ele>456.0</ele><time>2026-04-30T13:55:34.604Z</time></trkpt><trkpt lat="42.2766911" lon="12.1224787"><ele>456.0</ele><time>2026-04-30T13:55:36.614Z</time></trkpt><trkpt lat="42.27668" lon="12.122597"><ele>456.0</ele><time>2026-04-30T13:55:38.6Z</time></trkpt><trkpt lat="42.2766788" lon="12.1227127"><ele>456.0</ele><time>2026-04-30T13:55:40.599Z</time></trkpt><trkpt lat="42.2766778" lon="12.1228253"><ele>456.1666666666667</ele><time>2026-04-30T13:55:42.601Z</time></trkpt><trkpt lat="42.2766891" lon="12.1229358"><ele>456.33333333333337</ele><time>2026-04-30T13:55:44.597Z</time></trkpt><trkpt lat="42.2767161" lon="12.1230387"><ele>456.5</ele><time>2026-04-30T13:55:46.601Z</time></trkpt><trkpt lat="42.2767688" lon="12.1231206"><ele>456.6666666666667</ele><time>2026-04-30T13:55:48.608Z</time></trkpt><trkpt lat="42.2768336" lon="12.1231869"><ele>456.83333333333337</ele><time>2026-04-30T13:55:50.601Z</time></trkpt><trkpt lat="42.2768991" lon="12.1232346"><ele>457.0</ele><time>2026-04-30T13:55:52.617Z</time></trkpt><trkpt lat="42.2769679" lon="12.1233071"><ele>457.00000000000006</ele><time>2026-04-30T13:55:54.608Z</time></trkpt><trkpt lat="42.2770417" lon="12.1233735"><ele>457.0</ele><time>2026-04-30T13:55:56.609Z</time></trkpt><trkpt lat="42.2771074" lon="12.1234384"><ele>457.0</ele><time>2026-04-30T13:55:58.612Z</time></trkpt><trkpt lat="42.2771656" lon="12.1234985"><ele>457.0</ele><time>2026-04-30T13:56:00.583Z</time></trkpt><trkpt lat="42.2772209" lon="12.1235535"><ele>457.00000000000006</ele><time>2026-04-30T13:56:02.612Z</time></trkpt><trkpt lat="42.2772786" lon="12.1236106"><ele>457.0</ele><time>2026-04-30T13:56:04.594Z</time></trkpt><trkpt lat="42.2773322" lon="12.1236758"><ele>457.4285714285715</ele><time>2026-04-30T13:56:06.599Z</time></trkpt><trkpt lat="42.2773846" lon="12.123734"><ele>457.8571428571429</ele><time>2026-04-30T13:56:08.6Z</time></trkpt><trkpt lat="42.277434" lon="12.123795"><ele>458.2857142857143</ele><time>2026-04-30T13:56:10.607Z</time></trkpt><trkpt lat="42.2774797" lon="12.1238602"><ele>458.7142857142857</ele><time>2026-04-30T13:56:12.598Z</time></trkpt><trkpt lat="42.277515" lon="12.1239407"><ele>459.1428571428571</ele><time>2026-04-30T13:56:14.6Z</time></trkpt><trkpt lat="42.2775524" lon="12.1240228"><ele>459.5714285714285</ele><time>2026-04-30T13:56:16.617Z</time></trkpt><trkpt lat="42.2775875" lon="12.1241134"><ele>459.99999999999994</ele><time>2026-04-30T13:56:18.61Z</time></trkpt><trkpt lat="42.2776153" lon="12.1241999"><ele>460.6666666666667</ele><time>2026-04-30T13:56:20.597Z</time></trkpt><trkpt lat="42.2776472" lon="12.1242835"><ele>461.33333333333337</ele><time>2026-04-30T13:56:22.592Z</time></trkpt><trkpt lat="42.2776821" lon="12.1243574"><ele>462.0</ele><time>2026-04-30T13:56:24.601Z</time></trkpt><trkpt lat="42.2777246" lon="12.1244646"><ele>462.66666666666663</ele><time>2026-04-30T13:56:27.578Z</time></trkpt><trkpt lat="42.2777613" lon="12.1245711"><ele>463.3333333333333</ele><time>2026-04-30T13:56:30.598Z</time></trkpt><trkpt lat="42.2778054" lon="12.1246674"><ele>464.0</ele><time>2026-04-30T13:56:33.587Z</time></trkpt><trkpt lat="42.277842" lon="12.1247746"><ele>463.99999999999994</ele><time>2026-04-30T13:56:36.602Z</time></trkpt><trkpt lat="42.2778871" lon="12.1248777"><ele>464.0</ele><time>2026-04-30T13:56:39.592Z</time></trkpt><trkpt lat="42.2779256" lon="12.124988"><ele>464.0</ele><time>2026-04-30T13:56:42.601Z</time></trkpt><trkpt lat="42.2779603" lon="12.1250994"><ele>464.0</ele><time>2026-04-30T13:56:45.576Z</time></trkpt><trkpt lat="42.2779963" lon="12.1252069"><ele>463.99999999999994</ele><time>2026-04-30T13:56:48.608Z</time></trkpt><trkpt lat="42.2780337" lon="12.1253209"><ele>464.0</ele><time>2026-04-30T13:56:51.585Z</time></trkpt><trkpt lat="42.2780659" lon="12.1254016"><ele>464.49999999999994</ele><time>2026-04-30T13:56:53.592Z</time></trkpt><trkpt lat="42.2780947" lon="12.1255154"><ele>465.0</ele><time>2026-04-30T13:56:56.592Z</time></trkpt><trkpt lat="42.2781262" lon="12.1256267"><ele>465.5</ele><time>2026-04-30T13:56:59.589Z</time></trkpt><trkpt lat="42.2781616" lon="12.1257366"><ele>466.0</ele><time>2026-04-30T13:57:02.607Z</time></trkpt><trkpt lat="42.2781908" lon="12.1258122"><ele>466.49999999999994</ele><time>2026-04-30T13:57:04.603Z</time></trkpt><trkpt lat="42.2782333" lon="12.1259223"><ele>467.0</ele><time>2026-04-30T13:57:07.584Z</time></trkpt><trkpt lat="42.2782752" lon="12.1260274"><ele>467.8333333333333</ele><time>2026-04-30T13:57:10.585Z</time></trkpt><trkpt lat="42.278309" lon="12.1261252"><ele>468.66666666666663</ele><time>2026-04-30T13:57:13.606Z</time></trkpt><trkpt lat="42.2783409" lon="12.1262216"><ele>469.5</ele><time>2026-04-30T13:57:16.61Z</time></trkpt><trkpt lat="42.2783763" lon="12.1263128"><ele>470.33333333333337</ele><time>2026-04-30T13:57:19.585Z</time></trkpt><trkpt lat="42.2784204" lon="12.1263966"><ele>471.1666666666667</ele><time>2026-04-30T13:57:22.609Z</time></trkpt><trkpt lat="42.2784549" lon="12.1264911"><ele>472.0</ele><time>2026-04-30T13:57:25.612Z</time></trkpt><trkpt lat="42.2784952" lon="12.1265839"><ele>472.1428571428571</ele><time>2026-04-30T13:57:28.602Z</time></trkpt><trkpt lat="42.2785211" lon="12.1266734"><ele>472.28571428571433</ele><time>2026-04-30T13:57:31.591Z</time></trkpt><trkpt lat="42.2785462" lon="12.1267604"><ele>472.42857142857144</ele><time>2026-04-30T13:57:34.617Z</time></trkpt><trkpt lat="42.2785764" lon="12.1268511"><ele>472.57142857142856</ele><time>2026-04-30T13:57:37.598Z</time></trkpt><trkpt lat="42.2786031" lon="12.1269417"><ele>472.71428571428567</ele><time>2026-04-30T13:57:40.586Z</time></trkpt><trkpt lat="42.2786286" lon="12.1270301"><ele>472.8571428571429</ele><time>2026-04-30T13:57:43.593Z</time></trkpt><trkpt lat="42.2786506" lon="12.1271182"><ele>473.0</ele><time>2026-04-30T13:57:46.599Z</time></trkpt><trkpt lat="42.2786911" lon="12.1272104"><ele>473.0</ele><time>2026-04-30T13:57:49.598Z</time></trkpt><trkpt lat="42.2787294" lon="12.1273035"><ele>473.0</ele><time>2026-04-30T13:57:52.605Z</time></trkpt><trkpt lat="42.2787607" lon="12.1273921"><ele>473.0</ele><time>2026-04-30T13:57:55.595Z</time></trkpt><trkpt lat="42.2787948" lon="12.1274802"><ele>473.0</ele><time>2026-04-30T13:57:58.601Z</time></trkpt><trkpt lat="42.2788313" lon="12.1275641"><ele>473.0</ele><time>2026-04-30T13:58:01.594Z</time></trkpt><trkpt lat="42.2788651" lon="12.1276476"><ele>473.0</ele><time>2026-04-30T13:58:04.606Z</time></trkpt><trkpt lat="42.2788988" lon="12.1277387"><ele>473.0</ele><time>2026-04-30T13:58:07.583Z</time></trkpt><trkpt lat="42.2789228" lon="12.1278274"><ele>473.3333333333333</ele><time>2026-04-30T13:58:10.617Z</time></trkpt><trkpt lat="42.2789527" lon="12.1279301"><ele>473.66666666666663</ele><time>2026-04-30T13:58:14.607Z</time></trkpt><trkpt lat="42.2789637" lon="12.1280208"><ele>474.0</ele><time>2026-04-30T13:58:17.596Z</time></trkpt><trkpt lat="42.2789864" lon="12.1281327"><ele>474.33333333333337</ele><time>2026-04-30T13:58:21.601Z</time></trkpt><trkpt lat="42.2790137" lon="12.1282237"><ele>474.6666666666667</ele><time>2026-04-30T13:58:24.589Z</time></trkpt><trkpt lat="42.2790486" lon="12.128312"><ele>475.0</ele><time>2026-04-30T13:58:27.582Z</time></trkpt><trkpt lat="42.2790817" lon="12.1283917"><ele>475.33333333333337</ele><time>2026-04-30T13:58:30.578Z</time></trkpt><trkpt lat="42.2791116" lon="12.1284767"><ele>475.6666666666667</ele><time>2026-04-30T13:58:33.578Z</time></trkpt><trkpt lat="42.2791476" lon="12.1285607"><ele>476.0</ele><time>2026-04-30T13:58:36.604Z</time></trkpt><trkpt lat="42.2791835" lon="12.1286528"><ele>476.33333333333337</ele><time>2026-04-30T13:58:39.599Z</time></trkpt><trkpt lat="42.2792159" lon="12.1287459"><ele>476.6666666666667</ele><time>2026-04-30T13:58:42.592Z</time></trkpt><trkpt lat="42.2792526" lon="12.1288379"><ele>477.0</ele><time>2026-04-30T13:58:45.598Z</time></trkpt><trkpt lat="42.2792932" lon="12.1289343"><ele>477.0</ele><time>2026-04-30T13:58:48.608Z</time></trkpt><trkpt lat="42.2793327" lon="12.1290347"><ele>476.99999999999994</ele><time>2026-04-30T13:58:51.596Z</time></trkpt><trkpt lat="42.2793786" lon="12.1291458"><ele>477.0</ele><time>2026-04-30T13:58:54.586Z</time></trkpt><trkpt lat="42.2794092" lon="12.1292228"><ele>477.0</ele><time>2026-04-30T13:58:56.621Z</time></trkpt><trkpt lat="42.2794428" lon="12.1292972"><ele>476.99999999999994</ele><time>2026-04-30T13:58:58.609Z</time></trkpt><trkpt lat="42.279474" lon="12.1293713"><ele>477.0</ele><time>2026-04-30T13:59:00.604Z</time></trkpt><trkpt lat="42.2795109" lon="12.1294472"><ele>477.0</ele><time>2026-04-30T13:59:02.606Z</time></trkpt><trkpt lat="42.2795459" lon="12.1295289"><ele>477.0</ele><time>2026-04-30T13:59:04.616Z</time></trkpt><trkpt lat="42.279577" lon="12.1296076"><ele>476.99999999999994</ele><time>2026-04-30T13:59:06.583Z</time></trkpt><trkpt lat="42.2796099" lon="12.1296888"><ele>477.0</ele><time>2026-04-30T13:59:08.604Z</time></trkpt><trkpt lat="42.2796449" lon="12.1297661"><ele>477.0</ele><time>2026-04-30T13:59:10.604Z</time></trkpt><trkpt lat="42.2796785" lon="12.1298452"><ele>476.99999999999994</ele><time>2026-04-30T13:59:12.595Z</time></trkpt><trkpt lat="42.2797167" lon="12.1299281"><ele>477.0</ele><time>2026-04-30T13:59:14.61Z</time></trkpt><trkpt lat="42.2797488" lon="12.1300108"><ele>477.0</ele><time>2026-04-30T13:59:16.602Z</time></trkpt><trkpt lat="42.2797838" lon="12.1300894"><ele>477.2857142857143</ele><time>2026-04-30T13:59:18.621Z</time></trkpt><trkpt lat="42.2798193" lon="12.1301662"><ele>477.57142857142856</ele><time>2026-04-30T13:59:20.593Z</time></trkpt><trkpt lat="42.2798573" lon="12.1302422"><ele>477.85714285714283</ele><time>2026-04-30T13:59:22.599Z</time></trkpt><trkpt lat="42.2798948" lon="12.1303135"><ele>478.1428571428571</ele><time>2026-04-30T13:59:24.579Z</time></trkpt><trkpt lat="42.2799301" lon="12.1303892"><ele>478.42857142857144</ele><time>2026-04-30T13:59:26.603Z</time></trkpt><trkpt lat="42.2799653" lon="12.1304627"><ele>478.71428571428567</ele><time>2026-04-30T13:59:28.622Z</time></trkpt><trkpt lat="42.2800044" lon="12.1305308"><ele>479.0</ele><time>2026-04-30T13:59:30.59Z</time></trkpt><trkpt lat="42.2800588" lon="12.130626"><ele>478.99999999999994</ele><time>2026-04-30T13:59:33.602Z</time></trkpt><trkpt lat="42.2801152" lon="12.1307188"><ele>479.0</ele><time>2026-04-30T13:59:36.59Z</time></trkpt><trkpt lat="42.2801662" lon="12.1308174"><ele>479.0</ele><time>2026-04-30T13:59:39.609Z</time></trkpt><trkpt lat="42.2802081" lon="12.1308885"><ele>479.0</ele><time>2026-04-30T13:59:41.592Z</time></trkpt><trkpt lat="42.2802523" lon="12.1309536"><ele>478.99999999999994</ele><time>2026-04-30T13:59:43.588Z</time></trkpt><trkpt lat="42.280298" lon="12.1310167"><ele>479.0</ele><time>2026-04-30T13:59:45.585Z</time></trkpt><trkpt lat="42.2803586" lon="12.131109"><ele>478.99999999999994</ele><time>2026-04-30T13:59:48.596Z</time></trkpt><trkpt lat="42.2804151" lon="12.1312021"><ele>479.0</ele><time>2026-04-30T13:59:51.595Z</time></trkpt><trkpt lat="42.2804743" lon="12.1312936"><ele>479.0</ele><time>2026-04-30T13:59:54.591Z</time></trkpt><trkpt lat="42.2805185" lon="12.1313636"><ele>479.0</ele><time>2026-04-30T13:59:56.583Z</time></trkpt><trkpt lat="42.2805706" lon="12.1314311"><ele>478.99999999999994</ele><time>2026-04-30T13:59:58.595Z</time></trkpt><trkpt lat="42.2806189" lon="12.1314944"><ele>479.0</ele><time>2026-04-30T14:00:00.593Z</time></trkpt><trkpt lat="42.2806681" lon="12.1315523"><ele>479.1428571428571</ele><time>2026-04-30T14:00:02.609Z</time></trkpt><trkpt lat="42.2807151" lon="12.131618"><ele>479.28571428571433</ele><time>2026-04-30T14:00:04.599Z</time></trkpt><trkpt lat="42.2807619" lon="12.1316795"><ele>479.42857142857144</ele><time>2026-04-30T14:00:06.59Z</time></trkpt><trkpt lat="42.2808088" lon="12.1317484"><ele>479.57142857142856</ele><time>2026-04-30T14:00:08.599Z</time></trkpt><trkpt lat="42.2808527" lon="12.1318102"><ele>479.71428571428567</ele><time>2026-04-30T14:00:10.604Z</time></trkpt><trkpt lat="42.2809024" lon="12.1318648"><ele>479.8571428571429</ele><time>2026-04-30T14:00:12.6Z</time></trkpt><trkpt lat="42.2809516" lon="12.1319238"><ele>480.0</ele><time>2026-04-30T14:00:14.614Z</time></trkpt><trkpt lat="42.281002" lon="12.1319829"><ele>480.0</ele><time>2026-04-30T14:00:16.615Z</time></trkpt><trkpt lat="42.2810713" lon="12.1320727"><ele>480.0</ele><time>2026-04-30T14:00:19.612Z</time></trkpt><trkpt lat="42.2811124" lon="12.1321433"><ele>480.0</ele><time>2026-04-30T14:00:21.598Z</time></trkpt><trkpt lat="42.2811744" lon="12.1322357"><ele>480.0</ele><time>2026-04-30T14:00:24.602Z</time></trkpt><trkpt lat="42.2812215" lon="12.1322995"><ele>480.0</ele><time>2026-04-30T14:00:26.611Z</time></trkpt><trkpt lat="42.2812937" lon="12.1323833"><ele>480.0</ele><time>2026-04-30T14:00:29.601Z</time></trkpt><trkpt lat="42.2813391" lon="12.1324464"><ele>480.14285714285717</ele><time>2026-04-30T14:00:31.617Z</time></trkpt><trkpt lat="42.2814036" lon="12.1325324"><ele>480.2857142857142</ele><time>2026-04-30T14:00:34.606Z</time></trkpt><trkpt lat="42.2814498" lon="12.1325909"><ele>480.4285714285714</ele><time>2026-04-30T14:00:36.597Z</time></trkpt><trkpt lat="42.281513" lon="12.1326838"><ele>480.57142857142856</ele><time>2026-04-30T14:00:39.597Z</time></trkpt><trkpt lat="42.281554" lon="12.1327517"><ele>480.71428571428567</ele><time>2026-04-30T14:00:41.592Z</time></trkpt><trkpt lat="42.2816027" lon="12.1328058"><ele>480.8571428571428</ele><time>2026-04-30T14:00:43.607Z</time></trkpt><trkpt lat="42.2816532" lon="12.1328695"><ele>480.99999999999994</ele><time>2026-04-30T14:00:45.57Z</time></trkpt><trkpt lat="42.2816932" lon="12.1329433"><ele>481.1666666666667</ele><time>2026-04-30T14:00:47.566Z</time></trkpt><trkpt lat="42.2817533" lon="12.1330396"><ele>481.33333333333337</ele><time>2026-04-30T14:00:50.591Z</time></trkpt><trkpt lat="42.2818016" lon="12.1331015"><ele>481.5</ele><time>2026-04-30T14:00:52.591Z</time></trkpt><trkpt lat="42.2818495" lon="12.1331612"><ele>481.66666666666663</ele><time>2026-04-30T14:00:54.615Z</time></trkpt><trkpt lat="42.2819016" lon="12.1332222"><ele>481.8333333333333</ele><time>2026-04-30T14:00:56.608Z</time></trkpt><trkpt lat="42.2819523" lon="12.1332772"><ele>482.0</ele><time>2026-04-30T14:00:58.616Z</time></trkpt><trkpt lat="42.2820158" lon="12.1333704"><ele>481.99999999999994</ele><time>2026-04-30T14:01:01.595Z</time></trkpt><trkpt lat="42.2820779" lon="12.1334636"><ele>482.0</ele><time>2026-04-30T14:01:04.598Z</time></trkpt><trkpt lat="42.2821251" lon="12.1335234"><ele>482.0</ele><time>2026-04-30T14:01:06.6Z</time></trkpt><trkpt lat="42.2821739" lon="12.1335875"><ele>482.0</ele><time>2026-04-30T14:01:08.615Z</time></trkpt><trkpt lat="42.2822219" lon="12.1336561"><ele>481.99999999999994</ele><time>2026-04-30T14:01:10.596Z</time></trkpt><trkpt lat="42.2822812" lon="12.1337469"><ele>482.0</ele><time>2026-04-30T14:01:13.594Z</time></trkpt><trkpt lat="42.2823129" lon="12.1338472"><ele>482.16666666666663</ele><time>2026-04-30T14:01:15.597Z</time></trkpt><trkpt lat="42.2823494" lon="12.1339578"><ele>482.3333333333333</ele><time>2026-04-30T14:01:17.598Z</time></trkpt><trkpt lat="42.2823963" lon="12.1340475"><ele>482.5</ele><time>2026-04-30T14:01:19.59Z</time></trkpt><trkpt lat="42.2824549" lon="12.1341329"><ele>482.66666666666663</ele><time>2026-04-30T14:01:21.583Z</time></trkpt><trkpt lat="42.2825302" lon="12.1341682"><ele>482.8333333333333</ele><time>2026-04-30T14:01:23.596Z</time></trkpt><trkpt lat="42.2826069" lon="12.1342021"><ele>483.0</ele><time>2026-04-30T14:01:25.6Z</time></trkpt><trkpt lat="42.2826719" lon="12.1342623"><ele>483.1666666666667</ele><time>2026-04-30T14:01:27.61Z</time></trkpt><trkpt lat="42.2827011" lon="12.1343544"><ele>483.33333333333337</ele><time>2026-04-30T14:01:29.567Z</time></trkpt><trkpt lat="42.282693" lon="12.1344757"><ele>483.5</ele><time>2026-04-30T14:01:32.591Z</time></trkpt><trkpt lat="42.2826562" lon="12.1345522"><ele>483.6666666666667</ele><time>2026-04-30T14:01:34.614Z</time></trkpt><trkpt lat="42.2825969" lon="12.1346433"><ele>483.83333333333337</ele><time>2026-04-30T14:01:37.593Z</time></trkpt><trkpt lat="42.2825432" lon="12.1347375"><ele>484.0</ele><time>2026-04-30T14:01:40.589Z</time></trkpt><trkpt lat="42.2825085" lon="12.1348432"><ele>484.50000000000006</ele><time>2026-04-30T14:01:43.591Z</time></trkpt><trkpt lat="42.2824901" lon="12.1349554"><ele>485.0</ele><time>2026-04-30T14:01:46.595Z</time></trkpt><trkpt lat="42.2824717" lon="12.1350602"><ele>485.5</ele><time>2026-04-30T14:01:49.617Z</time></trkpt><trkpt lat="42.2824525" lon="12.1351574"><ele>486.0</ele><time>2026-04-30T14:01:52.598Z</time></trkpt><trkpt lat="42.2824258" lon="12.1352645"><ele>486.50000000000006</ele><time>2026-04-30T14:01:55.603Z</time></trkpt><trkpt lat="42.2824069" lon="12.1353669"><ele>487.0</ele><time>2026-04-30T14:01:58.615Z</time></trkpt><trkpt lat="42.2823831" lon="12.1354764"><ele>487.00000000000006</ele><time>2026-04-30T14:02:01.617Z</time></trkpt><trkpt lat="42.2823695" lon="12.1355881"><ele>487.0</ele><time>2026-04-30T14:02:04.59Z</time></trkpt><trkpt lat="42.2824012" lon="12.1356891"><ele>487.0</ele><time>2026-04-30T14:02:07.597Z</time></trkpt><trkpt lat="42.2824665" lon="12.1357613"><ele>487.0</ele><time>2026-04-30T14:02:10.6Z</time></trkpt><trkpt lat="42.282542" lon="12.1358005"><ele>487.00000000000006</ele><time>2026-04-30T14:02:13.591Z</time></trkpt><trkpt lat="42.2826248" lon="12.135829"><ele>487.0</ele><time>2026-04-30T14:02:16.58Z</time></trkpt><trkpt lat="42.282703" lon="12.1358506"><ele>487.1666666666667</ele><time>2026-04-30T14:02:19.584Z</time></trkpt><trkpt lat="42.2827765" lon="12.1358853"><ele>487.33333333333337</ele><time>2026-04-30T14:02:22.607Z</time></trkpt><trkpt lat="42.2828539" lon="12.1359097"><ele>487.5</ele><time>2026-04-30T14:02:25.587Z</time></trkpt><trkpt lat="42.2829356" lon="12.1359312"><ele>487.66666666666663</ele><time>2026-04-30T14:02:28.593Z</time></trkpt><trkpt lat="42.2830086" lon="12.135962"><ele>487.8333333333333</ele><time>2026-04-30T14:02:31.569Z</time></trkpt><trkpt lat="42.2830779" lon="12.1359887"><ele>488.0</ele><time>2026-04-30T14:02:34.595Z</time></trkpt><trkpt lat="42.2831543" lon="12.1360056"><ele>488.42857142857133</ele><time>2026-04-30T14:02:37.593Z</time></trkpt><trkpt lat="42.2832287" lon="12.1360383"><ele>488.85714285714283</ele><time>2026-04-30T14:02:40.58Z</time></trkpt><trkpt lat="42.2833018" lon="12.1360658"><ele>489.2857142857142</ele><time>2026-04-30T14:02:43.603Z</time></trkpt><trkpt lat="42.2833709" lon="12.1360917"><ele>489.71428571428567</ele><time>2026-04-30T14:02:46.593Z</time></trkpt><trkpt lat="42.2834425" lon="12.1361166"><ele>490.1428571428571</ele><time>2026-04-30T14:02:49.6Z</time></trkpt><trkpt lat="42.2835088" lon="12.1361327"><ele>490.57142857142856</ele><time>2026-04-30T14:02:52.596Z</time></trkpt><trkpt lat="42.2835839" lon="12.1361573"><ele>491.0</ele><time>2026-04-30T14:02:55.582Z</time></trkpt><trkpt lat="42.2836593" lon="12.1361848"><ele>490.99999999999994</ele><time>2026-04-30T14:02:58.595Z</time></trkpt><trkpt lat="42.2837366" lon="12.1362158"><ele>491.0</ele><time>2026-04-30T14:03:01.6Z</time></trkpt><trkpt lat="42.2838157" lon="12.13624"><ele>491.0</ele><time>2026-04-30T14:03:04.581Z</time></trkpt><trkpt lat="42.283895" lon="12.1362739"><ele>491.0</ele><time>2026-04-30T14:03:07.587Z</time></trkpt><trkpt lat="42.2839688" lon="12.1362971"><ele>490.99999999999994</ele><time>2026-04-30T14:03:10.576Z</time></trkpt><trkpt lat="42.2840298" lon="12.1363212"><ele>491.0</ele><time>2026-04-30T14:03:13.567Z</time></trkpt><trkpt lat="42.2841125" lon="12.1363393"><ele>491.0</ele><time>2026-04-30T14:03:18.56Z</time></trkpt><trkpt lat="42.2841862" lon="12.1363679"><ele>490.99999999999994</ele><time>2026-04-30T14:03:21.564Z</time></trkpt><trkpt lat="42.2842702" lon="12.1364228"><ele>491.0</ele><time>2026-04-30T14:03:24.591Z</time></trkpt><trkpt lat="42.2843455" lon="12.136426"><ele>491.0</ele><time>2026-04-30T14:03:27.584Z</time></trkpt><trkpt lat="42.2844087" lon="12.1364437"><ele>490.99999999999994</ele><time>2026-04-30T14:03:30.601Z</time></trkpt><trkpt lat="42.2844773" lon="12.1364601"><ele>491.0</ele><time>2026-04-30T14:03:33.575Z</time></trkpt><trkpt lat="42.2845435" lon="12.1364895"><ele>491.0</ele><time>2026-04-30T14:03:36.584Z</time></trkpt><trkpt lat="42.2846101" lon="12.1365153"><ele>491.2857142857143</ele><time>2026-04-30T14:03:39.583Z</time></trkpt><trkpt lat="42.2846882" lon="12.1365552"><ele>491.57142857142856</ele><time>2026-04-30T14:03:43.576Z</time></trkpt><trkpt lat="42.2847511" lon="12.1365778"><ele>491.85714285714283</ele><time>2026-04-30T14:03:46.588Z</time></trkpt><trkpt lat="42.2848301" lon="12.1366073"><ele>492.1428571428571</ele><time>2026-04-30T14:03:50.583Z</time></trkpt><trkpt lat="42.2848947" lon="12.1366356"><ele>492.42857142857144</ele><time>2026-04-30T14:03:53.583Z</time></trkpt><trkpt lat="42.2849549" lon="12.1366772"><ele>492.71428571428567</ele><time>2026-04-30T14:03:56.579Z</time></trkpt><trkpt lat="42.2850114" lon="12.136719"><ele>493.0</ele><time>2026-04-30T14:03:59.582Z</time></trkpt><trkpt lat="42.2850801" lon="12.1367548"><ele>493.42857142857144</ele><time>2026-04-30T14:04:02.577Z</time></trkpt><trkpt lat="42.2851415" lon="12.1368136"><ele>493.8571428571429</ele><time>2026-04-30T14:04:05.594Z</time></trkpt><trkpt lat="42.2851978" lon="12.1368701"><ele>494.28571428571433</ele><time>2026-04-30T14:04:08.596Z</time></trkpt><trkpt lat="42.2852524" lon="12.1369277"><ele>494.7142857142857</ele><time>2026-04-30T14:04:11.586Z</time></trkpt><trkpt lat="42.2853037" lon="12.1369887"><ele>495.1428571428572</ele><time>2026-04-30T14:04:14.597Z</time></trkpt><trkpt lat="42.2853487" lon="12.1370587"><ele>495.5714285714286</ele><time>2026-04-30T14:04:17.602Z</time></trkpt><trkpt lat="42.2853904" lon="12.1371389"><ele>496.0</ele><time>2026-04-30T14:04:20.603Z</time></trkpt><trkpt lat="42.2854304" lon="12.1372051"><ele>496.0</ele><time>2026-04-30T14:04:23.59Z</time></trkpt><trkpt lat="42.2854621" lon="12.1372811"><ele>496.00000000000006</ele><time>2026-04-30T14:04:26.585Z</time></trkpt><trkpt lat="42.2854891" lon="12.1373631"><ele>496.0</ele><time>2026-04-30T14:04:29.589Z</time></trkpt><trkpt lat="42.2855212" lon="12.1374583"><ele>496.0</ele><time>2026-04-30T14:04:33.572Z</time></trkpt><trkpt lat="42.2855554" lon="12.137561"><ele>496.00000000000006</ele><time>2026-04-30T14:04:37.589Z</time></trkpt><trkpt lat="42.2855903" lon="12.1376567"><ele>496.0</ele><time>2026-04-30T14:04:41.593Z</time></trkpt><trkpt lat="42.2856282" lon="12.1377304"><ele>496.0</ele><time>2026-04-30T14:04:44.584Z</time></trkpt><trkpt lat="42.2856679" lon="12.1377984"><ele>496.42857142857144</ele><time>2026-04-30T14:04:47.568Z</time></trkpt><trkpt lat="42.2857097" lon="12.1378646"><ele>496.8571428571429</ele><time>2026-04-30T14:04:50.581Z</time></trkpt><trkpt lat="42.2857564" lon="12.1379321"><ele>497.28571428571433</ele><time>2026-04-30T14:04:53.583Z</time></trkpt><trkpt lat="42.2857966" lon="12.1380059"><ele>497.7142857142858</ele><time>2026-04-30T14:04:56.591Z</time></trkpt><trkpt lat="42.2858413" lon="12.1380747"><ele>498.14285714285717</ele><time>2026-04-30T14:04:59.602Z</time></trkpt><trkpt lat="42.2858859" lon="12.1381469"><ele>498.57142857142867</ele><time>2026-04-30T14:05:02.586Z</time></trkpt><trkpt lat="42.2859275" lon="12.1382168"><ele>499.00000000000006</ele><time>2026-04-30T14:05:05.598Z</time></trkpt><trkpt lat="42.2859683" lon="12.1382871"><ele>499.57142857142867</ele><time>2026-04-30T14:05:08.589Z</time></trkpt><trkpt lat="42.2860187" lon="12.1383574"><ele>500.14285714285717</ele><time>2026-04-30T14:05:11.588Z</time></trkpt><trkpt lat="42.2860645" lon="12.1384242"><ele>500.7142857142858</ele><time>2026-04-30T14:05:14.597Z</time></trkpt><trkpt lat="42.2861146" lon="12.1384816"><ele>501.28571428571433</ele><time>2026-04-30T14:05:17.584Z</time></trkpt><trkpt lat="42.2861629" lon="12.1385399"><ele>501.8571428571429</ele><time>2026-04-30T14:05:20.591Z</time></trkpt><trkpt lat="42.2862205" lon="12.1386167"><ele>502.42857142857144</ele><time>2026-04-30T14:05:24.589Z</time></trkpt><trkpt lat="42.2862847" lon="12.1386809"><ele>503.0</ele><time>2026-04-30T14:05:28.596Z</time></trkpt><trkpt lat="42.2863324" lon="12.1387373"><ele>502.99999999999994</ele><time>2026-04-30T14:05:31.577Z</time></trkpt><trkpt lat="42.2863968" lon="12.1387945"><ele>503.0</ele><time>2026-04-30T14:05:35.593Z</time></trkpt><trkpt lat="42.2864655" lon="12.1388443"><ele>503.0</ele><time>2026-04-30T14:05:39.583Z</time></trkpt><trkpt lat="42.2865329" lon="12.1388886"><ele>503.0</ele><time>2026-04-30T14:05:43.586Z</time></trkpt><trkpt lat="42.286602" lon="12.1389356"><ele>502.99999999999994</ele><time>2026-04-30T14:05:47.576Z</time></trkpt><trkpt lat="42.2866653" lon="12.1389936"><ele>503.0</ele><time>2026-04-30T14:05:51.603Z</time></trkpt><trkpt lat="42.2867352" lon="12.1390375"><ele>503.99999999999994</ele><time>2026-04-30T14:05:55.587Z</time></trkpt><trkpt lat="42.2868059" lon="12.139092"><ele>505.0</ele><time>2026-04-30T14:05:59.583Z</time></trkpt><trkpt lat="42.2868709" lon="12.1391582"><ele>506.0</ele><time>2026-04-30T14:06:03.595Z</time></trkpt><trkpt lat="42.2869185" lon="12.1392206"><ele>507.0</ele><time>2026-04-30T14:06:06.598Z</time></trkpt><trkpt lat="42.2869813" lon="12.1392828"><ele>507.99999999999994</ele><time>2026-04-30T14:06:10.595Z</time></trkpt><trkpt lat="42.2870475" lon="12.1393395"><ele>509.0</ele><time>2026-04-30T14:06:14.598Z</time></trkpt><trkpt lat="42.2871173" lon="12.1393996"><ele>508.99999999999994</ele><time>2026-04-30T14:06:18.589Z</time></trkpt><trkpt lat="42.2871899" lon="12.1394509"><ele>509.0</ele><time>2026-04-30T14:06:22.596Z</time></trkpt><trkpt lat="42.287262" lon="12.1395008"><ele>509.0</ele><time>2026-04-30T14:06:26.586Z</time></trkpt><trkpt lat="42.2873365" lon="12.139542"><ele>509.0</ele><time>2026-04-30T14:06:30.576Z</time></trkpt><trkpt lat="42.2874118" lon="12.1395868"><ele>508.99999999999994</ele><time>2026-04-30T14:06:34.583Z</time></trkpt><trkpt lat="42.2874861" lon="12.1396265"><ele>509.0</ele><time>2026-04-30T14:06:38.596Z</time></trkpt><trkpt lat="42.2875618" lon="12.139668"><ele>509.99999999999994</ele><time>2026-04-30T14:06:42.58Z</time></trkpt><trkpt lat="42.2876328" lon="12.1397135"><ele>511.0</ele><time>2026-04-30T14:06:46.585Z</time></trkpt><trkpt lat="42.2877061" lon="12.1397554"><ele>512.0</ele><time>2026-04-30T14:06:50.596Z</time></trkpt><trkpt lat="42.2877784" lon="12.1398031"><ele>513.0</ele><time>2026-04-30T14:06:54.604Z</time></trkpt><trkpt lat="42.2878527" lon="12.1398443"><ele>514.0</ele><time>2026-04-30T14:06:58.602Z</time></trkpt><trkpt lat="42.2879246" lon="12.1398945"><ele>515.0</ele><time>2026-04-30T14:07:02.583Z</time></trkpt><trkpt lat="42.2879974" lon="12.1399403"><ele>515.8571428571429</ele><time>2026-04-30T14:07:06.594Z</time></trkpt><trkpt lat="42.2880674" lon="12.1399868"><ele>516.7142857142857</ele><time>2026-04-30T14:07:10.597Z</time></trkpt><trkpt lat="42.2881376" lon="12.1400279"><ele>517.5714285714286</ele><time>2026-04-30T14:07:16.591Z</time></trkpt><trkpt lat="42.2882" lon="12.1400657"><ele>518.4285714285714</ele><time>2026-04-30T14:07:21.592Z</time></trkpt><trkpt lat="42.2882592" lon="12.1400984"><ele>519.2857142857143</ele><time>2026-04-30T14:07:26.59Z</time></trkpt><trkpt lat="42.288321" lon="12.1401407"><ele>520.1428571428571</ele><time>2026-04-30T14:07:31.591Z</time></trkpt><trkpt lat="42.2883865" lon="12.1401807"><ele>521.0</ele><time>2026-04-30T14:07:36.569Z</time></trkpt><trkpt lat="42.2884548" lon="12.1402172"><ele>521.7142857142857</ele><time>2026-04-30T14:07:41.595Z</time></trkpt><trkpt lat="42.2885153" lon="12.1402445"><ele>522.4285714285714</ele><time>2026-04-30T14:07:45.574Z</time></trkpt><trkpt lat="42.2885746" lon="12.14028"><ele>523.1428571428571</ele><time>2026-04-30T14:07:49.595Z</time></trkpt><trkpt lat="42.288649" lon="12.1403094"><ele>523.8571428571429</ele><time>2026-04-30T14:07:54.593Z</time></trkpt><trkpt lat="42.2887218" lon="12.1403414"><ele>524.5714285714286</ele><time>2026-04-30T14:07:59.596Z</time></trkpt><trkpt lat="42.2887825" lon="12.1403687"><ele>525.2857142857142</ele><time>2026-04-30T14:08:03.593Z</time></trkpt><trkpt lat="42.2888448" lon="12.1404022"><ele>526.0</ele><time>2026-04-30T14:08:07.578Z</time></trkpt><trkpt lat="42.2889074" lon="12.1404332"><ele>526.7142857142857</ele><time>2026-04-30T14:08:11.593Z</time></trkpt><trkpt lat="42.2889673" lon="12.1404607"><ele>527.4285714285713</ele><time>2026-04-30T14:08:15.587Z</time></trkpt><trkpt lat="42.2890323" lon="12.140502"><ele>528.1428571428571</ele><time>2026-04-30T14:08:19.581Z</time></trkpt><trkpt lat="42.2890942" lon="12.1405293"><ele>528.8571428571429</ele><time>2026-04-30T14:08:23.597Z</time></trkpt><trkpt lat="42.2891662" lon="12.1405684"><ele>529.5714285714287</ele><time>2026-04-30T14:08:28.589Z</time></trkpt><trkpt lat="42.2892362" lon="12.1406109"><ele>530.2857142857143</ele><time>2026-04-30T14:08:33.576Z</time></trkpt><trkpt lat="42.289293" lon="12.1406479"><ele>531.0</ele><time>2026-04-30T14:08:37.581Z</time></trkpt><trkpt lat="42.2893501" lon="12.1406925"><ele>532.1428571428571</ele><time>2026-04-30T14:08:41.581Z</time></trkpt><trkpt lat="42.2894112" lon="12.1407372"><ele>533.2857142857143</ele><time>2026-04-30T14:08:45.599Z</time></trkpt><trkpt lat="42.2894711" lon="12.1408029"><ele>534.4285714285714</ele><time>2026-04-30T14:08:50.603Z</time></trkpt><trkpt lat="42.2895173" lon="12.1408676"><ele>535.5714285714286</ele><time>2026-04-30T14:08:54.592Z</time></trkpt><trkpt lat="42.2895643" lon="12.140943"><ele>536.7142857142858</ele><time>2026-04-30T14:08:59.585Z</time></trkpt><trkpt lat="42.2896198" lon="12.1409991"><ele>537.8571428571429</ele><time>2026-04-30T14:09:04.601Z</time></trkpt><trkpt lat="42.2896801" lon="12.1410715"><ele>539.0</ele><time>2026-04-30T14:09:09.595Z</time></trkpt><trkpt lat="42.2897396" lon="12.1411387"><ele>539.0</ele><time>2026-04-30T14:09:14.598Z</time></trkpt><trkpt lat="42.2897851" lon="12.1411977"><ele>539.0</ele><time>2026-04-30T14:09:18.605Z</time></trkpt><trkpt lat="42.2898337" lon="12.1412585"><ele>539.0</ele><time>2026-04-30T14:09:22.581Z</time></trkpt><trkpt lat="42.2898886" lon="12.14133"><ele>539.0</ele><time>2026-04-30T14:09:27.585Z</time></trkpt><trkpt lat="42.289944" lon="12.1413955"><ele>539.0</ele><time>2026-04-30T14:09:31.601Z</time></trkpt><trkpt lat="42.2899951" lon="12.141462"><ele>539.0</ele><time>2026-04-30T14:09:35.595Z</time></trkpt><trkpt lat="42.2900471" lon="12.1415281"><ele>539.0</ele><time>2026-04-30T14:09:39.589Z</time></trkpt><trkpt lat="42.2900938" lon="12.1415881"><ele>540.1428571428571</ele><time>2026-04-30T14:09:43.583Z</time></trkpt><trkpt lat="42.2901546" lon="12.1416597"><ele>541.2857142857142</ele><time>2026-04-30T14:09:48.581Z</time></trkpt><trkpt lat="42.2902059" lon="12.1417272"><ele>542.4285714285714</ele><time>2026-04-30T14:09:52.599Z</time></trkpt><trkpt lat="42.2902542" lon="12.1417822"><ele>543.5714285714286</ele><time>2026-04-30T14:09:56.586Z</time></trkpt><trkpt lat="42.2903046" lon="12.1418371"><ele>544.7142857142857</ele><time>2026-04-30T14:10:00.607Z</time></trkpt><trkpt lat="42.2903509" lon="12.1418973"><ele>545.8571428571429</ele><time>2026-04-30T14:10:04.603Z</time></trkpt><trkpt lat="42.2903972" lon="12.1419565"><ele>547.0</ele><time>2026-04-30T14:10:08.598Z</time></trkpt><trkpt lat="42.2904509" lon="12.1420349"><ele>547.0</ele><time>2026-04-30T14:10:13.579Z</time></trkpt><trkpt lat="42.2904918" lon="12.1421008"><ele>547.0</ele><time>2026-04-30T14:10:17.58Z</time></trkpt><trkpt lat="42.2905264" lon="12.1421917"><ele>547.0</ele><time>2026-04-30T14:10:22.594Z</time></trkpt><trkpt lat="42.2905581" lon="12.1422699"><ele>547.0</ele><time>2026-04-30T14:10:26.586Z</time></trkpt><trkpt lat="42.2905948" lon="12.1423467"><ele>547.0</ele><time>2026-04-30T14:10:30.588Z</time></trkpt><trkpt lat="42.2906319" lon="12.1424194"><ele>547.0</ele><time>2026-04-30T14:10:34.582Z</time></trkpt><trkpt lat="42.290671" lon="12.1425108"><ele>547.0</ele><time>2026-04-30T14:10:39.582Z</time></trkpt><trkpt lat="42.2907074" lon="12.1425917"><ele>548.2857142857142</ele><time>2026-04-30T14:10:43.587Z</time></trkpt><trkpt lat="42.2907444" lon="12.1426673"><ele>549.5714285714286</ele><time>2026-04-30T14:10:47.588Z</time></trkpt><trkpt lat="42.2907707" lon="12.1427518"><ele>550.8571428571429</ele><time>2026-04-30T14:10:51.592Z</time></trkpt><trkpt lat="42.2908082" lon="12.1428336"><ele>552.1428571428571</ele><time>2026-04-30T14:10:55.584Z</time></trkpt><trkpt lat="42.2908471" lon="12.1429038"><ele>553.4285714285714</ele><time>2026-04-30T14:10:59.579Z</time></trkpt><trkpt lat="42.290888" lon="12.1429723"><ele>554.7142857142857</ele><time>2026-04-30T14:11:03.589Z</time></trkpt><trkpt lat="42.2909323" lon="12.1430459"><ele>556.0</ele><time>2026-04-30T14:11:16.572Z</time></trkpt><trkpt lat="42.2909785" lon="12.1431127"><ele>556.0</ele><time>2026-04-30T14:11:22.595Z</time></trkpt><trkpt lat="42.2910285" lon="12.1431712"><ele>556.0</ele><time>2026-04-30T14:11:28.586Z</time></trkpt><trkpt lat="42.2910827" lon="12.143238"><ele>556.0</ele><time>2026-04-30T14:11:35.584Z</time></trkpt><trkpt lat="42.2911399" lon="12.143278"><ele>556.0</ele><time>2026-04-30T14:12:12.586Z</time></trkpt><trkpt lat="42.2911823" lon="12.1433505"><ele>556.0</ele><time>2026-04-30T14:12:18.6Z</time></trkpt><trkpt lat="42.2912236" lon="12.1434234"><ele>556.0</ele><time>2026-04-30T14:12:22.593Z</time></trkpt><trkpt lat="42.2912698" lon="12.1434874"><ele>556.0</ele><time>2026-04-30T14:12:26.596Z</time></trkpt><trkpt lat="42.2913173" lon="12.1435518"><ele>556.8571428571429</ele><time>2026-04-30T14:12:30.587Z</time></trkpt><trkpt lat="42.2913695" lon="12.1436132"><ele>557.7142857142858</ele><time>2026-04-30T14:12:34.588Z</time></trkpt><trkpt lat="42.29142" lon="12.1436824"><ele>558.5714285714287</ele><time>2026-04-30T14:12:38.59Z</time></trkpt><trkpt lat="42.2914721" lon="12.143745"><ele>559.4285714285714</ele><time>2026-04-30T14:12:42.587Z</time></trkpt><trkpt lat="42.2915202" lon="12.1438069"><ele>560.2857142857143</ele><time>2026-04-30T14:12:46.59Z</time></trkpt><trkpt lat="42.2915708" lon="12.1438737"><ele>561.1428571428572</ele><time>2026-04-30T14:12:50.599Z</time></trkpt><trkpt lat="42.2916193" lon="12.1439407"><ele>562.0</ele><time>2026-04-30T14:12:54.595Z</time></trkpt><trkpt lat="42.2916656" lon="12.144013"><ele>563.1428571428572</ele><time>2026-04-30T14:12:58.604Z</time></trkpt><trkpt lat="42.2917127" lon="12.1440803"><ele>564.2857142857143</ele><time>2026-04-30T14:13:02.583Z</time></trkpt><trkpt lat="42.2917594" lon="12.1441497"><ele>565.4285714285714</ele><time>2026-04-30T14:13:06.592Z</time></trkpt><trkpt lat="42.2918042" lon="12.1442316"><ele>566.5714285714287</ele><time>2026-04-30T14:13:11.589Z</time></trkpt><trkpt lat="42.2918531" lon="12.144301"><ele>567.7142857142858</ele><time>2026-04-30T14:13:16.602Z</time></trkpt><trkpt lat="42.2918941" lon="12.144366"><ele>568.8571428571429</ele><time>2026-04-30T14:13:20.58Z</time></trkpt><trkpt lat="42.2919429" lon="12.144436"><ele>570.0</ele><time>2026-04-30T14:13:25.584Z</time></trkpt><trkpt lat="42.2919965" lon="12.1445082"><ele>570.0</ele><time>2026-04-30T14:13:30.593Z</time></trkpt><trkpt lat="42.2920519" lon="12.144571"><ele>570.0</ele><time>2026-04-30T14:13:35.587Z</time></trkpt><trkpt lat="42.2921114" lon="12.144635"><ele>570.0</ele><time>2026-04-30T14:13:40.582Z</time></trkpt><trkpt lat="42.29217" lon="12.1446947"><ele>570.0</ele><time>2026-04-30T14:13:45.596Z</time></trkpt><trkpt lat="42.2922284" lon="12.1447608"><ele>570.0</ele><time>2026-04-30T14:13:50.581Z</time></trkpt><trkpt lat="42.2922833" lon="12.1448294"><ele>570.0</ele><time>2026-04-30T14:13:55.582Z</time></trkpt><trkpt lat="42.2923469" lon="12.144894"><ele>570.2857142857142</ele><time>2026-04-30T14:14:00.577Z</time></trkpt><trkpt lat="42.2924042" lon="12.1449551"><ele>570.5714285714286</ele><time>2026-04-30T14:14:05.575Z</time></trkpt><trkpt lat="42.292468" lon="12.1450097"><ele>570.8571428571429</ele><time>2026-04-30T14:14:10.588Z</time></trkpt><trkpt lat="42.2925221" lon="12.1450553"><ele>571.1428571428571</ele><time>2026-04-30T14:14:14.593Z</time></trkpt><trkpt lat="42.2925807" lon="12.1451113"><ele>571.4285714285714</ele><time>2026-04-30T14:14:18.594Z</time></trkpt><trkpt lat="42.2926361" lon="12.145158"><ele>571.7142857142857</ele><time>2026-04-30T14:14:22.582Z</time></trkpt><trkpt lat="42.2926915" lon="12.1452016"><ele>572.0</ele><time>2026-04-30T14:14:26.596Z</time></trkpt><trkpt lat="42.2927463" lon="12.1452459"><ele>571.9999999999999</ele><time>2026-04-30T14:14:30.587Z</time></trkpt><trkpt lat="42.2928051" lon="12.1452952"><ele>572.0</ele><time>2026-04-30T14:14:34.586Z</time></trkpt><trkpt lat="42.2928639" lon="12.1453344"><ele>572.0</ele><time>2026-04-30T14:14:38.59Z</time></trkpt><trkpt lat="42.2929293" lon="12.1453774"><ele>572.0</ele><time>2026-04-30T14:14:42.591Z</time></trkpt><trkpt lat="42.2929929" lon="12.1454167"><ele>572.0</ele><time>2026-04-30T14:14:46.597Z</time></trkpt><trkpt lat="42.2930507" lon="12.145462"><ele>571.9999999999999</ele><time>2026-04-30T14:14:50.588Z</time></trkpt><trkpt lat="42.2931119" lon="12.1455029"><ele>572.0</ele><time>2026-04-30T14:14:54.597Z</time></trkpt><trkpt lat="42.2931727" lon="12.1455475"><ele>572.5714285714286</ele><time>2026-04-30T14:14:58.586Z</time></trkpt><trkpt lat="42.2932313" lon="12.1455946"><ele>573.1428571428571</ele><time>2026-04-30T14:15:02.594Z</time></trkpt><trkpt lat="42.2932907" lon="12.1456406"><ele>573.7142857142858</ele><time>2026-04-30T14:15:06.583Z</time></trkpt><trkpt lat="42.293358" lon="12.1457033"><ele>574.2857142857142</ele><time>2026-04-30T14:15:10.589Z</time></trkpt><trkpt lat="42.2934207" lon="12.145757"><ele>574.8571428571429</ele><time>2026-04-30T14:15:14.596Z</time></trkpt><trkpt lat="42.293485" lon="12.1458107"><ele>575.4285714285714</ele><time>2026-04-30T14:15:18.589Z</time></trkpt><trkpt lat="42.2935446" lon="12.1458664"><ele>576.0</ele><time>2026-04-30T14:15:22.592Z</time></trkpt><trkpt lat="42.2936043" lon="12.1459259"><ele>576.5</ele><time>2026-04-30T14:15:26.605Z</time></trkpt><trkpt lat="42.2936678" lon="12.1459818"><ele>577.0</ele><time>2026-04-30T14:15:30.586Z</time></trkpt><trkpt lat="42.2937247" lon="12.1460427"><ele>577.5</ele><time>2026-04-30T14:15:34.601Z</time></trkpt><trkpt lat="42.2937884" lon="12.1461064"><ele>578.0</ele><time>2026-04-30T14:15:38.596Z</time></trkpt><trkpt lat="42.2938526" lon="12.146174"><ele>578.5</ele><time>2026-04-30T14:15:42.585Z</time></trkpt><trkpt lat="42.2939138" lon="12.1462396"><ele>579.0</ele><time>2026-04-30T14:15:46.594Z</time></trkpt><trkpt lat="42.2939662" lon="12.1463057"><ele>579.9999999999999</ele><time>2026-04-30T14:15:50.59Z</time></trkpt><trkpt lat="42.2940272" lon="12.1463678"><ele>581.0</ele><time>2026-04-30T14:15:55.584Z</time></trkpt><trkpt lat="42.2940781" lon="12.1464266"><ele>582.0</ele><time>2026-04-30T14:15:59.601Z</time></trkpt><trkpt lat="42.294131" lon="12.1464815"><ele>583.0</ele><time>2026-04-30T14:16:03.587Z</time></trkpt><trkpt lat="42.2941919" lon="12.1465362"><ele>584.0</ele><time>2026-04-30T14:16:07.572Z</time></trkpt><trkpt lat="42.294247" lon="12.1465837"><ele>584.9999999999999</ele><time>2026-04-30T14:16:11.592Z</time></trkpt><trkpt lat="42.294298" lon="12.1466367"><ele>586.0</ele><time>2026-04-30T14:16:15.578Z</time></trkpt><trkpt lat="42.2943547" lon="12.146678"><ele>586.2857142857142</ele><time>2026-04-30T14:16:19.594Z</time></trkpt><trkpt lat="42.2944182" lon="12.1467356"><ele>586.5714285714286</ele><time>2026-04-30T14:16:24.587Z</time></trkpt><trkpt lat="42.2944818" lon="12.1467946"><ele>586.8571428571429</ele><time>2026-04-30T14:16:29.592Z</time></trkpt><trkpt lat="42.2945454" lon="12.1468588"><ele>587.1428571428571</ele><time>2026-04-30T14:16:34.595Z</time></trkpt><trkpt lat="42.2945973" lon="12.146908"><ele>587.4285714285714</ele><time>2026-04-30T14:16:38.591Z</time></trkpt><trkpt lat="42.2946529" lon="12.1469546"><ele>587.7142857142857</ele><time>2026-04-30T14:16:42.588Z</time></trkpt><trkpt lat="42.2947173" lon="12.1470134"><ele>588.0</ele><time>2026-04-30T14:16:47.588Z</time></trkpt><trkpt lat="42.2947697" lon="12.1470669"><ele>589.1428571428571</ele><time>2026-04-30T14:16:51.579Z</time></trkpt><trkpt lat="42.2948225" lon="12.1471267"><ele>590.2857142857142</ele><time>2026-04-30T14:16:55.577Z</time></trkpt><trkpt lat="42.294882" lon="12.1471752"><ele>591.4285714285714</ele><time>2026-04-30T14:16:59.578Z</time></trkpt><trkpt lat="42.2949438" lon="12.1472245"><ele>592.5714285714286</ele><time>2026-04-30T14:17:03.588Z</time></trkpt><trkpt lat="42.2950021" lon="12.1472732"><ele>593.7142857142857</ele><time>2026-04-30T14:17:07.585Z</time></trkpt><trkpt lat="42.2950607" lon="12.1473149"><ele>594.8571428571429</ele><time>2026-04-30T14:17:11.584Z</time></trkpt><trkpt lat="42.2951153" lon="12.1473661"><ele>596.0</ele><time>2026-04-30T14:17:15.595Z</time></trkpt><trkpt lat="42.29517" lon="12.1474121"><ele>596.0</ele><time>2026-04-30T14:17:19.595Z</time></trkpt><trkpt lat="42.2952251" lon="12.1474577"><ele>596.0</ele><time>2026-04-30T14:17:23.579Z</time></trkpt><trkpt lat="42.2952849" lon="12.1474958"><ele>596.0</ele><time>2026-04-30T14:17:27.589Z</time></trkpt><trkpt lat="42.2953468" lon="12.1475284"><ele>596.0</ele><time>2026-04-30T14:17:31.593Z</time></trkpt><trkpt lat="42.2954163" lon="12.1475655"><ele>596.0</ele><time>2026-04-30T14:17:36.591Z</time></trkpt><trkpt lat="42.2954895" lon="12.1476001"><ele>596.0</ele><time>2026-04-30T14:17:41.572Z</time></trkpt><trkpt lat="42.2955597" lon="12.1476435"><ele>596.0</ele><time>2026-04-30T14:17:46.595Z</time></trkpt><trkpt lat="42.2956209" lon="12.147676"><ele>597.0</ele><time>2026-04-30T14:17:50.591Z</time></trkpt><trkpt lat="42.2956799" lon="12.1477303"><ele>598.0</ele><time>2026-04-30T14:17:55.588Z</time></trkpt><trkpt lat="42.2957495" lon="12.1477729"><ele>599.0</ele><time>2026-04-30T14:18:00.59Z</time></trkpt><trkpt lat="42.2958142" lon="12.1478288"><ele>600.0</ele><time>2026-04-30T14:18:06.594Z</time></trkpt><trkpt lat="42.2958703" lon="12.1478883"><ele>601.0</ele><time>2026-04-30T14:18:10.582Z</time></trkpt><trkpt lat="42.2959256" lon="12.1479482"><ele>602.0</ele><time>2026-04-30T14:18:15.599Z</time></trkpt><trkpt lat="42.2959773" lon="12.1480099"><ele>603.0</ele><time>2026-04-30T14:18:19.578Z</time></trkpt><trkpt lat="42.2960234" lon="12.1480702"><ele>603.0</ele><time>2026-04-30T14:18:23.582Z</time></trkpt><trkpt lat="42.2960738" lon="12.1481322"><ele>603.0</ele><time>2026-04-30T14:18:28.598Z</time></trkpt><trkpt lat="42.2961376" lon="12.148196"><ele>603.0</ele><time>2026-04-30T14:18:33.58Z</time></trkpt><trkpt lat="42.2961909" lon="12.1482515"><ele>603.0</ele><time>2026-04-30T14:18:37.59Z</time></trkpt><trkpt lat="42.2962432" lon="12.148305"><ele>603.0</ele><time>2026-04-30T14:18:41.599Z</time></trkpt><trkpt lat="42.2962994" lon="12.1483576"><ele>603.0</ele><time>2026-04-30T14:18:45.577Z</time></trkpt><trkpt lat="42.2963566" lon="12.1484156"><ele>603.0</ele><time>2026-04-30T14:18:50.585Z</time></trkpt><trkpt lat="42.2964072" lon="12.1484676"><ele>604.4285714285714</ele><time>2026-04-30T14:18:55.595Z</time></trkpt><trkpt lat="42.2964678" lon="12.1485309"><ele>605.8571428571428</ele><time>2026-04-30T14:19:00.598Z</time></trkpt><trkpt lat="42.2965346" lon="12.1485839"><ele>607.2857142857142</ele><time>2026-04-30T14:19:05.602Z</time></trkpt><trkpt lat="42.2965846" lon="12.1486419"><ele>608.7142857142858</ele><time>2026-04-30T14:19:09.585Z</time></trkpt><trkpt lat="42.2966373" lon="12.148707"><ele>610.1428571428571</ele><time>2026-04-30T14:19:13.594Z</time></trkpt><trkpt lat="42.2966965" lon="12.1487643"><ele>611.5714285714286</ele><time>2026-04-30T14:19:17.583Z</time></trkpt><trkpt lat="42.2967462" lon="12.148818"><ele>613.0</ele><time>2026-04-30T14:19:21.586Z</time></trkpt><trkpt lat="42.2968053" lon="12.1488683"><ele>613.0</ele><time>2026-04-30T14:19:26.594Z</time></trkpt><trkpt lat="42.2968633" lon="12.1489273"><ele>613.0</ele><time>2026-04-30T14:19:33.575Z</time></trkpt><trkpt lat="42.2969185" lon="12.1489856"><ele>613.0</ele><time>2026-04-30T14:19:39.598Z</time></trkpt><trkpt lat="42.2969727" lon="12.1490427"><ele>613.0</ele><time>2026-04-30T14:19:44.594Z</time></trkpt><trkpt lat="42.2970234" lon="12.1490958"><ele>613.0</ele><time>2026-04-30T14:19:50.592Z</time></trkpt><trkpt lat="42.2970715" lon="12.1491704"><ele>613.0</ele><time>2026-04-30T14:19:55.575Z</time></trkpt><trkpt lat="42.2971358" lon="12.1492385"><ele>613.0</ele><time>2026-04-30T14:19:59.59Z</time></trkpt><trkpt lat="42.2971902" lon="12.1493102"><ele>613.4285714285714</ele><time>2026-04-30T14:20:02.584Z</time></trkpt><trkpt lat="42.2972589" lon="12.1493876"><ele>613.8571428571429</ele><time>2026-04-30T14:20:05.586Z</time></trkpt><trkpt lat="42.2973295" lon="12.1494702"><ele>614.2857142857142</ele><time>2026-04-30T14:20:08.588Z</time></trkpt><trkpt lat="42.2973803" lon="12.149528"><ele>614.7142857142858</ele><time>2026-04-30T14:20:10.588Z</time></trkpt><trkpt lat="42.297426" lon="12.1495894"><ele>615.1428571428571</ele><time>2026-04-30T14:20:12.599Z</time></trkpt><trkpt lat="42.2974745" lon="12.1496486"><ele>615.5714285714286</ele><time>2026-04-30T14:20:14.599Z</time></trkpt><trkpt lat="42.2975225" lon="12.1497052"><ele>616.0</ele><time>2026-04-30T14:20:16.585Z</time></trkpt><trkpt lat="42.297571" lon="12.1497624"><ele>616.0</ele><time>2026-04-30T14:20:18.595Z</time></trkpt><trkpt lat="42.2976446" lon="12.1498364"><ele>616.0</ele><time>2026-04-30T14:20:21.588Z</time></trkpt><trkpt lat="42.2977141" lon="12.1499007"><ele>616.0</ele><time>2026-04-30T14:20:24.587Z</time></trkpt><trkpt lat="42.2977729" lon="12.1499651"><ele>616.0</ele><time>2026-04-30T14:20:27.585Z</time></trkpt><trkpt lat="42.297842" lon="12.1500265"><ele>616.0</ele><time>2026-04-30T14:20:31.591Z</time></trkpt><trkpt lat="42.2978988" lon="12.1500814"><ele>616.0</ele><time>2026-04-30T14:20:34.579Z</time></trkpt><trkpt lat="42.2979541" lon="12.1501451"><ele>615.5714285714286</ele><time>2026-04-30T14:20:38.592Z</time></trkpt><trkpt lat="42.2979599" lon="12.1502308"><ele>615.1428571428571</ele><time>2026-04-30T14:20:43.591Z</time></trkpt><trkpt lat="42.2978785" lon="12.1502913"><ele>614.7142857142858</ele><time>2026-04-30T14:30:29.563Z</time></trkpt><trkpt lat="42.29788" lon="12.150195"><ele>614.2857142857142</ele><time>2026-04-30T14:30:34.581Z</time></trkpt><trkpt lat="42.2979374" lon="12.150253"><ele>613.8571428571429</ele><time>2026-04-30T14:31:03.594Z</time></trkpt><trkpt lat="42.2980056" lon="12.1502103"><ele>613.4285714285714</ele><time>2026-04-30T14:31:07.58Z</time></trkpt><trkpt lat="42.298069" lon="12.1501645"><ele>613.0</ele><time>2026-04-30T14:31:11.577Z</time></trkpt><trkpt lat="42.2981449" lon="12.1501397"><ele>614.4285714285714</ele><time>2026-04-30T14:31:15.585Z</time></trkpt><trkpt lat="42.2982228" lon="12.1501348"><ele>615.8571428571429</ele><time>2026-04-30T14:31:19.586Z</time></trkpt><trkpt lat="42.2982867" lon="12.1501636"><ele>617.2857142857142</ele><time>2026-04-30T14:31:23.579Z</time></trkpt><trkpt lat="42.298351" lon="12.1501829"><ele>618.7142857142858</ele><time>2026-04-30T14:31:26.594Z</time></trkpt><trkpt lat="42.2984231" lon="12.1501645"><ele>620.1428571428571</ele><time>2026-04-30T14:31:30.576Z</time></trkpt><trkpt lat="42.2984821" lon="12.1501142"><ele>621.5714285714286</ele><time>2026-04-30T14:31:35.572Z</time></trkpt><trkpt lat="42.2985343" lon="12.1500425"><ele>623.0</ele><time>2026-04-30T14:31:39.556Z</time></trkpt><trkpt lat="42.2985769" lon="12.1499465"><ele>623.5</ele><time>2026-04-30T14:31:43.577Z</time></trkpt><trkpt lat="42.298622" lon="12.1498556"><ele>624.0</ele><time>2026-04-30T14:31:47.587Z</time></trkpt><trkpt lat="42.2986706" lon="12.1497592"><ele>624.5</ele><time>2026-04-30T14:31:51.572Z</time></trkpt><trkpt lat="42.2987056" lon="12.1496801"><ele>625.0</ele><time>2026-04-30T14:31:54.584Z</time></trkpt><trkpt lat="42.2987603" lon="12.1495966"><ele>625.5</ele><time>2026-04-30T14:31:58.589Z</time></trkpt><trkpt lat="42.2988058" lon="12.1495137"><ele>626.0</ele><time>2026-04-30T14:32:02.588Z</time></trkpt><trkpt lat="42.2988549" lon="12.1494375"><ele>626.0</ele><time>2026-04-30T14:32:06.587Z</time></trkpt><trkpt lat="42.2988955" lon="12.1493701"><ele>626.0</ele><time>2026-04-30T14:32:09.57Z</time></trkpt><trkpt lat="42.2989408" lon="12.1492925"><ele>626.0</ele><time>2026-04-30T14:32:13.599Z</time></trkpt><trkpt lat="42.2989757" lon="12.1491992"><ele>626.0</ele><time>2026-04-30T14:32:17.573Z</time></trkpt><trkpt lat="42.2990051" lon="12.149095"><ele>626.0</ele><time>2026-04-30T14:32:21.584Z</time></trkpt><trkpt lat="42.299029" lon="12.1489945"><ele>626.0</ele><time>2026-04-30T14:32:24.588Z</time></trkpt><trkpt lat="42.2990611" lon="12.1488984"><ele>627.4285714285714</ele><time>2026-04-30T14:32:27.595Z</time></trkpt><trkpt lat="42.2991067" lon="12.1488068"><ele>628.8571428571429</ele><time>2026-04-30T14:32:32.593Z</time></trkpt><trkpt lat="42.299137" lon="12.1487214"><ele>630.2857142857142</ele><time>2026-04-30T14:32:37.581Z</time></trkpt><trkpt lat="42.2991732" lon="12.1486381"><ele>631.7142857142858</ele><time>2026-04-30T14:32:42.585Z</time></trkpt><trkpt lat="42.2992122" lon="12.1485496"><ele>633.1428571428572</ele><time>2026-04-30T14:32:47.583Z</time></trkpt><trkpt lat="42.2992542" lon="12.1484675"><ele>634.5714285714286</ele><time>2026-04-30T14:32:52.584Z</time></trkpt><trkpt lat="42.2992875" lon="12.1483867"><ele>636.0</ele><time>2026-04-30T14:32:56.601Z</time></trkpt><trkpt lat="42.2993421" lon="12.148311"><ele>636.0</ele><time>2026-04-30T14:33:01.583Z</time></trkpt><trkpt lat="42.2993727" lon="12.1482301"><ele>636.0</ele><time>2026-04-30T14:33:05.582Z</time></trkpt><trkpt lat="42.2993924" lon="12.148149"><ele>636.0</ele><time>2026-04-30T14:33:08.582Z</time></trkpt><trkpt lat="42.2994168" lon="12.1480348"><ele>636.0</ele><time>2026-04-30T14:33:11.587Z</time></trkpt><trkpt lat="42.2994401" lon="12.1479281"><ele>636.0</ele><time>2026-04-30T14:33:14.584Z</time></trkpt><trkpt lat="42.2994551" lon="12.1478227"><ele>636.0</ele><time>2026-04-30T14:33:17.58Z</time></trkpt><trkpt lat="42.2994678" lon="12.1477077"><ele>636.0</ele><time>2026-04-30T14:33:20.583Z</time></trkpt><trkpt lat="42.2994737" lon="12.1476131"><ele>636.0</ele><time>2026-04-30T14:33:23.581Z</time></trkpt><trkpt lat="42.2994822" lon="12.1475155"><ele>636.0</ele><time>2026-04-30T14:33:26.59Z</time></trkpt><trkpt lat="42.2994876" lon="12.1474155"><ele>636.0</ele><time>2026-04-30T14:33:29.591Z</time></trkpt><trkpt lat="42.2994992" lon="12.1473076"><ele>636.0</ele><time>2026-04-30T14:33:32.588Z</time></trkpt><trkpt lat="42.299513" lon="12.1471917"><ele>636.0</ele><time>2026-04-30T14:33:35.586Z</time></trkpt><trkpt lat="42.2995246" lon="12.1470703"><ele>636.0</ele><time>2026-04-30T14:33:38.583Z</time></trkpt><trkpt lat="42.2995352" lon="12.1469781"><ele>636.0</ele><time>2026-04-30T14:33:40.588Z</time></trkpt><trkpt lat="42.2995518" lon="12.1468699"><ele>636.0</ele><time>2026-04-30T14:33:42.584Z</time></trkpt><trkpt lat="42.2995722" lon="12.1467577"><ele>636.0</ele><time>2026-04-30T14:33:44.578Z</time></trkpt><trkpt lat="42.2995963" lon="12.1466716"><ele>636.0</ele><time>2026-04-30T14:33:46.586Z</time></trkpt><trkpt lat="42.2996247" lon="12.1465829"><ele>636.0</ele><time>2026-04-30T14:33:48.588Z</time></trkpt><trkpt lat="42.2996496" lon="12.1464668"><ele>635.6666666666666</ele><time>2026-04-30T14:33:50.583Z</time></trkpt><trkpt lat="42.2996707" lon="12.1463792"><ele>635.3333333333334</ele><time>2026-04-30T14:33:52.583Z</time></trkpt><trkpt lat="42.2996935" lon="12.146256"><ele>635.0</ele><time>2026-04-30T14:33:55.583Z</time></trkpt><trkpt lat="42.2997102" lon="12.1461401"><ele>634.6666666666667</ele><time>2026-04-30T14:33:58.578Z</time></trkpt><trkpt lat="42.2997403" lon="12.1460368"><ele>634.3333333333334</ele><time>2026-04-30T14:34:01.587Z</time></trkpt><trkpt lat="42.2997692" lon="12.1459225"><ele>634.0</ele><time>2026-04-30T14:34:04.594Z</time></trkpt><trkpt lat="42.2997876" lon="12.1457994"><ele>635.5714285714286</ele><time>2026-04-30T14:34:07.591Z</time></trkpt><trkpt lat="42.2997984" lon="12.1457047"><ele>637.1428571428571</ele><time>2026-04-30T14:34:09.577Z</time></trkpt><trkpt lat="42.2998104" lon="12.1456207"><ele>638.7142857142858</ele><time>2026-04-30T14:34:11.573Z</time></trkpt><trkpt lat="42.299818" lon="12.1455323"><ele>640.2857142857142</ele><time>2026-04-30T14:34:13.582Z</time></trkpt><trkpt lat="42.2998159" lon="12.1454181"><ele>641.8571428571428</ele><time>2026-04-30T14:34:16.575Z</time></trkpt><trkpt lat="42.2998118" lon="12.145309"><ele>643.4285714285714</ele><time>2026-04-30T14:34:19.568Z</time></trkpt><trkpt lat="42.2997986" lon="12.1451982"><ele>645.0</ele><time>2026-04-30T14:34:22.584Z</time></trkpt><trkpt lat="42.2997908" lon="12.1450835"><ele>645.0</ele><time>2026-04-30T14:34:25.583Z</time></trkpt><trkpt lat="42.299806" lon="12.1449734"><ele>645.0</ele><time>2026-04-30T14:34:28.582Z</time></trkpt><trkpt lat="42.2998288" lon="12.1448604"><ele>645.0</ele><time>2026-04-30T14:34:30.583Z</time></trkpt><trkpt lat="42.2998526" lon="12.144734"><ele>645.0</ele><time>2026-04-30T14:34:32.589Z</time></trkpt><trkpt lat="42.299894" lon="12.1445886"><ele>645.0</ele><time>2026-04-30T14:34:34.587Z</time></trkpt><trkpt lat="42.2999394" lon="12.1444569"><ele>644.8</ele><time>2026-04-30T14:34:36.587Z</time></trkpt><trkpt lat="42.2999595" lon="12.1443226"><ele>644.6</ele><time>2026-04-30T14:34:38.58Z</time></trkpt><trkpt lat="42.2999672" lon="12.1441658"><ele>644.4000000000001</ele><time>2026-04-30T14:34:40.591Z</time></trkpt><trkpt lat="42.2999504" lon="12.1440082"><ele>644.2</ele><time>2026-04-30T14:34:42.576Z</time></trkpt><trkpt lat="42.2999082" lon="12.1438767"><ele>644.0</ele><time>2026-04-30T14:34:44.58Z</time></trkpt><trkpt lat="42.299827" lon="12.1437488"><ele>644.0</ele><time>2026-04-30T14:34:46.576Z</time></trkpt><trkpt lat="42.2997732" lon="12.1436882"><ele>644.0</ele><time>2026-04-30T14:34:47.586Z</time></trkpt><trkpt lat="42.2997108" lon="12.1436395"><ele>644.0</ele><time>2026-04-30T14:34:48.581Z</time></trkpt><trkpt lat="42.2996449" lon="12.1435935"><ele>644.0</ele><time>2026-04-30T14:34:49.571Z</time></trkpt><trkpt lat="42.2995831" lon="12.1435548"><ele>644.0</ele><time>2026-04-30T14:34:50.58Z</time></trkpt><trkpt lat="42.2995094" lon="12.1435061"><ele>644.0</ele><time>2026-04-30T14:34:51.587Z</time></trkpt><trkpt lat="42.2994398" lon="12.1434597"><ele>644.0</ele><time>2026-04-30T14:34:52.581Z</time></trkpt><trkpt lat="42.2993806" lon="12.1434181"><ele>641.6666666666666</ele><time>2026-04-30T14:34:53.575Z</time></trkpt><trkpt lat="42.2993248" lon="12.1433774"><ele>639.3333333333333</ele><time>2026-04-30T14:34:54.595Z</time></trkpt><trkpt lat="42.2992402" lon="12.1433073"><ele>637.0</ele><time>2026-04-30T14:34:56.59Z</time></trkpt><trkpt lat="42.2991995" lon="12.1432321"><ele>634.6666666666666</ele><time>2026-04-30T14:34:59.601Z</time></trkpt><trkpt lat="42.299188" lon="12.1431267"><ele>632.3333333333334</ele><time>2026-04-30T14:35:03.58Z</time></trkpt><trkpt lat="42.299157" lon="12.1430018"><ele>630.0</ele><time>2026-04-30T14:35:06.583Z</time></trkpt><trkpt lat="42.2991295" lon="12.1429156"><ele>630.0</ele><time>2026-04-30T14:35:07.586Z</time></trkpt><trkpt lat="42.2991037" lon="12.1428259"><ele>630.0</ele><time>2026-04-30T14:35:08.578Z</time></trkpt><trkpt lat="42.2990762" lon="12.1427312"><ele>630.0</ele><time>2026-04-30T14:35:09.58Z</time></trkpt><trkpt lat="42.2990464" lon="12.1426441"><ele>630.0</ele><time>2026-04-30T14:35:10.594Z</time></trkpt><trkpt lat="42.2990161" lon="12.1425575"><ele>630.0</ele><time>2026-04-30T14:35:11.584Z</time></trkpt><trkpt lat="42.2989814" lon="12.1424719"><ele>630.0</ele><time>2026-04-30T14:35:12.592Z</time></trkpt><trkpt lat="42.2989458" lon="12.1423916"><ele>630.0</ele><time>2026-04-30T14:35:13.579Z</time></trkpt><trkpt lat="42.2989021" lon="12.1423037"><ele>628.7142857142857</ele><time>2026-04-30T14:35:14.593Z</time></trkpt><trkpt lat="42.2988653" lon="12.1422267"><ele>627.4285714285714</ele><time>2026-04-30T14:35:15.596Z</time></trkpt><trkpt lat="42.2988224" lon="12.1421554"><ele>626.1428571428571</ele><time>2026-04-30T14:35:16.587Z</time></trkpt><trkpt lat="42.2987696" lon="12.1421"><ele>624.8571428571429</ele><time>2026-04-30T14:35:17.587Z</time></trkpt><trkpt lat="42.2987135" lon="12.1420606"><ele>623.5714285714286</ele><time>2026-04-30T14:35:18.583Z</time></trkpt><trkpt lat="42.2986538" lon="12.1420169"><ele>622.2857142857142</ele><time>2026-04-30T14:35:19.588Z</time></trkpt><trkpt lat="42.298593" lon="12.1419726"><ele>621.0</ele><time>2026-04-30T14:35:20.583Z</time></trkpt><trkpt lat="42.2985259" lon="12.1419256"><ele>621.0</ele><time>2026-04-30T14:35:21.581Z</time></trkpt><trkpt lat="42.2984594" lon="12.1418763"><ele>621.0</ele><time>2026-04-30T14:35:22.58Z</time></trkpt><trkpt lat="42.2983948" lon="12.1418253"><ele>621.0</ele><time>2026-04-30T14:35:23.585Z</time></trkpt><trkpt lat="42.2983287" lon="12.1417719"><ele>621.0</ele><time>2026-04-30T14:35:24.589Z</time></trkpt><trkpt lat="42.2982678" lon="12.141712"><ele>621.0</ele><time>2026-04-30T14:35:25.58Z</time></trkpt><trkpt lat="42.29822" lon="12.1416386"><ele>621.0</ele><time>2026-04-30T14:35:26.594Z</time></trkpt><trkpt lat="42.2981773" lon="12.1415427"><ele>619.8333333333334</ele><time>2026-04-30T14:35:27.588Z</time></trkpt><trkpt lat="42.2981442" lon="12.1414407"><ele>618.6666666666666</ele><time>2026-04-30T14:35:28.586Z</time></trkpt><trkpt lat="42.2981142" lon="12.1413351"><ele>617.5</ele><time>2026-04-30T14:35:29.586Z</time></trkpt><trkpt lat="42.2980841" lon="12.1412328"><ele>616.3333333333333</ele><time>2026-04-30T14:35:30.578Z</time></trkpt><trkpt lat="42.298062" lon="12.1411371"><ele>615.1666666666666</ele><time>2026-04-30T14:35:31.578Z</time></trkpt><trkpt lat="42.2980378" lon="12.1410511"><ele>614.0</ele><time>2026-04-30T14:35:32.575Z</time></trkpt><trkpt lat="42.298021" lon="12.1409534"><ele>612.3333333333333</ele><time>2026-04-30T14:35:33.583Z</time></trkpt><trkpt lat="42.2980101" lon="12.1408597"><ele>610.6666666666666</ele><time>2026-04-30T14:35:34.588Z</time></trkpt><trkpt lat="42.2979925" lon="12.1407553"><ele>609.0</ele><time>2026-04-30T14:35:35.576Z</time></trkpt><trkpt lat="42.2979892" lon="12.1406341"><ele>607.3333333333334</ele><time>2026-04-30T14:35:36.587Z</time></trkpt><trkpt lat="42.2979869" lon="12.1405076"><ele>605.6666666666667</ele><time>2026-04-30T14:35:37.574Z</time></trkpt><trkpt lat="42.2979782" lon="12.1403838"><ele>604.0</ele><time>2026-04-30T14:35:38.585Z</time></trkpt><trkpt lat="42.2979703" lon="12.1402576"><ele>602.3333333333334</ele><time>2026-04-30T14:35:39.579Z</time></trkpt><trkpt lat="42.2979716" lon="12.1401331"><ele>600.6666666666667</ele><time>2026-04-30T14:35:40.59Z</time></trkpt><trkpt lat="42.2979662" lon="12.1400099"><ele>599.0</ele><time>2026-04-30T14:35:41.58Z</time></trkpt><trkpt lat="42.2979557" lon="12.1398943"><ele>597.3333333333334</ele><time>2026-04-30T14:35:42.592Z</time></trkpt><trkpt lat="42.2979488" lon="12.1397782"><ele>595.6666666666666</ele><time>2026-04-30T14:35:43.576Z</time></trkpt><trkpt lat="42.2979427" lon="12.1396558"><ele>594.0</ele><time>2026-04-30T14:35:44.576Z</time></trkpt><trkpt lat="42.2979395" lon="12.1395463"><ele>592.8333333333334</ele><time>2026-04-30T14:35:45.585Z</time></trkpt><trkpt lat="42.2979403" lon="12.1394495"><ele>591.6666666666666</ele><time>2026-04-30T14:35:46.576Z</time></trkpt><trkpt lat="42.297937" lon="12.1393534"><ele>590.5</ele><time>2026-04-30T14:35:47.605Z</time></trkpt><trkpt lat="42.2979376" lon="12.1392575"><ele>589.3333333333333</ele><time>2026-04-30T14:35:48.584Z</time></trkpt><trkpt lat="42.2979467" lon="12.1391657"><ele>588.1666666666666</ele><time>2026-04-30T14:35:49.581Z</time></trkpt><trkpt lat="42.297964" lon="12.1390811"><ele>587.0</ele><time>2026-04-30T14:35:50.583Z</time></trkpt><trkpt lat="42.2980335" lon="12.1389457"><ele>587.0</ele><time>2026-04-30T14:35:52.575Z</time></trkpt><trkpt lat="42.298078" lon="12.1388821"><ele>587.0</ele><time>2026-04-30T14:35:53.58Z</time></trkpt><trkpt lat="42.2981184" lon="12.1388122"><ele>587.0</ele><time>2026-04-30T14:35:54.58Z</time></trkpt><trkpt lat="42.2981565" lon="12.1387269"><ele>587.0</ele><time>2026-04-30T14:35:55.579Z</time></trkpt><trkpt lat="42.2981875" lon="12.1386262"><ele>587.0</ele><time>2026-04-30T14:35:56.575Z</time></trkpt><trkpt lat="42.2982174" lon="12.1385208"><ele>587.0</ele><time>2026-04-30T14:35:57.57Z</time></trkpt><trkpt lat="42.2982371" lon="12.1384288"><ele>587.0</ele><time>2026-04-30T14:35:58.574Z</time></trkpt><trkpt lat="42.2982511" lon="12.1383295"><ele>587.0</ele><time>2026-04-30T14:35:59.582Z</time></trkpt><trkpt lat="42.298259" lon="12.138228"><ele>587.0</ele><time>2026-04-30T14:36:00.594Z</time></trkpt><trkpt lat="42.2982597" lon="12.1381286"><ele>587.0</ele><time>2026-04-30T14:36:01.58Z</time></trkpt><trkpt lat="42.2982522" lon="12.1380312"><ele>587.0</ele><time>2026-04-30T14:36:02.591Z</time></trkpt><trkpt lat="42.2982361" lon="12.1379407"><ele>587.0</ele><time>2026-04-30T14:36:03.573Z</time></trkpt><trkpt lat="42.2982168" lon="12.1378546"><ele>587.0</ele><time>2026-04-30T14:36:04.582Z</time></trkpt><trkpt lat="42.2981938" lon="12.1377688"><ele>587.0</ele><time>2026-04-30T14:36:05.583Z</time></trkpt><trkpt lat="42.2981759" lon="12.1376863"><ele>587.25</ele><time>2026-04-30T14:36:06.583Z</time></trkpt><trkpt lat="42.2981373" lon="12.1375266"><ele>587.5</ele><time>2026-04-30T14:36:08.589Z</time></trkpt><trkpt lat="42.2981001" lon="12.1373696"><ele>587.75</ele><time>2026-04-30T14:36:10.58Z</time></trkpt><trkpt lat="42.2980673" lon="12.1372313"><ele>588.0</ele><time>2026-04-30T14:36:12.579Z</time></trkpt><trkpt lat="42.2980242" lon="12.1370967"><ele>585.6666666666666</ele><time>2026-04-30T14:36:14.602Z</time></trkpt><trkpt lat="42.2979833" lon="12.136942"><ele>583.3333333333334</ele><time>2026-04-30T14:36:16.581Z</time></trkpt><trkpt lat="42.2979697" lon="12.1368547"><ele>581.0</ele><time>2026-04-30T14:36:17.574Z</time></trkpt><trkpt lat="42.2979495" lon="12.1367621"><ele>578.6666666666667</ele><time>2026-04-30T14:36:18.587Z</time></trkpt><trkpt lat="42.2979361" lon="12.1366764"><ele>576.3333333333334</ele><time>2026-04-30T14:36:19.584Z</time></trkpt><trkpt lat="42.2979289" lon="12.1365914"><ele>574.0</ele><time>2026-04-30T14:36:20.598Z</time></trkpt><trkpt lat="42.2979252" lon="12.1365019"><ele>573.7142857142857</ele><time>2026-04-30T14:36:21.584Z</time></trkpt><trkpt lat="42.2979233" lon="12.1364144"><ele>573.4285714285714</ele><time>2026-04-30T14:36:22.591Z</time></trkpt><trkpt lat="42.2979172" lon="12.1363247"><ele>573.1428571428571</ele><time>2026-04-30T14:36:23.59Z</time></trkpt><trkpt lat="42.2979037" lon="12.1362231"><ele>572.8571428571429</ele><time>2026-04-30T14:36:24.578Z</time></trkpt><trkpt lat="42.2978799" lon="12.1361276"><ele>572.5714285714286</ele><time>2026-04-30T14:36:25.585Z</time></trkpt><trkpt lat="42.297847" lon="12.1360371"><ele>572.2857142857142</ele><time>2026-04-30T14:36:26.587Z</time></trkpt><trkpt lat="42.2978079" lon="12.1359462"><ele>572.0</ele><time>2026-04-30T14:36:27.598Z</time></trkpt><trkpt lat="42.297779" lon="12.1358493"><ele>572.0</ele><time>2026-04-30T14:36:28.585Z</time></trkpt><trkpt lat="42.2977474" lon="12.1357492"><ele>572.0</ele><time>2026-04-30T14:36:29.581Z</time></trkpt><trkpt lat="42.2977111" lon="12.1356498"><ele>572.0</ele><time>2026-04-30T14:36:30.579Z</time></trkpt><trkpt lat="42.2976731" lon="12.1355478"><ele>572.0</ele><time>2026-04-30T14:36:31.576Z</time></trkpt><trkpt lat="42.297636" lon="12.1354485"><ele>572.0</ele><time>2026-04-30T14:36:32.574Z</time></trkpt><trkpt lat="42.297603" lon="12.1353387"><ele>572.0</ele><time>2026-04-30T14:36:33.578Z</time></trkpt><trkpt lat="42.2975668" lon="12.1352383"><ele>570.8333333333333</ele><time>2026-04-30T14:36:34.592Z</time></trkpt><trkpt lat="42.2975317" lon="12.1351412"><ele>569.6666666666666</ele><time>2026-04-30T14:36:35.577Z</time></trkpt><trkpt lat="42.2974949" lon="12.1350443"><ele>568.5</ele><time>2026-04-30T14:36:36.581Z</time></trkpt><trkpt lat="42.2974543" lon="12.1349328"><ele>567.3333333333334</ele><time>2026-04-30T14:36:37.593Z</time></trkpt><trkpt lat="42.2974153" lon="12.1348291"><ele>566.1666666666667</ele><time>2026-04-30T14:36:38.581Z</time></trkpt><trkpt lat="42.2973756" lon="12.1347269"><ele>565.0</ele><time>2026-04-30T14:36:39.596Z</time></trkpt><trkpt lat="42.2973385" lon="12.134623"><ele>563.8333333333334</ele><time>2026-04-30T14:36:40.586Z</time></trkpt><trkpt lat="42.2973005" lon="12.1345158"><ele>562.6666666666667</ele><time>2026-04-30T14:36:41.575Z</time></trkpt><trkpt lat="42.2972604" lon="12.134406"><ele>561.5</ele><time>2026-04-30T14:36:42.58Z</time></trkpt><trkpt lat="42.2972223" lon="12.1342983"><ele>560.3333333333334</ele><time>2026-04-30T14:36:43.585Z</time></trkpt><trkpt lat="42.2971904" lon="12.1342025"><ele>559.1666666666666</ele><time>2026-04-30T14:36:44.591Z</time></trkpt><trkpt lat="42.2971639" lon="12.1341125"><ele>558.0</ele><time>2026-04-30T14:36:45.579Z</time></trkpt><trkpt lat="42.2971298" lon="12.1340284"><ele>556.3333333333334</ele><time>2026-04-30T14:36:46.587Z</time></trkpt><trkpt lat="42.2970916" lon="12.1339473"><ele>554.6666666666666</ele><time>2026-04-30T14:36:47.579Z</time></trkpt><trkpt lat="42.2970561" lon="12.1338559"><ele>553.0</ele><time>2026-04-30T14:36:48.586Z</time></trkpt><trkpt lat="42.2970273" lon="12.1337631"><ele>551.3333333333333</ele><time>2026-04-30T14:36:49.584Z</time></trkpt><trkpt lat="42.2970006" lon="12.1336636"><ele>549.6666666666666</ele><time>2026-04-30T14:36:51.588Z</time></trkpt><trkpt lat="42.2970753" lon="12.1336177"><ele>548.0</ele><time>2026-04-30T14:37:05.581Z</time></trkpt><trkpt lat="42.2971291" lon="12.1335454"><ele>548.0</ele><time>2026-04-30T14:37:08.581Z</time></trkpt><trkpt lat="42.2971911" lon="12.1334546"><ele>548.0</ele><time>2026-04-30T14:37:11.572Z</time></trkpt><trkpt lat="42.2972429" lon="12.1334015"><ele>548.0</ele><time>2026-04-30T14:37:13.581Z</time></trkpt><trkpt lat="42.29731" lon="12.1333571"><ele>548.0</ele><time>2026-04-30T14:37:15.575Z</time></trkpt><trkpt lat="42.2973909" lon="12.1332732"><ele>548.0</ele><time>2026-04-30T14:37:17.58Z</time></trkpt><trkpt lat="42.2974512" lon="12.1331564"><ele>548.0</ele><time>2026-04-30T14:37:19.591Z</time></trkpt><trkpt lat="42.2974663" lon="12.1330072"><ele>547.1999999999999</ele><time>2026-04-30T14:37:21.581Z</time></trkpt><trkpt lat="42.2974704" lon="12.1328433"><ele>546.4</ele><time>2026-04-30T14:37:23.595Z</time></trkpt><trkpt lat="42.2974673" lon="12.1326624"><ele>545.5999999999999</ele><time>2026-04-30T14:37:25.587Z</time></trkpt><trkpt lat="42.29747" lon="12.1325708"><ele>544.8</ele><time>2026-04-30T14:37:26.59Z</time></trkpt><trkpt lat="42.297467" lon="12.132476"><ele>544.0</ele><time>2026-04-30T14:37:27.573Z</time></trkpt><trkpt lat="42.2974709" lon="12.1323763"><ele>543.1428571428571</ele><time>2026-04-30T14:37:28.591Z</time></trkpt><trkpt lat="42.2974766" lon="12.1322735"><ele>542.2857142857142</ele><time>2026-04-30T14:37:29.575Z</time></trkpt><trkpt lat="42.2974815" lon="12.1321773"><ele>541.4285714285714</ele><time>2026-04-30T14:37:30.602Z</time></trkpt><trkpt lat="42.2974888" lon="12.1320786"><ele>540.5714285714286</ele><time>2026-04-30T14:37:31.586Z</time></trkpt><trkpt lat="42.2974907" lon="12.1319791"><ele>539.7142857142858</ele><time>2026-04-30T14:37:32.581Z</time></trkpt><trkpt lat="42.2974884" lon="12.1318808"><ele>538.8571428571429</ele><time>2026-04-30T14:37:33.577Z</time></trkpt><trkpt lat="42.2974903" lon="12.1317788"><ele>538.0</ele><time>2026-04-30T14:37:34.588Z</time></trkpt><trkpt lat="42.2974934" lon="12.1316748"><ele>538.0</ele><time>2026-04-30T14:37:35.584Z</time></trkpt><trkpt lat="42.2975021" lon="12.1315654"><ele>538.0</ele><time>2026-04-30T14:37:36.58Z</time></trkpt><trkpt lat="42.2975142" lon="12.1314607"><ele>538.0</ele><time>2026-04-30T14:37:37.589Z</time></trkpt><trkpt lat="42.2975277" lon="12.1313641"><ele>538.0</ele><time>2026-04-30T14:37:38.595Z</time></trkpt><trkpt lat="42.297544" lon="12.1312724"><ele>538.0</ele><time>2026-04-30T14:37:39.582Z</time></trkpt><trkpt lat="42.2975571" lon="12.1311751"><ele>538.0</ele><time>2026-04-30T14:37:40.584Z</time></trkpt><trkpt lat="42.2975769" lon="12.131072"><ele>537.1666666666667</ele><time>2026-04-30T14:37:41.575Z</time></trkpt><trkpt lat="42.297601" lon="12.1309653"><ele>536.3333333333334</ele><time>2026-04-30T14:37:42.581Z</time></trkpt><trkpt lat="42.2976286" lon="12.1308626"><ele>535.5</ele><time>2026-04-30T14:37:43.578Z</time></trkpt><trkpt lat="42.2976583" lon="12.1307566"><ele>534.6666666666666</ele><time>2026-04-30T14:37:44.601Z</time></trkpt><trkpt lat="42.2976945" lon="12.1306591"><ele>533.8333333333333</ele><time>2026-04-30T14:37:45.583Z</time></trkpt><trkpt lat="42.297735" lon="12.1305691"><ele>533.0</ele><time>2026-04-30T14:37:46.586Z</time></trkpt><trkpt lat="42.2977797" lon="12.1304828"><ele>532.3333333333333</ele><time>2026-04-30T14:37:47.582Z</time></trkpt><trkpt lat="42.297829" lon="12.1304131"><ele>531.6666666666666</ele><time>2026-04-30T14:37:48.578Z</time></trkpt><trkpt lat="42.297879" lon="12.1303484"><ele>531.0</ele><time>2026-04-30T14:37:49.591Z</time></trkpt><trkpt lat="42.2979314" lon="12.1302905"><ele>530.3333333333334</ele><time>2026-04-30T14:37:50.58Z</time></trkpt><trkpt lat="42.2979806" lon="12.1302326"><ele>529.6666666666667</ele><time>2026-04-30T14:37:51.599Z</time></trkpt><trkpt lat="42.2980273" lon="12.1301627"><ele>529.0</ele><time>2026-04-30T14:37:52.566Z</time></trkpt><trkpt lat="42.298118" lon="12.130038"><ele>529.0</ele><time>2026-04-30T14:37:54.569Z</time></trkpt><trkpt lat="42.2981547" lon="12.1299656"><ele>529.0</ele><time>2026-04-30T14:37:55.59Z</time></trkpt><trkpt lat="42.2982011" lon="12.1298947"><ele>529.0</ele><time>2026-04-30T14:37:56.581Z</time></trkpt><trkpt lat="42.2982493" lon="12.1297351"><ele>529.0</ele><time>2026-04-30T14:37:58.59Z</time></trkpt><trkpt lat="42.298262" lon="12.1296506"><ele>529.0</ele><time>2026-04-30T14:37:59.581Z</time></trkpt><trkpt lat="42.2982639" lon="12.1294989"><ele>529.0</ele><time>2026-04-30T14:38:01.586Z</time></trkpt><trkpt lat="42.2982648" lon="12.1293532"><ele>529.2</ele><time>2026-04-30T14:38:03.578Z</time></trkpt><trkpt lat="42.2982797" lon="12.1292126"><ele>529.4</ele><time>2026-04-30T14:38:05.591Z</time></trkpt><trkpt lat="42.2982992" lon="12.1290777"><ele>529.6</ele><time>2026-04-30T14:38:07.572Z</time></trkpt><trkpt lat="42.2983131" lon="12.1289536"><ele>529.8</ele><time>2026-04-30T14:38:09.582Z</time></trkpt><trkpt lat="42.2983346" lon="12.1288383"><ele>530.0</ele><time>2026-04-30T14:38:11.591Z</time></trkpt><trkpt lat="42.298365" lon="12.1287367"><ele>530.0</ele><time>2026-04-30T14:38:13.585Z</time></trkpt><trkpt lat="42.2983875" lon="12.1286324"><ele>530.0</ele><time>2026-04-30T14:38:15.592Z</time></trkpt><trkpt lat="42.2983928" lon="12.1285295"><ele>530.0</ele><time>2026-04-30T14:38:17.584Z</time></trkpt><trkpt lat="42.2984023" lon="12.1284193"><ele>530.0</ele><time>2026-04-30T14:38:19.592Z</time></trkpt><trkpt lat="42.2984156" lon="12.1283139"><ele>530.0</ele><time>2026-04-30T14:38:21.584Z</time></trkpt><trkpt lat="42.2984365" lon="12.1281993"><ele>530.0</ele><time>2026-04-30T14:38:23.581Z</time></trkpt><trkpt lat="42.2984854" lon="12.1280769"><ele>529.1666666666666</ele><time>2026-04-30T14:38:25.582Z</time></trkpt><trkpt lat="42.2985449" lon="12.1279433"><ele>528.3333333333333</ele><time>2026-04-30T14:38:27.577Z</time></trkpt><trkpt lat="42.2985845" lon="12.1278722"><ele>527.5</ele><time>2026-04-30T14:38:28.59Z</time></trkpt><trkpt lat="42.298634" lon="12.1278081"><ele>526.6666666666666</ele><time>2026-04-30T14:38:29.584Z</time></trkpt><trkpt lat="42.2986883" lon="12.1277416"><ele>525.8333333333334</ele><time>2026-04-30T14:38:30.582Z</time></trkpt><trkpt lat="42.2987445" lon="12.1276724"><ele>525.0</ele><time>2026-04-30T14:38:31.577Z</time></trkpt><trkpt lat="42.2988023" lon="12.1275954"><ele>525.0</ele><time>2026-04-30T14:38:32.584Z</time></trkpt><trkpt lat="42.2988613" lon="12.1275099"><ele>525.0</ele><time>2026-04-30T14:38:33.568Z</time></trkpt><trkpt lat="42.2989229" lon="12.1274255"><ele>525.0</ele><time>2026-04-30T14:38:34.583Z</time></trkpt><trkpt lat="42.2989846" lon="12.1273398"><ele>525.0</ele><time>2026-04-30T14:38:35.579Z</time></trkpt><trkpt lat="42.2990453" lon="12.1272564"><ele>525.0</ele><time>2026-04-30T14:38:36.58Z</time></trkpt><trkpt lat="42.2991073" lon="12.1271763"><ele>525.0</ele><time>2026-04-30T14:38:37.581Z</time></trkpt><trkpt lat="42.299168" lon="12.1271027"><ele>523.8333333333334</ele><time>2026-04-30T14:38:38.578Z</time></trkpt><trkpt lat="42.2992321" lon="12.1270121"><ele>522.6666666666666</ele><time>2026-04-30T14:38:39.58Z</time></trkpt><trkpt lat="42.2992926" lon="12.1269366"><ele>521.5</ele><time>2026-04-30T14:38:40.586Z</time></trkpt><trkpt lat="42.2993524" lon="12.1268658"><ele>520.3333333333333</ele><time>2026-04-30T14:38:41.566Z</time></trkpt><trkpt lat="42.2994094" lon="12.1267983"><ele>519.1666666666666</ele><time>2026-04-30T14:38:42.579Z</time></trkpt><trkpt lat="42.299464" lon="12.126716"><ele>518.0</ele><time>2026-04-30T14:38:43.582Z</time></trkpt><trkpt lat="42.2995177" lon="12.1266511"><ele>518.0</ele><time>2026-04-30T14:38:44.576Z</time></trkpt><trkpt lat="42.2995679" lon="12.1265871"><ele>518.0</ele><time>2026-04-30T14:38:45.587Z</time></trkpt><trkpt lat="42.2996173" lon="12.1265251"><ele>518.0</ele><time>2026-04-30T14:38:46.587Z</time></trkpt><trkpt lat="42.2996646" lon="12.1264652"><ele>518.0</ele><time>2026-04-30T14:38:47.593Z</time></trkpt><trkpt lat="42.2997502" lon="12.1263453"><ele>518.0</ele><time>2026-04-30T14:38:49.587Z</time></trkpt><trkpt lat="42.2998002" lon="12.1262887"><ele>518.0</ele><time>2026-04-30T14:38:50.582Z</time></trkpt><trkpt lat="42.299884" lon="12.1261911"><ele>517.6666666666666</ele><time>2026-04-30T14:38:52.576Z</time></trkpt><trkpt lat="42.2999479" lon="12.1261025"><ele>517.3333333333333</ele><time>2026-04-30T14:38:54.589Z</time></trkpt><trkpt lat="42.300003" lon="12.1260063"><ele>517.0</ele><time>2026-04-30T14:38:56.587Z</time></trkpt><trkpt lat="42.3000524" lon="12.1259137"><ele>516.6666666666666</ele><time>2026-04-30T14:38:58.599Z</time></trkpt><trkpt lat="42.3001073" lon="12.1258186"><ele>516.3333333333334</ele><time>2026-04-30T14:39:00.593Z</time></trkpt><trkpt lat="42.300176" lon="12.125738"><ele>516.0</ele><time>2026-04-30T14:39:02.59Z</time></trkpt><trkpt lat="42.3002353" lon="12.1256687"><ele>515.6666666666666</ele><time>2026-04-30T14:39:04.581Z</time></trkpt><trkpt lat="42.3002939" lon="12.1256119"><ele>515.3333333333334</ele><time>2026-04-30T14:39:06.592Z</time></trkpt><trkpt lat="42.3003615" lon="12.1255193"><ele>515.0</ele><time>2026-04-30T14:39:09.581Z</time></trkpt><trkpt lat="42.3004089" lon="12.1254599"><ele>514.6666666666667</ele><time>2026-04-30T14:39:11.588Z</time></trkpt><trkpt lat="42.3004683" lon="12.1253869"><ele>514.3333333333334</ele><time>2026-04-30T14:39:14.593Z</time></trkpt><trkpt lat="42.300518" lon="12.1253259"><ele>514.0</ele><time>2026-04-30T14:39:17.577Z</time></trkpt><trkpt lat="42.3005688" lon="12.1252584"><ele>514.8333333333334</ele><time>2026-04-30T14:39:20.581Z</time></trkpt><trkpt lat="42.3006188" lon="12.125188"><ele>515.6666666666667</ele><time>2026-04-30T14:39:23.583Z</time></trkpt><trkpt lat="42.3006743" lon="12.1251188"><ele>516.5</ele><time>2026-04-30T14:39:26.581Z</time></trkpt><trkpt lat="42.3007286" lon="12.1250507"><ele>517.3333333333334</ele><time>2026-04-30T14:39:29.574Z</time></trkpt><trkpt lat="42.3007425" lon="12.1249575"><ele>518.1666666666666</ele><time>2026-04-30T14:39:32.579Z</time></trkpt><trkpt lat="42.3006923" lon="12.1248636"><ele>519.0</ele><time>2026-04-30T14:39:35.573Z</time></trkpt><trkpt lat="42.3006101" lon="12.1247948"><ele>517.8</ele><time>2026-04-30T14:39:37.592Z</time></trkpt><trkpt lat="42.3005178" lon="12.1247249"><ele>516.5999999999999</ele><time>2026-04-30T14:39:39.592Z</time></trkpt><trkpt lat="42.3004373" lon="12.1246652"><ele>515.4</ele><time>2026-04-30T14:39:41.572Z</time></trkpt><trkpt lat="42.3003418" lon="12.1245809"><ele>514.1999999999999</ele><time>2026-04-30T14:39:43.581Z</time></trkpt><trkpt lat="42.3002394" lon="12.1244853"><ele>513.0</ele><time>2026-04-30T14:39:45.577Z</time></trkpt><trkpt lat="42.3001392" lon="12.1243869"><ele>513.0</ele><time>2026-04-30T14:39:47.583Z</time></trkpt><trkpt lat="42.300086" lon="12.1243303"><ele>513.0</ele><time>2026-04-30T14:39:48.584Z</time></trkpt><trkpt lat="42.3000347" lon="12.1242772"><ele>513.0</ele><time>2026-04-30T14:39:49.587Z</time></trkpt><trkpt lat="42.2999832" lon="12.1242198"><ele>513.0</ele><time>2026-04-30T14:39:50.583Z</time></trkpt><trkpt lat="42.2999351" lon="12.1241563"><ele>513.0</ele><time>2026-04-30T14:39:51.575Z</time></trkpt><trkpt lat="42.2998428" lon="12.1240435"><ele>513.0</ele><time>2026-04-30T14:39:53.58Z</time></trkpt><trkpt lat="42.2997403" lon="12.1239327"><ele>511.6666666666667</ele><time>2026-04-30T14:39:55.579Z</time></trkpt><trkpt lat="42.2996856" lon="12.1238711"><ele>510.33333333333337</ele><time>2026-04-30T14:39:56.585Z</time></trkpt><trkpt lat="42.2996281" lon="12.1238142"><ele>509.0</ele><time>2026-04-30T14:39:57.581Z</time></trkpt><trkpt lat="42.2995668" lon="12.1237572"><ele>507.6666666666667</ele><time>2026-04-30T14:39:58.575Z</time></trkpt><trkpt lat="42.299505" lon="12.1236854"><ele>506.33333333333337</ele><time>2026-04-30T14:39:59.582Z</time></trkpt><trkpt lat="42.2994448" lon="12.1236215"><ele>505.0</ele><time>2026-04-30T14:40:00.59Z</time></trkpt><trkpt lat="42.2993842" lon="12.1235557"><ele>505.00000000000006</ele><time>2026-04-30T14:40:01.582Z</time></trkpt><trkpt lat="42.2993244" lon="12.1234839"><ele>505.0</ele><time>2026-04-30T14:40:02.579Z</time></trkpt><trkpt lat="42.2992714" lon="12.1234045"><ele>505.0</ele><time>2026-04-30T14:40:03.586Z</time></trkpt><trkpt lat="42.2992243" lon="12.1233194"><ele>505.0</ele><time>2026-04-30T14:40:04.584Z</time></trkpt><trkpt lat="42.2991814" lon="12.1232367"><ele>505.00000000000006</ele><time>2026-04-30T14:40:05.576Z</time></trkpt><trkpt lat="42.2991437" lon="12.1231524"><ele>505.0</ele><time>2026-04-30T14:40:06.587Z</time></trkpt><trkpt lat="42.2990977" lon="12.1230719"><ele>505.1666666666667</ele><time>2026-04-30T14:40:07.589Z</time></trkpt><trkpt lat="42.2990578" lon="12.1229803"><ele>505.33333333333337</ele><time>2026-04-30T14:40:08.592Z</time></trkpt><trkpt lat="42.2990178" lon="12.1228808"><ele>505.5</ele><time>2026-04-30T14:40:09.574Z</time></trkpt><trkpt lat="42.2989801" lon="12.1227736"><ele>505.66666666666663</ele><time>2026-04-30T14:40:10.596Z</time></trkpt><trkpt lat="42.2989464" lon="12.1226668"><ele>505.8333333333333</ele><time>2026-04-30T14:40:11.588Z</time></trkpt><trkpt lat="42.2989204" lon="12.1225615"><ele>506.0</ele><time>2026-04-30T14:40:12.584Z</time></trkpt><trkpt lat="42.2988978" lon="12.1224479"><ele>504.66666666666663</ele><time>2026-04-30T14:40:13.576Z</time></trkpt><trkpt lat="42.2988683" lon="12.1223383"><ele>503.3333333333333</ele><time>2026-04-30T14:40:14.581Z</time></trkpt><trkpt lat="42.2988323" lon="12.1222307"><ele>502.0</ele><time>2026-04-30T14:40:15.582Z</time></trkpt><trkpt lat="42.2987999" lon="12.1221377"><ele>500.66666666666663</ele><time>2026-04-30T14:40:16.587Z</time></trkpt><trkpt lat="42.2987634" lon="12.1220462"><ele>499.3333333333333</ele><time>2026-04-30T14:40:17.581Z</time></trkpt><trkpt lat="42.2987291" lon="12.1219605"><ele>498.0</ele><time>2026-04-30T14:40:18.59Z</time></trkpt><trkpt lat="42.2986608" lon="12.1218144"><ele>498.0</ele><time>2026-04-30T14:40:20.583Z</time></trkpt><trkpt lat="42.2986148" lon="12.121731"><ele>497.99999999999994</ele><time>2026-04-30T14:40:21.583Z</time></trkpt><trkpt lat="42.2985643" lon="12.1216646"><ele>497.99999999999994</ele><time>2026-04-30T14:40:22.569Z</time></trkpt><trkpt lat="42.2984728" lon="12.1215376"><ele>498.0</ele><time>2026-04-30T14:40:24.609Z</time></trkpt><trkpt lat="42.2984234" lon="12.121484"><ele>498.0</ele><time>2026-04-30T14:40:25.585Z</time></trkpt><trkpt lat="42.2983279" lon="12.1213897"><ele>498.4</ele><time>2026-04-30T14:40:27.593Z</time></trkpt><trkpt lat="42.298242" lon="12.1213024"><ele>498.79999999999995</ele><time>2026-04-30T14:40:29.586Z</time></trkpt><trkpt lat="42.2981496" lon="12.1212163"><ele>499.2</ele><time>2026-04-30T14:40:31.59Z</time></trkpt><trkpt lat="42.2980459" lon="12.1211456"><ele>499.6</ele><time>2026-04-30T14:40:33.575Z</time></trkpt><trkpt lat="42.2979491" lon="12.1210698"><ele>500.0</ele><time>2026-04-30T14:40:35.574Z</time></trkpt><trkpt lat="42.2978488" lon="12.1210152"><ele>499.99999999999994</ele><time>2026-04-30T14:40:37.585Z</time></trkpt><trkpt lat="42.2977404" lon="12.1209662"><ele>500.0</ele><time>2026-04-30T14:40:39.591Z</time></trkpt><trkpt lat="42.297682" lon="12.1209285"><ele>500.0</ele><time>2026-04-30T14:40:40.577Z</time></trkpt><trkpt lat="42.2975643" lon="12.120855"><ele>500.0</ele><time>2026-04-30T14:40:42.59Z</time></trkpt><trkpt lat="42.2975015" lon="12.120818"><ele>499.99999999999994</ele><time>2026-04-30T14:40:43.578Z</time></trkpt><trkpt lat="42.297446" lon="12.1207744"><ele>500.0</ele><time>2026-04-30T14:40:44.588Z</time></trkpt><trkpt lat="42.2973921" lon="12.120728"><ele>500.2</ele><time>2026-04-30T14:40:45.572Z</time></trkpt><trkpt lat="42.2973417" lon="12.1206712"><ele>500.4</ele><time>2026-04-30T14:40:46.596Z</time></trkpt><trkpt lat="42.2972467" lon="12.1205658"><ele>500.6</ele><time>2026-04-30T14:40:48.582Z</time></trkpt><trkpt lat="42.297198" lon="12.1205089"><ele>500.8</ele><time>2026-04-30T14:40:49.588Z</time></trkpt><trkpt lat="42.2971094" lon="12.1203937"><ele>501.0</ele><time>2026-04-30T14:40:51.572Z</time></trkpt><trkpt lat="42.2970216" lon="12.1202785"><ele>501.0</ele><time>2026-04-30T14:40:53.59Z</time></trkpt><trkpt lat="42.2969285" lon="12.1201736"><ele>501.0</ele><time>2026-04-30T14:40:55.564Z</time></trkpt><trkpt lat="42.2968348" lon="12.1200573"><ele>501.0</ele><time>2026-04-30T14:40:57.581Z</time></trkpt><trkpt lat="42.2967631" lon="12.1199335"><ele>501.0</ele><time>2026-04-30T14:40:59.577Z</time></trkpt><trkpt lat="42.2967235" lon="12.119785"><ele>501.4</ele><time>2026-04-30T14:41:01.581Z</time></trkpt><trkpt lat="42.2966953" lon="12.1196463"><ele>501.8</ele><time>2026-04-30T14:41:03.585Z</time></trkpt><trkpt lat="42.2966593" lon="12.1195364"><ele>502.19999999999993</ele><time>2026-04-30T14:41:05.575Z</time></trkpt><trkpt lat="42.2966025" lon="12.1194345"><ele>502.59999999999997</ele><time>2026-04-30T14:41:07.577Z</time></trkpt><trkpt lat="42.2965244" lon="12.1193178"><ele>503.0</ele><time>2026-04-30T14:41:09.578Z</time></trkpt><trkpt lat="42.2964498" lon="12.1191847"><ele>500.8333333333333</ele><time>2026-04-30T14:41:11.582Z</time></trkpt><trkpt lat="42.2964181" lon="12.1191098"><ele>498.66666666666663</ele><time>2026-04-30T14:41:12.587Z</time></trkpt><trkpt lat="42.2963943" lon="12.1189714"><ele>496.5</ele><time>2026-04-30T14:41:14.586Z</time></trkpt><trkpt lat="42.2963647" lon="12.1188483"><ele>494.33333333333337</ele><time>2026-04-30T14:41:16.584Z</time></trkpt><trkpt lat="42.2963236" lon="12.1187364"><ele>492.1666666666667</ele><time>2026-04-30T14:41:18.59Z</time></trkpt><trkpt lat="42.2962416" lon="12.1186927"><ele>490.0</ele><time>2026-04-30T14:41:21.58Z</time></trkpt><trkpt lat="42.2961738" lon="12.1187926"><ele>490.0</ele><time>2026-04-30T14:41:23.574Z</time></trkpt><trkpt lat="42.2961128" lon="12.1189333"><ele>490.0</ele><time>2026-04-30T14:41:25.577Z</time></trkpt><trkpt lat="42.2960682" lon="12.1190552"><ele>490.0</ele><time>2026-04-30T14:41:27.585Z</time></trkpt><trkpt lat="42.2960251" lon="12.1191737"><ele>490.0</ele><time>2026-04-30T14:41:29.58Z</time></trkpt><trkpt lat="42.2959767" lon="12.1193197"><ele>490.0</ele><time>2026-04-30T14:41:31.592Z</time></trkpt><trkpt lat="42.2959489" lon="12.1194041"><ele>490.0</ele><time>2026-04-30T14:41:32.578Z</time></trkpt><trkpt lat="42.2959202" lon="12.1194887"><ele>490.0</ele><time>2026-04-30T14:41:33.576Z</time></trkpt><trkpt lat="42.2958849" lon="12.119646"><ele>490.0</ele><time>2026-04-30T14:41:35.58Z</time></trkpt><trkpt lat="42.2958618" lon="12.1197256"><ele>490.0</ele><time>2026-04-30T14:41:36.584Z</time></trkpt><trkpt lat="42.2958186" lon="12.1198701"><ele>490.0</ele><time>2026-04-30T14:41:38.572Z</time></trkpt><trkpt lat="42.2957494" lon="12.1199796"><ele>489.6666666666667</ele><time>2026-04-30T14:41:40.583Z</time></trkpt><trkpt lat="42.2956686" lon="12.1200513"><ele>489.33333333333337</ele><time>2026-04-30T14:41:42.578Z</time></trkpt><trkpt lat="42.2955909" lon="12.1200856"><ele>489.0</ele><time>2026-04-30T14:41:44.588Z</time></trkpt><trkpt lat="42.2955073" lon="12.12011"><ele>488.66666666666663</ele><time>2026-04-30T14:41:46.573Z</time></trkpt><trkpt lat="42.2954207" lon="12.1201236"><ele>488.3333333333333</ele><time>2026-04-30T14:41:48.588Z</time></trkpt><trkpt lat="42.2953409" lon="12.1201487"><ele>488.0</ele><time>2026-04-30T14:41:50.598Z</time></trkpt><trkpt lat="42.295259" lon="12.1201692"><ele>486.49999999999994</ele><time>2026-04-30T14:41:52.582Z</time></trkpt><trkpt lat="42.2951781" lon="12.1201851"><ele>485.0</ele><time>2026-04-30T14:41:54.589Z</time></trkpt><trkpt lat="42.295095" lon="12.1201928"><ele>483.5</ele><time>2026-04-30T14:41:56.591Z</time></trkpt><trkpt lat="42.2950086" lon="12.1201997"><ele>482.0</ele><time>2026-04-30T14:41:58.588Z</time></trkpt><trkpt lat="42.2949236" lon="12.1202146"><ele>480.49999999999994</ele><time>2026-04-30T14:42:00.589Z</time></trkpt><trkpt lat="42.2948427" lon="12.1202356"><ele>479.0</ele><time>2026-04-30T14:42:02.575Z</time></trkpt><trkpt lat="42.2947676" lon="12.1202586"><ele>479.66666666666663</ele><time>2026-04-30T14:42:04.586Z</time></trkpt><trkpt lat="42.2946993" lon="12.1202907"><ele>480.3333333333333</ele><time>2026-04-30T14:42:06.579Z</time></trkpt><trkpt lat="42.2946313" lon="12.1203254"><ele>481.0</ele><time>2026-04-30T14:42:08.584Z</time></trkpt><trkpt lat="42.2945591" lon="12.120365"><ele>481.66666666666663</ele><time>2026-04-30T14:42:10.587Z</time></trkpt><trkpt lat="42.2944963" lon="12.1204055"><ele>482.3333333333333</ele><time>2026-04-30T14:42:12.584Z</time></trkpt><trkpt lat="42.2944206" lon="12.120454"><ele>483.0</ele><time>2026-04-30T14:42:14.586Z</time></trkpt><trkpt lat="42.294348" lon="12.1204808"><ele>483.0</ele><time>2026-04-30T14:42:16.598Z</time></trkpt><trkpt lat="42.2942785" lon="12.120526"><ele>483.0</ele><time>2026-04-30T14:42:18.579Z</time></trkpt><trkpt lat="42.2942026" lon="12.1205623"><ele>483.0</ele><time>2026-04-30T14:42:20.586Z</time></trkpt><trkpt lat="42.2941421" lon="12.1205995"><ele>483.0</ele><time>2026-04-30T14:42:22.598Z</time></trkpt><trkpt lat="42.294079" lon="12.1206281"><ele>483.0</ele><time>2026-04-30T14:42:24.6Z</time></trkpt><trkpt lat="42.2940159" lon="12.1206587"><ele>483.0</ele><time>2026-04-30T14:42:26.591Z</time></trkpt><trkpt lat="42.2939482" lon="12.1206937"><ele>483.0</ele><time>2026-04-30T14:42:28.573Z</time></trkpt><trkpt lat="42.2938677" lon="12.1207358"><ele>483.42857142857144</ele><time>2026-04-30T14:42:31.582Z</time></trkpt><trkpt lat="42.29379" lon="12.1207957"><ele>483.8571428571429</ele><time>2026-04-30T14:42:34.595Z</time></trkpt><trkpt lat="42.2937276" lon="12.1208268"><ele>484.2857142857143</ele><time>2026-04-30T14:42:36.595Z</time></trkpt><trkpt lat="42.2936614" lon="12.120847"><ele>484.7142857142857</ele><time>2026-04-30T14:42:38.585Z</time></trkpt><trkpt lat="42.2936005" lon="12.1208807"><ele>485.14285714285717</ele><time>2026-04-30T14:42:40.587Z</time></trkpt><trkpt lat="42.2935414" lon="12.1209119"><ele>485.57142857142856</ele><time>2026-04-30T14:42:42.588Z</time></trkpt><trkpt lat="42.2934744" lon="12.1208937"><ele>486.0</ele><time>2026-04-30T14:42:44.578Z</time></trkpt><trkpt lat="42.2934138" lon="12.1207965"><ele>485.85714285714283</ele><time>2026-04-30T14:42:47.576Z</time></trkpt><trkpt lat="42.2933774" lon="12.1207217"><ele>485.7142857142858</ele><time>2026-04-30T14:42:49.58Z</time></trkpt><trkpt lat="42.2933444" lon="12.1206481"><ele>485.5714285714286</ele><time>2026-04-30T14:42:51.578Z</time></trkpt><trkpt lat="42.2933113" lon="12.1205674"><ele>485.42857142857144</ele><time>2026-04-30T14:42:53.581Z</time></trkpt><trkpt lat="42.2932735" lon="12.1204882"><ele>485.28571428571433</ele><time>2026-04-30T14:42:55.58Z</time></trkpt><trkpt lat="42.293228" lon="12.1204064"><ele>485.1428571428572</ele><time>2026-04-30T14:42:57.579Z</time></trkpt><trkpt lat="42.2931807" lon="12.1203174"><ele>485.00000000000006</ele><time>2026-04-30T14:42:59.591Z</time></trkpt><trkpt lat="42.2931389" lon="12.1202246"><ele>485.16666666666663</ele><time>2026-04-30T14:43:01.583Z</time></trkpt><trkpt lat="42.293086" lon="12.1201274"><ele>485.3333333333333</ele><time>2026-04-30T14:43:03.587Z</time></trkpt><trkpt lat="42.2930375" lon="12.1200303"><ele>485.5</ele><time>2026-04-30T14:43:05.577Z</time></trkpt><trkpt lat="42.2929945" lon="12.1199341"><ele>485.66666666666663</ele><time>2026-04-30T14:43:07.583Z</time></trkpt><trkpt lat="42.2929569" lon="12.1198346"><ele>485.8333333333333</ele><time>2026-04-30T14:43:09.587Z</time></trkpt><trkpt lat="42.2929134" lon="12.1197302"><ele>486.0</ele><time>2026-04-30T14:43:11.589Z</time></trkpt><trkpt lat="42.2928682" lon="12.1196305"><ele>486.0</ele><time>2026-04-30T14:43:13.588Z</time></trkpt><trkpt lat="42.2928244" lon="12.1195385"><ele>486.0</ele><time>2026-04-30T14:43:15.589Z</time></trkpt><trkpt lat="42.2927807" lon="12.1194522"><ele>486.0</ele><time>2026-04-30T14:43:17.573Z</time></trkpt><trkpt lat="42.2927295" lon="12.1193699"><ele>486.0</ele><time>2026-04-30T14:43:19.582Z</time></trkpt><trkpt lat="42.2926879" lon="12.1192733"><ele>486.0</ele><time>2026-04-30T14:43:21.574Z</time></trkpt><trkpt lat="42.2926405" lon="12.1191799"><ele>486.0</ele><time>2026-04-30T14:43:23.586Z</time></trkpt><trkpt lat="42.2925803" lon="12.1190694"><ele>485.6</ele><time>2026-04-30T14:43:25.594Z</time></trkpt><trkpt lat="42.2925213" lon="12.1189649"><ele>485.20000000000005</ele><time>2026-04-30T14:43:27.591Z</time></trkpt><trkpt lat="42.2924578" lon="12.1188352"><ele>484.79999999999995</ele><time>2026-04-30T14:43:29.592Z</time></trkpt><trkpt lat="42.2923832" lon="12.1186994"><ele>484.4</ele><time>2026-04-30T14:43:31.582Z</time></trkpt><trkpt lat="42.2923436" lon="12.118628"><ele>484.0</ele><time>2026-04-30T14:43:32.595Z</time></trkpt><trkpt lat="42.2922998" lon="12.1185537"><ele>484.0</ele><time>2026-04-30T14:43:33.59Z</time></trkpt><trkpt lat="42.2922577" lon="12.1184783"><ele>483.99999999999994</ele><time>2026-04-30T14:43:34.599Z</time></trkpt><trkpt lat="42.2922164" lon="12.1184035"><ele>484.0</ele><time>2026-04-30T14:43:35.586Z</time></trkpt><trkpt lat="42.2921745" lon="12.118329"><ele>484.0</ele><time>2026-04-30T14:43:36.584Z</time></trkpt><trkpt lat="42.2921305" lon="12.1182573"><ele>483.99999999999994</ele><time>2026-04-30T14:43:37.591Z</time></trkpt><trkpt lat="42.2920903" lon="12.118186"><ele>484.0</ele><time>2026-04-30T14:43:38.583Z</time></trkpt><trkpt lat="42.2920464" lon="12.1181157"><ele>484.0</ele><time>2026-04-30T14:43:39.578Z</time></trkpt><trkpt lat="42.2920067" lon="12.1180384"><ele>483.00000000000006</ele><time>2026-04-30T14:43:40.587Z</time></trkpt><trkpt lat="42.2919604" lon="12.1179571"><ele>482.0</ele><time>2026-04-30T14:43:41.589Z</time></trkpt><trkpt lat="42.2919126" lon="12.1178733"><ele>481.0</ele><time>2026-04-30T14:43:42.58Z</time></trkpt><trkpt lat="42.2918738" lon="12.1177885"><ele>480.0</ele><time>2026-04-30T14:43:43.578Z</time></trkpt><trkpt lat="42.2918282" lon="12.1176966"><ele>479.00000000000006</ele><time>2026-04-30T14:43:44.603Z</time></trkpt><trkpt lat="42.2917779" lon="12.1176217"><ele>478.0</ele><time>2026-04-30T14:43:45.591Z</time></trkpt><trkpt lat="42.291728" lon="12.1175398"><ele>478.00000000000006</ele><time>2026-04-30T14:43:46.586Z</time></trkpt><trkpt lat="42.2916743" lon="12.1174618"><ele>478.0</ele><time>2026-04-30T14:43:47.573Z</time></trkpt><trkpt lat="42.2916342" lon="12.117381"><ele>478.0</ele><time>2026-04-30T14:43:48.589Z</time></trkpt><trkpt lat="42.2915953" lon="12.1172953"><ele>478.0</ele><time>2026-04-30T14:43:49.577Z</time></trkpt><trkpt lat="42.2915577" lon="12.1172049"><ele>478.00000000000006</ele><time>2026-04-30T14:43:50.584Z</time></trkpt><trkpt lat="42.2915042" lon="12.1171153"><ele>478.0</ele><time>2026-04-30T14:43:51.586Z</time></trkpt><trkpt lat="42.2914555" lon="12.1170271"><ele>477.1666666666667</ele><time>2026-04-30T14:43:52.579Z</time></trkpt><trkpt lat="42.2914103" lon="12.1169394"><ele>476.33333333333337</ele><time>2026-04-30T14:43:53.581Z</time></trkpt><trkpt lat="42.2913592" lon="12.1168524"><ele>475.5</ele><time>2026-04-30T14:43:54.583Z</time></trkpt><trkpt lat="42.2913105" lon="12.1167703"><ele>474.66666666666663</ele><time>2026-04-30T14:43:55.582Z</time></trkpt><trkpt lat="42.2912591" lon="12.1166859"><ele>473.8333333333333</ele><time>2026-04-30T14:43:56.573Z</time></trkpt><trkpt lat="42.2912092" lon="12.1166027"><ele>473.0</ele><time>2026-04-30T14:43:57.58Z</time></trkpt><trkpt lat="42.2911584" lon="12.1165161"><ele>472.66666666666663</ele><time>2026-04-30T14:43:58.584Z</time></trkpt><trkpt lat="42.2911042" lon="12.116429"><ele>472.3333333333333</ele><time>2026-04-30T14:43:59.572Z</time></trkpt><trkpt lat="42.2910538" lon="12.1163439"><ele>472.0</ele><time>2026-04-30T14:44:00.579Z</time></trkpt><trkpt lat="42.2910012" lon="12.1162494"><ele>471.66666666666663</ele><time>2026-04-30T14:44:01.578Z</time></trkpt><trkpt lat="42.2909512" lon="12.1161638"><ele>471.3333333333333</ele><time>2026-04-30T14:44:02.586Z</time></trkpt><trkpt lat="42.2909024" lon="12.1160772"><ele>471.0</ele><time>2026-04-30T14:44:03.575Z</time></trkpt><trkpt lat="42.2908527" lon="12.1159957"><ele>471.0</ele><time>2026-04-30T14:44:04.58Z</time></trkpt><trkpt lat="42.2908101" lon="12.1159228"><ele>471.0</ele><time>2026-04-30T14:44:05.583Z</time></trkpt><trkpt lat="42.2907388" lon="12.1158073"><ele>471.0</ele><time>2026-04-30T14:44:07.576Z</time></trkpt><trkpt lat="42.2906639" lon="12.1157465"><ele>471.0</ele><time>2026-04-30T14:44:09.582Z</time></trkpt><trkpt lat="42.2905963" lon="12.1157406"><ele>471.0</ele><time>2026-04-30T14:44:12.587Z</time></trkpt><trkpt lat="42.290519" lon="12.1157175"><ele>471.0</ele><time>2026-04-30T14:44:23.602Z</time></trkpt><trkpt lat="42.2904533" lon="12.1157045"><ele>470.0</ele><time>2026-04-30T14:44:26.589Z</time></trkpt><trkpt lat="42.2904846" lon="12.1156123"><ele>469.0</ele><time>2026-04-30T14:44:30.592Z</time></trkpt><trkpt lat="42.2905047" lon="12.1155009"><ele>468.0</ele><time>2026-04-30T14:44:34.592Z</time></trkpt><trkpt lat="42.2904717" lon="12.1153859"><ele>467.0</ele><time>2026-04-30T14:44:37.579Z</time></trkpt><trkpt lat="42.2904336" lon="12.1152852"><ele>466.0</ele><time>2026-04-30T14:44:40.582Z</time></trkpt><trkpt lat="42.2903878" lon="12.1151761"><ele>465.0</ele><time>2026-04-30T14:44:43.58Z</time></trkpt><trkpt lat="42.2903467" lon="12.1151027"><ele>465.0</ele><time>2026-04-30T14:44:45.578Z</time></trkpt><trkpt lat="42.2902982" lon="12.1150347"><ele>465.0</ele><time>2026-04-30T14:44:47.584Z</time></trkpt><trkpt lat="42.2902429" lon="12.1149663"><ele>465.0</ele><time>2026-04-30T14:44:49.585Z</time></trkpt><trkpt lat="42.2901909" lon="12.1148967"><ele>465.0</ele><time>2026-04-30T14:44:51.586Z</time></trkpt><trkpt lat="42.2901468" lon="12.1148254"><ele>465.0</ele><time>2026-04-30T14:44:53.58Z</time></trkpt><trkpt lat="42.2901038" lon="12.1147526"><ele>465.0</ele><time>2026-04-30T14:44:55.588Z</time></trkpt><trkpt lat="42.2900617" lon="12.1146809"><ele>465.0</ele><time>2026-04-30T14:44:57.578Z</time></trkpt><trkpt lat="42.2900129" lon="12.1146089"><ele>465.0</ele><time>2026-04-30T14:44:59.587Z</time></trkpt><trkpt lat="42.2899596" lon="12.1145434"><ele>465.0</ele><time>2026-04-30T14:45:01.594Z</time></trkpt><trkpt lat="42.2899089" lon="12.1144797"><ele>465.0</ele><time>2026-04-30T14:45:03.589Z</time></trkpt><trkpt lat="42.2898529" lon="12.1144273"><ele>465.0</ele><time>2026-04-30T14:45:05.58Z</time></trkpt><trkpt lat="42.289801" lon="12.1143689"><ele>465.0</ele><time>2026-04-30T14:45:07.576Z</time></trkpt><trkpt lat="42.2897299" lon="12.1143365"><ele>465.0</ele><time>2026-04-30T14:45:09.578Z</time></trkpt><trkpt lat="42.2896533" lon="12.1142968"><ele>465.0</ele><time>2026-04-30T14:45:11.592Z</time></trkpt><trkpt lat="42.2895664" lon="12.1142527"><ele>464.4</ele><time>2026-04-30T14:45:13.581Z</time></trkpt><trkpt lat="42.2894739" lon="12.1141792"><ele>463.8</ele><time>2026-04-30T14:45:15.591Z</time></trkpt><trkpt lat="42.2893791" lon="12.1141577"><ele>463.20000000000005</ele><time>2026-04-30T14:45:17.577Z</time></trkpt><trkpt lat="42.2892924" lon="12.1141849"><ele>462.6</ele><time>2026-04-30T14:45:19.592Z</time></trkpt><trkpt lat="42.2892044" lon="12.1142325"><ele>462.0</ele><time>2026-04-30T14:45:21.582Z</time></trkpt><trkpt lat="42.2891282" lon="12.1142846"><ele>462.0</ele><time>2026-04-30T14:45:23.584Z</time></trkpt><trkpt lat="42.2890527" lon="12.1143498"><ele>462.0</ele><time>2026-04-30T14:45:25.584Z</time></trkpt><trkpt lat="42.2889755" lon="12.1144147"><ele>462.0</ele><time>2026-04-30T14:45:27.578Z</time></trkpt><trkpt lat="42.2888984" lon="12.1144766"><ele>462.0</ele><time>2026-04-30T14:45:29.585Z</time></trkpt><trkpt lat="42.288826" lon="12.1145307"><ele>462.0</ele><time>2026-04-30T14:45:31.581Z</time></trkpt><trkpt lat="42.2887491" lon="12.1145775"><ele>462.0</ele><time>2026-04-30T14:45:33.581Z</time></trkpt><trkpt lat="42.2886692" lon="12.11463"><ele>461.8333333333333</ele><time>2026-04-30T14:45:35.576Z</time></trkpt><trkpt lat="42.288585" lon="12.1146784"><ele>461.66666666666663</ele><time>2026-04-30T14:45:37.59Z</time></trkpt><trkpt lat="42.2885" lon="12.114721"><ele>461.5</ele><time>2026-04-30T14:45:39.585Z</time></trkpt><trkpt lat="42.2884194" lon="12.11478"><ele>461.3333333333333</ele><time>2026-04-30T14:45:41.582Z</time></trkpt><trkpt lat="42.2883399" lon="12.1148336"><ele>461.16666666666663</ele><time>2026-04-30T14:45:43.593Z</time></trkpt><trkpt lat="42.288267" lon="12.1148721"><ele>461.0</ele><time>2026-04-30T14:45:45.588Z</time></trkpt><trkpt lat="42.2881951" lon="12.1149164"><ele>461.0</ele><time>2026-04-30T14:45:47.594Z</time></trkpt><trkpt lat="42.2881277" lon="12.114959"><ele>461.00000000000006</ele><time>2026-04-30T14:45:49.587Z</time></trkpt><trkpt lat="42.2880621" lon="12.1150133"><ele>461.0</ele><time>2026-04-30T14:45:51.587Z</time></trkpt><trkpt lat="42.2879978" lon="12.1150589"><ele>461.0</ele><time>2026-04-30T14:45:53.587Z</time></trkpt><trkpt lat="42.2879381" lon="12.1150988"><ele>461.00000000000006</ele><time>2026-04-30T14:45:55.584Z</time></trkpt><trkpt lat="42.2878718" lon="12.1151185"><ele>461.0</ele><time>2026-04-30T14:45:59.582Z</time></trkpt><trkpt lat="42.2878008" lon="12.1151249"><ele>461.0</ele><time>2026-04-30T14:46:04.582Z</time></trkpt><trkpt lat="42.2877203" lon="12.1151842"><ele>461.28571428571433</ele><time>2026-04-30T14:46:08.582Z</time></trkpt><trkpt lat="42.2876502" lon="12.1152494"><ele>461.5714285714286</ele><time>2026-04-30T14:46:11.584Z</time></trkpt><trkpt lat="42.2875749" lon="12.11528"><ele>461.8571428571429</ele><time>2026-04-30T14:46:14.601Z</time></trkpt><trkpt lat="42.2875011" lon="12.1153126"><ele>462.1428571428571</ele><time>2026-04-30T14:46:17.581Z</time></trkpt><trkpt lat="42.2874305" lon="12.1153484"><ele>462.4285714285714</ele><time>2026-04-30T14:46:20.582Z</time></trkpt><trkpt lat="42.2873682" lon="12.1153776"><ele>462.71428571428567</ele><time>2026-04-30T14:46:24.587Z</time></trkpt><trkpt lat="42.2873065" lon="12.115399"><ele>463.0</ele><time>2026-04-30T14:46:27.587Z</time></trkpt><trkpt lat="42.2872403" lon="12.1154432"><ele>463.0</ele><time>2026-04-30T14:46:31.581Z</time></trkpt><trkpt lat="42.287307" lon="12.1154323"><ele>462.99999999999994</ele><time>2026-04-30T14:46:41.572Z</time></trkpt><trkpt lat="42.2873456" lon="12.1153541"><ele>463.0</ele><time>2026-04-30T14:46:48.585Z</time></trkpt><trkpt lat="42.2873995" lon="12.1152731"><ele>463.0</ele><time>2026-04-30T14:46:55.57Z</time></trkpt><trkpt lat="42.2874552" lon="12.1152183"><ele>462.99999999999994</ele><time>2026-04-30T14:46:59.581Z</time></trkpt><trkpt lat="42.2875151" lon="12.1152703"><ele>463.0</ele><time>2026-04-30T14:47:04.593Z</time></trkpt><trkpt lat="42.2875837" lon="12.1152838"><ele>463.0</ele><time>2026-04-30T14:47:08.588Z</time></trkpt><trkpt lat="42.2876522" lon="12.1152734"><ele>463.00000000000006</ele><time>2026-04-30T14:47:12.586Z</time></trkpt><trkpt lat="42.2877097" lon="12.1152265"><ele>463.0</ele><time>2026-04-30T14:47:16.589Z</time></trkpt><trkpt lat="42.2877851" lon="12.115179"><ele>463.0</ele><time>2026-04-30T14:47:20.588Z</time></trkpt><trkpt lat="42.287827" lon="12.1150951"><ele>463.0</ele><time>2026-04-30T14:47:26.576Z</time></trkpt><trkpt lat="42.2878388" lon="12.1150013"><ele>463.00000000000006</ele><time>2026-04-30T14:47:29.586Z</time></trkpt><trkpt lat="42.2878149" lon="12.1148983"><ele>463.0</ele><time>2026-04-30T14:47:32.579Z</time></trkpt><trkpt lat="42.287767" lon="12.1148119"><ele>462.83333333333337</ele><time>2026-04-30T14:47:35.593Z</time></trkpt><trkpt lat="42.2877254" lon="12.1147418"><ele>462.6666666666667</ele><time>2026-04-30T14:47:38.576Z</time></trkpt><trkpt lat="42.2876915" lon="12.1146637"><ele>462.5</ele><time>2026-04-30T14:47:41.583Z</time></trkpt><trkpt lat="42.2876474" lon="12.114572"><ele>462.33333333333337</ele><time>2026-04-30T14:47:44.578Z</time></trkpt><trkpt lat="42.2876015" lon="12.114489"><ele>462.1666666666667</ele><time>2026-04-30T14:47:47.577Z</time></trkpt><trkpt lat="42.2875578" lon="12.1143975"><ele>462.0</ele><time>2026-04-30T14:47:50.584Z</time></trkpt><trkpt lat="42.287502" lon="12.1142976"><ele>462.0</ele><time>2026-04-30T14:47:53.585Z</time></trkpt><trkpt lat="42.2874613" lon="12.1142314"><ele>462.0</ele><time>2026-04-30T14:47:55.582Z</time></trkpt><trkpt lat="42.2874176" lon="12.1141609"><ele>462.0</ele><time>2026-04-30T14:47:57.588Z</time></trkpt><trkpt lat="42.2873696" lon="12.1140864"><ele>462.0</ele><time>2026-04-30T14:47:59.588Z</time></trkpt><trkpt lat="42.2873258" lon="12.1140063"><ele>462.0</ele><time>2026-04-30T14:48:01.587Z</time></trkpt><trkpt lat="42.2872937" lon="12.113925"><ele>462.0</ele><time>2026-04-30T14:48:03.583Z</time></trkpt><trkpt lat="42.287249" lon="12.1138434"><ele>462.0</ele><time>2026-04-30T14:48:05.572Z</time></trkpt><trkpt lat="42.2872119" lon="12.1137619"><ele>461.8571428571429</ele><time>2026-04-30T14:48:07.577Z</time></trkpt><trkpt lat="42.2871736" lon="12.1136748"><ele>461.7142857142857</ele><time>2026-04-30T14:48:09.598Z</time></trkpt><trkpt lat="42.2871367" lon="12.113591"><ele>461.57142857142856</ele><time>2026-04-30T14:48:11.584Z</time></trkpt><trkpt lat="42.2871008" lon="12.1135046"><ele>461.42857142857144</ele><time>2026-04-30T14:48:13.579Z</time></trkpt><trkpt lat="42.2870596" lon="12.1134288"><ele>461.28571428571433</ele><time>2026-04-30T14:48:15.585Z</time></trkpt><trkpt lat="42.2870242" lon="12.1133446"><ele>461.14285714285717</ele><time>2026-04-30T14:48:17.579Z</time></trkpt><trkpt lat="42.2869783" lon="12.1132691"><ele>461.0</ele><time>2026-04-30T14:48:19.591Z</time></trkpt><trkpt lat="42.286931" lon="12.1131941"><ele>460.8333333333333</ele><time>2026-04-30T14:48:21.587Z</time></trkpt><trkpt lat="42.2868799" lon="12.113114"><ele>460.66666666666663</ele><time>2026-04-30T14:48:23.588Z</time></trkpt><trkpt lat="42.2868266" lon="12.1130389"><ele>460.5</ele><time>2026-04-30T14:48:25.576Z</time></trkpt><trkpt lat="42.2867774" lon="12.1129488"><ele>460.33333333333337</ele><time>2026-04-30T14:48:27.575Z</time></trkpt><trkpt lat="42.2867237" lon="12.11286"><ele>460.1666666666667</ele><time>2026-04-30T14:48:29.57Z</time></trkpt><trkpt lat="42.2866652" lon="12.1127874"><ele>460.0</ele><time>2026-04-30T14:48:31.58Z</time></trkpt><trkpt lat="42.2866204" lon="12.1127154"><ele>460.00000000000006</ele><time>2026-04-30T14:48:33.591Z</time></trkpt><trkpt lat="42.2865726" lon="12.1126352"><ele>460.0</ele><time>2026-04-30T14:48:35.587Z</time></trkpt><trkpt lat="42.2865181" lon="12.1125484"><ele>460.0</ele><time>2026-04-30T14:48:37.579Z</time></trkpt><trkpt lat="42.2864647" lon="12.1124602"><ele>460.0</ele><time>2026-04-30T14:48:39.577Z</time></trkpt><trkpt lat="42.2864025" lon="12.1123739"><ele>460.00000000000006</ele><time>2026-04-30T14:48:41.583Z</time></trkpt><trkpt lat="42.2863403" lon="12.1122818"><ele>460.0</ele><time>2026-04-30T14:48:43.584Z</time></trkpt><trkpt lat="42.2862771" lon="12.1121777"><ele>459.2</ele><time>2026-04-30T14:48:45.59Z</time></trkpt><trkpt lat="42.2862123" lon="12.1120691"><ele>458.4</ele><time>2026-04-30T14:48:47.585Z</time></trkpt><trkpt lat="42.286138" lon="12.1119616"><ele>457.6</ele><time>2026-04-30T14:48:49.595Z</time></trkpt><trkpt lat="42.2860721" lon="12.1118643"><ele>456.8</ele><time>2026-04-30T14:48:51.575Z</time></trkpt><trkpt lat="42.2860057" lon="12.1117625"><ele>456.0</ele><time>2026-04-30T14:48:53.593Z</time></trkpt><trkpt lat="42.285937" lon="12.1116638"><ele>455.8</ele><time>2026-04-30T14:48:55.577Z</time></trkpt><trkpt lat="42.2858612" lon="12.1115514"><ele>455.6</ele><time>2026-04-30T14:48:57.576Z</time></trkpt><trkpt lat="42.2857761" lon="12.1114314"><ele>455.4</ele><time>2026-04-30T14:48:59.583Z</time></trkpt><trkpt lat="42.2857334" lon="12.1113645"><ele>455.2</ele><time>2026-04-30T14:49:00.601Z</time></trkpt><trkpt lat="42.2856887" lon="12.1113003"><ele>455.0</ele><time>2026-04-30T14:49:01.584Z</time></trkpt><trkpt lat="42.2856006" lon="12.1111821"><ele>455.16666666666663</ele><time>2026-04-30T14:49:03.579Z</time></trkpt><trkpt lat="42.2855256" lon="12.1110655"><ele>455.3333333333333</ele><time>2026-04-30T14:49:05.588Z</time></trkpt><trkpt lat="42.2854549" lon="12.1109671"><ele>455.5</ele><time>2026-04-30T14:49:07.587Z</time></trkpt><trkpt lat="42.2853953" lon="12.1108826"><ele>455.66666666666663</ele><time>2026-04-30T14:49:09.579Z</time></trkpt><trkpt lat="42.285357" lon="12.110813"><ele>455.8333333333333</ele><time>2026-04-30T14:49:11.587Z</time></trkpt><trkpt lat="42.2853141" lon="12.1107424"><ele>456.0</ele><time>2026-04-30T14:49:15.583Z</time></trkpt><trkpt lat="42.285278" lon="12.1106478"><ele>456.0</ele><time>2026-04-30T14:51:23.59Z</time></trkpt><trkpt lat="42.2853176" lon="12.1105744"><ele>456.0</ele><time>2026-04-30T14:51:28.592Z</time></trkpt><trkpt lat="42.2853904" lon="12.1105239"><ele>456.0</ele><time>2026-04-30T14:51:32.583Z</time></trkpt><trkpt lat="42.2854657" lon="12.1104932"><ele>456.0</ele><time>2026-04-30T14:51:35.592Z</time></trkpt><trkpt lat="42.2855303" lon="12.1104831"><ele>456.0</ele><time>2026-04-30T14:51:37.59Z</time></trkpt><trkpt lat="42.2856129" lon="12.1104568"><ele>456.0</ele><time>2026-04-30T14:51:40.587Z</time></trkpt><trkpt lat="42.2856764" lon="12.1104086"><ele>456.3333333333333</ele><time>2026-04-30T14:51:42.596Z</time></trkpt><trkpt lat="42.2857458" lon="12.1103559"><ele>456.66666666666663</ele><time>2026-04-30T14:51:44.592Z</time></trkpt><trkpt lat="42.2858264" lon="12.1102936"><ele>457.0</ele><time>2026-04-30T14:51:46.593Z</time></trkpt><trkpt lat="42.2859036" lon="12.1101994"><ele>457.3333333333333</ele><time>2026-04-30T14:51:48.589Z</time></trkpt><trkpt lat="42.2859413" lon="12.1100972"><ele>457.66666666666663</ele><time>2026-04-30T14:51:50.585Z</time></trkpt><trkpt lat="42.2859349" lon="12.1099916"><ele>458.0</ele><time>2026-04-30T14:51:52.59Z</time></trkpt><trkpt lat="42.2859151" lon="12.1098584"><ele>458.49999999999994</ele><time>2026-04-30T14:51:54.582Z</time></trkpt><trkpt lat="42.2858427" lon="12.1097118"><ele>459.0</ele><time>2026-04-30T14:51:56.596Z</time></trkpt><trkpt lat="42.2857853" lon="12.1096494"><ele>459.5</ele><time>2026-04-30T14:51:57.574Z</time></trkpt><trkpt lat="42.2857065" lon="12.1095877"><ele>460.0</ele><time>2026-04-30T14:51:58.582Z</time></trkpt><trkpt lat="42.2856477" lon="12.1095202"><ele>460.49999999999994</ele><time>2026-04-30T14:51:59.585Z</time></trkpt><trkpt lat="42.2856128" lon="12.1094485"><ele>461.0</ele><time>2026-04-30T14:52:00.592Z</time></trkpt><trkpt lat="42.2855855" lon="12.1093164"><ele>460.99999999999994</ele><time>2026-04-30T14:52:02.591Z</time></trkpt><trkpt lat="42.2856365" lon="12.1092634"><ele>461.0</ele><time>2026-04-30T14:52:04.581Z</time></trkpt><trkpt lat="42.2857234" lon="12.1092794"><ele>461.0</ele><time>2026-04-30T14:52:07.574Z</time></trkpt><trkpt lat="42.285804" lon="12.1093103"><ele>461.0</ele><time>2026-04-30T14:52:10.591Z</time></trkpt><trkpt lat="42.2858871" lon="12.1093219"><ele>460.99999999999994</ele><time>2026-04-30T14:52:13.584Z</time></trkpt><trkpt lat="42.2859622" lon="12.1093514"><ele>461.0</ele><time>2026-04-30T14:52:17.576Z</time></trkpt><trkpt lat="42.2860407" lon="12.1093551"><ele>460.99999999999994</ele><time>2026-04-30T14:52:20.589Z</time></trkpt><trkpt lat="42.2861279" lon="12.10938"><ele>461.0</ele><time>2026-04-30T14:52:23.588Z</time></trkpt><trkpt lat="42.2861987" lon="12.1094178"><ele>461.0</ele><time>2026-04-30T14:52:26.598Z</time></trkpt><trkpt lat="42.2862535" lon="12.1094614"><ele>461.0</ele><time>2026-04-30T14:52:29.575Z</time></trkpt><trkpt lat="42.2863286" lon="12.1094701"><ele>460.99999999999994</ele><time>2026-04-30T14:52:32.584Z</time></trkpt><trkpt lat="42.2862942" lon="12.1093778"><ele>461.0</ele><time>2026-04-30T14:52:38.591Z</time></trkpt><trkpt lat="42.2862413" lon="12.1093037"><ele>460.99999999999994</ele><time>2026-04-30T14:52:41.591Z</time></trkpt><trkpt lat="42.2861837" lon="12.1092393"><ele>461.0</ele><time>2026-04-30T14:52:44.58Z</time></trkpt><trkpt lat="42.2861226" lon="12.1091561"><ele>461.0</ele><time>2026-04-30T14:52:48.584Z</time></trkpt><trkpt lat="42.2860794" lon="12.1090902"><ele>461.0</ele><time>2026-04-30T14:52:51.584Z</time></trkpt><trkpt lat="42.286029" lon="12.1090266"><ele>460.99999999999994</ele><time>2026-04-30T14:52:55.582Z</time></trkpt><trkpt lat="42.2859544" lon="12.1089684"><ele>461.0</ele><time>2026-04-30T14:52:59.593Z</time></trkpt><trkpt lat="42.2858846" lon="12.1089152"><ele>462.0</ele><time>2026-04-30T14:53:03.588Z</time></trkpt><trkpt lat="42.2858227" lon="12.1088549"><ele>463.00000000000006</ele><time>2026-04-30T14:53:06.589Z</time></trkpt><trkpt lat="42.2857745" lon="12.1087924"><ele>464.0</ele><time>2026-04-30T14:53:10.581Z</time></trkpt><trkpt lat="42.285738" lon="12.1087039"><ele>465.0</ele><time>2026-04-30T14:53:14.585Z</time></trkpt><trkpt lat="42.2857146" lon="12.1086111"><ele>466.00000000000006</ele><time>2026-04-30T14:53:18.588Z</time></trkpt><trkpt lat="42.2857025" lon="12.1085128"><ele>467.0</ele><time>2026-04-30T14:53:24.6Z</time></trkpt><trkpt lat="42.2857167" lon="12.1084138"><ele>468.0</ele><time>2026-04-30T14:53:29.596Z</time></trkpt><trkpt lat="42.2857513" lon="12.1083146"><ele>468.7142857142857</ele><time>2026-04-30T14:53:33.578Z</time></trkpt><trkpt lat="42.2857976" lon="12.1082347"><ele>469.42857142857144</ele><time>2026-04-30T14:53:38.602Z</time></trkpt><trkpt lat="42.2858687" lon="12.1081947"><ele>470.14285714285717</ele><time>2026-04-30T14:53:43.596Z</time></trkpt><trkpt lat="42.2859346" lon="12.1081781"><ele>470.8571428571429</ele><time>2026-04-30T14:53:49.584Z</time></trkpt><trkpt lat="42.2860032" lon="12.1081403"><ele>471.57142857142856</ele><time>2026-04-30T14:53:56.582Z</time></trkpt><trkpt lat="42.2860685" lon="12.1081432"><ele>472.28571428571433</ele><time>2026-04-30T14:54:01.575Z</time></trkpt><trkpt lat="42.286142" lon="12.1081404"><ele>473.0</ele><time>2026-04-30T14:54:07.583Z</time></trkpt><trkpt lat="42.2862058" lon="12.1081159"><ele>473.0</ele><time>2026-04-30T14:54:11.58Z</time></trkpt><trkpt lat="42.28627" lon="12.1080893"><ele>473.0</ele><time>2026-04-30T14:54:15.581Z</time></trkpt><trkpt lat="42.2863302" lon="12.1080558"><ele>473.0</ele><time>2026-04-30T14:54:20.589Z</time></trkpt><trkpt lat="42.2863976" lon="12.1080199"><ele>473.0</ele><time>2026-04-30T14:54:25.592Z</time></trkpt><trkpt lat="42.2864763" lon="12.108003"><ele>473.0</ele><time>2026-04-30T14:54:29.578Z</time></trkpt><trkpt lat="42.2865477" lon="12.107988"><ele>473.0</ele><time>2026-04-30T14:54:33.579Z</time></trkpt><trkpt lat="42.2866186" lon="12.1079671"><ele>473.0</ele><time>2026-04-30T14:54:36.587Z</time></trkpt><trkpt lat="42.2866942" lon="12.1079379"><ele>473.8333333333333</ele><time>2026-04-30T14:54:39.59Z</time></trkpt><trkpt lat="42.2867675" lon="12.1079054"><ele>474.66666666666663</ele><time>2026-04-30T14:54:43.584Z</time></trkpt><trkpt lat="42.286838" lon="12.1078603"><ele>475.5</ele><time>2026-04-30T14:54:47.584Z</time></trkpt><trkpt lat="42.286904" lon="12.1078088"><ele>476.33333333333337</ele><time>2026-04-30T14:54:51.589Z</time></trkpt><trkpt lat="42.2869671" lon="12.1077449"><ele>477.1666666666667</ele><time>2026-04-30T14:54:55.588Z</time></trkpt><trkpt lat="42.2870228" lon="12.1076901"><ele>478.0</ele><time>2026-04-30T14:54:58.588Z</time></trkpt><trkpt lat="42.2870881" lon="12.1076372"><ele>478.00000000000006</ele><time>2026-04-30T14:55:01.581Z</time></trkpt><trkpt lat="42.2871459" lon="12.1075775"><ele>478.0</ele><time>2026-04-30T14:55:04.592Z</time></trkpt><trkpt lat="42.287211" lon="12.1075114"><ele>478.0</ele><time>2026-04-30T14:55:07.577Z</time></trkpt><trkpt lat="42.2872803" lon="12.1074549"><ele>478.0</ele><time>2026-04-30T14:55:10.603Z</time></trkpt><trkpt lat="42.2873452" lon="12.1073967"><ele>478.00000000000006</ele><time>2026-04-30T14:55:13.585Z</time></trkpt><trkpt lat="42.2874126" lon="12.1073275"><ele>478.0</ele><time>2026-04-30T14:55:16.589Z</time></trkpt><trkpt lat="42.2874865" lon="12.1072575"><ele>477.83333333333337</ele><time>2026-04-30T14:55:19.579Z</time></trkpt><trkpt lat="42.2875384" lon="12.1071981"><ele>477.6666666666667</ele><time>2026-04-30T14:55:21.602Z</time></trkpt><trkpt lat="42.2875818" lon="12.1071246"><ele>477.5</ele><time>2026-04-30T14:55:23.592Z</time></trkpt><trkpt lat="42.2876166" lon="12.1070462"><ele>477.33333333333337</ele><time>2026-04-30T14:55:25.588Z</time></trkpt><trkpt lat="42.2876578" lon="12.1069598"><ele>477.1666666666667</ele><time>2026-04-30T14:55:27.575Z</time></trkpt><trkpt lat="42.2876808" lon="12.1068704"><ele>477.0</ele><time>2026-04-30T14:55:28.576Z</time></trkpt><trkpt lat="42.2877378" lon="12.1067532"><ele>477.0</ele><time>2026-04-30T14:55:30.577Z</time></trkpt><trkpt lat="42.2877737" lon="12.1066677"><ele>477.0</ele><time>2026-04-30T14:55:32.579Z</time></trkpt><trkpt lat="42.2878079" lon="12.1065857"><ele>477.0</ele><time>2026-04-30T14:55:34.581Z</time></trkpt><trkpt lat="42.2878546" lon="12.1064969"><ele>477.0</ele><time>2026-04-30T14:55:36.589Z</time></trkpt><trkpt lat="42.2879148" lon="12.1063747"><ele>477.0</ele><time>2026-04-30T14:55:38.581Z</time></trkpt><trkpt lat="42.2879816" lon="12.1062833"><ele>477.0</ele><time>2026-04-30T14:55:40.595Z</time></trkpt><trkpt lat="42.288033" lon="12.1062084"><ele>476.85714285714283</ele><time>2026-04-30T14:55:42.591Z</time></trkpt><trkpt lat="42.2880767" lon="12.1061418"><ele>476.71428571428567</ele><time>2026-04-30T14:55:44.586Z</time></trkpt><trkpt lat="42.2881274" lon="12.1060783"><ele>476.57142857142856</ele><time>2026-04-30T14:55:46.589Z</time></trkpt><trkpt lat="42.2881808" lon="12.1060112"><ele>476.42857142857144</ele><time>2026-04-30T14:55:48.582Z</time></trkpt><trkpt lat="42.2882236" lon="12.1059282"><ele>476.2857142857143</ele><time>2026-04-30T14:55:50.59Z</time></trkpt><trkpt lat="42.2882732" lon="12.1058457"><ele>476.1428571428571</ele><time>2026-04-30T14:55:52.587Z</time></trkpt><trkpt lat="42.2883306" lon="12.1057679"><ele>476.0</ele><time>2026-04-30T14:55:54.58Z</time></trkpt><trkpt lat="42.2883878" lon="12.1057165"><ele>476.66666666666663</ele><time>2026-04-30T14:55:56.59Z</time></trkpt><trkpt lat="42.2884473" lon="12.1056347"><ele>477.3333333333333</ele><time>2026-04-30T14:55:59.593Z</time></trkpt><trkpt lat="42.2885088" lon="12.1055717"><ele>478.0</ele><time>2026-04-30T14:56:02.581Z</time></trkpt><trkpt lat="42.2885651" lon="12.1054935"><ele>478.66666666666663</ele><time>2026-04-30T14:56:05.58Z</time></trkpt><trkpt lat="42.2886269" lon="12.1054204"><ele>479.3333333333333</ele><time>2026-04-30T14:56:08.599Z</time></trkpt><trkpt lat="42.2886778" lon="12.105346"><ele>480.0</ele><time>2026-04-30T14:56:11.589Z</time></trkpt><trkpt lat="42.2887355" lon="12.1052876"><ele>480.0</ele><time>2026-04-30T14:56:14.585Z</time></trkpt><trkpt lat="42.2888177" lon="12.1052513"><ele>480.0</ele><time>2026-04-30T14:56:17.583Z</time></trkpt><trkpt lat="42.2889108" lon="12.105197"><ele>480.0</ele><time>2026-04-30T14:56:20.583Z</time></trkpt><trkpt lat="42.2889853" lon="12.1051809"><ele>480.0</ele><time>2026-04-30T14:56:22.589Z</time></trkpt><trkpt lat="42.2890676" lon="12.1051796"><ele>480.0</ele><time>2026-04-30T14:56:24.593Z</time></trkpt><trkpt lat="42.2891689" lon="12.1051641"><ele>480.0</ele><time>2026-04-30T14:56:26.584Z</time></trkpt><trkpt lat="42.2892537" lon="12.1051667"><ele>479.3333333333333</ele><time>2026-04-30T14:56:28.581Z</time></trkpt><trkpt lat="42.2893362" lon="12.1052074"><ele>478.66666666666663</ele><time>2026-04-30T14:56:30.581Z</time></trkpt><trkpt lat="42.2894428" lon="12.1052553"><ele>478.0</ele><time>2026-04-30T14:56:32.583Z</time></trkpt><trkpt lat="42.2895059" lon="12.1052797"><ele>477.3333333333333</ele><time>2026-04-30T14:56:33.583Z</time></trkpt><trkpt lat="42.2895679" lon="12.1053048"><ele>476.66666666666663</ele><time>2026-04-30T14:56:34.592Z</time></trkpt><trkpt lat="42.2896367" lon="12.1053334"><ele>476.0</ele><time>2026-04-30T14:56:35.599Z</time></trkpt><trkpt lat="42.2897011" lon="12.1053704"><ele>475.4</ele><time>2026-04-30T14:56:36.588Z</time></trkpt><trkpt lat="42.2897646" lon="12.1054135"><ele>474.8</ele><time>2026-04-30T14:56:37.573Z</time></trkpt><trkpt lat="42.2898206" lon="12.1054538"><ele>474.19999999999993</ele><time>2026-04-30T14:56:38.594Z</time></trkpt><trkpt lat="42.2899325" lon="12.1055216"><ele>473.59999999999997</ele><time>2026-04-30T14:56:40.582Z</time></trkpt><trkpt lat="42.2900295" lon="12.1055752"><ele>473.0</ele><time>2026-04-30T14:56:42.583Z</time></trkpt><trkpt lat="42.2901126" lon="12.1056474"><ele>472.99999999999994</ele><time>2026-04-30T14:56:44.581Z</time></trkpt><trkpt lat="42.2901925" lon="12.1057107"><ele>473.0</ele><time>2026-04-30T14:56:46.585Z</time></trkpt><trkpt lat="42.2902589" lon="12.1057648"><ele>473.0</ele><time>2026-04-30T14:56:48.579Z</time></trkpt><trkpt lat="42.290322" lon="12.1057988"><ele>473.0</ele><time>2026-04-30T14:56:50.58Z</time></trkpt><trkpt lat="42.2903949" lon="12.1058364"><ele>472.99999999999994</ele><time>2026-04-30T14:56:53.581Z</time></trkpt><trkpt lat="42.2904711" lon="12.105876"><ele>473.0</ele><time>2026-04-30T14:56:56.582Z</time></trkpt><trkpt lat="42.2905393" lon="12.1059157"><ele>472.8333333333333</ele><time>2026-04-30T14:56:59.571Z</time></trkpt><trkpt lat="42.2906203" lon="12.1059653"><ele>472.66666666666663</ele><time>2026-04-30T14:57:04.563Z</time></trkpt><trkpt lat="42.2906944" lon="12.1060261"><ele>472.5</ele><time>2026-04-30T14:57:06.569Z</time></trkpt><trkpt lat="42.2907727" lon="12.1060945"><ele>472.33333333333337</ele><time>2026-04-30T14:57:08.573Z</time></trkpt><trkpt lat="42.2908521" lon="12.1061496"><ele>472.1666666666667</ele><time>2026-04-30T14:57:10.565Z</time></trkpt><trkpt lat="42.2909125" lon="12.1062299"><ele>472.0</ele><time>2026-04-30T14:57:13.584Z</time></trkpt><trkpt lat="42.29098" lon="12.1062486"><ele>472.00000000000006</ele><time>2026-04-30T14:57:15.586Z</time></trkpt><trkpt lat="42.2910763" lon="12.1062125"><ele>472.0</ele><time>2026-04-30T14:57:17.58Z</time></trkpt><trkpt lat="42.291133" lon="12.10615"><ele>472.0</ele><time>2026-04-30T14:57:19.578Z</time></trkpt><trkpt lat="42.2911981" lon="12.1060652"><ele>472.0</ele><time>2026-04-30T14:57:22.591Z</time></trkpt><trkpt lat="42.2912354" lon="12.1059842"><ele>472.00000000000006</ele><time>2026-04-30T14:57:24.578Z</time></trkpt><trkpt lat="42.2912901" lon="12.1058832"><ele>472.0</ele><time>2026-04-30T14:57:27.593Z</time></trkpt><trkpt lat="42.2913128" lon="12.1057921"><ele>472.1428571428571</ele><time>2026-04-30T14:57:29.578Z</time></trkpt><trkpt lat="42.291353" lon="12.1057243"><ele>472.28571428571433</ele><time>2026-04-30T14:57:31.584Z</time></trkpt><trkpt lat="42.2913988" lon="12.1056651"><ele>472.42857142857144</ele><time>2026-04-30T14:57:33.59Z</time></trkpt><trkpt lat="42.2914384" lon="12.1055945"><ele>472.57142857142856</ele><time>2026-04-30T14:57:35.593Z</time></trkpt><trkpt lat="42.2914917" lon="12.1055122"><ele>472.71428571428567</ele><time>2026-04-30T14:57:37.594Z</time></trkpt><trkpt lat="42.291547" lon="12.1053983"><ele>472.8571428571429</ele><time>2026-04-30T14:57:39.602Z</time></trkpt><trkpt lat="42.2915825" lon="12.1053267"><ele>473.0</ele><time>2026-04-30T14:57:40.589Z</time></trkpt><trkpt lat="42.2916189" lon="12.1052481"><ele>472.49999999999994</ele><time>2026-04-30T14:57:41.58Z</time></trkpt><trkpt lat="42.2916608" lon="12.1051688"><ele>472.0</ele><time>2026-04-30T14:57:42.612Z</time></trkpt><trkpt lat="42.2916995" lon="12.1050821"><ele>471.5</ele><time>2026-04-30T14:57:43.584Z</time></trkpt><trkpt lat="42.2917387" lon="12.1049955"><ele>471.0</ele><time>2026-04-30T14:57:44.605Z</time></trkpt><trkpt lat="42.2917839" lon="12.1049086"><ele>470.49999999999994</ele><time>2026-04-30T14:57:45.581Z</time></trkpt><trkpt lat="42.2918331" lon="12.1048237"><ele>470.0</ele><time>2026-04-30T14:57:46.589Z</time></trkpt><trkpt lat="42.2918762" lon="12.1047414"><ele>470.0</ele><time>2026-04-30T14:57:47.577Z</time></trkpt><trkpt lat="42.2919191" lon="12.1046546"><ele>470.0</ele><time>2026-04-30T14:57:48.59Z</time></trkpt><trkpt lat="42.2919574" lon="12.1045845"><ele>470.0</ele><time>2026-04-30T14:57:49.57Z</time></trkpt><trkpt lat="42.2920347" lon="12.1044872"><ele>470.0</ele><time>2026-04-30T14:57:51.583Z</time></trkpt><trkpt lat="42.292131" lon="12.1044542"><ele>470.0</ele><time>2026-04-30T14:57:53.575Z</time></trkpt><trkpt lat="42.2922294" lon="12.1044957"><ele>468.16666666666663</ele><time>2026-04-30T14:57:55.58Z</time></trkpt><trkpt lat="42.2922922" lon="12.104577"><ele>466.3333333333333</ele><time>2026-04-30T14:57:57.57Z</time></trkpt><trkpt lat="42.2923407" lon="12.1046331"><ele>464.5</ele><time>2026-04-30T14:57:59.572Z</time></trkpt><trkpt lat="42.2924006" lon="12.1047226"><ele>462.66666666666663</ele><time>2026-04-30T14:58:02.594Z</time></trkpt><trkpt lat="42.2924751" lon="12.1047684"><ele>460.8333333333333</ele><time>2026-04-30T14:58:05.588Z</time></trkpt><trkpt lat="42.2925458" lon="12.104788"><ele>459.0</ele><time>2026-04-30T14:58:08.582Z</time></trkpt><trkpt lat="42.2926098" lon="12.1048171"><ele>459.0</ele><time>2026-04-30T14:58:11.572Z</time></trkpt><trkpt lat="42.2926676" lon="12.1048693"><ele>459.0</ele><time>2026-04-30T14:58:16.582Z</time></trkpt><trkpt lat="42.2926482" lon="12.1048214"><ele>459.0</ele><time>2026-04-30T15:00:10.59Z</time></trkpt><trkpt lat="42.2925723" lon="12.1047882"><ele>459.0</ele><time>2026-04-30T15:00:21.587Z</time></trkpt><trkpt lat="42.2925094" lon="12.1047643"><ele>459.0</ele><time>2026-04-30T15:00:24.593Z</time></trkpt><trkpt lat="42.2924441" lon="12.1047137"><ele>459.0</ele><time>2026-04-30T15:00:27.583Z</time></trkpt><trkpt lat="42.2923803" lon="12.1046636"><ele>459.0</ele><time>2026-04-30T15:00:30.572Z</time></trkpt><trkpt lat="42.2923298" lon="12.1045857"><ele>459.0</ele><time>2026-04-30T15:00:33.573Z</time></trkpt><trkpt lat="42.2922712" lon="12.1045137"><ele>459.0</ele><time>2026-04-30T15:00:36.586Z</time></trkpt><trkpt lat="42.2922006" lon="12.1044504"><ele>459.0</ele><time>2026-04-30T15:00:39.58Z</time></trkpt><trkpt lat="42.2921213" lon="12.1044162"><ele>459.0</ele><time>2026-04-30T15:00:42.58Z</time></trkpt><trkpt lat="42.2920605" lon="12.1043899"><ele>459.0</ele><time>2026-04-30T15:00:44.587Z</time></trkpt><trkpt lat="42.291983" lon="12.1043286"><ele>459.0</ele><time>2026-04-30T15:00:47.587Z</time></trkpt><trkpt lat="42.2919424" lon="12.1042417"><ele>460.5</ele><time>2026-04-30T15:00:50.584Z</time></trkpt><trkpt lat="42.2919287" lon="12.1041258"><ele>462.0</ele><time>2026-04-30T15:00:53.586Z</time></trkpt><trkpt lat="42.2919169" lon="12.1039981"><ele>463.5</ele><time>2026-04-30T15:00:56.579Z</time></trkpt><trkpt lat="42.2919177" lon="12.1039087"><ele>465.0</ele><time>2026-04-30T15:00:58.583Z</time></trkpt><trkpt lat="42.2919282" lon="12.1037868"><ele>466.5</ele><time>2026-04-30T15:01:01.588Z</time></trkpt><trkpt lat="42.2919407" lon="12.1037022"><ele>468.0</ele><time>2026-04-30T15:01:03.578Z</time></trkpt><trkpt lat="42.2919799" lon="12.1036058"><ele>468.0</ele><time>2026-04-30T15:01:05.574Z</time></trkpt><trkpt lat="42.2920325" lon="12.1034859"><ele>467.99999999999994</ele><time>2026-04-30T15:01:07.575Z</time></trkpt><trkpt lat="42.292084" lon="12.1033753"><ele>467.99999999999994</ele><time>2026-04-30T15:01:09.592Z</time></trkpt><trkpt lat="42.2921231" lon="12.1032525"><ele>468.0</ele><time>2026-04-30T15:01:11.58Z</time></trkpt><trkpt lat="42.2921243" lon="12.1031316"><ele>468.0</ele><time>2026-04-30T15:01:13.584Z</time></trkpt><trkpt lat="42.2921165" lon="12.1030305"><ele>467.7142857142857</ele><time>2026-04-30T15:01:15.566Z</time></trkpt><trkpt lat="42.2921207" lon="12.1029249"><ele>467.42857142857144</ele><time>2026-04-30T15:01:18.581Z</time></trkpt><trkpt lat="42.2921397" lon="12.1028405"><ele>467.14285714285717</ele><time>2026-04-30T15:01:20.586Z</time></trkpt><trkpt lat="42.2921595" lon="12.1027509"><ele>466.8571428571429</ele><time>2026-04-30T15:01:22.574Z</time></trkpt><trkpt lat="42.2921673" lon="12.1026616"><ele>466.57142857142856</ele><time>2026-04-30T15:01:24.583Z</time></trkpt><trkpt lat="42.2921496" lon="12.1025661"><ele>466.28571428571433</ele><time>2026-04-30T15:01:26.578Z</time></trkpt><trkpt lat="42.292109" lon="12.1024806"><ele>466.0</ele><time>2026-04-30T15:01:28.588Z</time></trkpt><trkpt lat="42.2920907" lon="12.1023814"><ele>465.83333333333337</ele><time>2026-04-30T15:01:30.587Z</time></trkpt><trkpt lat="42.2920534" lon="12.1022626"><ele>465.6666666666667</ele><time>2026-04-30T15:01:32.59Z</time></trkpt><trkpt lat="42.2920096" lon="12.1021435"><ele>465.5</ele><time>2026-04-30T15:01:34.585Z</time></trkpt><trkpt lat="42.2919526" lon="12.102049"><ele>465.33333333333337</ele><time>2026-04-30T15:01:36.585Z</time></trkpt><trkpt lat="42.2919077" lon="12.1019677"><ele>465.1666666666667</ele><time>2026-04-30T15:01:38.588Z</time></trkpt><trkpt lat="42.291851" lon="12.1018916"><ele>465.0</ele><time>2026-04-30T15:01:40.594Z</time></trkpt><trkpt lat="42.2918074" lon="12.101812"><ele>465.0</ele><time>2026-04-30T15:01:42.588Z</time></trkpt><trkpt lat="42.2917471" lon="12.1016984"><ele>465.0</ele><time>2026-04-30T15:01:44.59Z</time></trkpt><trkpt lat="42.291677" lon="12.1015877"><ele>465.0</ele><time>2026-04-30T15:01:46.597Z</time></trkpt><trkpt lat="42.2915997" lon="12.1015002"><ele>465.0</ele><time>2026-04-30T15:01:48.594Z</time></trkpt><trkpt lat="42.291519" lon="12.1014069"><ele>465.0</ele><time>2026-04-30T15:01:50.597Z</time></trkpt><trkpt lat="42.2914427" lon="12.1013239"><ele>465.0</ele><time>2026-04-30T15:01:52.591Z</time></trkpt><trkpt lat="42.2913786" lon="12.1012213"><ele>465.0</ele><time>2026-04-30T15:01:54.589Z</time></trkpt><trkpt lat="42.2913362" lon="12.1011161"><ele>465.0</ele><time>2026-04-30T15:01:56.585Z</time></trkpt><trkpt lat="42.2913025" lon="12.1010142"><ele>465.0</ele><time>2026-04-30T15:01:58.59Z</time></trkpt><trkpt lat="42.2912656" lon="12.1009231"><ele>465.0</ele><time>2026-04-30T15:02:00.588Z</time></trkpt><trkpt lat="42.2912219" lon="12.1008222"><ele>465.0</ele><time>2026-04-30T15:02:02.594Z</time></trkpt><trkpt lat="42.2911779" lon="12.1007125"><ele>464.5</ele><time>2026-04-30T15:02:04.585Z</time></trkpt><trkpt lat="42.2911407" lon="12.1006169"><ele>464.0</ele><time>2026-04-30T15:02:06.576Z</time></trkpt><trkpt lat="42.2911017" lon="12.1005177"><ele>463.5</ele><time>2026-04-30T15:02:08.59Z</time></trkpt><trkpt lat="42.2910613" lon="12.1004326"><ele>463.0</ele><time>2026-04-30T15:02:10.59Z</time></trkpt><trkpt lat="42.2910394" lon="12.1003495"><ele>462.5</ele><time>2026-04-30T15:02:12.598Z</time></trkpt><trkpt lat="42.2910113" lon="12.1002536"><ele>462.0</ele><time>2026-04-30T15:02:14.592Z</time></trkpt><trkpt lat="42.2909688" lon="12.1001517"><ele>462.0</ele><time>2026-04-30T15:02:16.579Z</time></trkpt><trkpt lat="42.2909069" lon="12.1000697"><ele>462.0</ele><time>2026-04-30T15:02:18.591Z</time></trkpt><trkpt lat="42.2908539" lon="12.1000037"><ele>462.0</ele><time>2026-04-30T15:02:20.578Z</time></trkpt><trkpt lat="42.2907907" lon="12.0999413"><ele>462.0</ele><time>2026-04-30T15:02:22.593Z</time></trkpt><trkpt lat="42.2906949" lon="12.0998635"><ele>462.0</ele><time>2026-04-30T15:02:24.585Z</time></trkpt><trkpt lat="42.2906359" lon="12.09983"><ele>462.0</ele><time>2026-04-30T15:02:25.574Z</time></trkpt><trkpt lat="42.2905383" lon="12.0997647"><ele>462.0</ele><time>2026-04-30T15:02:27.577Z</time></trkpt><trkpt lat="42.2904453" lon="12.0996705"><ele>462.0</ele><time>2026-04-30T15:02:29.585Z</time></trkpt><trkpt lat="42.2903918" lon="12.0995442"><ele>462.0</ele><time>2026-04-30T15:02:31.586Z</time></trkpt><trkpt lat="42.2903599" lon="12.0993928"><ele>462.0</ele><time>2026-04-30T15:02:33.583Z</time></trkpt><trkpt lat="42.2903178" lon="12.0992355"><ele>461.8</ele><time>2026-04-30T15:02:35.591Z</time></trkpt><trkpt lat="42.2902876" lon="12.0990753"><ele>461.6</ele><time>2026-04-30T15:02:37.576Z</time></trkpt><trkpt lat="42.2902597" lon="12.0989246"><ele>461.40000000000003</ele><time>2026-04-30T15:02:39.579Z</time></trkpt><trkpt lat="42.2902361" lon="12.098842"><ele>461.20000000000005</ele><time>2026-04-30T15:02:40.583Z</time></trkpt><trkpt lat="42.2901945" lon="12.098689"><ele>461.0</ele><time>2026-04-30T15:02:42.592Z</time></trkpt><trkpt lat="42.2901422" lon="12.0985311"><ele>461.0</ele><time>2026-04-30T15:02:44.588Z</time></trkpt><trkpt lat="42.2901136" lon="12.0983825"><ele>461.0</ele><time>2026-04-30T15:02:46.584Z</time></trkpt><trkpt lat="42.290111" lon="12.098228"><ele>461.0</ele><time>2026-04-30T15:02:48.579Z</time></trkpt><trkpt lat="42.2901023" lon="12.0980749"><ele>461.0</ele><time>2026-04-30T15:02:50.58Z</time></trkpt><trkpt lat="42.2900938" lon="12.0979294"><ele>461.0</ele><time>2026-04-30T15:02:52.581Z</time></trkpt><trkpt lat="42.2901071" lon="12.0977723"><ele>460.99999999999994</ele><time>2026-04-30T15:02:54.587Z</time></trkpt><trkpt lat="42.2901279" lon="12.09763"><ele>461.0</ele><time>2026-04-30T15:02:56.574Z</time></trkpt><trkpt lat="42.2901479" lon="12.0975485"><ele>461.0</ele><time>2026-04-30T15:02:58.585Z</time></trkpt><trkpt lat="42.2901525" lon="12.0974253"><ele>461.0</ele><time>2026-04-30T15:03:01.584Z</time></trkpt><trkpt lat="42.2901857" lon="12.0973262"><ele>460.99999999999994</ele><time>2026-04-30T15:03:03.583Z</time></trkpt><trkpt lat="42.2902291" lon="12.0972347"><ele>461.0</ele><time>2026-04-30T15:03:05.583Z</time></trkpt><trkpt lat="42.2902639" lon="12.0971528"><ele>460.99999999999994</ele><time>2026-04-30T15:03:07.586Z</time></trkpt><trkpt lat="42.2903061" lon="12.0970472"><ele>461.0</ele><time>2026-04-30T15:03:09.582Z</time></trkpt><trkpt lat="42.2903509" lon="12.096945"><ele>461.0</ele><time>2026-04-30T15:03:11.587Z</time></trkpt><trkpt lat="42.2903882" lon="12.0968461"><ele>461.0</ele><time>2026-04-30T15:03:13.588Z</time></trkpt><trkpt lat="42.290416" lon="12.0967589"><ele>460.99999999999994</ele><time>2026-04-30T15:03:15.586Z</time></trkpt><trkpt lat="42.2904534" lon="12.0966644"><ele>461.0</ele><time>2026-04-30T15:03:17.579Z</time></trkpt><trkpt lat="42.2904967" lon="12.0965833"><ele>460.6</ele><time>2026-04-30T15:03:19.561Z</time></trkpt><trkpt lat="42.290544" lon="12.096483"><ele>460.20000000000005</ele><time>2026-04-30T15:03:21.573Z</time></trkpt><trkpt lat="42.2905744" lon="12.0963664"><ele>459.79999999999995</ele><time>2026-04-30T15:03:23.572Z</time></trkpt><trkpt lat="42.290613" lon="12.0962571"><ele>459.4</ele><time>2026-04-30T15:03:26.588Z</time></trkpt><trkpt lat="42.2906343" lon="12.0961477"><ele>459.0</ele><time>2026-04-30T15:03:28.59Z</time></trkpt><trkpt lat="42.2906352" lon="12.0960074"><ele>458.2</ele><time>2026-04-30T15:03:30.586Z</time></trkpt><trkpt lat="42.2906291" lon="12.0958501"><ele>457.4</ele><time>2026-04-30T15:03:32.581Z</time></trkpt><trkpt lat="42.2906294" lon="12.0957262"><ele>456.6</ele><time>2026-04-30T15:03:34.577Z</time></trkpt><trkpt lat="42.2906618" lon="12.0955749"><ele>455.8</ele><time>2026-04-30T15:03:36.586Z</time></trkpt><trkpt lat="42.2906756" lon="12.0954714"><ele>455.0</ele><time>2026-04-30T15:03:38.586Z</time></trkpt><trkpt lat="42.2907188" lon="12.0953587"><ele>454.99999999999994</ele><time>2026-04-30T15:03:40.577Z</time></trkpt><trkpt lat="42.290795" lon="12.0952344"><ele>455.0</ele><time>2026-04-30T15:03:42.584Z</time></trkpt><trkpt lat="42.2908421" lon="12.0951667"><ele>455.0</ele><time>2026-04-30T15:03:43.592Z</time></trkpt><trkpt lat="42.290886" lon="12.0950981"><ele>455.0</ele><time>2026-04-30T15:03:44.58Z</time></trkpt><trkpt lat="42.2909248" lon="12.0950266"><ele>454.99999999999994</ele><time>2026-04-30T15:03:45.574Z</time></trkpt><trkpt lat="42.2909607" lon="12.0949534"><ele>455.0</ele><time>2026-04-30T15:03:46.581Z</time></trkpt><trkpt lat="42.2910073" lon="12.0948171"><ele>455.0</ele><time>2026-04-30T15:03:48.581Z</time></trkpt><trkpt lat="42.2910496" lon="12.0946699"><ele>455.0</ele><time>2026-04-30T15:03:50.591Z</time></trkpt><trkpt lat="42.2910849" lon="12.0945362"><ele>455.0</ele><time>2026-04-30T15:03:52.584Z</time></trkpt><trkpt lat="42.2911397" lon="12.0944083"><ele>455.0</ele><time>2026-04-30T15:03:54.588Z</time></trkpt><trkpt lat="42.2911795" lon="12.0942583"><ele>455.0</ele><time>2026-04-30T15:03:56.591Z</time></trkpt><trkpt lat="42.2912151" lon="12.0941165"><ele>454.6</ele><time>2026-04-30T15:03:58.576Z</time></trkpt><trkpt lat="42.2912301" lon="12.0939691"><ele>454.2</ele><time>2026-04-30T15:04:00.59Z</time></trkpt><trkpt lat="42.2912554" lon="12.0938159"><ele>453.79999999999995</ele><time>2026-04-30T15:04:02.591Z</time></trkpt><trkpt lat="42.2912718" lon="12.093662"><ele>453.4</ele><time>2026-04-30T15:04:04.591Z</time></trkpt><trkpt lat="42.291285" lon="12.0935296"><ele>453.0</ele><time>2026-04-30T15:04:06.594Z</time></trkpt><trkpt lat="42.2913046" lon="12.0933983"><ele>453.0</ele><time>2026-04-30T15:04:08.587Z</time></trkpt><trkpt lat="42.291314" lon="12.0932615"><ele>452.99999999999994</ele><time>2026-04-30T15:04:10.58Z</time></trkpt><trkpt lat="42.2912987" lon="12.0931132"><ele>452.99999999999994</ele><time>2026-04-30T15:04:12.592Z</time></trkpt><trkpt lat="42.2912802" lon="12.0929602"><ele>453.0</ele><time>2026-04-30T15:04:14.588Z</time></trkpt><trkpt lat="42.2912735" lon="12.0928082"><ele>453.0</ele><time>2026-04-30T15:04:16.591Z</time></trkpt><trkpt lat="42.2912819" lon="12.092667"><ele>452.4</ele><time>2026-04-30T15:04:18.58Z</time></trkpt><trkpt lat="42.2912922" lon="12.0925381"><ele>451.79999999999995</ele><time>2026-04-30T15:04:20.587Z</time></trkpt><trkpt lat="42.2913183" lon="12.0923925"><ele>451.2</ele><time>2026-04-30T15:04:22.586Z</time></trkpt><trkpt lat="42.291349" lon="12.0922473"><ele>450.6</ele><time>2026-04-30T15:04:24.579Z</time></trkpt><trkpt lat="42.2913933" lon="12.0921014"><ele>450.0</ele><time>2026-04-30T15:04:26.582Z</time></trkpt><trkpt lat="42.291419" lon="12.0919634"><ele>449.0</ele><time>2026-04-30T15:04:28.578Z</time></trkpt><trkpt lat="42.2914271" lon="12.09181"><ele>448.0</ele><time>2026-04-30T15:04:30.586Z</time></trkpt><trkpt lat="42.2914337" lon="12.0916586"><ele>447.0</ele><time>2026-04-30T15:04:32.601Z</time></trkpt><trkpt lat="42.2914412" lon="12.0915029"><ele>446.0</ele><time>2026-04-30T15:04:34.581Z</time></trkpt><trkpt lat="42.2914483" lon="12.0913588"><ele>445.0</ele><time>2026-04-30T15:04:36.58Z</time></trkpt><trkpt lat="42.2914577" lon="12.0912157"><ele>444.8</ele><time>2026-04-30T15:04:38.593Z</time></trkpt><trkpt lat="42.2914604" lon="12.091067"><ele>444.6</ele><time>2026-04-30T15:04:40.591Z</time></trkpt><trkpt lat="42.2914721" lon="12.0909345"><ele>444.4</ele><time>2026-04-30T15:04:42.579Z</time></trkpt><trkpt lat="42.2914806" lon="12.0907963"><ele>444.2</ele><time>2026-04-30T15:04:44.589Z</time></trkpt><trkpt lat="42.2914945" lon="12.0906632"><ele>444.0</ele><time>2026-04-30T15:04:46.588Z</time></trkpt><trkpt lat="42.2914878" lon="12.0905275"><ele>443.0</ele><time>2026-04-30T15:04:48.595Z</time></trkpt><trkpt lat="42.2914673" lon="12.0903734"><ele>442.0</ele><time>2026-04-30T15:04:50.588Z</time></trkpt><trkpt lat="42.2914428" lon="12.0902225"><ele>441.0</ele><time>2026-04-30T15:04:52.58Z</time></trkpt><trkpt lat="42.2914195" lon="12.0900715"><ele>440.0</ele><time>2026-04-30T15:04:54.573Z</time></trkpt><trkpt lat="42.2914067" lon="12.0899238"><ele>439.4</ele><time>2026-04-30T15:04:56.587Z</time></trkpt><trkpt lat="42.2914149" lon="12.0897724"><ele>438.8</ele><time>2026-04-30T15:04:58.59Z</time></trkpt><trkpt lat="42.2913776" lon="12.089638"><ele>438.20000000000005</ele><time>2026-04-30T15:05:00.579Z</time></trkpt><trkpt lat="42.2913395" lon="12.0895655"><ele>437.6</ele><time>2026-04-30T15:05:01.558Z</time></trkpt><trkpt lat="42.2912706" lon="12.089465"><ele>437.0</ele><time>2026-04-30T15:05:03.571Z</time></trkpt><trkpt lat="42.2912083" lon="12.0893331"><ele>436.99999999999994</ele><time>2026-04-30T15:05:05.585Z</time></trkpt><trkpt lat="42.2912002" lon="12.0892461"><ele>437.0</ele><time>2026-04-30T15:05:06.583Z</time></trkpt><trkpt lat="42.2912028" lon="12.0890998"><ele>437.0</ele><time>2026-04-30T15:05:08.593Z</time></trkpt><trkpt lat="42.2912185" lon="12.0890094"><ele>437.0</ele><time>2026-04-30T15:05:09.584Z</time></trkpt><trkpt lat="42.2912247" lon="12.0889159"><ele>436.99999999999994</ele><time>2026-04-30T15:05:10.589Z</time></trkpt><trkpt lat="42.2912276" lon="12.0888146"><ele>437.0</ele><time>2026-04-30T15:05:11.584Z</time></trkpt><trkpt lat="42.2912284" lon="12.0887086"><ele>437.16666666666663</ele><time>2026-04-30T15:05:12.575Z</time></trkpt><trkpt lat="42.2912204" lon="12.0886084"><ele>437.3333333333333</ele><time>2026-04-30T15:05:13.587Z</time></trkpt><trkpt lat="42.2912192" lon="12.0885082"><ele>437.5</ele><time>2026-04-30T15:05:14.586Z</time></trkpt><trkpt lat="42.2912208" lon="12.0884091"><ele>437.66666666666663</ele><time>2026-04-30T15:05:15.579Z</time></trkpt><trkpt lat="42.2912269" lon="12.0882993"><ele>437.8333333333333</ele><time>2026-04-30T15:05:16.591Z</time></trkpt><trkpt lat="42.2912393" lon="12.0881938"><ele>438.0</ele><time>2026-04-30T15:05:17.578Z</time></trkpt><trkpt lat="42.2912503" lon="12.0880947"><ele>438.0</ele><time>2026-04-30T15:05:18.599Z</time></trkpt><trkpt lat="42.2912593" lon="12.0879932"><ele>438.0</ele><time>2026-04-30T15:05:19.579Z</time></trkpt><trkpt lat="42.2912654" lon="12.08789"><ele>438.0</ele><time>2026-04-30T15:05:20.581Z</time></trkpt><trkpt lat="42.2912775" lon="12.0877926"><ele>438.0</ele><time>2026-04-30T15:05:21.58Z</time></trkpt><trkpt lat="42.2912928" lon="12.0877033"><ele>438.0</ele><time>2026-04-30T15:05:22.589Z</time></trkpt><trkpt lat="42.2913092" lon="12.0876196"><ele>438.0</ele><time>2026-04-30T15:05:23.581Z</time></trkpt><trkpt lat="42.2913252" lon="12.0875323"><ele>438.0</ele><time>2026-04-30T15:05:24.576Z</time></trkpt><trkpt lat="42.2913278" lon="12.0874446"><ele>437.4</ele><time>2026-04-30T15:05:25.583Z</time></trkpt><trkpt lat="42.2913271" lon="12.0873587"><ele>436.79999999999995</ele><time>2026-04-30T15:05:26.59Z</time></trkpt><trkpt lat="42.2913113" lon="12.0871992"><ele>436.2</ele><time>2026-04-30T15:05:28.59Z</time></trkpt><trkpt lat="42.2912953" lon="12.0870479"><ele>435.6</ele><time>2026-04-30T15:05:30.592Z</time></trkpt><trkpt lat="42.2912952" lon="12.0869028"><ele>435.0</ele><time>2026-04-30T15:05:32.58Z</time></trkpt><trkpt lat="42.2912909" lon="12.0867661"><ele>435.0</ele><time>2026-04-30T15:05:34.574Z</time></trkpt><trkpt lat="42.2912838" lon="12.0866447"><ele>435.0</ele><time>2026-04-30T15:05:36.591Z</time></trkpt><trkpt lat="42.2912826" lon="12.0865418"><ele>435.0</ele><time>2026-04-30T15:05:38.58Z</time></trkpt><trkpt lat="42.2912984" lon="12.0864089"><ele>435.0</ele><time>2026-04-30T15:05:40.583Z</time></trkpt><trkpt lat="42.2913116" lon="12.0862725"><ele>435.0</ele><time>2026-04-30T15:05:42.577Z</time></trkpt><trkpt lat="42.2913115" lon="12.0861336"><ele>434.1666666666667</ele><time>2026-04-30T15:05:44.583Z</time></trkpt><trkpt lat="42.2913234" lon="12.086014"><ele>433.33333333333337</ele><time>2026-04-30T15:05:46.577Z</time></trkpt><trkpt lat="42.2913351" lon="12.0858865"><ele>432.5</ele><time>2026-04-30T15:05:48.583Z</time></trkpt><trkpt lat="42.2913261" lon="12.0857753"><ele>431.6666666666667</ele><time>2026-04-30T15:05:50.592Z</time></trkpt><trkpt lat="42.2912978" lon="12.0856761"><ele>430.83333333333337</ele><time>2026-04-30T15:05:53.577Z</time></trkpt><trkpt lat="42.2912935" lon="12.0855667"><ele>430.0</ele><time>2026-04-30T15:05:56.571Z</time></trkpt><trkpt lat="42.2913012" lon="12.08548"><ele>429.6666666666667</ele><time>2026-04-30T15:05:59.576Z</time></trkpt><trkpt lat="42.2913069" lon="12.0853723"><ele>429.33333333333337</ele><time>2026-04-30T15:09:36.586Z</time></trkpt><trkpt lat="42.2912993" lon="12.0852667"><ele>429.0</ele><time>2026-04-30T15:09:42.571Z</time></trkpt><trkpt lat="42.2913036" lon="12.0851813"><ele>428.66666666666663</ele><time>2026-04-30T15:09:44.585Z</time></trkpt><trkpt lat="42.2913077" lon="12.0850638"><ele>428.3333333333333</ele><time>2026-04-30T15:09:46.588Z</time></trkpt><trkpt lat="42.2913185" lon="12.0849308"><ele>428.0</ele><time>2026-04-30T15:09:48.577Z</time></trkpt><trkpt lat="42.291327" lon="12.0848067"><ele>428.0</ele><time>2026-04-30T15:09:50.579Z</time></trkpt><trkpt lat="42.2913341" lon="12.0846962"><ele>427.99999999999994</ele><time>2026-04-30T15:09:52.574Z</time></trkpt><trkpt lat="42.2913403" lon="12.0845804"><ele>427.99999999999994</ele><time>2026-04-30T15:09:54.58Z</time></trkpt><trkpt lat="42.2913493" lon="12.0844472"><ele>428.0</ele><time>2026-04-30T15:09:56.577Z</time></trkpt><trkpt lat="42.2913628" lon="12.0843043"><ele>428.0</ele><time>2026-04-30T15:09:58.593Z</time></trkpt><trkpt lat="42.2913655" lon="12.0841467"><ele>427.2</ele><time>2026-04-30T15:10:00.582Z</time></trkpt><trkpt lat="42.2913662" lon="12.0840585"><ele>426.4</ele><time>2026-04-30T15:10:01.585Z</time></trkpt><trkpt lat="42.2913678" lon="12.0839702"><ele>425.59999999999997</ele><time>2026-04-30T15:10:02.581Z</time></trkpt><trkpt lat="42.2913802" lon="12.0838107"><ele>424.79999999999995</ele><time>2026-04-30T15:10:04.578Z</time></trkpt><trkpt lat="42.2913842" lon="12.0836539"><ele>424.0</ele><time>2026-04-30T15:10:06.585Z</time></trkpt><trkpt lat="42.2913846" lon="12.0835076"><ele>424.0</ele><time>2026-04-30T15:10:08.589Z</time></trkpt><trkpt lat="42.2913742" lon="12.0833457"><ele>424.0</ele><time>2026-04-30T15:10:10.588Z</time></trkpt><trkpt lat="42.2913703" lon="12.0832594"><ele>424.0</ele><time>2026-04-30T15:10:11.588Z</time></trkpt><trkpt lat="42.2913682" lon="12.0831719"><ele>424.0</ele><time>2026-04-30T15:10:12.592Z</time></trkpt><trkpt lat="42.2913695" lon="12.083008"><ele>424.0</ele><time>2026-04-30T15:10:14.586Z</time></trkpt><trkpt lat="42.2913785" lon="12.0828667"><ele>423.6666666666667</ele><time>2026-04-30T15:10:16.579Z</time></trkpt><trkpt lat="42.2913391" lon="12.0827781"><ele>423.33333333333337</ele><time>2026-04-30T15:10:20.579Z</time></trkpt><trkpt lat="42.2912737" lon="12.0827519"><ele>423.0</ele><time>2026-04-30T15:10:23.574Z</time></trkpt><trkpt lat="42.2911882" lon="12.0827473"><ele>422.66666666666663</ele><time>2026-04-30T15:10:26.581Z</time></trkpt><trkpt lat="42.2911215" lon="12.0827521"><ele>422.3333333333333</ele><time>2026-04-30T15:10:28.59Z</time></trkpt><trkpt lat="42.2910505" lon="12.0827468"><ele>422.0</ele><time>2026-04-30T15:10:30.582Z</time></trkpt><trkpt lat="42.2909615" lon="12.0827606"><ele>422.0</ele><time>2026-04-30T15:10:33.58Z</time></trkpt><trkpt lat="42.2908709" lon="12.0827842"><ele>422.0</ele><time>2026-04-30T15:10:36.579Z</time></trkpt><trkpt lat="42.2908097" lon="12.0828075"><ele>422.0</ele><time>2026-04-30T15:10:38.586Z</time></trkpt><trkpt lat="42.2907443" lon="12.0828371"><ele>422.0</ele><time>2026-04-30T15:10:40.586Z</time></trkpt><trkpt lat="42.2906848" lon="12.0828754"><ele>422.0</ele><time>2026-04-30T15:10:42.581Z</time></trkpt><trkpt lat="42.2906182" lon="12.0829054"><ele>422.0</ele><time>2026-04-30T15:10:44.589Z</time></trkpt><trkpt lat="42.2905559" lon="12.0829384"><ele>422.0</ele><time>2026-04-30T15:10:46.591Z</time></trkpt><trkpt lat="42.2904633" lon="12.0829632"><ele>422.99999999999994</ele><time>2026-04-30T15:10:49.588Z</time></trkpt><trkpt lat="42.2903765" lon="12.0829817"><ele>424.0</ele><time>2026-04-30T15:10:52.589Z</time></trkpt><trkpt lat="42.2902841" lon="12.0830114"><ele>425.0</ele><time>2026-04-30T15:10:55.58Z</time></trkpt><trkpt lat="42.2902215" lon="12.0830468"><ele>426.0</ele><time>2026-04-30T15:10:57.579Z</time></trkpt><trkpt lat="42.2901556" lon="12.0830914"><ele>426.99999999999994</ele><time>2026-04-30T15:10:59.588Z</time></trkpt><trkpt lat="42.2900924" lon="12.0831396"><ele>428.0</ele><time>2026-04-30T15:11:01.594Z</time></trkpt><trkpt lat="42.2900238" lon="12.0831736"><ele>427.99999999999994</ele><time>2026-04-30T15:11:03.576Z</time></trkpt><trkpt lat="42.2899382" lon="12.0832121"><ele>428.0</ele><time>2026-04-30T15:11:05.577Z</time></trkpt><trkpt lat="42.2898686" lon="12.083205"><ele>428.0</ele><time>2026-04-30T15:11:07.58Z</time></trkpt><trkpt lat="42.2897958" lon="12.0831954"><ele>428.0</ele><time>2026-04-30T15:11:09.593Z</time></trkpt><trkpt lat="42.2897069" lon="12.0831737"><ele>427.99999999999994</ele><time>2026-04-30T15:11:12.58Z</time></trkpt><trkpt lat="42.2896438" lon="12.083165"><ele>428.0</ele><time>2026-04-30T15:11:14.571Z</time></trkpt><trkpt lat="42.2895507" lon="12.0831524"><ele>427.99999999999994</ele><time>2026-04-30T15:11:17.586Z</time></trkpt><trkpt lat="42.2894759" lon="12.0831528"><ele>428.0</ele><time>2026-04-30T15:11:19.58Z</time></trkpt><trkpt lat="42.2894011" lon="12.0831729"><ele>428.0</ele><time>2026-04-30T15:11:21.575Z</time></trkpt><trkpt lat="42.2893252" lon="12.0832117"><ele>428.0</ele><time>2026-04-30T15:11:23.573Z</time></trkpt><trkpt lat="42.2892501" lon="12.0832737"><ele>427.99999999999994</ele><time>2026-04-30T15:11:25.598Z</time></trkpt><trkpt lat="42.2891786" lon="12.0833329"><ele>428.0</ele><time>2026-04-30T15:11:27.582Z</time></trkpt><trkpt lat="42.2891006" lon="12.0833913"><ele>428.00000000000006</ele><time>2026-04-30T15:11:30.579Z</time></trkpt><trkpt lat="42.2890434" lon="12.0834394"><ele>428.0</ele><time>2026-04-30T15:11:32.6Z</time></trkpt><trkpt lat="42.2889639" lon="12.0834636"><ele>428.0</ele><time>2026-04-30T15:11:35.58Z</time></trkpt><trkpt lat="42.2889008" lon="12.0834283"><ele>428.0</ele><time>2026-04-30T15:11:38.594Z</time></trkpt><trkpt lat="42.2888932" lon="12.0835198"><ele>428.0</ele><time>2026-04-30T15:11:50.578Z</time></trkpt><trkpt lat="42.2888392" lon="12.0835703"><ele>428.00000000000006</ele><time>2026-04-30T15:11:53.583Z</time></trkpt><trkpt lat="42.2887626" lon="12.0836221"><ele>428.0</ele><time>2026-04-30T15:11:56.573Z</time></trkpt><trkpt lat="42.288702" lon="12.083671"><ele>428.59999999999997</ele><time>2026-04-30T15:11:58.573Z</time></trkpt><trkpt lat="42.2886223" lon="12.083727"><ele>429.19999999999993</ele><time>2026-04-30T15:12:00.58Z</time></trkpt><trkpt lat="42.2885316" lon="12.0838018"><ele>429.8</ele><time>2026-04-30T15:12:02.584Z</time></trkpt><trkpt lat="42.2884272" lon="12.083885"><ele>430.4</ele><time>2026-04-30T15:12:04.585Z</time></trkpt><trkpt lat="42.2883645" lon="12.0839271"><ele>431.0</ele><time>2026-04-30T15:12:05.578Z</time></trkpt><trkpt lat="42.2883016" lon="12.0839698"><ele>431.0</ele><time>2026-04-30T15:12:06.574Z</time></trkpt><trkpt lat="42.2882327" lon="12.08401"><ele>431.0</ele><time>2026-04-30T15:12:07.579Z</time></trkpt><trkpt lat="42.2881613" lon="12.0840399"><ele>431.0</ele><time>2026-04-30T15:12:08.587Z</time></trkpt><trkpt lat="42.2880919" lon="12.0840689"><ele>431.0</ele><time>2026-04-30T15:12:09.586Z</time></trkpt><trkpt lat="42.2880242" lon="12.0840911"><ele>431.0</ele><time>2026-04-30T15:12:10.585Z</time></trkpt><trkpt lat="42.2879512" lon="12.0841209"><ele>431.0</ele><time>2026-04-30T15:12:11.58Z</time></trkpt><trkpt lat="42.2878768" lon="12.0841515"><ele>431.0</ele><time>2026-04-30T15:12:12.572Z</time></trkpt><trkpt lat="42.2878006" lon="12.0841859"><ele>429.16666666666663</ele><time>2026-04-30T15:12:13.585Z</time></trkpt><trkpt lat="42.2877283" lon="12.0842149"><ele>427.3333333333333</ele><time>2026-04-30T15:12:14.583Z</time></trkpt><trkpt lat="42.2876588" lon="12.0842433"><ele>425.5</ele><time>2026-04-30T15:12:15.576Z</time></trkpt><trkpt lat="42.2875895" lon="12.0842779"><ele>423.66666666666663</ele><time>2026-04-30T15:12:16.575Z</time></trkpt><trkpt lat="42.2875146" lon="12.0843083"><ele>421.8333333333333</ele><time>2026-04-30T15:12:17.579Z</time></trkpt><trkpt lat="42.2874403" lon="12.0843387"><ele>420.0</ele><time>2026-04-30T15:12:18.593Z</time></trkpt><trkpt lat="42.2873674" lon="12.0843652"><ele>420.0</ele><time>2026-04-30T15:12:19.577Z</time></trkpt><trkpt lat="42.2872896" lon="12.0843943"><ele>420.0</ele><time>2026-04-30T15:12:20.579Z</time></trkpt><trkpt lat="42.2872169" lon="12.0844209"><ele>420.0</ele><time>2026-04-30T15:12:21.579Z</time></trkpt><trkpt lat="42.2871426" lon="12.0844358"><ele>420.0</ele><time>2026-04-30T15:12:22.58Z</time></trkpt><trkpt lat="42.2870728" lon="12.084432"><ele>420.0</ele><time>2026-04-30T15:12:23.578Z</time></trkpt><trkpt lat="42.2870044" lon="12.0844261"><ele>420.0</ele><time>2026-04-30T15:12:24.573Z</time></trkpt><trkpt lat="42.2869352" lon="12.0844202"><ele>420.0</ele><time>2026-04-30T15:12:25.572Z</time></trkpt><trkpt lat="42.286868" lon="12.0844182"><ele>419.2857142857143</ele><time>2026-04-30T15:12:26.575Z</time></trkpt><trkpt lat="42.2868004" lon="12.0844155"><ele>418.57142857142856</ele><time>2026-04-30T15:12:27.584Z</time></trkpt><trkpt lat="42.2867357" lon="12.084412"><ele>417.8571428571429</ele><time>2026-04-30T15:12:28.583Z</time></trkpt><trkpt lat="42.2866648" lon="12.0844148"><ele>417.1428571428571</ele><time>2026-04-30T15:12:29.579Z</time></trkpt><trkpt lat="42.2865956" lon="12.0844164"><ele>416.42857142857144</ele><time>2026-04-30T15:12:30.59Z</time></trkpt><trkpt lat="42.2865262" lon="12.0844193"><ele>415.7142857142857</ele><time>2026-04-30T15:12:31.578Z</time></trkpt><trkpt lat="42.2864588" lon="12.0844195"><ele>415.0</ele><time>2026-04-30T15:12:32.576Z</time></trkpt><trkpt lat="42.286391" lon="12.084419"><ele>413.7142857142857</ele><time>2026-04-30T15:12:33.584Z</time></trkpt><trkpt lat="42.286325" lon="12.0844213"><ele>412.42857142857144</ele><time>2026-04-30T15:12:34.584Z</time></trkpt><trkpt lat="42.2862584" lon="12.0844238"><ele>411.1428571428571</ele><time>2026-04-30T15:12:35.579Z</time></trkpt><trkpt lat="42.2861928" lon="12.0844268"><ele>409.8571428571429</ele><time>2026-04-30T15:12:36.577Z</time></trkpt><trkpt lat="42.286125" lon="12.0844325"><ele>408.57142857142856</ele><time>2026-04-30T15:12:37.583Z</time></trkpt><trkpt lat="42.2860604" lon="12.084436"><ele>407.2857142857143</ele><time>2026-04-30T15:12:38.578Z</time></trkpt><trkpt lat="42.2859952" lon="12.0844424"><ele>406.0</ele><time>2026-04-30T15:12:39.584Z</time></trkpt><trkpt lat="42.2858768" lon="12.0844465"><ele>406.0</ele><time>2026-04-30T15:12:41.579Z</time></trkpt><trkpt lat="42.285762" lon="12.08445"><ele>406.0</ele><time>2026-04-30T15:12:43.592Z</time></trkpt><trkpt lat="42.2856668" lon="12.0844558"><ele>406.0</ele><time>2026-04-30T15:12:45.594Z</time></trkpt><trkpt lat="42.2855658" lon="12.0844553"><ele>406.0</ele><time>2026-04-30T15:12:47.584Z</time></trkpt><trkpt lat="42.2854635" lon="12.08445"><ele>406.0</ele><time>2026-04-30T15:12:49.584Z</time></trkpt><trkpt lat="42.2853506" lon="12.0844511"><ele>405.25</ele><time>2026-04-30T15:12:51.582Z</time></trkpt><trkpt lat="42.2852371" lon="12.0844588"><ele>404.5</ele><time>2026-04-30T15:12:53.584Z</time></trkpt><trkpt lat="42.2851223" lon="12.0844392"><ele>403.75</ele><time>2026-04-30T15:12:55.568Z</time></trkpt><trkpt lat="42.2850064" lon="12.0844347"><ele>403.0</ele><time>2026-04-30T15:12:57.582Z</time></trkpt><trkpt lat="42.2848937" lon="12.0844196"><ele>403.0</ele><time>2026-04-30T15:12:59.567Z</time></trkpt><trkpt lat="42.2847826" lon="12.084409"><ele>403.0</ele><time>2026-04-30T15:13:01.58Z</time></trkpt><trkpt lat="42.2846711" lon="12.0843888"><ele>403.0</ele><time>2026-04-30T15:13:03.576Z</time></trkpt><trkpt lat="42.2845579" lon="12.0843683"><ele>403.0</ele><time>2026-04-30T15:13:05.592Z</time></trkpt><trkpt lat="42.2844417" lon="12.0843568"><ele>405.2</ele><time>2026-04-30T15:13:07.582Z</time></trkpt><trkpt lat="42.2843292" lon="12.084347"><ele>407.4</ele><time>2026-04-30T15:13:09.578Z</time></trkpt><trkpt lat="42.284216" lon="12.0843505"><ele>409.59999999999997</ele><time>2026-04-30T15:13:11.588Z</time></trkpt><trkpt lat="42.2841125" lon="12.0843564"><ele>411.79999999999995</ele><time>2026-04-30T15:13:13.578Z</time></trkpt><trkpt lat="42.2840132" lon="12.0843693"><ele>414.0</ele><time>2026-04-30T15:13:15.581Z</time></trkpt><trkpt lat="42.283924" lon="12.0843834"><ele>414.5</ele><time>2026-04-30T15:13:17.582Z</time></trkpt><trkpt lat="42.2838558" lon="12.0843934"><ele>415.0</ele><time>2026-04-30T15:13:19.575Z</time></trkpt><trkpt lat="42.2837717" lon="12.0844203"><ele>415.5</ele><time>2026-04-30T15:13:22.567Z</time></trkpt><trkpt lat="42.2836961" lon="12.0844433"><ele>416.0</ele><time>2026-04-30T15:13:25.566Z</time></trkpt><trkpt lat="42.2836192" lon="12.0844612"><ele>416.5</ele><time>2026-04-30T15:13:28.584Z</time></trkpt><trkpt lat="42.2835473" lon="12.084471"><ele>417.0</ele><time>2026-04-30T15:13:31.577Z</time></trkpt><trkpt lat="42.2834739" lon="12.0844922"><ele>417.0</ele><time>2026-04-30T15:13:34.574Z</time></trkpt><trkpt lat="42.2833907" lon="12.084517"><ele>417.0</ele><time>2026-04-30T15:13:37.577Z</time></trkpt><trkpt lat="42.2833266" lon="12.0845293"><ele>417.0</ele><time>2026-04-30T15:13:40.586Z</time></trkpt><trkpt lat="42.2832425" lon="12.0845408"><ele>417.0</ele><time>2026-04-30T15:13:44.571Z</time></trkpt><trkpt lat="42.2831654" lon="12.0845656"><ele>417.0</ele><time>2026-04-30T15:13:48.589Z</time></trkpt><trkpt lat="42.2831029" lon="12.0845957"><ele>417.0</ele><time>2026-04-30T15:13:51.583Z</time></trkpt><trkpt lat="42.2830261" lon="12.0846137"><ele>417.2857142857143</ele><time>2026-04-30T15:13:55.579Z</time></trkpt><trkpt lat="42.2829483" lon="12.0846356"><ele>417.57142857142856</ele><time>2026-04-30T15:13:59.576Z</time></trkpt><trkpt lat="42.2828852" lon="12.084657"><ele>417.85714285714283</ele><time>2026-04-30T15:14:03.58Z</time></trkpt><trkpt lat="42.2828179" lon="12.0847065"><ele>418.1428571428571</ele><time>2026-04-30T15:14:07.585Z</time></trkpt><trkpt lat="42.2827593" lon="12.0847521"><ele>418.42857142857144</ele><time>2026-04-30T15:14:10.578Z</time></trkpt><trkpt lat="42.2826969" lon="12.0847978"><ele>418.71428571428567</ele><time>2026-04-30T15:14:13.585Z</time></trkpt><trkpt lat="42.2826422" lon="12.0848668"><ele>419.0</ele><time>2026-04-30T15:14:16.583Z</time></trkpt><trkpt lat="42.2825885" lon="12.0849236"><ele>419.4285714285714</ele><time>2026-04-30T15:14:19.587Z</time></trkpt><trkpt lat="42.2825411" lon="12.0849927"><ele>419.85714285714283</ele><time>2026-04-30T15:14:22.585Z</time></trkpt><trkpt lat="42.2824953" lon="12.0850638"><ele>420.2857142857143</ele><time>2026-04-30T15:14:25.579Z</time></trkpt><trkpt lat="42.2824434" lon="12.0851374"><ele>420.71428571428567</ele><time>2026-04-30T15:14:29.584Z</time></trkpt><trkpt lat="42.2823905" lon="12.085209"><ele>421.14285714285717</ele><time>2026-04-30T15:14:33.586Z</time></trkpt><trkpt lat="42.2823417" lon="12.0852824"><ele>421.57142857142856</ele><time>2026-04-30T15:14:38.58Z</time></trkpt><trkpt lat="42.2822886" lon="12.0853531"><ele>422.0</ele><time>2026-04-30T15:14:42.59Z</time></trkpt><trkpt lat="42.2822351" lon="12.0854389"><ele>422.57142857142856</ele><time>2026-04-30T15:14:46.591Z</time></trkpt><trkpt lat="42.2821927" lon="12.0855301"><ele>423.14285714285717</ele><time>2026-04-30T15:14:50.585Z</time></trkpt><trkpt lat="42.2821428" lon="12.0855995"><ele>423.71428571428567</ele><time>2026-04-30T15:14:54.572Z</time></trkpt><trkpt lat="42.2820921" lon="12.0856628"><ele>424.2857142857143</ele><time>2026-04-30T15:14:58.596Z</time></trkpt><trkpt lat="42.2820471" lon="12.0857262"><ele>424.85714285714283</ele><time>2026-04-30T15:15:04.058Z</time></trkpt><trkpt lat="42.281983" lon="12.0858066"><ele>425.4285714285714</ele><time>2026-04-30T15:15:11.041Z</time></trkpt><trkpt lat="42.2819117" lon="12.0858279"><ele>426.0</ele><time>2026-04-30T15:15:14.052Z</time></trkpt><trkpt lat="42.2818454" lon="12.0858338"><ele>426.2857142857143</ele><time>2026-04-30T15:15:18.064Z</time></trkpt><trkpt lat="42.2818605" lon="12.0857309"><ele>426.57142857142856</ele><time>2026-04-30T15:15:27.05Z</time></trkpt><trkpt lat="42.2818576" lon="12.085642"><ele>426.8571428571429</ele><time>2026-04-30T15:15:33.04Z</time></trkpt><trkpt lat="42.2818696" lon="12.085553"><ele>427.1428571428571</ele><time>2026-04-30T15:15:39.046Z</time></trkpt><trkpt lat="42.2818796" lon="12.0854632"><ele>427.42857142857144</ele><time>2026-04-30T15:15:44.037Z</time></trkpt><trkpt lat="42.2818895" lon="12.0853545"><ele>427.7142857142857</ele><time>2026-04-30T15:15:48.046Z</time></trkpt><trkpt lat="42.2819027" lon="12.0852614"><ele>428.0</ele><time>2026-04-30T15:15:52.069Z</time></trkpt><trkpt lat="42.2819111" lon="12.0851674"><ele>427.99999999999994</ele><time>2026-04-30T15:15:56.06Z</time></trkpt><trkpt lat="42.2819268" lon="12.0850715"><ele>428.0</ele><time>2026-04-30T15:16:00.065Z</time></trkpt><trkpt lat="42.2819398" lon="12.0849765"><ele>428.0</ele><time>2026-04-30T15:16:04.064Z</time></trkpt><trkpt lat="42.2819403" lon="12.0848757"><ele>428.0</ele><time>2026-04-30T15:16:08.077Z</time></trkpt><trkpt lat="42.2819581" lon="12.0847735"><ele>427.99999999999994</ele><time>2026-04-30T15:16:12.057Z</time></trkpt><trkpt lat="42.2819722" lon="12.0846776"><ele>428.0</ele><time>2026-04-30T15:16:15.083Z</time></trkpt><trkpt lat="42.2819852" lon="12.0845687"><ele>427.8333333333333</ele><time>2026-04-30T15:16:18.081Z</time></trkpt><trkpt lat="42.2819901" lon="12.0844791"><ele>427.66666666666663</ele><time>2026-04-30T15:16:20.067Z</time></trkpt><trkpt lat="42.2819955" lon="12.0843832"><ele>427.5</ele><time>2026-04-30T15:16:22.052Z</time></trkpt><trkpt lat="42.2820029" lon="12.0842755"><ele>427.33333333333337</ele><time>2026-04-30T15:16:24.059Z</time></trkpt><trkpt lat="42.2820088" lon="12.0841518"><ele>427.1666666666667</ele><time>2026-04-30T15:16:26.081Z</time></trkpt><trkpt lat="42.2820183" lon="12.0840213"><ele>427.0</ele><time>2026-04-30T15:16:28.06Z</time></trkpt><trkpt lat="42.2820252" lon="12.0838834"><ele>426.50000000000006</ele><time>2026-04-30T15:16:30.077Z</time></trkpt><trkpt lat="42.2820349" lon="12.0837331"><ele>426.0</ele><time>2026-04-30T15:16:32.076Z</time></trkpt><trkpt lat="42.2820472" lon="12.0836456"><ele>425.5</ele><time>2026-04-30T15:16:33.076Z</time></trkpt><trkpt lat="42.2820617" lon="12.0835478"><ele>425.0</ele><time>2026-04-30T15:16:34.065Z</time></trkpt><trkpt lat="42.282073" lon="12.083442"><ele>424.50000000000006</ele><time>2026-04-30T15:16:35.087Z</time></trkpt><trkpt lat="42.2820862" lon="12.0833266"><ele>424.0</ele><time>2026-04-30T15:16:36.063Z</time></trkpt><trkpt lat="42.2820965" lon="12.0832083"><ele>423.4</ele><time>2026-04-30T15:16:37.079Z</time></trkpt><trkpt lat="42.2821114" lon="12.0830805"><ele>422.79999999999995</ele><time>2026-04-30T15:16:38.074Z</time></trkpt><trkpt lat="42.282128" lon="12.0829456"><ele>422.20000000000005</ele><time>2026-04-30T15:16:39.068Z</time></trkpt><trkpt lat="42.2821426" lon="12.0827971"><ele>421.6</ele><time>2026-04-30T15:16:40.065Z</time></trkpt><trkpt lat="42.2821603" lon="12.0826466"><ele>421.0</ele><time>2026-04-30T15:16:41.065Z</time></trkpt><trkpt lat="42.2821771" lon="12.0824916"><ele>420.5</ele><time>2026-04-30T15:16:42.072Z</time></trkpt><trkpt lat="42.2821947" lon="12.0823325"><ele>420.0</ele><time>2026-04-30T15:16:43.064Z</time></trkpt><trkpt lat="42.2822129" lon="12.0821729"><ele>419.5</ele><time>2026-04-30T15:16:44.063Z</time></trkpt><trkpt lat="42.2822303" lon="12.0820096"><ele>419.0</ele><time>2026-04-30T15:16:45.076Z</time></trkpt><trkpt lat="42.2822438" lon="12.0818486"><ele>419.0</ele><time>2026-04-30T15:16:46.065Z</time></trkpt><trkpt lat="42.2822561" lon="12.0816863"><ele>419.0</ele><time>2026-04-30T15:16:47.069Z</time></trkpt><trkpt lat="42.2822706" lon="12.0815268"><ele>419.0</ele><time>2026-04-30T15:16:48.058Z</time></trkpt><trkpt lat="42.2822853" lon="12.0813673"><ele>419.0</ele><time>2026-04-30T15:16:49.071Z</time></trkpt><trkpt lat="42.2823013" lon="12.0812146"><ele>416.6</ele><time>2026-04-30T15:16:50.072Z</time></trkpt><trkpt lat="42.2823161" lon="12.0810688"><ele>414.2</ele><time>2026-04-30T15:16:51.067Z</time></trkpt><trkpt lat="42.2823275" lon="12.0809162"><ele>411.8</ele><time>2026-04-30T15:16:52.076Z</time></trkpt><trkpt lat="42.2823385" lon="12.08077"><ele>409.40000000000003</ele><time>2026-04-30T15:16:53.071Z</time></trkpt><trkpt lat="42.2823499" lon="12.0806344"><ele>407.0</ele><time>2026-04-30T15:16:54.077Z</time></trkpt><trkpt lat="42.2823655" lon="12.0804956"><ele>406.8</ele><time>2026-04-30T15:16:55.071Z</time></trkpt><trkpt lat="42.2823742" lon="12.0803594"><ele>406.6</ele><time>2026-04-30T15:16:56.074Z</time></trkpt><trkpt lat="42.2823833" lon="12.0802278"><ele>406.40000000000003</ele><time>2026-04-30T15:16:57.074Z</time></trkpt><trkpt lat="42.2823935" lon="12.0801074"><ele>406.20000000000005</ele><time>2026-04-30T15:16:58.07Z</time></trkpt><trkpt lat="42.2824028" lon="12.0799819"><ele>406.0</ele><time>2026-04-30T15:16:59.073Z</time></trkpt><trkpt lat="42.2824128" lon="12.0798633"><ele>406.6666666666667</ele><time>2026-04-30T15:17:00.066Z</time></trkpt><trkpt lat="42.2824253" lon="12.0797471"><ele>407.33333333333337</ele><time>2026-04-30T15:17:01.065Z</time></trkpt><trkpt lat="42.2824334" lon="12.0796416"><ele>408.0</ele><time>2026-04-30T15:17:02.076Z</time></trkpt><trkpt lat="42.2824398" lon="12.0795383"><ele>408.66666666666663</ele><time>2026-04-30T15:17:03.072Z</time></trkpt><trkpt lat="42.2824517" lon="12.0794428"><ele>409.3333333333333</ele><time>2026-04-30T15:17:04.057Z</time></trkpt><trkpt lat="42.2824631" lon="12.079346"><ele>410.0</ele><time>2026-04-30T15:17:05.063Z</time></trkpt><trkpt lat="42.2824706" lon="12.0792605"><ele>410.0</ele><time>2026-04-30T15:17:06.071Z</time></trkpt><trkpt lat="42.2824831" lon="12.0791136"><ele>410.0</ele><time>2026-04-30T15:17:08.078Z</time></trkpt><trkpt lat="42.2824984" lon="12.0789737"><ele>410.0</ele><time>2026-04-30T15:17:10.072Z</time></trkpt><trkpt lat="42.2825032" lon="12.078835"><ele>410.0</ele><time>2026-04-30T15:17:12.057Z</time></trkpt><trkpt lat="42.282508" lon="12.0787049"><ele>410.0</ele><time>2026-04-30T15:17:14.064Z</time></trkpt><trkpt lat="42.2825203" lon="12.0786054"><ele>410.5714285714286</ele><time>2026-04-30T15:17:16.07Z</time></trkpt><trkpt lat="42.2825282" lon="12.0785142"><ele>411.1428571428571</ele><time>2026-04-30T15:17:18.075Z</time></trkpt><trkpt lat="42.2825397" lon="12.0784293"><ele>411.7142857142857</ele><time>2026-04-30T15:17:20.063Z</time></trkpt><trkpt lat="42.282544" lon="12.0783248"><ele>412.28571428571433</ele><time>2026-04-30T15:17:23.072Z</time></trkpt><trkpt lat="42.2825522" lon="12.0782273"><ele>412.8571428571429</ele><time>2026-04-30T15:17:26.074Z</time></trkpt><trkpt lat="42.2825548" lon="12.0781377"><ele>413.42857142857144</ele><time>2026-04-30T15:17:29.065Z</time></trkpt><trkpt lat="42.2825652" lon="12.0780488"><ele>414.0</ele><time>2026-04-30T15:17:32.073Z</time></trkpt><trkpt lat="42.2825745" lon="12.0779352"><ele>414.00000000000006</ele><time>2026-04-30T15:17:35.057Z</time></trkpt><trkpt lat="42.2825825" lon="12.0778488"><ele>414.0</ele><time>2026-04-30T15:17:37.071Z</time></trkpt><trkpt lat="42.2825899" lon="12.0777554"><ele>414.0</ele><time>2026-04-30T15:17:39.079Z</time></trkpt><trkpt lat="42.2825998" lon="12.0776548"><ele>414.0</ele><time>2026-04-30T15:17:41.068Z</time></trkpt><trkpt lat="42.2826109" lon="12.0775539"><ele>414.0</ele><time>2026-04-30T15:17:43.073Z</time></trkpt><trkpt lat="42.282621" lon="12.0774467"><ele>414.00000000000006</ele><time>2026-04-30T15:17:45.067Z</time></trkpt><trkpt lat="42.2826329" lon="12.0773446"><ele>414.0</ele><time>2026-04-30T15:17:47.073Z</time></trkpt><trkpt lat="42.2826424" lon="12.0772417"><ele>413.6</ele><time>2026-04-30T15:17:49.058Z</time></trkpt><trkpt lat="42.2826558" lon="12.077137"><ele>413.2</ele><time>2026-04-30T15:17:51.072Z</time></trkpt><trkpt lat="42.282667" lon="12.0770153"><ele>412.8</ele><time>2026-04-30T15:17:53.08Z</time></trkpt><trkpt lat="42.282679" lon="12.0768894"><ele>412.40000000000003</ele><time>2026-04-30T15:17:55.074Z</time></trkpt><trkpt lat="42.2826931" lon="12.0767587"><ele>412.0</ele><time>2026-04-30T15:17:57.073Z</time></trkpt><trkpt lat="42.2827014" lon="12.0766124"><ele>411.50000000000006</ele><time>2026-04-30T15:17:59.07Z</time></trkpt><trkpt lat="42.2827172" lon="12.0764469"><ele>411.0</ele><time>2026-04-30T15:18:01.08Z</time></trkpt><trkpt lat="42.2827275" lon="12.0763614"><ele>410.5</ele><time>2026-04-30T15:18:02.064Z</time></trkpt><trkpt lat="42.282739" lon="12.0762638"><ele>410.0</ele><time>2026-04-30T15:18:03.069Z</time></trkpt><trkpt lat="42.2827468" lon="12.0761536"><ele>409.50000000000006</ele><time>2026-04-30T15:18:04.069Z</time></trkpt><trkpt lat="42.2827578" lon="12.0760361"><ele>409.0</ele><time>2026-04-30T15:18:05.061Z</time></trkpt><trkpt lat="42.2827721" lon="12.0759154"><ele>409.00000000000006</ele><time>2026-04-30T15:18:06.064Z</time></trkpt><trkpt lat="42.282782" lon="12.0757913"><ele>409.0</ele><time>2026-04-30T15:18:07.058Z</time></trkpt><trkpt lat="42.2827908" lon="12.075671"><ele>409.0</ele><time>2026-04-30T15:18:08.083Z</time></trkpt><trkpt lat="42.2828037" lon="12.0755528"><ele>409.0</ele><time>2026-04-30T15:18:09.07Z</time></trkpt><trkpt lat="42.2828185" lon="12.0754373"><ele>409.00000000000006</ele><time>2026-04-30T15:18:10.075Z</time></trkpt><trkpt lat="42.282833" lon="12.0753233"><ele>409.0</ele><time>2026-04-30T15:18:11.067Z</time></trkpt><trkpt lat="42.2828443" lon="12.0752135"><ele>408.83333333333337</ele><time>2026-04-30T15:18:12.07Z</time></trkpt><trkpt lat="42.2828521" lon="12.0751098"><ele>408.6666666666667</ele><time>2026-04-30T15:18:13.064Z</time></trkpt><trkpt lat="42.2828581" lon="12.0750168"><ele>408.5</ele><time>2026-04-30T15:18:14.058Z</time></trkpt><trkpt lat="42.2828651" lon="12.0749309"><ele>408.33333333333337</ele><time>2026-04-30T15:18:15.065Z</time></trkpt><trkpt lat="42.2828813" lon="12.0747775"><ele>408.1666666666667</ele><time>2026-04-30T15:18:17.061Z</time></trkpt><trkpt lat="42.2828908" lon="12.0746263"><ele>408.0</ele><time>2026-04-30T15:18:19.061Z</time></trkpt><trkpt lat="42.2829072" lon="12.0744776"><ele>407.75</ele><time>2026-04-30T15:18:21.059Z</time></trkpt><trkpt lat="42.2829203" lon="12.0743208"><ele>407.5</ele><time>2026-04-30T15:18:23.058Z</time></trkpt><trkpt lat="42.2829348" lon="12.0741578"><ele>407.25</ele><time>2026-04-30T15:18:25.059Z</time></trkpt><trkpt lat="42.2829487" lon="12.073988"><ele>407.0</ele><time>2026-04-30T15:18:27.061Z</time></trkpt><trkpt lat="42.2829606" lon="12.073824"><ele>406.49999999999994</ele><time>2026-04-30T15:18:29.076Z</time></trkpt><trkpt lat="42.2829827" lon="12.0736563"><ele>406.0</ele><time>2026-04-30T15:18:31.071Z</time></trkpt><trkpt lat="42.2829951" lon="12.0735719"><ele>405.5</ele><time>2026-04-30T15:18:32.066Z</time></trkpt><trkpt lat="42.2830103" lon="12.0734824"><ele>405.0</ele><time>2026-04-30T15:18:33.081Z</time></trkpt><trkpt lat="42.2830324" lon="12.0734015"><ele>404.49999999999994</ele><time>2026-04-30T15:18:34.077Z</time></trkpt><trkpt lat="42.2830552" lon="12.0733199"><ele>404.0</ele><time>2026-04-30T15:18:35.07Z</time></trkpt><trkpt lat="42.283084" lon="12.0732346"><ele>403.57142857142856</ele><time>2026-04-30T15:18:36.08Z</time></trkpt><trkpt lat="42.2831179" lon="12.0731565"><ele>403.1428571428571</ele><time>2026-04-30T15:18:37.081Z</time></trkpt><trkpt lat="42.2831547" lon="12.0730742"><ele>402.7142857142857</ele><time>2026-04-30T15:18:38.072Z</time></trkpt><trkpt lat="42.2831891" lon="12.0729892"><ele>402.2857142857143</ele><time>2026-04-30T15:18:39.061Z</time></trkpt><trkpt lat="42.2832173" lon="12.0729043"><ele>401.8571428571429</ele><time>2026-04-30T15:18:40.063Z</time></trkpt><trkpt lat="42.283246" lon="12.0728184"><ele>401.42857142857144</ele><time>2026-04-30T15:18:41.08Z</time></trkpt><trkpt lat="42.2832785" lon="12.0727294"><ele>401.0</ele><time>2026-04-30T15:18:42.071Z</time></trkpt><trkpt lat="42.2833137" lon="12.0726438"><ele>400.99999999999994</ele><time>2026-04-30T15:18:43.077Z</time></trkpt><trkpt lat="42.2833447" lon="12.0725602"><ele>401.0</ele><time>2026-04-30T15:18:44.064Z</time></trkpt><trkpt lat="42.2833717" lon="12.0724767"><ele>401.0</ele><time>2026-04-30T15:18:45.076Z</time></trkpt><trkpt lat="42.2834001" lon="12.0723973"><ele>401.0</ele><time>2026-04-30T15:18:46.063Z</time></trkpt><trkpt lat="42.28345" lon="12.0722915"><ele>400.99999999999994</ele><time>2026-04-30T15:18:48.072Z</time></trkpt><trkpt lat="42.2834606" lon="12.072205"><ele>401.0</ele><time>2026-04-30T15:18:52.073Z</time></trkpt><trkpt lat="42.2834114" lon="12.0720901"><ele>400.8333333333333</ele><time>2026-04-30T15:18:57.073Z</time></trkpt><trkpt lat="42.2833446" lon="12.0720376"><ele>400.66666666666663</ele><time>2026-04-30T15:18:59.073Z</time></trkpt><trkpt lat="42.2832714" lon="12.0719815"><ele>400.5</ele><time>2026-04-30T15:19:01.07Z</time></trkpt><trkpt lat="42.2832074" lon="12.071913"><ele>400.33333333333337</ele><time>2026-04-30T15:19:03.081Z</time></trkpt><trkpt lat="42.2831451" lon="12.0718283"><ele>400.1666666666667</ele><time>2026-04-30T15:19:05.065Z</time></trkpt><trkpt lat="42.2830878" lon="12.0717273"><ele>400.0</ele><time>2026-04-30T15:19:07.07Z</time></trkpt><trkpt lat="42.2830258" lon="12.0716147"><ele>399.8</ele><time>2026-04-30T15:19:09.071Z</time></trkpt><trkpt lat="42.2829678" lon="12.0715045"><ele>399.6</ele><time>2026-04-30T15:19:11.07Z</time></trkpt><trkpt lat="42.2829125" lon="12.0713978"><ele>399.4</ele><time>2026-04-30T15:19:13.077Z</time></trkpt><trkpt lat="42.282856" lon="12.071288"><ele>399.2</ele><time>2026-04-30T15:19:15.07Z</time></trkpt><trkpt lat="42.2827926" lon="12.0711857"><ele>399.0</ele><time>2026-04-30T15:19:17.071Z</time></trkpt><trkpt lat="42.2827339" lon="12.0710736"><ele>399.0</ele><time>2026-04-30T15:19:19.072Z</time></trkpt><trkpt lat="42.282704" lon="12.0709283"><ele>399.0</ele><time>2026-04-30T15:19:21.068Z</time></trkpt><trkpt lat="42.282722" lon="12.0707966"><ele>399.0</ele><time>2026-04-30T15:19:23.068Z</time></trkpt><trkpt lat="42.2827548" lon="12.0706832"><ele>399.0</ele><time>2026-04-30T15:19:25.064Z</time></trkpt><trkpt lat="42.2827683" lon="12.0705589"><ele>399.0</ele><time>2026-04-30T15:19:27.059Z</time></trkpt><trkpt lat="42.2827732" lon="12.070426"><ele>399.0</ele><time>2026-04-30T15:19:29.062Z</time></trkpt><trkpt lat="42.2827516" lon="12.0702971"><ele>399.0</ele><time>2026-04-30T15:19:31.067Z</time></trkpt><trkpt lat="42.2827196" lon="12.0701691"><ele>399.0</ele><time>2026-04-30T15:19:33.076Z</time></trkpt><trkpt lat="42.2826825" lon="12.0700344"><ele>399.0</ele><time>2026-04-30T15:19:35.059Z</time></trkpt><trkpt lat="42.282634" lon="12.0699063"><ele>399.0</ele><time>2026-04-30T15:19:37.073Z</time></trkpt><trkpt lat="42.2825825" lon="12.0697719"><ele>399.2</ele><time>2026-04-30T15:19:39.06Z</time></trkpt><trkpt lat="42.2825396" lon="12.0696413"><ele>399.4</ele><time>2026-04-30T15:19:41.061Z</time></trkpt><trkpt lat="42.2824945" lon="12.0695128"><ele>399.6</ele><time>2026-04-30T15:19:43.069Z</time></trkpt><trkpt lat="42.2824483" lon="12.0693761"><ele>399.8</ele><time>2026-04-30T15:19:45.079Z</time></trkpt><trkpt lat="42.2824076" lon="12.0692429"><ele>400.0</ele><time>2026-04-30T15:19:47.068Z</time></trkpt><trkpt lat="42.2823639" lon="12.0691056"><ele>399.8</ele><time>2026-04-30T15:19:49.08Z</time></trkpt><trkpt lat="42.282317" lon="12.0689676"><ele>399.6</ele><time>2026-04-30T15:19:51.065Z</time></trkpt><trkpt lat="42.2822703" lon="12.0688378"><ele>399.4</ele><time>2026-04-30T15:19:53.071Z</time></trkpt><trkpt lat="42.2822313" lon="12.0687034"><ele>399.2</ele><time>2026-04-30T15:19:55.071Z</time></trkpt><trkpt lat="42.2821953" lon="12.0685867"><ele>399.0</ele><time>2026-04-30T15:19:57.069Z</time></trkpt><trkpt lat="42.2821539" lon="12.068475"><ele>399.0</ele><time>2026-04-30T15:19:59.07Z</time></trkpt><trkpt lat="42.2821203" lon="12.0683728"><ele>399.0</ele><time>2026-04-30T15:20:01.056Z</time></trkpt><trkpt lat="42.282086" lon="12.0682686"><ele>399.0</ele><time>2026-04-30T15:20:03.055Z</time></trkpt><trkpt lat="42.282049" lon="12.068165"><ele>399.0</ele><time>2026-04-30T15:20:05.069Z</time></trkpt><trkpt lat="42.2820134" lon="12.0680508"><ele>399.0</ele><time>2026-04-30T15:20:07.074Z</time></trkpt><trkpt lat="42.2819752" lon="12.0679396"><ele>399.0</ele><time>2026-04-30T15:20:09.067Z</time></trkpt><trkpt lat="42.2819384" lon="12.0678123"><ele>399.1666666666667</ele><time>2026-04-30T15:20:11.074Z</time></trkpt><trkpt lat="42.2818962" lon="12.0676713"><ele>399.33333333333337</ele><time>2026-04-30T15:20:13.07Z</time></trkpt><trkpt lat="42.2818681" lon="12.0675944"><ele>399.5</ele><time>2026-04-30T15:20:14.082Z</time></trkpt><trkpt lat="42.2818438" lon="12.0675077"><ele>399.6666666666667</ele><time>2026-04-30T15:20:15.072Z</time></trkpt><trkpt lat="42.2818174" lon="12.0674231"><ele>399.83333333333337</ele><time>2026-04-30T15:20:16.066Z</time></trkpt><trkpt lat="42.2817879" lon="12.0673363"><ele>400.0</ele><time>2026-04-30T15:20:17.083Z</time></trkpt><trkpt lat="42.2817611" lon="12.0672491"><ele>399.50000000000006</ele><time>2026-04-30T15:20:18.098Z</time></trkpt><trkpt lat="42.2817279" lon="12.067156"><ele>399.0</ele><time>2026-04-30T15:20:19.082Z</time></trkpt><trkpt lat="42.2816935" lon="12.0670676"><ele>398.5</ele><time>2026-04-30T15:20:20.063Z</time></trkpt><trkpt lat="42.2816659" lon="12.066973"><ele>398.0</ele><time>2026-04-30T15:20:21.076Z</time></trkpt><trkpt lat="42.2816354" lon="12.0668744"><ele>397.50000000000006</ele><time>2026-04-30T15:20:22.068Z</time></trkpt><trkpt lat="42.2816018" lon="12.0667799"><ele>397.0</ele><time>2026-04-30T15:20:23.074Z</time></trkpt><trkpt lat="42.2815706" lon="12.0666921"><ele>396.1666666666667</ele><time>2026-04-30T15:20:24.077Z</time></trkpt><trkpt lat="42.2815395" lon="12.0665992"><ele>395.33333333333337</ele><time>2026-04-30T15:20:25.067Z</time></trkpt><trkpt lat="42.2815103" lon="12.0665059"><ele>394.5</ele><time>2026-04-30T15:20:26.086Z</time></trkpt><trkpt lat="42.2814786" lon="12.0664152"><ele>393.66666666666663</ele><time>2026-04-30T15:20:27.068Z</time></trkpt><trkpt lat="42.2814477" lon="12.0663278"><ele>392.8333333333333</ele><time>2026-04-30T15:20:28.067Z</time></trkpt><trkpt lat="42.2814168" lon="12.0662345"><ele>392.0</ele><time>2026-04-30T15:20:29.075Z</time></trkpt><trkpt lat="42.2813847" lon="12.0661367"><ele>391.99999999999994</ele><time>2026-04-30T15:20:30.093Z</time></trkpt><trkpt lat="42.2813507" lon="12.0660447"><ele>392.0</ele><time>2026-04-30T15:20:31.057Z</time></trkpt><trkpt lat="42.2813152" lon="12.0659552"><ele>392.0</ele><time>2026-04-30T15:20:32.064Z</time></trkpt><trkpt lat="42.2812766" lon="12.0658621"><ele>392.0</ele><time>2026-04-30T15:20:33.061Z</time></trkpt><trkpt lat="42.2812507" lon="12.0657618"><ele>391.99999999999994</ele><time>2026-04-30T15:20:34.08Z</time></trkpt><trkpt lat="42.2812339" lon="12.0656637"><ele>392.0</ele><time>2026-04-30T15:20:35.08Z</time></trkpt><trkpt lat="42.2812089" lon="12.0655709"><ele>392.0</ele><time>2026-04-30T15:20:36.073Z</time></trkpt><trkpt lat="42.281173" lon="12.0654832"><ele>392.0</ele><time>2026-04-30T15:20:37.056Z</time></trkpt><trkpt lat="42.281141" lon="12.0653955"><ele>392.0</ele><time>2026-04-30T15:20:38.069Z</time></trkpt><trkpt lat="42.2811129" lon="12.065305"><ele>392.0</ele><time>2026-04-30T15:20:39.07Z</time></trkpt><trkpt lat="42.2810841" lon="12.0652131"><ele>392.0</ele><time>2026-04-30T15:20:40.065Z</time></trkpt><trkpt lat="42.2810564" lon="12.0651204"><ele>392.0</ele><time>2026-04-30T15:20:41.069Z</time></trkpt><trkpt lat="42.2810259" lon="12.0650287"><ele>392.0</ele><time>2026-04-30T15:20:42.068Z</time></trkpt><trkpt lat="42.280994" lon="12.0649341"><ele>392.0</ele><time>2026-04-30T15:20:43.072Z</time></trkpt><trkpt lat="42.2809627" lon="12.0648448"><ele>392.0</ele><time>2026-04-30T15:20:44.076Z</time></trkpt><trkpt lat="42.2809359" lon="12.0647536"><ele>392.0</ele><time>2026-04-30T15:20:45.075Z</time></trkpt><trkpt lat="42.2809079" lon="12.0646659"><ele>392.0</ele><time>2026-04-30T15:20:46.069Z</time></trkpt><trkpt lat="42.2808802" lon="12.0645772"><ele>392.0</ele><time>2026-04-30T15:20:47.068Z</time></trkpt><trkpt lat="42.2808519" lon="12.0644878"><ele>392.0</ele><time>2026-04-30T15:20:48.072Z</time></trkpt><trkpt lat="42.2808225" lon="12.0643997"><ele>392.0</ele><time>2026-04-30T15:20:49.076Z</time></trkpt><trkpt lat="42.2807896" lon="12.0643122"><ele>392.0</ele><time>2026-04-30T15:20:50.054Z</time></trkpt><trkpt lat="42.2807576" lon="12.0642218"><ele>392.0</ele><time>2026-04-30T15:20:51.072Z</time></trkpt><trkpt lat="42.2807248" lon="12.0641294"><ele>392.0</ele><time>2026-04-30T15:20:52.065Z</time></trkpt><trkpt lat="42.2806955" lon="12.0640371"><ele>392.0</ele><time>2026-04-30T15:20:53.074Z</time></trkpt><trkpt lat="42.2806702" lon="12.0639427"><ele>392.0</ele><time>2026-04-30T15:20:54.067Z</time></trkpt><trkpt lat="42.2806407" lon="12.0638451"><ele>392.0</ele><time>2026-04-30T15:20:55.081Z</time></trkpt><trkpt lat="42.280613" lon="12.0637563"><ele>392.0</ele><time>2026-04-30T15:20:56.081Z</time></trkpt><trkpt lat="42.2805877" lon="12.0636707"><ele>391.3333333333333</ele><time>2026-04-30T15:20:57.064Z</time></trkpt><trkpt lat="42.2805605" lon="12.06359"><ele>390.66666666666663</ele><time>2026-04-30T15:20:58.058Z</time></trkpt><trkpt lat="42.2805302" lon="12.0635062"><ele>390.0</ele><time>2026-04-30T15:20:59.044Z</time></trkpt><trkpt lat="42.2805052" lon="12.0634229"><ele>389.33333333333337</ele><time>2026-04-30T15:21:00.067Z</time></trkpt><trkpt lat="42.280477" lon="12.0633452"><ele>388.6666666666667</ele><time>2026-04-30T15:21:01.064Z</time></trkpt><trkpt lat="42.2804214" lon="12.0631881"><ele>388.0</ele><time>2026-04-30T15:21:03.072Z</time></trkpt><trkpt lat="42.280388" lon="12.0630974"><ele>388.0</ele><time>2026-04-30T15:21:04.065Z</time></trkpt><trkpt lat="42.2803611" lon="12.0630091"><ele>388.0</ele><time>2026-04-30T15:21:05.082Z</time></trkpt><trkpt lat="42.2803238" lon="12.0629232"><ele>388.0</ele><time>2026-04-30T15:21:06.069Z</time></trkpt><trkpt lat="42.2802879" lon="12.0628358"><ele>388.0</ele><time>2026-04-30T15:21:07.074Z</time></trkpt><trkpt lat="42.2802576" lon="12.0627429"><ele>388.0</ele><time>2026-04-30T15:21:08.065Z</time></trkpt><trkpt lat="42.2802292" lon="12.0626523"><ele>388.0</ele><time>2026-04-30T15:21:09.071Z</time></trkpt><trkpt lat="42.2802041" lon="12.0625575"><ele>388.0</ele><time>2026-04-30T15:21:10.076Z</time></trkpt><trkpt lat="42.2801743" lon="12.0624736"><ele>387.7142857142857</ele><time>2026-04-30T15:21:11.067Z</time></trkpt><trkpt lat="42.2801401" lon="12.0623909"><ele>387.42857142857144</ele><time>2026-04-30T15:21:12.071Z</time></trkpt><trkpt lat="42.280103" lon="12.0623016"><ele>387.14285714285717</ele><time>2026-04-30T15:21:13.065Z</time></trkpt><trkpt lat="42.2800683" lon="12.0622098"><ele>386.8571428571429</ele><time>2026-04-30T15:21:14.085Z</time></trkpt><trkpt lat="42.2800389" lon="12.0621252"><ele>386.57142857142856</ele><time>2026-04-30T15:21:15.069Z</time></trkpt><trkpt lat="42.2800123" lon="12.0620378"><ele>386.28571428571433</ele><time>2026-04-30T15:21:16.072Z</time></trkpt><trkpt lat="42.2799837" lon="12.0619369"><ele>386.0</ele><time>2026-04-30T15:21:17.075Z</time></trkpt><trkpt lat="42.279952" lon="12.0618325"><ele>385.99999999999994</ele><time>2026-04-30T15:21:18.077Z</time></trkpt><trkpt lat="42.2799197" lon="12.0617325"><ele>386.0</ele><time>2026-04-30T15:21:19.063Z</time></trkpt><trkpt lat="42.2798882" lon="12.0616294"><ele>386.0</ele><time>2026-04-30T15:21:20.078Z</time></trkpt><trkpt lat="42.2798583" lon="12.0615249"><ele>386.0</ele><time>2026-04-30T15:21:21.076Z</time></trkpt><trkpt lat="42.2798242" lon="12.0614212"><ele>385.99999999999994</ele><time>2026-04-30T15:21:22.085Z</time></trkpt><trkpt lat="42.2797864" lon="12.0613162"><ele>386.0</ele><time>2026-04-30T15:21:23.059Z</time></trkpt><trkpt lat="42.2797514" lon="12.0612091"><ele>384.8333333333333</ele><time>2026-04-30T15:21:24.066Z</time></trkpt><trkpt lat="42.2797183" lon="12.061104"><ele>383.66666666666663</ele><time>2026-04-30T15:21:25.072Z</time></trkpt><trkpt lat="42.2796854" lon="12.0610046"><ele>382.5</ele><time>2026-04-30T15:21:26.057Z</time></trkpt><trkpt lat="42.2796507" lon="12.0609209"><ele>381.3333333333333</ele><time>2026-04-30T15:21:27.076Z</time></trkpt><trkpt lat="42.2796037" lon="12.0607874"><ele>380.16666666666663</ele><time>2026-04-30T15:21:29.055Z</time></trkpt><trkpt lat="42.2795968" lon="12.06065"><ele>379.0</ele><time>2026-04-30T15:21:31.069Z</time></trkpt><trkpt lat="42.2796146" lon="12.0605634"><ele>378.7142857142857</ele><time>2026-04-30T15:21:32.083Z</time></trkpt><trkpt lat="42.2796376" lon="12.0604823"><ele>378.42857142857144</ele><time>2026-04-30T15:21:33.062Z</time></trkpt><trkpt lat="42.2796589" lon="12.0603981"><ele>378.1428571428571</ele><time>2026-04-30T15:21:34.054Z</time></trkpt><trkpt lat="42.2796768" lon="12.0603089"><ele>377.8571428571429</ele><time>2026-04-30T15:21:35.069Z</time></trkpt><trkpt lat="42.2796928" lon="12.0602163"><ele>377.57142857142856</ele><time>2026-04-30T15:21:36.069Z</time></trkpt><trkpt lat="42.2797096" lon="12.0601182"><ele>377.2857142857143</ele><time>2026-04-30T15:21:37.073Z</time></trkpt><trkpt lat="42.2797189" lon="12.0600114"><ele>377.0</ele><time>2026-04-30T15:21:38.07Z</time></trkpt><trkpt lat="42.279731" lon="12.0599063"><ele>377.6666666666667</ele><time>2026-04-30T15:21:39.066Z</time></trkpt><trkpt lat="42.279743" lon="12.0597994"><ele>378.33333333333337</ele><time>2026-04-30T15:21:40.073Z</time></trkpt><trkpt lat="42.279754" lon="12.0596898"><ele>379.0</ele><time>2026-04-30T15:21:41.066Z</time></trkpt><trkpt lat="42.2797658" lon="12.059576"><ele>379.6666666666667</ele><time>2026-04-30T15:21:42.059Z</time></trkpt><trkpt lat="42.2797772" lon="12.0594587"><ele>380.3333333333333</ele><time>2026-04-30T15:21:43.074Z</time></trkpt><trkpt lat="42.2797848" lon="12.0593437"><ele>381.0</ele><time>2026-04-30T15:21:44.065Z</time></trkpt><trkpt lat="42.2797933" lon="12.059227"><ele>379.5</ele><time>2026-04-30T15:21:45.075Z</time></trkpt><trkpt lat="42.2798091" lon="12.059114"><ele>378.0</ele><time>2026-04-30T15:21:46.057Z</time></trkpt><trkpt lat="42.2798289" lon="12.0589995"><ele>376.5</ele><time>2026-04-30T15:21:47.061Z</time></trkpt><trkpt lat="42.2798502" lon="12.0588886"><ele>375.0</ele><time>2026-04-30T15:21:48.066Z</time></trkpt><trkpt lat="42.2798798" lon="12.0587826"><ele>373.5</ele><time>2026-04-30T15:21:49.058Z</time></trkpt><trkpt lat="42.2799162" lon="12.0586831"><ele>372.0</ele><time>2026-04-30T15:21:50.072Z</time></trkpt><trkpt lat="42.279956" lon="12.0585885"><ele>372.0</ele><time>2026-04-30T15:21:51.067Z</time></trkpt><trkpt lat="42.2800035" lon="12.0585024"><ele>372.0</ele><time>2026-04-30T15:21:52.067Z</time></trkpt><trkpt lat="42.2800534" lon="12.0584224"><ele>372.0</ele><time>2026-04-30T15:21:53.07Z</time></trkpt><trkpt lat="42.2801099" lon="12.0583533"><ele>372.0</ele><time>2026-04-30T15:21:54.074Z</time></trkpt><trkpt lat="42.2801673" lon="12.0582885"><ele>372.0</ele><time>2026-04-30T15:21:55.083Z</time></trkpt><trkpt lat="42.2802297" lon="12.058226"><ele>372.0</ele><time>2026-04-30T15:21:56.063Z</time></trkpt><trkpt lat="42.280296" lon="12.0581694"><ele>373.6666666666667</ele><time>2026-04-30T15:21:57.066Z</time></trkpt><trkpt lat="42.2803693" lon="12.058115"><ele>375.3333333333333</ele><time>2026-04-30T15:21:58.058Z</time></trkpt><trkpt lat="42.2804465" lon="12.058074"><ele>377.0</ele><time>2026-04-30T15:21:59.062Z</time></trkpt><trkpt lat="42.2805258" lon="12.0580394"><ele>378.66666666666663</ele><time>2026-04-30T15:22:00.06Z</time></trkpt><trkpt lat="42.2806088" lon="12.0580094"><ele>380.3333333333333</ele><time>2026-04-30T15:22:01.064Z</time></trkpt><trkpt lat="42.2806971" lon="12.0579885"><ele>382.0</ele><time>2026-04-30T15:22:02.062Z</time></trkpt><trkpt lat="42.2807893" lon="12.0579739"><ele>382.0</ele><time>2026-04-30T15:22:03.065Z</time></trkpt><trkpt lat="42.2808803" lon="12.0579653"><ele>382.0</ele><time>2026-04-30T15:22:04.057Z</time></trkpt><trkpt lat="42.2809737" lon="12.0579534"><ele>382.0</ele><time>2026-04-30T15:22:05.069Z</time></trkpt><trkpt lat="42.2810674" lon="12.0579466"><ele>382.0</ele><time>2026-04-30T15:22:06.068Z</time></trkpt><trkpt lat="42.2811617" lon="12.0579421"><ele>382.0</ele><time>2026-04-30T15:22:07.075Z</time></trkpt><trkpt lat="42.2812562" lon="12.0579288"><ele>382.0</ele><time>2026-04-30T15:22:08.081Z</time></trkpt><trkpt lat="42.2813507" lon="12.0579153"><ele>382.0</ele><time>2026-04-30T15:22:09.062Z</time></trkpt><trkpt lat="42.2814445" lon="12.0578974"><ele>382.0</ele><time>2026-04-30T15:22:10.064Z</time></trkpt><trkpt lat="42.2815382" lon="12.0578776"><ele>382.0</ele><time>2026-04-30T15:22:11.074Z</time></trkpt><trkpt lat="42.2816293" lon="12.0578517"><ele>382.0</ele><time>2026-04-30T15:22:12.055Z</time></trkpt><trkpt lat="42.2817188" lon="12.0578276"><ele>381.16666666666663</ele><time>2026-04-30T15:22:13.068Z</time></trkpt><trkpt lat="42.2818029" lon="12.0578063"><ele>380.3333333333333</ele><time>2026-04-30T15:22:14.073Z</time></trkpt><trkpt lat="42.2818843" lon="12.057785"><ele>379.5</ele><time>2026-04-30T15:22:15.069Z</time></trkpt><trkpt lat="42.2819633" lon="12.0577603"><ele>378.6666666666667</ele><time>2026-04-30T15:22:16.06Z</time></trkpt><trkpt lat="42.2820409" lon="12.0577418"><ele>377.83333333333337</ele><time>2026-04-30T15:22:17.059Z</time></trkpt><trkpt lat="42.2821162" lon="12.0577193"><ele>377.0</ele><time>2026-04-30T15:22:18.065Z</time></trkpt><trkpt lat="42.2821851" lon="12.0576946"><ele>377.0</ele><time>2026-04-30T15:22:19.056Z</time></trkpt><trkpt lat="42.2822558" lon="12.0576654"><ele>377.0</ele><time>2026-04-30T15:22:20.058Z</time></trkpt><trkpt lat="42.2823288" lon="12.0576312"><ele>377.0</ele><time>2026-04-30T15:22:21.061Z</time></trkpt><trkpt lat="42.2824043" lon="12.0575849"><ele>377.0</ele><time>2026-04-30T15:22:22.062Z</time></trkpt><trkpt lat="42.2824745" lon="12.0575312"><ele>377.0</ele><time>2026-04-30T15:22:23.065Z</time></trkpt><trkpt lat="42.2825329" lon="12.0574561"><ele>377.0</ele><time>2026-04-30T15:22:24.069Z</time></trkpt><trkpt lat="42.2825833" lon="12.0573718"><ele>376.6666666666667</ele><time>2026-04-30T15:22:25.057Z</time></trkpt><trkpt lat="42.2826211" lon="12.0572761"><ele>376.33333333333337</ele><time>2026-04-30T15:22:26.069Z</time></trkpt><trkpt lat="42.2826529" lon="12.0571835"><ele>376.0</ele><time>2026-04-30T15:22:27.06Z</time></trkpt><trkpt lat="42.2826853" lon="12.0570812"><ele>375.6666666666667</ele><time>2026-04-30T15:22:28.062Z</time></trkpt><trkpt lat="42.2827167" lon="12.0569864"><ele>375.3333333333333</ele><time>2026-04-30T15:22:29.065Z</time></trkpt><trkpt lat="42.2827385" lon="12.0568943"><ele>375.0</ele><time>2026-04-30T15:22:30.065Z</time></trkpt><trkpt lat="42.2827679" lon="12.0568022"><ele>375.0</ele><time>2026-04-30T15:22:31.055Z</time></trkpt><trkpt lat="42.2827963" lon="12.0567078"><ele>375.0</ele><time>2026-04-30T15:22:32.066Z</time></trkpt><trkpt lat="42.2828224" lon="12.0566119"><ele>375.0</ele><time>2026-04-30T15:22:33.064Z</time></trkpt><trkpt lat="42.2828518" lon="12.0565226"><ele>375.0</ele><time>2026-04-30T15:22:34.061Z</time></trkpt><trkpt lat="42.2828795" lon="12.0564309"><ele>375.0</ele><time>2026-04-30T15:22:35.067Z</time></trkpt><trkpt lat="42.2829097" lon="12.0563415"><ele>375.0</ele><time>2026-04-30T15:22:36.065Z</time></trkpt><trkpt lat="42.2829396" lon="12.0562502"><ele>375.0</ele><time>2026-04-30T15:22:37.062Z</time></trkpt><trkpt lat="42.2829679" lon="12.0561631"><ele>374.0</ele><time>2026-04-30T15:22:38.061Z</time></trkpt><trkpt lat="42.2829973" lon="12.0560749"><ele>373.0</ele><time>2026-04-30T15:22:39.069Z</time></trkpt><trkpt lat="42.283026" lon="12.0559901"><ele>372.0</ele><time>2026-04-30T15:22:40.061Z</time></trkpt><trkpt lat="42.2830473" lon="12.0559026"><ele>371.0</ele><time>2026-04-30T15:22:41.062Z</time></trkpt><trkpt lat="42.2830726" lon="12.0558142"><ele>370.0</ele><time>2026-04-30T15:22:42.071Z</time></trkpt><trkpt lat="42.2830951" lon="12.0557232"><ele>369.0</ele><time>2026-04-30T15:22:43.068Z</time></trkpt><trkpt lat="42.2830965" lon="12.0556323"><ele>368.0</ele><time>2026-04-30T15:22:44.062Z</time></trkpt><trkpt lat="42.2830878" lon="12.0555346"><ele>365.6666666666667</ele><time>2026-04-30T15:22:45.068Z</time></trkpt><trkpt lat="42.283063" lon="12.0554373"><ele>363.33333333333337</ele><time>2026-04-30T15:22:46.063Z</time></trkpt><trkpt lat="42.2830271" lon="12.0553565"><ele>361.0</ele><time>2026-04-30T15:22:47.047Z</time></trkpt><trkpt lat="42.2829853" lon="12.0552784"><ele>358.6666666666667</ele><time>2026-04-30T15:22:48.073Z</time></trkpt><trkpt lat="42.2829371" lon="12.0552173"><ele>356.3333333333333</ele><time>2026-04-30T15:22:49.058Z</time></trkpt><trkpt lat="42.2828102" lon="12.0551582"><ele>354.0</ele><time>2026-04-30T15:22:51.065Z</time></trkpt><trkpt lat="42.2827296" lon="12.0550989"><ele>354.0</ele><time>2026-04-30T15:22:52.061Z</time></trkpt><trkpt lat="42.282646" lon="12.0550414"><ele>354.0</ele><time>2026-04-30T15:22:53.053Z</time></trkpt><trkpt lat="42.282559" lon="12.0549796"><ele>354.0</ele><time>2026-04-30T15:22:54.051Z</time></trkpt><trkpt lat="42.2824739" lon="12.054909"><ele>354.0</ele><time>2026-04-30T15:22:55.064Z</time></trkpt><trkpt lat="42.282387" lon="12.0548351"><ele>354.0</ele><time>2026-04-30T15:22:56.062Z</time></trkpt><trkpt lat="42.2822932" lon="12.0547522"><ele>351.4</ele><time>2026-04-30T15:22:57.06Z</time></trkpt><trkpt lat="42.282212" lon="12.0546603"><ele>348.79999999999995</ele><time>2026-04-30T15:22:58.063Z</time></trkpt><trkpt lat="42.2821505" lon="12.0545654"><ele>346.20000000000005</ele><time>2026-04-30T15:22:59.063Z</time></trkpt><trkpt lat="42.2821154" lon="12.0544576"><ele>343.6</ele><time>2026-04-30T15:23:00.067Z</time></trkpt><trkpt lat="42.2821265" lon="12.0543311"><ele>341.0</ele><time>2026-04-30T15:23:01.053Z</time></trkpt><trkpt lat="42.2821621" lon="12.0541882"><ele>340.4</ele><time>2026-04-30T15:23:02.066Z</time></trkpt><trkpt lat="42.2822071" lon="12.0540601"><ele>339.8</ele><time>2026-04-30T15:23:03.067Z</time></trkpt><trkpt lat="42.2822507" lon="12.0539264"><ele>339.2</ele><time>2026-04-30T15:23:04.057Z</time></trkpt><trkpt lat="42.2822859" lon="12.0537881"><ele>338.59999999999997</ele><time>2026-04-30T15:23:05.06Z</time></trkpt><trkpt lat="42.2823252" lon="12.0536428"><ele>338.0</ele><time>2026-04-30T15:23:06.06Z</time></trkpt><trkpt lat="42.2823689" lon="12.053498"><ele>338.0</ele><time>2026-04-30T15:23:07.051Z</time></trkpt><trkpt lat="42.2824147" lon="12.0533617"><ele>338.0</ele><time>2026-04-30T15:23:08.053Z</time></trkpt><trkpt lat="42.2824525" lon="12.0532212"><ele>338.0</ele><time>2026-04-30T15:23:09.067Z</time></trkpt><trkpt lat="42.2824863" lon="12.053097"><ele>338.0</ele><time>2026-04-30T15:23:10.062Z</time></trkpt><trkpt lat="42.2825097" lon="12.0529924"><ele>338.0</ele><time>2026-04-30T15:23:11.067Z</time></trkpt><trkpt lat="42.2825312" lon="12.0529096"><ele>337.83333333333337</ele><time>2026-04-30T15:23:12.058Z</time></trkpt><trkpt lat="42.2825753" lon="12.0527763"><ele>337.6666666666667</ele><time>2026-04-30T15:23:14.069Z</time></trkpt><trkpt lat="42.2825987" lon="12.0526707"><ele>337.5</ele><time>2026-04-30T15:23:16.051Z</time></trkpt><trkpt lat="42.2826651" lon="12.0526272"><ele>337.3333333333333</ele><time>2026-04-30T15:23:19.072Z</time></trkpt><trkpt lat="42.2827317" lon="12.0526502"><ele>337.16666666666663</ele><time>2026-04-30T15:23:22.073Z</time></trkpt><trkpt lat="42.2827325" lon="12.0525511"><ele>337.0</ele><time>2026-04-30T15:23:29.07Z</time></trkpt><trkpt lat="42.2826695" lon="12.0525096"><ele>337.00000000000006</ele><time>2026-04-30T15:23:32.07Z</time></trkpt><trkpt lat="42.2826025" lon="12.0524841"><ele>337.0</ele><time>2026-04-30T15:23:35.075Z</time></trkpt><trkpt lat="42.2825408" lon="12.0524581"><ele>337.0</ele><time>2026-04-30T15:23:37.081Z</time></trkpt><trkpt lat="42.2824563" lon="12.0523946"><ele>337.0</ele><time>2026-04-30T15:23:40.056Z</time></trkpt><trkpt lat="42.2823937" lon="12.0523447"><ele>337.0</ele><time>2026-04-30T15:23:42.07Z</time></trkpt><trkpt lat="42.2823339" lon="12.0522939"><ele>337.00000000000006</ele><time>2026-04-30T15:23:44.066Z</time></trkpt><trkpt lat="42.2822744" lon="12.0522441"><ele>337.0</ele><time>2026-04-30T15:23:46.065Z</time></trkpt><trkpt lat="42.2822089" lon="12.0521994"><ele>336.40000000000003</ele><time>2026-04-30T15:23:48.067Z</time></trkpt><trkpt lat="42.282142" lon="12.0521355"><ele>335.8</ele><time>2026-04-30T15:23:50.068Z</time></trkpt><trkpt lat="42.282068" lon="12.0520715"><ele>335.2</ele><time>2026-04-30T15:23:52.069Z</time></trkpt><trkpt lat="42.2819929" lon="12.0520061"><ele>334.6</ele><time>2026-04-30T15:23:54.073Z</time></trkpt><trkpt lat="42.2819116" lon="12.0519335"><ele>334.0</ele><time>2026-04-30T15:23:56.058Z</time></trkpt><trkpt lat="42.2818114" lon="12.0518523"><ele>334.0</ele><time>2026-04-30T15:23:58.065Z</time></trkpt><trkpt lat="42.2817016" lon="12.0517681"><ele>334.0</ele><time>2026-04-30T15:24:00.067Z</time></trkpt><trkpt lat="42.2816433" lon="12.0517321"><ele>334.0</ele><time>2026-04-30T15:24:01.061Z</time></trkpt><trkpt lat="42.2815851" lon="12.0516845"><ele>334.0</ele><time>2026-04-30T15:24:02.074Z</time></trkpt><trkpt lat="42.2815274" lon="12.0516383"><ele>334.0</ele><time>2026-04-30T15:24:03.058Z</time></trkpt><trkpt lat="42.2814684" lon="12.0515956"><ele>334.0</ele><time>2026-04-30T15:24:04.052Z</time></trkpt><trkpt lat="42.281414" lon="12.051542"><ele>333.42857142857144</ele><time>2026-04-30T15:24:05.071Z</time></trkpt><trkpt lat="42.2813572" lon="12.0514917"><ele>332.8571428571429</ele><time>2026-04-30T15:24:06.071Z</time></trkpt><trkpt lat="42.2813031" lon="12.0514441"><ele>332.28571428571433</ele><time>2026-04-30T15:24:07.072Z</time></trkpt><trkpt lat="42.2812465" lon="12.0513999"><ele>331.7142857142857</ele><time>2026-04-30T15:24:08.072Z</time></trkpt><trkpt lat="42.2811837" lon="12.0513614"><ele>331.14285714285717</ele><time>2026-04-30T15:24:09.067Z</time></trkpt><trkpt lat="42.281122" lon="12.0513173"><ele>330.5714285714286</ele><time>2026-04-30T15:24:10.08Z</time></trkpt><trkpt lat="42.2810627" lon="12.0512784"><ele>330.0</ele><time>2026-04-30T15:24:11.073Z</time></trkpt><trkpt lat="42.2809557" lon="12.0511883"><ele>330.0</ele><time>2026-04-30T15:24:13.058Z</time></trkpt><trkpt lat="42.2809027" lon="12.0511401"><ele>330.0</ele><time>2026-04-30T15:24:14.082Z</time></trkpt><trkpt lat="42.2808462" lon="12.0511018"><ele>330.0</ele><time>2026-04-30T15:24:15.065Z</time></trkpt><trkpt lat="42.2807405" lon="12.0510126"><ele>330.0</ele><time>2026-04-30T15:24:17.064Z</time></trkpt><trkpt lat="42.280643" lon="12.0509171"><ele>330.0</ele><time>2026-04-30T15:24:19.066Z</time></trkpt><trkpt lat="42.2805428" lon="12.050833"><ele>330.0</ele><time>2026-04-30T15:24:21.069Z</time></trkpt><trkpt lat="42.2804467" lon="12.0507608"><ele>330.0</ele><time>2026-04-30T15:24:23.058Z</time></trkpt><trkpt lat="42.2803497" lon="12.0506834"><ele>330.0</ele><time>2026-04-30T15:24:25.053Z</time></trkpt><trkpt lat="42.2802461" lon="12.0506039"><ele>330.0</ele><time>2026-04-30T15:24:27.058Z</time></trkpt><trkpt lat="42.2801453" lon="12.050531"><ele>330.0</ele><time>2026-04-30T15:24:29.064Z</time></trkpt><trkpt lat="42.280051" lon="12.0504465"><ele>330.0</ele><time>2026-04-30T15:24:31.062Z</time></trkpt><trkpt lat="42.2799541" lon="12.0503664"><ele>330.0</ele><time>2026-04-30T15:24:33.058Z</time></trkpt><trkpt lat="42.2798528" lon="12.0502961"><ele>330.0</ele><time>2026-04-30T15:24:35.065Z</time></trkpt><trkpt lat="42.2797563" lon="12.0502233"><ele>329.6666666666667</ele><time>2026-04-30T15:24:37.061Z</time></trkpt><trkpt lat="42.2796544" lon="12.0501399"><ele>329.3333333333333</ele><time>2026-04-30T15:24:39.069Z</time></trkpt><trkpt lat="42.2796017" lon="12.0500909"><ele>329.0</ele><time>2026-04-30T15:24:40.072Z</time></trkpt><trkpt lat="42.2795442" lon="12.0500442"><ele>328.66666666666663</ele><time>2026-04-30T15:24:41.057Z</time></trkpt><trkpt lat="42.2794851" lon="12.0499936"><ele>328.3333333333333</ele><time>2026-04-30T15:24:42.063Z</time></trkpt><trkpt lat="42.279424" lon="12.049944"><ele>328.0</ele><time>2026-04-30T15:24:43.067Z</time></trkpt><trkpt lat="42.2793632" lon="12.0498954"><ele>327.99999999999994</ele><time>2026-04-30T15:24:44.067Z</time></trkpt><trkpt lat="42.2793025" lon="12.0498415"><ele>328.0</ele><time>2026-04-30T15:24:45.068Z</time></trkpt><trkpt lat="42.2792473" lon="12.049781"><ele>328.0</ele><time>2026-04-30T15:24:46.078Z</time></trkpt><trkpt lat="42.2791883" lon="12.0497228"><ele>328.0</ele><time>2026-04-30T15:24:47.066Z</time></trkpt><trkpt lat="42.2791332" lon="12.0496632"><ele>328.0</ele><time>2026-04-30T15:24:48.07Z</time></trkpt><trkpt lat="42.2790774" lon="12.0496052"><ele>327.99999999999994</ele><time>2026-04-30T15:24:49.067Z</time></trkpt><trkpt lat="42.2790212" lon="12.0495409"><ele>328.0</ele><time>2026-04-30T15:24:50.067Z</time></trkpt><trkpt lat="42.278965" lon="12.049472"><ele>327.3333333333333</ele><time>2026-04-30T15:24:51.069Z</time></trkpt><trkpt lat="42.2789098" lon="12.0494011"><ele>326.66666666666663</ele><time>2026-04-30T15:24:52.058Z</time></trkpt><trkpt lat="42.2788549" lon="12.0493302"><ele>326.0</ele><time>2026-04-30T15:24:53.071Z</time></trkpt><trkpt lat="42.278802" lon="12.0492568"><ele>325.3333333333333</ele><time>2026-04-30T15:24:54.067Z</time></trkpt><trkpt lat="42.2787495" lon="12.0491793"><ele>324.6666666666667</ele><time>2026-04-30T15:24:55.07Z</time></trkpt><trkpt lat="42.2787029" lon="12.0491016"><ele>324.0</ele><time>2026-04-30T15:24:56.065Z</time></trkpt><trkpt lat="42.2786521" lon="12.0490278"><ele>324.0</ele><time>2026-04-30T15:24:57.059Z</time></trkpt><trkpt lat="42.2785997" lon="12.0489593"><ele>324.0</ele><time>2026-04-30T15:24:58.073Z</time></trkpt><trkpt lat="42.2785489" lon="12.0488872"><ele>324.0</ele><time>2026-04-30T15:24:59.08Z</time></trkpt><trkpt lat="42.2785006" lon="12.048818"><ele>324.0</ele><time>2026-04-30T15:25:00.057Z</time></trkpt><trkpt lat="42.2784553" lon="12.0487459"><ele>324.0</ele><time>2026-04-30T15:25:01.062Z</time></trkpt><trkpt lat="42.2784091" lon="12.0486696"><ele>324.0</ele><time>2026-04-30T15:25:02.063Z</time></trkpt><trkpt lat="42.2783644" lon="12.0486018"><ele>324.0</ele><time>2026-04-30T15:25:03.066Z</time></trkpt><trkpt lat="42.2783201" lon="12.048538"><ele>324.0</ele><time>2026-04-30T15:25:04.069Z</time></trkpt><trkpt lat="42.2782756" lon="12.0484752"><ele>324.0</ele><time>2026-04-30T15:25:05.07Z</time></trkpt><trkpt lat="42.2782337" lon="12.0484116"><ele>324.0</ele><time>2026-04-30T15:25:06.073Z</time></trkpt><trkpt lat="42.2781544" lon="12.0482802"><ele>324.0</ele><time>2026-04-30T15:25:08.062Z</time></trkpt><trkpt lat="42.2780867" lon="12.0481446"><ele>324.0</ele><time>2026-04-30T15:25:10.066Z</time></trkpt><trkpt lat="42.2780348" lon="12.0480163"><ele>324.0</ele><time>2026-04-30T15:25:12.065Z</time></trkpt><trkpt lat="42.2779914" lon="12.0478833"><ele>324.0</ele><time>2026-04-30T15:25:14.07Z</time></trkpt><trkpt lat="42.2779601" lon="12.0477465"><ele>324.0</ele><time>2026-04-30T15:25:16.075Z</time></trkpt><trkpt lat="42.2779205" lon="12.0476131"><ele>324.0</ele><time>2026-04-30T15:25:18.072Z</time></trkpt><trkpt lat="42.2778812" lon="12.0474849"><ele>324.0</ele><time>2026-04-30T15:25:20.073Z</time></trkpt><trkpt lat="42.2778321" lon="12.0473679"><ele>324.0</ele><time>2026-04-30T15:25:22.067Z</time></trkpt><trkpt lat="42.2777937" lon="12.0472513"><ele>324.0</ele><time>2026-04-30T15:25:24.078Z</time></trkpt><trkpt lat="42.2777558" lon="12.0471334"><ele>324.0</ele><time>2026-04-30T15:25:26.068Z</time></trkpt><trkpt lat="42.2777145" lon="12.0470285"><ele>324.0</ele><time>2026-04-30T15:25:28.06Z</time></trkpt><trkpt lat="42.2776795" lon="12.0469234"><ele>324.0</ele><time>2026-04-30T15:25:30.066Z</time></trkpt><trkpt lat="42.2776456" lon="12.0468242"><ele>324.0</ele><time>2026-04-30T15:25:32.068Z</time></trkpt><trkpt lat="42.2776151" lon="12.0467222"><ele>324.1666666666667</ele><time>2026-04-30T15:25:34.093Z</time></trkpt><trkpt lat="42.2775929" lon="12.046626"><ele>324.3333333333333</ele><time>2026-04-30T15:25:36.071Z</time></trkpt><trkpt lat="42.2775677" lon="12.0465307"><ele>324.5</ele><time>2026-04-30T15:25:38.069Z</time></trkpt><trkpt lat="42.277542" lon="12.0464282"><ele>324.66666666666663</ele><time>2026-04-30T15:25:40.077Z</time></trkpt><trkpt lat="42.277514" lon="12.0463179"><ele>324.8333333333333</ele><time>2026-04-30T15:25:42.05Z</time></trkpt><trkpt lat="42.2774815" lon="12.0462062"><ele>325.0</ele><time>2026-04-30T15:25:44.072Z</time></trkpt><trkpt lat="42.2774488" lon="12.0460951"><ele>325.0</ele><time>2026-04-30T15:25:46.076Z</time></trkpt><trkpt lat="42.2773997" lon="12.0459821"><ele>325.0</ele><time>2026-04-30T15:25:48.069Z</time></trkpt><trkpt lat="42.2773439" lon="12.0458603"><ele>325.0</ele><time>2026-04-30T15:25:50.06Z</time></trkpt><trkpt lat="42.2773146" lon="12.045784"><ele>325.0</ele><time>2026-04-30T15:25:51.068Z</time></trkpt><trkpt lat="42.2772799" lon="12.0457071"><ele>325.0</ele><time>2026-04-30T15:25:52.061Z</time></trkpt><trkpt lat="42.2772434" lon="12.0456139"><ele>325.0</ele><time>2026-04-30T15:25:53.063Z</time></trkpt><trkpt lat="42.2772014" lon="12.0455131"><ele>323.0</ele><time>2026-04-30T15:25:54.065Z</time></trkpt><trkpt lat="42.2771538" lon="12.0454121"><ele>321.0</ele><time>2026-04-30T15:25:55.073Z</time></trkpt><trkpt lat="42.2771025" lon="12.0452907"><ele>319.0</ele><time>2026-04-30T15:25:56.073Z</time></trkpt><trkpt lat="42.27706" lon="12.0451656"><ele>317.0</ele><time>2026-04-30T15:25:57.07Z</time></trkpt><trkpt lat="42.2770235" lon="12.0450331"><ele>315.0</ele><time>2026-04-30T15:25:58.066Z</time></trkpt><trkpt lat="42.2769852" lon="12.0448923"><ele>314.2</ele><time>2026-04-30T15:25:59.06Z</time></trkpt><trkpt lat="42.2769442" lon="12.0447516"><ele>313.4</ele><time>2026-04-30T15:26:00.068Z</time></trkpt><trkpt lat="42.2769062" lon="12.0446094"><ele>312.6</ele><time>2026-04-30T15:26:01.07Z</time></trkpt><trkpt lat="42.276865" lon="12.0444688"><ele>311.8</ele><time>2026-04-30T15:26:02.07Z</time></trkpt><trkpt lat="42.2768254" lon="12.0443297"><ele>311.0</ele><time>2026-04-30T15:26:03.062Z</time></trkpt><trkpt lat="42.2767902" lon="12.044192"><ele>310.8</ele><time>2026-04-30T15:26:04.06Z</time></trkpt><trkpt lat="42.2767535" lon="12.0440552"><ele>310.6</ele><time>2026-04-30T15:26:05.076Z</time></trkpt><trkpt lat="42.2767163" lon="12.0439195"><ele>310.4</ele><time>2026-04-30T15:26:06.077Z</time></trkpt><trkpt lat="42.2766767" lon="12.0437827"><ele>310.2</ele><time>2026-04-30T15:26:07.071Z</time></trkpt><trkpt lat="42.2766403" lon="12.0436446"><ele>310.0</ele><time>2026-04-30T15:26:08.056Z</time></trkpt><trkpt lat="42.2766052" lon="12.0435097"><ele>310.0</ele><time>2026-04-30T15:26:09.077Z</time></trkpt><trkpt lat="42.2765715" lon="12.0433714"><ele>310.0</ele><time>2026-04-30T15:26:10.051Z</time></trkpt><trkpt lat="42.2765357" lon="12.0432341"><ele>310.0</ele><time>2026-04-30T15:26:11.071Z</time></trkpt><trkpt lat="42.2764998" lon="12.0431005"><ele>310.0</ele><time>2026-04-30T15:26:12.074Z</time></trkpt><trkpt lat="42.2764731" lon="12.0429658"><ele>310.0</ele><time>2026-04-30T15:26:13.075Z</time></trkpt><trkpt lat="42.2764454" lon="12.0428374"><ele>308.8</ele><time>2026-04-30T15:26:14.07Z</time></trkpt><trkpt lat="42.2764226" lon="12.0427042"><ele>307.6</ele><time>2026-04-30T15:26:15.065Z</time></trkpt><trkpt lat="42.2764011" lon="12.0425788"><ele>306.4</ele><time>2026-04-30T15:26:16.088Z</time></trkpt><trkpt lat="42.2763831" lon="12.0424504"><ele>305.2</ele><time>2026-04-30T15:26:17.065Z</time></trkpt><trkpt lat="42.2763662" lon="12.0423288"><ele>304.0</ele><time>2026-04-30T15:26:18.057Z</time></trkpt><trkpt lat="42.2763515" lon="12.0422137"><ele>303.66666666666663</ele><time>2026-04-30T15:26:19.075Z</time></trkpt><trkpt lat="42.2763375" lon="12.0420975"><ele>303.3333333333333</ele><time>2026-04-30T15:26:20.07Z</time></trkpt><trkpt lat="42.2763271" lon="12.041978"><ele>303.0</ele><time>2026-04-30T15:26:21.068Z</time></trkpt><trkpt lat="42.2763196" lon="12.0418664"><ele>302.6666666666667</ele><time>2026-04-30T15:26:22.071Z</time></trkpt><trkpt lat="42.2763139" lon="12.0417552"><ele>302.33333333333337</ele><time>2026-04-30T15:26:23.071Z</time></trkpt><trkpt lat="42.2763106" lon="12.0416461"><ele>302.0</ele><time>2026-04-30T15:26:24.066Z</time></trkpt><trkpt lat="42.276306" lon="12.0415405"><ele>301.8571428571429</ele><time>2026-04-30T15:26:25.062Z</time></trkpt><trkpt lat="42.2763064" lon="12.041439"><ele>301.7142857142857</ele><time>2026-04-30T15:26:26.068Z</time></trkpt><trkpt lat="42.2763077" lon="12.0413435"><ele>301.57142857142856</ele><time>2026-04-30T15:26:27.075Z</time></trkpt><trkpt lat="42.2763103" lon="12.041247"><ele>301.42857142857144</ele><time>2026-04-30T15:26:28.063Z</time></trkpt><trkpt lat="42.2763113" lon="12.0411513"><ele>301.2857142857143</ele><time>2026-04-30T15:26:29.07Z</time></trkpt><trkpt lat="42.2763089" lon="12.0410588"><ele>301.14285714285717</ele><time>2026-04-30T15:26:30.055Z</time></trkpt><trkpt lat="42.2763045" lon="12.040971"><ele>301.0</ele><time>2026-04-30T15:26:31.068Z</time></trkpt><trkpt lat="42.2762916" lon="12.0408012"><ele>301.16666666666663</ele><time>2026-04-30T15:26:33.062Z</time></trkpt><trkpt lat="42.2762843" lon="12.0407102"><ele>301.3333333333333</ele><time>2026-04-30T15:26:34.071Z</time></trkpt><trkpt lat="42.2762665" lon="12.0405431"><ele>301.5</ele><time>2026-04-30T15:26:36.058Z</time></trkpt><trkpt lat="42.2762598" lon="12.0404546"><ele>301.6666666666667</ele><time>2026-04-30T15:26:37.075Z</time></trkpt><trkpt lat="42.2762419" lon="12.0402883"><ele>301.83333333333337</ele><time>2026-04-30T15:26:39.07Z</time></trkpt><trkpt lat="42.2762368" lon="12.0402024"><ele>302.0</ele><time>2026-04-30T15:26:40.063Z</time></trkpt><trkpt lat="42.2762282" lon="12.0400289"><ele>302.00000000000006</ele><time>2026-04-30T15:26:42.072Z</time></trkpt><trkpt lat="42.2762283" lon="12.0399417"><ele>302.0</ele><time>2026-04-30T15:26:43.079Z</time></trkpt><trkpt lat="42.2762334" lon="12.039856"><ele>302.0</ele><time>2026-04-30T15:26:44.07Z</time></trkpt><trkpt lat="42.2762488" lon="12.0397724"><ele>302.0</ele><time>2026-04-30T15:26:45.074Z</time></trkpt><trkpt lat="42.2762633" lon="12.0396876"><ele>302.0</ele><time>2026-04-30T15:26:46.092Z</time></trkpt><trkpt lat="42.2762747" lon="12.0396002"><ele>302.00000000000006</ele><time>2026-04-30T15:26:47.068Z</time></trkpt><trkpt lat="42.2762886" lon="12.0395071"><ele>302.0</ele><time>2026-04-30T15:26:48.082Z</time></trkpt><trkpt lat="42.2763035" lon="12.0394174"><ele>302.00000000000006</ele><time>2026-04-30T15:26:49.063Z</time></trkpt><trkpt lat="42.2763224" lon="12.039323"><ele>302.0</ele><time>2026-04-30T15:26:50.077Z</time></trkpt><trkpt lat="42.2763387" lon="12.0392277"><ele>302.0</ele><time>2026-04-30T15:26:51.075Z</time></trkpt><trkpt lat="42.2763561" lon="12.0391341"><ele>302.0</ele><time>2026-04-30T15:26:52.067Z</time></trkpt><trkpt lat="42.2763717" lon="12.0390458"><ele>302.0</ele><time>2026-04-30T15:26:53.065Z</time></trkpt><trkpt lat="42.2763877" lon="12.0389536"><ele>302.00000000000006</ele><time>2026-04-30T15:26:54.082Z</time></trkpt><trkpt lat="42.2764034" lon="12.0388595"><ele>302.0</ele><time>2026-04-30T15:26:55.074Z</time></trkpt><trkpt lat="42.2764198" lon="12.0387701"><ele>301.5714285714286</ele><time>2026-04-30T15:26:56.063Z</time></trkpt><trkpt lat="42.2764364" lon="12.0386767"><ele>301.14285714285717</ele><time>2026-04-30T15:26:57.071Z</time></trkpt><trkpt lat="42.2764487" lon="12.0385895"><ele>300.7142857142857</ele><time>2026-04-30T15:26:58.07Z</time></trkpt><trkpt lat="42.2764602" lon="12.0384994"><ele>300.28571428571433</ele><time>2026-04-30T15:26:59.073Z</time></trkpt><trkpt lat="42.2764696" lon="12.0384127"><ele>299.8571428571429</ele><time>2026-04-30T15:27:00.066Z</time></trkpt><trkpt lat="42.2764752" lon="12.0383202"><ele>299.42857142857144</ele><time>2026-04-30T15:27:01.054Z</time></trkpt><trkpt lat="42.2764755" lon="12.0382273"><ele>299.0</ele><time>2026-04-30T15:27:02.077Z</time></trkpt><trkpt lat="42.27647" lon="12.0381399"><ele>299.0</ele><time>2026-04-30T15:27:03.072Z</time></trkpt><trkpt lat="42.276465" lon="12.0380504"><ele>299.0</ele><time>2026-04-30T15:27:04.069Z</time></trkpt><trkpt lat="42.2764541" lon="12.0379632"><ele>299.0</ele><time>2026-04-30T15:27:05.068Z</time></trkpt><trkpt lat="42.27644" lon="12.037875"><ele>299.0</ele><time>2026-04-30T15:27:06.07Z</time></trkpt><trkpt lat="42.2764295" lon="12.0377812"><ele>299.0</ele><time>2026-04-30T15:27:07.073Z</time></trkpt><trkpt lat="42.2764204" lon="12.0376891"><ele>299.0</ele><time>2026-04-30T15:27:08.063Z</time></trkpt><trkpt lat="42.2764068" lon="12.0375988"><ele>299.0</ele><time>2026-04-30T15:27:09.059Z</time></trkpt><trkpt lat="42.2763958" lon="12.0375142"><ele>298.42857142857144</ele><time>2026-04-30T15:27:10.067Z</time></trkpt><trkpt lat="42.2763834" lon="12.0374204"><ele>297.8571428571429</ele><time>2026-04-30T15:27:11.065Z</time></trkpt><trkpt lat="42.2763726" lon="12.0373258"><ele>297.28571428571433</ele><time>2026-04-30T15:27:12.071Z</time></trkpt><trkpt lat="42.2763622" lon="12.0372308"><ele>296.7142857142857</ele><time>2026-04-30T15:27:13.064Z</time></trkpt><trkpt lat="42.2763543" lon="12.0371324"><ele>296.14285714285717</ele><time>2026-04-30T15:27:14.072Z</time></trkpt><trkpt lat="42.2763452" lon="12.0370328"><ele>295.5714285714286</ele><time>2026-04-30T15:27:15.08Z</time></trkpt><trkpt lat="42.2763332" lon="12.0369325"><ele>295.0</ele><time>2026-04-30T15:27:16.067Z</time></trkpt><trkpt lat="42.2763212" lon="12.0368346"><ele>295.00000000000006</ele><time>2026-04-30T15:27:17.066Z</time></trkpt><trkpt lat="42.276309" lon="12.036731"><ele>295.0</ele><time>2026-04-30T15:27:18.068Z</time></trkpt><trkpt lat="42.2762952" lon="12.0366326"><ele>295.0</ele><time>2026-04-30T15:27:19.076Z</time></trkpt><trkpt lat="42.2762818" lon="12.0365301"><ele>295.0</ele><time>2026-04-30T15:27:20.07Z</time></trkpt><trkpt lat="42.2762699" lon="12.0364327"><ele>295.0</ele><time>2026-04-30T15:27:21.068Z</time></trkpt><trkpt lat="42.2762576" lon="12.0363351"><ele>295.00000000000006</ele><time>2026-04-30T15:27:22.071Z</time></trkpt><trkpt lat="42.2762487" lon="12.0362404"><ele>295.0</ele><time>2026-04-30T15:27:23.071Z</time></trkpt><trkpt lat="42.2762377" lon="12.0361462"><ele>294.7142857142857</ele><time>2026-04-30T15:27:24.058Z</time></trkpt><trkpt lat="42.2762276" lon="12.0360481"><ele>294.42857142857144</ele><time>2026-04-30T15:27:25.057Z</time></trkpt><trkpt lat="42.2762148" lon="12.0359521"><ele>294.1428571428571</ele><time>2026-04-30T15:27:26.078Z</time></trkpt><trkpt lat="42.2762027" lon="12.0358557"><ele>293.8571428571429</ele><time>2026-04-30T15:27:27.075Z</time></trkpt><trkpt lat="42.27619" lon="12.0357592"><ele>293.57142857142856</ele><time>2026-04-30T15:27:28.074Z</time></trkpt><trkpt lat="42.2761766" lon="12.03566"><ele>293.2857142857143</ele><time>2026-04-30T15:27:29.087Z</time></trkpt><trkpt lat="42.2761646" lon="12.0355573"><ele>293.0</ele><time>2026-04-30T15:27:30.074Z</time></trkpt><trkpt lat="42.2761514" lon="12.0354619"><ele>292.99999999999994</ele><time>2026-04-30T15:27:31.071Z</time></trkpt><trkpt lat="42.2761389" lon="12.0353728"><ele>293.0</ele><time>2026-04-30T15:27:32.07Z</time></trkpt><trkpt lat="42.2761268" lon="12.0352797"><ele>293.0</ele><time>2026-04-30T15:27:33.068Z</time></trkpt><trkpt lat="42.2761147" lon="12.0351855"><ele>293.0</ele><time>2026-04-30T15:27:34.085Z</time></trkpt><trkpt lat="42.2761009" lon="12.0350924"><ele>293.0</ele><time>2026-04-30T15:27:35.062Z</time></trkpt><trkpt lat="42.2760836" lon="12.0350019"><ele>292.99999999999994</ele><time>2026-04-30T15:27:36.08Z</time></trkpt><trkpt lat="42.276063" lon="12.0349136"><ele>293.0</ele><time>2026-04-30T15:27:37.074Z</time></trkpt><trkpt lat="42.2760429" lon="12.0348229"><ele>292.85714285714283</ele><time>2026-04-30T15:27:38.071Z</time></trkpt><trkpt lat="42.2760243" lon="12.0347294"><ele>292.7142857142857</ele><time>2026-04-30T15:27:39.074Z</time></trkpt><trkpt lat="42.2760041" lon="12.0346365"><ele>292.57142857142856</ele><time>2026-04-30T15:27:40.066Z</time></trkpt><trkpt lat="42.2759832" lon="12.0345455"><ele>292.42857142857144</ele><time>2026-04-30T15:27:41.076Z</time></trkpt><trkpt lat="42.2759621" lon="12.0344533"><ele>292.2857142857143</ele><time>2026-04-30T15:27:42.077Z</time></trkpt><trkpt lat="42.2759423" lon="12.034356"><ele>292.1428571428571</ele><time>2026-04-30T15:27:43.084Z</time></trkpt><trkpt lat="42.2759217" lon="12.0342591"><ele>292.0</ele><time>2026-04-30T15:27:44.066Z</time></trkpt><trkpt lat="42.2759027" lon="12.0341565"><ele>291.5</ele><time>2026-04-30T15:27:45.062Z</time></trkpt><trkpt lat="42.2758835" lon="12.0340521"><ele>291.0</ele><time>2026-04-30T15:27:46.075Z</time></trkpt><trkpt lat="42.275865" lon="12.0339527"><ele>290.5</ele><time>2026-04-30T15:27:47.071Z</time></trkpt><trkpt lat="42.275843" lon="12.0338606"><ele>290.0</ele><time>2026-04-30T15:27:48.064Z</time></trkpt><trkpt lat="42.275823" lon="12.0337659"><ele>289.5</ele><time>2026-04-30T15:27:49.066Z</time></trkpt><trkpt lat="42.2758058" lon="12.0336662"><ele>289.0</ele><time>2026-04-30T15:27:50.056Z</time></trkpt><trkpt lat="42.275786" lon="12.0335646"><ele>289.0</ele><time>2026-04-30T15:27:51.071Z</time></trkpt><trkpt lat="42.2757692" lon="12.0334629"><ele>289.0</ele><time>2026-04-30T15:27:52.066Z</time></trkpt><trkpt lat="42.2757546" lon="12.0333676"><ele>289.0</ele><time>2026-04-30T15:27:53.075Z</time></trkpt><trkpt lat="42.2757452" lon="12.0332749"><ele>289.0</ele><time>2026-04-30T15:27:54.074Z</time></trkpt><trkpt lat="42.2757343" lon="12.0331039"><ele>289.0</ele><time>2026-04-30T15:27:56.062Z</time></trkpt><trkpt lat="42.2757327" lon="12.0330098"><ele>289.0</ele><time>2026-04-30T15:27:57.064Z</time></trkpt><trkpt lat="42.2757242" lon="12.0329169"><ele>288.3333333333333</ele><time>2026-04-30T15:27:58.078Z</time></trkpt><trkpt lat="42.2757102" lon="12.032815"><ele>287.66666666666663</ele><time>2026-04-30T15:27:59.068Z</time></trkpt><trkpt lat="42.275694" lon="12.0327133"><ele>287.0</ele><time>2026-04-30T15:28:00.068Z</time></trkpt><trkpt lat="42.2756811" lon="12.0326082"><ele>286.3333333333333</ele><time>2026-04-30T15:28:01.078Z</time></trkpt><trkpt lat="42.2756734" lon="12.0325016"><ele>285.6666666666667</ele><time>2026-04-30T15:28:02.067Z</time></trkpt><trkpt lat="42.275671" lon="12.0323886"><ele>285.0</ele><time>2026-04-30T15:28:03.073Z</time></trkpt><trkpt lat="42.2756751" lon="12.0322798"><ele>284.3333333333333</ele><time>2026-04-30T15:28:04.066Z</time></trkpt><trkpt lat="42.2756838" lon="12.0321771"><ele>283.6666666666667</ele><time>2026-04-30T15:28:05.074Z</time></trkpt><trkpt lat="42.275689" lon="12.0320893"><ele>283.0</ele><time>2026-04-30T15:28:06.073Z</time></trkpt><trkpt lat="42.275689" lon="12.031934"><ele>282.33333333333337</ele><time>2026-04-30T15:28:08.064Z</time></trkpt><trkpt lat="42.275674" lon="12.0318435"><ele>281.6666666666667</ele><time>2026-04-30T15:28:10.059Z</time></trkpt><trkpt lat="42.2756403" lon="12.0317499"><ele>281.0</ele><time>2026-04-30T15:28:13.064Z</time></trkpt><trkpt lat="42.275577" lon="12.0316524"><ele>278.28571428571433</ele><time>2026-04-30T15:28:16.069Z</time></trkpt><trkpt lat="42.2755096" lon="12.0315821"><ele>275.57142857142856</ele><time>2026-04-30T15:28:19.066Z</time></trkpt><trkpt lat="42.2754342" lon="12.0315623"><ele>272.8571428571429</ele><time>2026-04-30T15:28:22.065Z</time></trkpt><trkpt lat="42.2753543" lon="12.031577"><ele>270.14285714285717</ele><time>2026-04-30T15:28:26.068Z</time></trkpt><trkpt lat="42.2752851" lon="12.0315873"><ele>267.42857142857144</ele><time>2026-04-30T15:28:30.049Z</time></trkpt><trkpt lat="42.2752159" lon="12.0315786"><ele>264.7142857142857</ele><time>2026-04-30T15:28:47.056Z</time></trkpt><trkpt lat="42.2751667" lon="12.0315164"><ele>262.0</ele><time>2026-04-30T15:28:51.063Z</time></trkpt><trkpt lat="42.2751537" lon="12.0314222"><ele>262.0</ele><time>2026-04-30T15:28:56.068Z</time></trkpt><trkpt lat="42.2751078" lon="12.0313634"><ele>262.0</ele><time>2026-04-30T15:29:08.062Z</time></trkpt><trkpt lat="42.2750626" lon="12.0312927"><ele>262.0</ele><time>2026-04-30T15:29:20.055Z</time></trkpt><trkpt lat="42.275053" lon="12.0312057"><ele>262.0</ele><time>2026-04-30T15:29:31.056Z</time></trkpt><trkpt lat="42.2750154" lon="12.0311303"><ele>262.0</ele><time>2026-04-30T15:29:37.051Z</time></trkpt><trkpt lat="42.2750075" lon="12.0310414"><ele>262.0</ele><time>2026-04-30T15:29:44.067Z</time></trkpt><trkpt lat="42.2749983" lon="12.0309509"><ele>262.0</ele><time>2026-04-30T15:29:52.068Z</time></trkpt><trkpt lat="42.2749608" lon="12.0308629"><ele>261.8571428571429</ele><time>2026-04-30T15:30:00.057Z</time></trkpt><trkpt lat="42.2749305" lon="12.0307829"><ele>261.7142857142857</ele><time>2026-04-30T15:30:08.065Z</time></trkpt><trkpt lat="42.2748921" lon="12.0307016"><ele>261.57142857142856</ele><time>2026-04-30T15:30:19.065Z</time></trkpt><trkpt lat="42.2748331" lon="12.0306615"><ele>261.42857142857144</ele><time>2026-04-30T15:37:37.063Z</time></trkpt><trkpt lat="42.2748083" lon="12.0305706"><ele>261.2857142857143</ele><time>2026-04-30T15:37:44.07Z</time></trkpt><trkpt lat="42.2747884" lon="12.0304762"><ele>261.14285714285717</ele><time>2026-04-30T15:37:47.066Z</time></trkpt><trkpt lat="42.2747785" lon="12.03039"><ele>261.0</ele><time>2026-04-30T15:37:52.072Z</time></trkpt><trkpt lat="42.274729" lon="12.0303103"><ele>261.14285714285717</ele><time>2026-04-30T15:37:56.062Z</time></trkpt><trkpt lat="42.2747005" lon="12.0302252"><ele>261.2857142857143</ele><time>2026-04-30T15:37:59.064Z</time></trkpt><trkpt lat="42.2746707" lon="12.0301326"><ele>261.42857142857144</ele><time>2026-04-30T15:38:02.06Z</time></trkpt><trkpt lat="42.274637" lon="12.0300292"><ele>261.57142857142856</ele><time>2026-04-30T15:38:06.067Z</time></trkpt><trkpt lat="42.2746117" lon="12.0299362"><ele>261.7142857142857</ele><time>2026-04-30T15:38:09.064Z</time></trkpt><trkpt lat="42.2745912" lon="12.0298475"><ele>261.8571428571429</ele><time>2026-04-30T15:38:15.054Z</time></trkpt><trkpt lat="42.2745629" lon="12.0297532"><ele>262.0</ele><time>2026-04-30T15:38:19.056Z</time></trkpt><trkpt lat="42.2745234" lon="12.0296683"><ele>262.0</ele><time>2026-04-30T15:38:22.07Z</time></trkpt><trkpt lat="42.2744859" lon="12.0295741"><ele>262.0</ele><time>2026-04-30T15:38:24.063Z</time></trkpt><trkpt lat="42.2744574" lon="12.0294852"><ele>262.0</ele><time>2026-04-30T15:38:26.066Z</time></trkpt><trkpt lat="42.2744246" lon="12.0293774"><ele>262.0</ele><time>2026-04-30T15:38:29.065Z</time></trkpt><trkpt lat="42.2743895" lon="12.0292991"><ele>262.0</ele><time>2026-04-30T15:38:32.059Z</time></trkpt><trkpt lat="42.274384" lon="12.0292019"><ele>262.0</ele><time>2026-04-30T15:38:35.063Z</time></trkpt><trkpt lat="42.2744217" lon="12.0290776"><ele>262.7142857142857</ele><time>2026-04-30T15:38:38.064Z</time></trkpt><trkpt lat="42.2744695" lon="12.029004"><ele>263.42857142857144</ele><time>2026-04-30T15:38:40.063Z</time></trkpt><trkpt lat="42.27451" lon="12.0289351"><ele>264.14285714285717</ele><time>2026-04-30T15:38:42.062Z</time></trkpt><trkpt lat="42.2745625" lon="12.02885"><ele>264.8571428571429</ele><time>2026-04-30T15:38:45.063Z</time></trkpt><trkpt lat="42.2745894" lon="12.0287602"><ele>265.57142857142856</ele><time>2026-04-30T15:38:48.054Z</time></trkpt><trkpt lat="42.2746046" lon="12.0286743"><ele>266.28571428571433</ele><time>2026-04-30T15:38:51.056Z</time></trkpt><trkpt lat="42.2746063" lon="12.0285889"><ele>267.0</ele><time>2026-04-30T15:38:54.062Z</time></trkpt><trkpt lat="42.2746124" lon="12.0284665"><ele>267.00000000000006</ele><time>2026-04-30T15:38:57.062Z</time></trkpt><trkpt lat="42.2746075" lon="12.0283617"><ele>267.0</ele><time>2026-04-30T15:38:59.061Z</time></trkpt><trkpt lat="42.2746019" lon="12.0282742"><ele>267.0</ele><time>2026-04-30T15:39:01.058Z</time></trkpt><trkpt lat="42.2746043" lon="12.0281858"><ele>267.0</ele><time>2026-04-30T15:39:04.046Z</time></trkpt><trkpt lat="42.2746368" lon="12.0281022"><ele>267.0</ele><time>2026-04-30T15:39:10.063Z</time></trkpt><trkpt lat="42.274683" lon="12.0280316"><ele>267.00000000000006</ele><time>2026-04-30T15:39:18.06Z</time></trkpt><trkpt lat="42.2747274" lon="12.0279598"><ele>267.0</ele><time>2026-04-30T15:39:26.049Z</time></trkpt><trkpt lat="42.2747791" lon="12.0279049"><ele>265.7142857142857</ele><time>2026-04-30T15:39:34.059Z</time></trkpt><trkpt lat="42.2748377" lon="12.0278422"><ele>264.42857142857144</ele><time>2026-04-30T15:39:42.049Z</time></trkpt><trkpt lat="42.2748733" lon="12.0277643"><ele>263.1428571428571</ele><time>2026-04-30T15:39:47.07Z</time></trkpt><trkpt lat="42.2749199" lon="12.0277005"><ele>261.8571428571429</ele><time>2026-04-30T15:39:54.059Z</time></trkpt><trkpt lat="42.2749522" lon="12.0276241"><ele>260.57142857142856</ele><time>2026-04-30T15:40:00.068Z</time></trkpt><trkpt lat="42.2749984" lon="12.0275464"><ele>259.2857142857143</ele><time>2026-04-30T15:40:13.083Z</time></trkpt><trkpt lat="42.2750432" lon="12.027481"><ele>258.0</ele><time>2026-04-30T15:40:17.087Z</time></trkpt><trkpt lat="42.2750864" lon="12.027416"><ele>258.0</ele><time>2026-04-30T15:40:20.09Z</time></trkpt><trkpt lat="42.2751322" lon="12.0273438"><ele>258.0</ele><time>2026-04-30T15:40:23.084Z</time></trkpt><trkpt lat="42.2751796" lon="12.0272675"><ele>258.0</ele><time>2026-04-30T15:40:26.07Z</time></trkpt><trkpt lat="42.275233" lon="12.0271972"><ele>258.0</ele><time>2026-04-30T15:40:29.072Z</time></trkpt><trkpt lat="42.2753074" lon="12.0271183"><ele>258.0</ele><time>2026-04-30T15:40:32.067Z</time></trkpt><trkpt lat="42.2753574" lon="12.0270383"><ele>258.0</ele><time>2026-04-30T15:40:35.065Z</time></trkpt><trkpt lat="42.2753799" lon="12.0269362"><ele>257.99999999999994</ele><time>2026-04-30T15:40:40.044Z</time></trkpt><trkpt lat="42.2753551" lon="12.0268546"><ele>258.0</ele><time>2026-04-30T15:40:44.072Z</time></trkpt><trkpt lat="42.2752838" lon="12.0268158"><ele>258.0</ele><time>2026-04-30T15:40:49.055Z</time></trkpt><trkpt lat="42.275217" lon="12.0267722"><ele>258.0</ele><time>2026-04-30T15:40:55.077Z</time></trkpt><trkpt lat="42.2751509" lon="12.0267329"><ele>258.0</ele><time>2026-04-30T15:41:00.083Z</time></trkpt><trkpt lat="42.2750967" lon="12.0266823"><ele>257.99999999999994</ele><time>2026-04-30T15:41:07.08Z</time></trkpt><trkpt lat="42.2750393" lon="12.0266444"><ele>258.0</ele><time>2026-04-30T15:41:13.068Z</time></trkpt><trkpt lat="42.2749638" lon="12.0266208"><ele>258.1428571428571</ele><time>2026-04-30T15:41:33.093Z</time></trkpt><trkpt lat="42.2749012" lon="12.0266108"><ele>258.2857142857143</ele><time>2026-04-30T15:41:54.075Z</time></trkpt><trkpt lat="42.2748302" lon="12.02659"><ele>258.42857142857144</ele><time>2026-04-30T15:42:01.047Z</time></trkpt><trkpt lat="42.2747577" lon="12.0265647"><ele>258.57142857142856</ele><time>2026-04-30T15:42:17.054Z</time></trkpt><trkpt lat="42.2746939" lon="12.026535"><ele>258.7142857142857</ele><time>2026-04-30T15:42:26.074Z</time></trkpt><trkpt lat="42.2746307" lon="12.0265295"><ele>258.85714285714283</ele><time>2026-04-30T15:42:36.066Z</time></trkpt><trkpt lat="42.2745624" lon="12.026507"><ele>259.0</ele><time>2026-04-30T15:42:46.065Z</time></trkpt><trkpt lat="42.2744921" lon="12.026495"><ele>259.0</ele><time>2026-04-30T15:42:53.067Z</time></trkpt><trkpt lat="42.274429" lon="12.0264892"><ele>259.0</ele><time>2026-04-30T15:42:57.1Z</time></trkpt><trkpt lat="42.2743601" lon="12.0264984"><ele>259.0</ele><time>2026-04-30T15:43:02.062Z</time></trkpt><trkpt lat="42.2742871" lon="12.0264992"><ele>259.0</ele><time>2026-04-30T15:43:08.083Z</time></trkpt><trkpt lat="42.2742172" lon="12.0264969"><ele>259.0</ele><time>2026-04-30T15:43:13.07Z</time></trkpt><trkpt lat="42.2741497" lon="12.0264931"><ele>259.0</ele><time>2026-04-30T15:43:17.085Z</time></trkpt><trkpt lat="42.274084" lon="12.0264496"><ele>259.0</ele><time>2026-04-30T15:43:23.06Z</time></trkpt><trkpt lat="42.2740115" lon="12.0263888"><ele>259.0</ele><time>2026-04-30T15:43:29.08Z</time></trkpt><trkpt lat="42.273962" lon="12.0263308"><ele>259.0</ele><time>2026-04-30T15:43:49.044Z</time></trkpt><trkpt lat="42.2739887" lon="12.0262113"><ele>259.0</ele><time>2026-04-30T15:43:57.056Z</time></trkpt><trkpt lat="42.2740351" lon="12.0260826"><ele>259.0</ele><time>2026-04-30T15:43:58.047Z</time></trkpt><trkpt lat="42.2739368" lon="12.0261294"><ele>259.0</ele><time>2026-04-30T15:44:01.06Z</time></trkpt><trkpt lat="42.2739192" lon="12.0262283"><ele>259.0</ele><time>2026-04-30T15:44:03.048Z</time></trkpt><trkpt lat="42.2738941" lon="12.0263074"><ele>256.42857142857144</ele><time>2026-04-30T15:44:08.059Z</time></trkpt><trkpt lat="42.273822" lon="12.0262862"><ele>253.85714285714286</ele><time>2026-04-30T15:44:12.061Z</time></trkpt><trkpt lat="42.2737808" lon="12.0262157"><ele>251.28571428571428</ele><time>2026-04-30T15:44:16.067Z</time></trkpt><trkpt lat="42.2737285" lon="12.0261548"><ele>248.71428571428572</ele><time>2026-04-30T15:44:20.072Z</time></trkpt><trkpt lat="42.2737557" lon="12.0260658"><ele>246.14285714285717</ele><time>2026-04-30T15:44:27.069Z</time></trkpt><trkpt lat="42.2736817" lon="12.0260601"><ele>243.57142857142858</ele><time>2026-04-30T15:44:36.077Z</time></trkpt><trkpt lat="42.2736275" lon="12.0261162"><ele>241.0</ele><time>2026-04-30T15:44:39.076Z</time></trkpt><trkpt lat="42.2735833" lon="12.0261781"><ele>241.0</ele><time>2026-04-30T15:44:42.077Z</time></trkpt><trkpt lat="42.2735449" lon="12.0262616"><ele>241.00000000000003</ele><time>2026-04-30T15:44:46.059Z</time></trkpt><trkpt lat="42.2734967" lon="12.0263494"><ele>241.0</ele><time>2026-04-30T15:44:50.082Z</time></trkpt><trkpt lat="42.2734404" lon="12.0264268"><ele>241.0</ele><time>2026-04-30T15:44:54.079Z</time></trkpt><trkpt lat="42.2733825" lon="12.0264713"><ele>241.00000000000003</ele><time>2026-04-30T15:44:57.077Z</time></trkpt><trkpt lat="42.2733267" lon="12.0265178"><ele>241.0</ele><time>2026-04-30T15:45:00.069Z</time></trkpt><trkpt lat="42.2732755" lon="12.0265744"><ele>241.0</ele><time>2026-04-30T15:45:03.065Z</time></trkpt><trkpt lat="42.2732222" lon="12.026624"><ele>242.57142857142858</ele><time>2026-04-30T15:45:06.07Z</time></trkpt><trkpt lat="42.2731607" lon="12.0266618"><ele>244.14285714285717</ele><time>2026-04-30T15:45:09.086Z</time></trkpt><trkpt lat="42.2731139" lon="12.0267223"><ele>245.71428571428572</ele><time>2026-04-30T15:45:12.053Z</time></trkpt><trkpt lat="42.2730625" lon="12.0267914"><ele>247.28571428571428</ele><time>2026-04-30T15:45:15.052Z</time></trkpt><trkpt lat="42.2730139" lon="12.0268514"><ele>248.85714285714286</ele><time>2026-04-30T15:45:18.077Z</time></trkpt><trkpt lat="42.2729596" lon="12.0269168"><ele>250.42857142857144</ele><time>2026-04-30T15:45:21.086Z</time></trkpt><trkpt lat="42.2729058" lon="12.0269819"><ele>252.0</ele><time>2026-04-30T15:45:24.091Z</time></trkpt><trkpt lat="42.2728725" lon="12.0270639"><ele>252.0</ele><time>2026-04-30T15:45:27.077Z</time></trkpt><trkpt lat="42.2728277" lon="12.0271418"><ele>252.0</ele><time>2026-04-30T15:45:30.082Z</time></trkpt><trkpt lat="42.2727811" lon="12.0272043"><ele>252.0</ele><time>2026-04-30T15:45:33.081Z</time></trkpt><trkpt lat="42.272727" lon="12.0272556"><ele>252.0</ele><time>2026-04-30T15:45:37.084Z</time></trkpt><trkpt lat="42.2726676" lon="12.0272914"><ele>252.0</ele><time>2026-04-30T15:45:41.084Z</time></trkpt><trkpt lat="42.2725913" lon="12.027326"><ele>252.0</ele><time>2026-04-30T15:45:45.083Z</time></trkpt><trkpt lat="42.2725239" lon="12.0272981"><ele>252.0</ele><time>2026-04-30T15:45:47.063Z</time></trkpt><trkpt lat="42.2724235" lon="12.0272353"><ele>252.0</ele><time>2026-04-30T15:45:49.085Z</time></trkpt><trkpt lat="42.2723586" lon="12.0272134"><ele>252.0</ele><time>2026-04-30T15:45:50.078Z</time></trkpt><trkpt lat="42.2722827" lon="12.0271839"><ele>252.0</ele><time>2026-04-30T15:45:51.088Z</time></trkpt><trkpt lat="42.2722094" lon="12.0271551"><ele>252.0</ele><time>2026-04-30T15:45:52.075Z</time></trkpt><trkpt lat="42.2721348" lon="12.0271563"><ele>252.0</ele><time>2026-04-30T15:45:53.087Z</time></trkpt><trkpt lat="42.272057" lon="12.0271722"><ele>252.0</ele><time>2026-04-30T15:45:54.088Z</time></trkpt><trkpt lat="42.2719802" lon="12.0272135"><ele>248.5</ele><time>2026-04-30T15:45:55.077Z</time></trkpt><trkpt lat="42.271908" lon="12.0272897"><ele>245.0</ele><time>2026-04-30T15:45:56.067Z</time></trkpt><trkpt lat="42.2718328" lon="12.0273598"><ele>241.5</ele><time>2026-04-30T15:45:57.082Z</time></trkpt><trkpt lat="42.2717494" lon="12.0274009"><ele>238.0</ele><time>2026-04-30T15:45:58.05Z</time></trkpt><trkpt lat="42.2716582" lon="12.0273935"><ele>234.5</ele><time>2026-04-30T15:45:59.075Z</time></trkpt><trkpt lat="42.2715867" lon="12.0273497"><ele>231.0</ele><time>2026-04-30T15:46:00.066Z</time></trkpt><trkpt lat="42.2715185" lon="12.0272756"><ele>231.0</ele><time>2026-04-30T15:46:01.065Z</time></trkpt><trkpt lat="42.2714561" lon="12.0272045"><ele>231.0</ele><time>2026-04-30T15:46:02.054Z</time></trkpt><trkpt lat="42.2713869" lon="12.0271402"><ele>231.0</ele><time>2026-04-30T15:46:03.075Z</time></trkpt><trkpt lat="42.2713275" lon="12.0270758"><ele>231.0</ele><time>2026-04-30T15:46:04.064Z</time></trkpt><trkpt lat="42.2712685" lon="12.0270137"><ele>231.0</ele><time>2026-04-30T15:46:05.079Z</time></trkpt><trkpt lat="42.2712159" lon="12.0269512"><ele>231.0</ele><time>2026-04-30T15:46:06.091Z</time></trkpt><trkpt lat="42.2711585" lon="12.02688"><ele>233.42857142857144</ele><time>2026-04-30T15:46:07.078Z</time></trkpt><trkpt lat="42.2711043" lon="12.0268176"><ele>235.85714285714286</ele><time>2026-04-30T15:46:08.07Z</time></trkpt><trkpt lat="42.2710478" lon="12.0267568"><ele>238.28571428571428</ele><time>2026-04-30T15:46:09.077Z</time></trkpt><trkpt lat="42.2709912" lon="12.0266965"><ele>240.71428571428572</ele><time>2026-04-30T15:46:10.085Z</time></trkpt><trkpt lat="42.2709348" lon="12.0266387"><ele>243.14285714285717</ele><time>2026-04-30T15:46:11.074Z</time></trkpt><trkpt lat="42.2708794" lon="12.0265815"><ele>245.57142857142858</ele><time>2026-04-30T15:46:12.067Z</time></trkpt><trkpt lat="42.2708241" lon="12.0265197"><ele>248.0</ele><time>2026-04-30T15:46:13.077Z</time></trkpt><trkpt lat="42.2707742" lon="12.0264601"><ele>250.66666666666669</ele><time>2026-04-30T15:46:14.082Z</time></trkpt><trkpt lat="42.2707258" lon="12.0263993"><ele>253.33333333333334</ele><time>2026-04-30T15:46:15.085Z</time></trkpt><trkpt lat="42.2706791" lon="12.0263369"><ele>256.0</ele><time>2026-04-30T15:46:16.08Z</time></trkpt><trkpt lat="42.2705904" lon="12.0262256"><ele>258.6666666666667</ele><time>2026-04-30T15:46:18.077Z</time></trkpt><trkpt lat="42.270525" lon="12.0261199"><ele>261.3333333333333</ele><time>2026-04-30T15:46:20.075Z</time></trkpt><trkpt lat="42.2704872" lon="12.0260223"><ele>264.0</ele><time>2026-04-30T15:46:22.079Z</time></trkpt><trkpt lat="42.2704681" lon="12.0259328"><ele>265.42857142857144</ele><time>2026-04-30T15:46:24.078Z</time></trkpt><trkpt lat="42.2704544" lon="12.025849"><ele>266.8571428571429</ele><time>2026-04-30T15:46:26.078Z</time></trkpt><trkpt lat="42.2704391" lon="12.0257627"><ele>268.28571428571433</ele><time>2026-04-30T15:46:28.069Z</time></trkpt><trkpt lat="42.2704187" lon="12.0256526"><ele>269.7142857142857</ele><time>2026-04-30T15:46:31.089Z</time></trkpt><trkpt lat="42.2703963" lon="12.0255547"><ele>271.14285714285717</ele><time>2026-04-30T15:46:34.085Z</time></trkpt><trkpt lat="42.2703788" lon="12.0254668"><ele>272.5714285714286</ele><time>2026-04-30T15:46:37.076Z</time></trkpt><trkpt lat="42.2703645" lon="12.025369"><ele>274.0</ele><time>2026-04-30T15:46:40.085Z</time></trkpt><trkpt lat="42.270349" lon="12.0252783"><ele>274.00000000000006</ele><time>2026-04-30T15:46:43.082Z</time></trkpt><trkpt lat="42.2703192" lon="12.0251924"><ele>274.0</ele><time>2026-04-30T15:46:47.063Z</time></trkpt><trkpt lat="42.2702787" lon="12.0251249"><ele>274.0</ele><time>2026-04-30T15:46:51.085Z</time></trkpt><trkpt lat="42.2702212" lon="12.0250697"><ele>274.0</ele><time>2026-04-30T15:46:56.08Z</time></trkpt><trkpt lat="42.2701546" lon="12.0250262"><ele>274.0</ele><time>2026-04-30T15:47:00.072Z</time></trkpt><trkpt lat="42.2700818" lon="12.0249942"><ele>274.00000000000006</ele><time>2026-04-30T15:47:04.071Z</time></trkpt><trkpt lat="42.2700179" lon="12.0249658"><ele>274.0</ele><time>2026-04-30T15:47:07.085Z</time></trkpt><trkpt lat="42.2699438" lon="12.0249466"><ele>273.8571428571429</ele><time>2026-04-30T15:47:11.067Z</time></trkpt><trkpt lat="42.2698764" lon="12.0249255"><ele>273.7142857142857</ele><time>2026-04-30T15:47:15.088Z</time></trkpt><trkpt lat="42.2698062" lon="12.0249091"><ele>273.57142857142856</ele><time>2026-04-30T15:47:19.05Z</time></trkpt><trkpt lat="42.2697476" lon="12.0248761"><ele>273.42857142857144</ele><time>2026-04-30T15:47:23.082Z</time></trkpt><trkpt lat="42.2696805" lon="12.0248259"><ele>273.2857142857143</ele><time>2026-04-30T15:47:27.065Z</time></trkpt><trkpt lat="42.2696108" lon="12.0247741"><ele>273.14285714285717</ele><time>2026-04-30T15:47:31.051Z</time></trkpt><trkpt lat="42.2695516" lon="12.0247077"><ele>273.0</ele><time>2026-04-30T15:47:35.074Z</time></trkpt><trkpt lat="42.2695069" lon="12.0246447"><ele>273.7142857142857</ele><time>2026-04-30T15:47:38.087Z</time></trkpt><trkpt lat="42.2694554" lon="12.0245925"><ele>274.42857142857144</ele><time>2026-04-30T15:47:41.087Z</time></trkpt><trkpt lat="42.2694093" lon="12.0245286"><ele>275.1428571428571</ele><time>2026-04-30T15:47:44.087Z</time></trkpt><trkpt lat="42.2693526" lon="12.0244485"><ele>275.8571428571429</ele><time>2026-04-30T15:47:48.08Z</time></trkpt><trkpt lat="42.269304" lon="12.0243911"><ele>276.57142857142856</ele><time>2026-04-30T15:47:51.062Z</time></trkpt><trkpt lat="42.2692585" lon="12.0243323"><ele>277.2857142857143</ele><time>2026-04-30T15:47:54.073Z</time></trkpt><trkpt lat="42.2692022" lon="12.0242662"><ele>278.0</ele><time>2026-04-30T15:47:57.085Z</time></trkpt><trkpt lat="42.269144" lon="12.0242242"><ele>278.0</ele><time>2026-04-30T15:48:00.086Z</time></trkpt><trkpt lat="42.2690798" lon="12.0241846"><ele>278.0</ele><time>2026-04-30T15:48:03.064Z</time></trkpt><trkpt lat="42.2690119" lon="12.0241564"><ele>278.0</ele><time>2026-04-30T15:48:06.063Z</time></trkpt><trkpt lat="42.2689271" lon="12.0241336"><ele>278.0</ele><time>2026-04-30T15:48:10.079Z</time></trkpt><trkpt lat="42.2688548" lon="12.0241179"><ele>278.0</ele><time>2026-04-30T15:48:13.085Z</time></trkpt><trkpt lat="42.2687796" lon="12.0241148"><ele>278.0</ele><time>2026-04-30T15:48:16.098Z</time></trkpt><trkpt lat="42.2687007" lon="12.0241148"><ele>279.33333333333337</ele><time>2026-04-30T15:48:19.068Z</time></trkpt><trkpt lat="42.2686232" lon="12.0241239"><ele>280.6666666666667</ele><time>2026-04-30T15:48:22.079Z</time></trkpt><trkpt lat="42.268546" lon="12.0241237"><ele>282.0</ele><time>2026-04-30T15:48:25.077Z</time></trkpt><trkpt lat="42.2684685" lon="12.0241268"><ele>283.3333333333333</ele><time>2026-04-30T15:48:28.095Z</time></trkpt><trkpt lat="42.2683939" lon="12.0241266"><ele>284.66666666666663</ele><time>2026-04-30T15:48:31.073Z</time></trkpt><trkpt lat="42.2683184" lon="12.0241293"><ele>286.0</ele><time>2026-04-30T15:48:34.068Z</time></trkpt><trkpt lat="42.2682334" lon="12.0241283"><ele>286.0</ele><time>2026-04-30T15:48:37.086Z</time></trkpt><trkpt lat="42.2681516" lon="12.0241296"><ele>286.0</ele><time>2026-04-30T15:48:40.079Z</time></trkpt><trkpt lat="42.268063" lon="12.0241425"><ele>286.0</ele><time>2026-04-30T15:48:43.083Z</time></trkpt><trkpt lat="42.2679944" lon="12.0241388"><ele>286.0</ele><time>2026-04-30T15:48:46.093Z</time></trkpt><trkpt lat="42.2679239" lon="12.0241285"><ele>286.0</ele><time>2026-04-30T15:48:49.072Z</time></trkpt><trkpt lat="42.2678617" lon="12.0241056"><ele>286.0</ele><time>2026-04-30T15:48:52.056Z</time></trkpt><trkpt lat="42.2677789" lon="12.0240808"><ele>286.16666666666663</ele><time>2026-04-30T15:48:56.081Z</time></trkpt><trkpt lat="42.2677138" lon="12.0240585"><ele>286.3333333333333</ele><time>2026-04-30T15:48:59.078Z</time></trkpt><trkpt lat="42.2676352" lon="12.0240361"><ele>286.5</ele><time>2026-04-30T15:49:03.082Z</time></trkpt><trkpt lat="42.2675595" lon="12.0240097"><ele>286.6666666666667</ele><time>2026-04-30T15:49:07.111Z</time></trkpt><trkpt lat="42.2674804" lon="12.023984"><ele>286.83333333333337</ele><time>2026-04-30T15:49:11.079Z</time></trkpt><trkpt lat="42.2674033" lon="12.0239569"><ele>287.0</ele><time>2026-04-30T15:49:15.076Z</time></trkpt><trkpt lat="42.267329" lon="12.0239414"><ele>287.14285714285717</ele><time>2026-04-30T15:49:19.079Z</time></trkpt><trkpt lat="42.2672629" lon="12.0239272"><ele>287.2857142857143</ele><time>2026-04-30T15:49:23.066Z</time></trkpt><trkpt lat="42.267189" lon="12.0239216"><ele>287.42857142857144</ele><time>2026-04-30T15:49:28.101Z</time></trkpt><trkpt lat="42.2671254" lon="12.0239268"><ele>287.57142857142856</ele><time>2026-04-30T15:49:32.08Z</time></trkpt><trkpt lat="42.267062" lon="12.0239313"><ele>287.7142857142857</ele><time>2026-04-30T15:49:36.074Z</time></trkpt><trkpt lat="42.2669953" lon="12.0239207"><ele>287.8571428571429</ele><time>2026-04-30T15:49:40.085Z</time></trkpt><trkpt lat="42.2669256" lon="12.0239212"><ele>288.0</ele><time>2026-04-30T15:49:44.067Z</time></trkpt><trkpt lat="42.2668462" lon="12.0239096"><ele>288.0</ele><time>2026-04-30T15:49:48.06Z</time></trkpt><trkpt lat="42.266769" lon="12.0238986"><ele>288.0</ele><time>2026-04-30T15:49:51.065Z</time></trkpt><trkpt lat="42.2666776" lon="12.0238916"><ele>288.0</ele><time>2026-04-30T15:49:54.082Z</time></trkpt><trkpt lat="42.2665832" lon="12.0238912"><ele>288.0</ele><time>2026-04-30T15:49:57.056Z</time></trkpt><trkpt lat="42.2665195" lon="12.0238919"><ele>288.0</ele><time>2026-04-30T15:49:59.07Z</time></trkpt><trkpt lat="42.2664251" lon="12.0238965"><ele>288.0</ele><time>2026-04-30T15:50:02.076Z</time></trkpt><trkpt lat="42.2663328" lon="12.023886"><ele>288.14285714285717</ele><time>2026-04-30T15:50:05.085Z</time></trkpt><trkpt lat="42.2662625" lon="12.0238922"><ele>288.2857142857143</ele><time>2026-04-30T15:50:07.08Z</time></trkpt><trkpt lat="42.2661931" lon="12.0238911"><ele>288.42857142857144</ele><time>2026-04-30T15:50:09.062Z</time></trkpt><trkpt lat="42.2661238" lon="12.0238838"><ele>288.57142857142856</ele><time>2026-04-30T15:50:11.085Z</time></trkpt><trkpt lat="42.2660585" lon="12.0238911"><ele>288.7142857142857</ele><time>2026-04-30T15:50:13.088Z</time></trkpt><trkpt lat="42.2659969" lon="12.0239173"><ele>288.8571428571429</ele><time>2026-04-30T15:50:15.08Z</time></trkpt><trkpt lat="42.2659475" lon="12.0239828"><ele>289.0</ele><time>2026-04-30T15:50:17.092Z</time></trkpt><trkpt lat="42.2659192" lon="12.024064"><ele>289.14285714285717</ele><time>2026-04-30T15:50:19.074Z</time></trkpt><trkpt lat="42.265903" lon="12.0241548"><ele>289.2857142857143</ele><time>2026-04-30T15:50:21.095Z</time></trkpt><trkpt lat="42.2658816" lon="12.0242413"><ele>289.42857142857144</ele><time>2026-04-30T15:50:23.069Z</time></trkpt><trkpt lat="42.2658599" lon="12.0243322"><ele>289.57142857142856</ele><time>2026-04-30T15:50:25.071Z</time></trkpt><trkpt lat="42.2658402" lon="12.0244217"><ele>289.7142857142857</ele><time>2026-04-30T15:50:27.073Z</time></trkpt><trkpt lat="42.2658187" lon="12.0245114"><ele>289.8571428571429</ele><time>2026-04-30T15:50:29.085Z</time></trkpt><trkpt lat="42.265801" lon="12.0246086"><ele>290.0</ele><time>2026-04-30T15:50:31.08Z</time></trkpt><trkpt lat="42.2657717" lon="12.0247088"><ele>290.0</ele><time>2026-04-30T15:50:33.058Z</time></trkpt><trkpt lat="42.2657537" lon="12.0247986"><ele>290.0</ele><time>2026-04-30T15:50:35.089Z</time></trkpt><trkpt lat="42.2657372" lon="12.0249013"><ele>290.0</ele><time>2026-04-30T15:50:37.066Z</time></trkpt><trkpt lat="42.2657125" lon="12.0250049"><ele>290.0</ele><time>2026-04-30T15:50:39.062Z</time></trkpt><trkpt lat="42.265682" lon="12.0251079"><ele>290.0</ele><time>2026-04-30T15:50:41.077Z</time></trkpt><trkpt lat="42.2656524" lon="12.0252147"><ele>290.0</ele><time>2026-04-30T15:50:43.097Z</time></trkpt><trkpt lat="42.2656314" lon="12.0253269"><ele>290.1666666666667</ele><time>2026-04-30T15:50:45.091Z</time></trkpt><trkpt lat="42.2656019" lon="12.0254328"><ele>290.33333333333337</ele><time>2026-04-30T15:50:47.073Z</time></trkpt><trkpt lat="42.2655727" lon="12.0255391"><ele>290.5</ele><time>2026-04-30T15:50:49.081Z</time></trkpt><trkpt lat="42.2655412" lon="12.0256373"><ele>290.6666666666667</ele><time>2026-04-30T15:50:51.068Z</time></trkpt><trkpt lat="42.2655188" lon="12.0257321"><ele>290.8333333333333</ele><time>2026-04-30T15:50:53.074Z</time></trkpt><trkpt lat="42.2654905" lon="12.0258409"><ele>291.0</ele><time>2026-04-30T15:50:55.084Z</time></trkpt><trkpt lat="42.2654722" lon="12.0259406"><ele>291.0</ele><time>2026-04-30T15:50:57.1Z</time></trkpt><trkpt lat="42.2654468" lon="12.026048"><ele>291.0</ele><time>2026-04-30T15:50:59.086Z</time></trkpt><trkpt lat="42.2654226" lon="12.0261494"><ele>291.0</ele><time>2026-04-30T15:51:01.077Z</time></trkpt><trkpt lat="42.2653937" lon="12.0262462"><ele>291.0</ele><time>2026-04-30T15:51:03.089Z</time></trkpt><trkpt lat="42.2653606" lon="12.02635"><ele>291.0</ele><time>2026-04-30T15:51:05.074Z</time></trkpt><trkpt lat="42.265331" lon="12.026452"><ele>291.0</ele><time>2026-04-30T15:51:07.06Z</time></trkpt><trkpt lat="42.2653057" lon="12.0265521"><ele>291.1666666666667</ele><time>2026-04-30T15:51:09.058Z</time></trkpt><trkpt lat="42.265284" lon="12.0266567"><ele>291.3333333333333</ele><time>2026-04-30T15:51:11.059Z</time></trkpt><trkpt lat="42.2652544" lon="12.0267629"><ele>291.5</ele><time>2026-04-30T15:51:13.068Z</time></trkpt><trkpt lat="42.2652277" lon="12.0268624"><ele>291.66666666666663</ele><time>2026-04-30T15:51:15.085Z</time></trkpt><trkpt lat="42.2652031" lon="12.0269598"><ele>291.8333333333333</ele><time>2026-04-30T15:51:17.069Z</time></trkpt><trkpt lat="42.2651752" lon="12.027064"><ele>292.0</ele><time>2026-04-30T15:51:19.069Z</time></trkpt><trkpt lat="42.2651528" lon="12.0271593"><ele>292.0</ele><time>2026-04-30T15:51:21.065Z</time></trkpt><trkpt lat="42.265131" lon="12.0272543"><ele>292.0</ele><time>2026-04-30T15:51:23.096Z</time></trkpt><trkpt lat="42.2651094" lon="12.0273463"><ele>292.0</ele><time>2026-04-30T15:51:25.066Z</time></trkpt><trkpt lat="42.2650874" lon="12.0274431"><ele>292.0</ele><time>2026-04-30T15:51:27.095Z</time></trkpt><trkpt lat="42.2650644" lon="12.0275314"><ele>292.0</ele><time>2026-04-30T15:51:29.061Z</time></trkpt><trkpt lat="42.2650424" lon="12.027619"><ele>292.0</ele><time>2026-04-30T15:51:31.069Z</time></trkpt><trkpt lat="42.2650197" lon="12.0277048"><ele>292.0</ele><time>2026-04-30T15:51:33.076Z</time></trkpt><trkpt lat="42.2649944" lon="12.0277969"><ele>292.16666666666663</ele><time>2026-04-30T15:51:35.073Z</time></trkpt><trkpt lat="42.2649742" lon="12.0278777"><ele>292.3333333333333</ele><time>2026-04-30T15:51:37.088Z</time></trkpt><trkpt lat="42.2649377" lon="12.0279938"><ele>292.5</ele><time>2026-04-30T15:51:40.075Z</time></trkpt><trkpt lat="42.2649173" lon="12.0280787"><ele>292.6666666666667</ele><time>2026-04-30T15:51:42.071Z</time></trkpt><trkpt lat="42.2648827" lon="12.0281994"><ele>292.83333333333337</ele><time>2026-04-30T15:51:45.092Z</time></trkpt><trkpt lat="42.264864" lon="12.0282889"><ele>293.0</ele><time>2026-04-30T15:51:47.085Z</time></trkpt><trkpt lat="42.2648343" lon="12.0284067"><ele>293.1666666666667</ele><time>2026-04-30T15:51:50.073Z</time></trkpt><trkpt lat="42.264799" lon="12.0285157"><ele>293.33333333333337</ele><time>2026-04-30T15:51:53.074Z</time></trkpt><trkpt lat="42.2647714" lon="12.0286348"><ele>293.5</ele><time>2026-04-30T15:51:56.087Z</time></trkpt><trkpt lat="42.2647494" lon="12.0287327"><ele>293.6666666666667</ele><time>2026-04-30T15:51:58.073Z</time></trkpt><trkpt lat="42.2647316" lon="12.0288305"><ele>293.8333333333333</ele><time>2026-04-30T15:52:00.074Z</time></trkpt><trkpt lat="42.2647063" lon="12.028912"><ele>294.0</ele><time>2026-04-30T15:52:02.064Z</time></trkpt><trkpt lat="42.2646829" lon="12.0289941"><ele>294.0</ele><time>2026-04-30T15:52:04.073Z</time></trkpt><trkpt lat="42.2646548" lon="12.0291046"><ele>294.0</ele><time>2026-04-30T15:52:07.08Z</time></trkpt><trkpt lat="42.2646297" lon="12.0292163"><ele>294.0</ele><time>2026-04-30T15:52:10.079Z</time></trkpt><trkpt lat="42.264606" lon="12.0293195"><ele>294.0</ele><time>2026-04-30T15:52:13.067Z</time></trkpt><trkpt lat="42.2645798" lon="12.0294294"><ele>294.0</ele><time>2026-04-30T15:52:16.09Z</time></trkpt><trkpt lat="42.2645542" lon="12.0295406"><ele>294.0</ele><time>2026-04-30T15:52:19.075Z</time></trkpt><trkpt lat="42.2645256" lon="12.0296642"><ele>294.2857142857143</ele><time>2026-04-30T15:52:22.078Z</time></trkpt><trkpt lat="42.2645062" lon="12.029747"><ele>294.57142857142856</ele><time>2026-04-30T15:52:24.084Z</time></trkpt><trkpt lat="42.2644786" lon="12.0298591"><ele>294.8571428571429</ele><time>2026-04-30T15:52:27.085Z</time></trkpt><trkpt lat="42.264447" lon="12.0299751"><ele>295.1428571428571</ele><time>2026-04-30T15:52:30.091Z</time></trkpt><trkpt lat="42.2644283" lon="12.0300581"><ele>295.42857142857144</ele><time>2026-04-30T15:52:32.08Z</time></trkpt><trkpt lat="42.2644089" lon="12.0301405"><ele>295.7142857142857</ele><time>2026-04-30T15:52:34.071Z</time></trkpt><trkpt lat="42.2643874" lon="12.0302218"><ele>296.0</ele><time>2026-04-30T15:52:36.054Z</time></trkpt><trkpt lat="42.264372" lon="12.0303096"><ele>296.33333333333337</ele><time>2026-04-30T15:52:38.08Z</time></trkpt><trkpt lat="42.2643407" lon="12.0304223"><ele>296.6666666666667</ele><time>2026-04-30T15:52:41.054Z</time></trkpt><trkpt lat="42.2643149" lon="12.0305169"><ele>297.0</ele><time>2026-04-30T15:52:44.083Z</time></trkpt><trkpt lat="42.2642887" lon="12.0306009"><ele>297.3333333333333</ele><time>2026-04-30T15:52:47.081Z</time></trkpt><trkpt lat="42.2642548" lon="12.0306978"><ele>297.66666666666663</ele><time>2026-04-30T15:52:50.084Z</time></trkpt><trkpt lat="42.2642311" lon="12.0308004"><ele>298.0</ele><time>2026-04-30T15:52:53.073Z</time></trkpt><trkpt lat="42.2642056" lon="12.0309043"><ele>298.3333333333333</ele><time>2026-04-30T15:52:56.087Z</time></trkpt><trkpt lat="42.2641702" lon="12.0310205"><ele>298.66666666666663</ele><time>2026-04-30T15:52:59.068Z</time></trkpt><trkpt lat="42.264138" lon="12.0311296"><ele>299.0</ele><time>2026-04-30T15:53:02.049Z</time></trkpt><trkpt lat="42.2641067" lon="12.0312184"><ele>299.3333333333333</ele><time>2026-04-30T15:53:05.048Z</time></trkpt><trkpt lat="42.2640619" lon="12.0313066"><ele>299.6666666666667</ele><time>2026-04-30T15:53:08.049Z</time></trkpt><trkpt lat="42.2640467" lon="12.0314239"><ele>300.0</ele><time>2026-04-30T15:53:12.068Z</time></trkpt><trkpt lat="42.2640248" lon="12.0315041"><ele>299.99999999999994</ele><time>2026-04-30T15:53:15.067Z</time></trkpt><trkpt lat="42.2639959" lon="12.0315921"><ele>300.0</ele><time>2026-04-30T15:53:18.053Z</time></trkpt><trkpt lat="42.2639619" lon="12.0316782"><ele>300.0</ele><time>2026-04-30T15:53:21.07Z</time></trkpt><trkpt lat="42.263929" lon="12.0317623"><ele>300.0</ele><time>2026-04-30T15:53:24.07Z</time></trkpt><trkpt lat="42.2638925" lon="12.0318407"><ele>300.0</ele><time>2026-04-30T15:53:27.071Z</time></trkpt><trkpt lat="42.2638473" lon="12.0319298"><ele>299.99999999999994</ele><time>2026-04-30T15:53:30.058Z</time></trkpt><trkpt lat="42.2638092" lon="12.0320148"><ele>300.0</ele><time>2026-04-30T15:53:33.063Z</time></trkpt><trkpt lat="42.2637559" lon="12.0321182"><ele>300.3333333333333</ele><time>2026-04-30T15:53:37.069Z</time></trkpt><trkpt lat="42.2637321" lon="12.0322321"><ele>300.6666666666667</ele><time>2026-04-30T15:53:40.059Z</time></trkpt><trkpt lat="42.2636876" lon="12.0322989"><ele>301.0</ele><time>2026-04-30T15:53:42.052Z</time></trkpt><trkpt lat="42.2636418" lon="12.0323627"><ele>301.33333333333337</ele><time>2026-04-30T15:53:44.055Z</time></trkpt><trkpt lat="42.2636027" lon="12.0324616"><ele>301.6666666666667</ele><time>2026-04-30T15:53:47.056Z</time></trkpt><trkpt lat="42.2635648" lon="12.0325756"><ele>302.0</ele><time>2026-04-30T15:53:51.057Z</time></trkpt><trkpt lat="42.2635227" lon="12.0326525"><ele>302.5</ele><time>2026-04-30T15:53:54.061Z</time></trkpt><trkpt lat="42.2634856" lon="12.03274"><ele>303.0</ele><time>2026-04-30T15:53:57.067Z</time></trkpt><trkpt lat="42.2634451" lon="12.0328377"><ele>303.5</ele><time>2026-04-30T15:54:00.065Z</time></trkpt><trkpt lat="42.2634092" lon="12.0329183"><ele>304.0</ele><time>2026-04-30T15:54:03.067Z</time></trkpt><trkpt lat="42.2633705" lon="12.0330081"><ele>304.5</ele><time>2026-04-30T15:54:06.082Z</time></trkpt><trkpt lat="42.2633299" lon="12.0330969"><ele>305.0</ele><time>2026-04-30T15:54:09.076Z</time></trkpt><trkpt lat="42.2632874" lon="12.0331825"><ele>305.0</ele><time>2026-04-30T15:54:12.064Z</time></trkpt><trkpt lat="42.2632305" lon="12.0332547"><ele>305.0</ele><time>2026-04-30T15:54:15.047Z</time></trkpt><trkpt lat="42.2631745" lon="12.0333448"><ele>305.0</ele><time>2026-04-30T15:54:19.068Z</time></trkpt><trkpt lat="42.2631308" lon="12.0334225"><ele>305.0</ele><time>2026-04-30T15:54:22.047Z</time></trkpt><trkpt lat="42.2631108" lon="12.0335037"><ele>305.0</ele><time>2026-04-30T15:54:25.076Z</time></trkpt><trkpt lat="42.2630756" lon="12.0336203"><ele>305.0</ele><time>2026-04-30T15:54:28.06Z</time></trkpt><trkpt lat="42.2630445" lon="12.0337149"><ele>305.0</ele><time>2026-04-30T15:54:31.066Z</time></trkpt><trkpt lat="42.2630173" lon="12.0338001"><ele>305.0</ele><time>2026-04-30T15:54:34.057Z</time></trkpt><trkpt lat="42.2629997" lon="12.0338883"><ele>305.0</ele><time>2026-04-30T15:54:37.069Z</time></trkpt><trkpt lat="42.2629671" lon="12.0339923"><ele>305.0</ele><time>2026-04-30T15:54:40.067Z</time></trkpt><trkpt lat="42.2629107" lon="12.0340789"><ele>305.0</ele><time>2026-04-30T15:54:43.075Z</time></trkpt><trkpt lat="42.2628746" lon="12.0341494"><ele>305.0</ele><time>2026-04-30T15:54:45.069Z</time></trkpt><trkpt lat="42.2628245" lon="12.0342649"><ele>305.0</ele><time>2026-04-30T15:54:48.059Z</time></trkpt><trkpt lat="42.2627816" lon="12.0343632"><ele>305.0</ele><time>2026-04-30T15:54:50.064Z</time></trkpt><trkpt lat="42.2627456" lon="12.0344642"><ele>305.0</ele><time>2026-04-30T15:54:52.063Z</time></trkpt><trkpt lat="42.2626933" lon="12.0345934"><ele>305.0</ele><time>2026-04-30T15:54:54.046Z</time></trkpt><trkpt lat="42.2626344" lon="12.0347469"><ele>305.0</ele><time>2026-04-30T15:54:56.069Z</time></trkpt><trkpt lat="42.2626092" lon="12.0348292"><ele>305.0</ele><time>2026-04-30T15:54:57.071Z</time></trkpt><trkpt lat="42.2625839" lon="12.0349187"><ele>305.0</ele><time>2026-04-30T15:54:58.075Z</time></trkpt><trkpt lat="42.2625517" lon="12.0350069"><ele>305.0</ele><time>2026-04-30T15:54:59.065Z</time></trkpt><trkpt lat="42.2625232" lon="12.0350867"><ele>305.0</ele><time>2026-04-30T15:55:00.065Z</time></trkpt><trkpt lat="42.2624656" lon="12.0352268"><ele>305.0</ele><time>2026-04-30T15:55:02.067Z</time></trkpt><trkpt lat="42.2624156" lon="12.0353631"><ele>305.0</ele><time>2026-04-30T15:55:04.058Z</time></trkpt><trkpt lat="42.2623386" lon="12.0355193"><ele>305.33333333333337</ele><time>2026-04-30T15:55:07.059Z</time></trkpt><trkpt lat="42.2623151" lon="12.0356261"><ele>305.6666666666667</ele><time>2026-04-30T15:55:10.057Z</time></trkpt><trkpt lat="42.2622618" lon="12.0357235"><ele>306.0</ele><time>2026-04-30T15:55:14.082Z</time></trkpt><trkpt lat="42.2622011" lon="12.0357843"><ele>306.3333333333333</ele><time>2026-04-30T15:55:17.072Z</time></trkpt><trkpt lat="42.262137" lon="12.0357675"><ele>306.66666666666663</ele><time>2026-04-30T15:55:20.054Z</time></trkpt><trkpt lat="42.2620629" lon="12.0357049"><ele>307.0</ele><time>2026-04-30T15:55:23.078Z</time></trkpt><trkpt lat="42.2619998" lon="12.0356483"><ele>307.0</ele><time>2026-04-30T15:55:25.08Z</time></trkpt><trkpt lat="42.2619318" lon="12.0355989"><ele>307.0</ele><time>2026-04-30T15:55:27.084Z</time></trkpt><trkpt lat="42.261879" lon="12.0355436"><ele>307.0</ele><time>2026-04-30T15:55:29.072Z</time></trkpt><trkpt lat="42.2618101" lon="12.035474"><ele>307.0</ele><time>2026-04-30T15:55:32.071Z</time></trkpt><trkpt lat="42.2617325" lon="12.03542"><ele>307.0</ele><time>2026-04-30T15:55:35.083Z</time></trkpt><trkpt lat="42.2616834" lon="12.0353656"><ele>307.0</ele><time>2026-04-30T15:55:38.086Z</time></trkpt><trkpt lat="42.2616191" lon="12.0353102"><ele>306.99999999999994</ele><time>2026-04-30T15:55:41.067Z</time></trkpt><trkpt lat="42.2615567" lon="12.0352482"><ele>307.0</ele><time>2026-04-30T15:55:44.078Z</time></trkpt><trkpt lat="42.261499" lon="12.0352025"><ele>307.0</ele><time>2026-04-30T15:55:47.071Z</time></trkpt><trkpt lat="42.2614431" lon="12.0351547"><ele>307.0</ele><time>2026-04-30T15:55:51.061Z</time></trkpt><trkpt lat="42.2613797" lon="12.0351"><ele>307.0</ele><time>2026-04-30T15:55:58.085Z</time></trkpt><trkpt lat="42.2613183" lon="12.0350442"><ele>306.99999999999994</ele><time>2026-04-30T15:56:06.067Z</time></trkpt><trkpt lat="42.2612658" lon="12.0349968"><ele>307.0</ele><time>2026-04-30T15:56:11.085Z</time></trkpt><trkpt lat="42.2612122" lon="12.0349504"><ele>306.8333333333333</ele><time>2026-04-30T15:56:15.078Z</time></trkpt><trkpt lat="42.2611465" lon="12.0348817"><ele>306.66666666666663</ele><time>2026-04-30T15:56:19.085Z</time></trkpt><trkpt lat="42.2610891" lon="12.0348412"><ele>306.5</ele><time>2026-04-30T15:56:22.09Z</time></trkpt><trkpt lat="42.2610346" lon="12.0347888"><ele>306.3333333333333</ele><time>2026-04-30T15:56:25.073Z</time></trkpt><trkpt lat="42.2609521" lon="12.0347086"><ele>306.1666666666667</ele><time>2026-04-30T15:56:30.067Z</time></trkpt><trkpt lat="42.2608936" lon="12.0346541"><ele>306.0</ele><time>2026-04-30T15:56:34.068Z</time></trkpt><trkpt lat="42.2608376" lon="12.0345997"><ele>306.0</ele><time>2026-04-30T15:56:38.218Z</time></trkpt><trkpt lat="42.260783" lon="12.0345456"><ele>306.0</ele><time>2026-04-30T15:56:42.081Z</time></trkpt><trkpt lat="42.2607256" lon="12.0345039"><ele>306.0</ele><time>2026-04-30T15:56:45.079Z</time></trkpt><trkpt lat="42.2606608" lon="12.0344673"><ele>306.0</ele><time>2026-04-30T15:56:48.084Z</time></trkpt><trkpt lat="42.2606073" lon="12.034407"><ele>306.0</ele><time>2026-04-30T15:56:51.091Z</time></trkpt><trkpt lat="42.2605442" lon="12.0343476"><ele>306.0</ele><time>2026-04-30T15:56:54.073Z</time></trkpt><trkpt lat="42.2604887" lon="12.034303"><ele>306.0</ele><time>2026-04-30T15:56:56.083Z</time></trkpt><trkpt lat="42.2604186" lon="12.0342353"><ele>306.1666666666667</ele><time>2026-04-30T15:56:59.079Z</time></trkpt><trkpt lat="42.2603417" lon="12.0341708"><ele>306.3333333333333</ele><time>2026-04-30T15:57:02.081Z</time></trkpt><trkpt lat="42.2602597" lon="12.0341081"><ele>306.5</ele><time>2026-04-30T15:57:05.082Z</time></trkpt><trkpt lat="42.2601844" lon="12.0340378"><ele>306.66666666666663</ele><time>2026-04-30T15:57:08.082Z</time></trkpt><trkpt lat="42.2601292" lon="12.0339949"><ele>306.8333333333333</ele><time>2026-04-30T15:57:10.083Z</time></trkpt><trkpt lat="42.2600768" lon="12.0339424"><ele>307.0</ele><time>2026-04-30T15:57:12.067Z</time></trkpt><trkpt lat="42.2600214" lon="12.0338922"><ele>306.99999999999994</ele><time>2026-04-30T15:57:14.07Z</time></trkpt><trkpt lat="42.2599693" lon="12.0338364"><ele>307.0</ele><time>2026-04-30T15:57:16.108Z</time></trkpt><trkpt lat="42.259907" lon="12.0337731"><ele>307.0</ele><time>2026-04-30T15:57:19.073Z</time></trkpt><trkpt lat="42.259845" lon="12.0338031"><ele>307.0</ele><time>2026-04-30T15:57:22.065Z</time></trkpt><trkpt lat="42.2598119" lon="12.0338957"><ele>307.0</ele><time>2026-04-30T15:57:25.067Z</time></trkpt><trkpt lat="42.2597786" lon="12.0340077"><ele>306.99999999999994</ele><time>2026-04-30T15:57:28.091Z</time></trkpt><trkpt lat="42.2597546" lon="12.034095"><ele>307.0</ele><time>2026-04-30T15:57:30.069Z</time></trkpt><trkpt lat="42.2597278" lon="12.0341897"><ele>306.99999999999994</ele><time>2026-04-30T15:57:32.078Z</time></trkpt><trkpt lat="42.259707" lon="12.0342788"><ele>307.0</ele><time>2026-04-30T15:57:34.082Z</time></trkpt><trkpt lat="42.2596832" lon="12.0343675"><ele>307.0</ele><time>2026-04-30T15:57:36.099Z</time></trkpt><trkpt lat="42.2596586" lon="12.034457"><ele>307.0</ele><time>2026-04-30T15:57:38.081Z</time></trkpt><trkpt lat="42.2596389" lon="12.034558"><ele>307.0</ele><time>2026-04-30T15:57:40.087Z</time></trkpt><trkpt lat="42.259618" lon="12.0346564"><ele>306.99999999999994</ele><time>2026-04-30T15:57:42.077Z</time></trkpt><trkpt lat="42.2595964" lon="12.0347545"><ele>307.0</ele><time>2026-04-30T15:57:44.069Z</time></trkpt><trkpt lat="42.2595715" lon="12.0348548"><ele>307.0</ele><time>2026-04-30T15:57:46.061Z</time></trkpt><trkpt lat="42.2595481" lon="12.0349574"><ele>307.0</ele><time>2026-04-30T15:57:48.094Z</time></trkpt><trkpt lat="42.259515" lon="12.0350585"><ele>307.0</ele><time>2026-04-30T15:57:50.082Z</time></trkpt><trkpt lat="42.2594887" lon="12.035157"><ele>307.0</ele><time>2026-04-30T15:57:52.094Z</time></trkpt><trkpt lat="42.2594618" lon="12.035249"><ele>307.0</ele><time>2026-04-30T15:57:54.065Z</time></trkpt><trkpt lat="42.2594391" lon="12.035339"><ele>307.0</ele><time>2026-04-30T15:57:56.08Z</time></trkpt><trkpt lat="42.2594161" lon="12.0354258"><ele>307.1428571428571</ele><time>2026-04-30T15:57:58.084Z</time></trkpt><trkpt lat="42.2593943" lon="12.0355145"><ele>307.2857142857143</ele><time>2026-04-30T15:58:00.088Z</time></trkpt><trkpt lat="42.2593748" lon="12.0355992"><ele>307.42857142857144</ele><time>2026-04-30T15:58:02.078Z</time></trkpt><trkpt lat="42.2593522" lon="12.0356855"><ele>307.57142857142856</ele><time>2026-04-30T15:58:04.093Z</time></trkpt><trkpt lat="42.2593336" lon="12.0357744"><ele>307.7142857142857</ele><time>2026-04-30T15:58:06.07Z</time></trkpt><trkpt lat="42.2593112" lon="12.0358582"><ele>307.85714285714283</ele><time>2026-04-30T15:58:08.088Z</time></trkpt><trkpt lat="42.259293" lon="12.0359581"><ele>308.0</ele><time>2026-04-30T15:58:10.079Z</time></trkpt><trkpt lat="42.259274" lon="12.0360516"><ele>308.2857142857143</ele><time>2026-04-30T15:58:12.084Z</time></trkpt><trkpt lat="42.2592584" lon="12.0361511"><ele>308.57142857142856</ele><time>2026-04-30T15:58:14.092Z</time></trkpt><trkpt lat="42.2592358" lon="12.0362442"><ele>308.8571428571429</ele><time>2026-04-30T15:58:16.079Z</time></trkpt><trkpt lat="42.2592146" lon="12.0363371"><ele>309.1428571428571</ele><time>2026-04-30T15:58:18.091Z</time></trkpt><trkpt lat="42.2591838" lon="12.0364303"><ele>309.42857142857144</ele><time>2026-04-30T15:58:20.075Z</time></trkpt><trkpt lat="42.2591531" lon="12.0365176"><ele>309.7142857142857</ele><time>2026-04-30T15:58:22.079Z</time></trkpt><trkpt lat="42.2591027" lon="12.0365885"><ele>310.0</ele><time>2026-04-30T15:58:24.069Z</time></trkpt><trkpt lat="42.2590457" lon="12.0366558"><ele>310.0</ele><time>2026-04-30T15:58:26.075Z</time></trkpt><trkpt lat="42.2589867" lon="12.036728"><ele>310.0</ele><time>2026-04-30T15:58:28.07Z</time></trkpt><trkpt lat="42.2589159" lon="12.0367868"><ele>310.0</ele><time>2026-04-30T15:58:30.066Z</time></trkpt><trkpt lat="42.2588492" lon="12.0368458"><ele>310.0</ele><time>2026-04-30T15:58:32.071Z</time></trkpt><trkpt lat="42.2587816" lon="12.036896"><ele>310.0</ele><time>2026-04-30T15:58:34.08Z</time></trkpt><trkpt lat="42.2587117" lon="12.0369517"><ele>310.0</ele><time>2026-04-30T15:58:36.085Z</time></trkpt><trkpt lat="42.2586467" lon="12.0370137"><ele>310.0</ele><time>2026-04-30T15:58:38.075Z</time></trkpt><trkpt lat="42.2585861" lon="12.0370847"><ele>310.0</ele><time>2026-04-30T15:58:40.073Z</time></trkpt><trkpt lat="42.2585264" lon="12.0371623"><ele>310.0</ele><time>2026-04-30T15:58:42.089Z</time></trkpt><trkpt lat="42.2584753" lon="12.0372589"><ele>310.0</ele><time>2026-04-30T15:58:44.064Z</time></trkpt><trkpt lat="42.2584268" lon="12.0373688"><ele>310.0</ele><time>2026-04-30T15:58:46.057Z</time></trkpt><trkpt lat="42.2583762" lon="12.0374834"><ele>310.0</ele><time>2026-04-30T15:58:48.084Z</time></trkpt><trkpt lat="42.258326" lon="12.0376096"><ele>310.0</ele><time>2026-04-30T15:58:50.088Z</time></trkpt><trkpt lat="42.2582742" lon="12.0377365"><ele>310.0</ele><time>2026-04-30T15:58:52.081Z</time></trkpt><trkpt lat="42.2582223" lon="12.0378587"><ele>310.0</ele><time>2026-04-30T15:58:54.077Z</time></trkpt><trkpt lat="42.2581708" lon="12.0379845"><ele>310.0</ele><time>2026-04-30T15:58:56.09Z</time></trkpt><trkpt lat="42.2581213" lon="12.0381162"><ele>310.0</ele><time>2026-04-30T15:58:58.077Z</time></trkpt><trkpt lat="42.2580659" lon="12.0382394"><ele>310.4</ele><time>2026-04-30T15:59:00.106Z</time></trkpt><trkpt lat="42.2580113" lon="12.0383671"><ele>310.8</ele><time>2026-04-30T15:59:02.078Z</time></trkpt><trkpt lat="42.2579578" lon="12.0384884"><ele>311.2</ele><time>2026-04-30T15:59:04.084Z</time></trkpt><trkpt lat="42.2579056" lon="12.0386047"><ele>311.6</ele><time>2026-04-30T15:59:06.105Z</time></trkpt><trkpt lat="42.2578582" lon="12.0387127"><ele>312.0</ele><time>2026-04-30T15:59:08.09Z</time></trkpt><trkpt lat="42.2578146" lon="12.0388221"><ele>312.0</ele><time>2026-04-30T15:59:10.113Z</time></trkpt><trkpt lat="42.2577704" lon="12.0389228"><ele>312.0</ele><time>2026-04-30T15:59:12.072Z</time></trkpt><trkpt lat="42.2577247" lon="12.0390269"><ele>312.0</ele><time>2026-04-30T15:59:14.079Z</time></trkpt><trkpt lat="42.2576766" lon="12.0391351"><ele>312.0</ele><time>2026-04-30T15:59:16.078Z</time></trkpt><trkpt lat="42.2576352" lon="12.0392397"><ele>312.0</ele><time>2026-04-30T15:59:18.09Z</time></trkpt><trkpt lat="42.257589" lon="12.0393439"><ele>312.0</ele><time>2026-04-30T15:59:20.041Z</time></trkpt><trkpt lat="42.2575461" lon="12.0394418"><ele>312.1666666666667</ele><time>2026-04-30T15:59:22.072Z</time></trkpt><trkpt lat="42.2575043" lon="12.039543"><ele>312.3333333333333</ele><time>2026-04-30T15:59:24.084Z</time></trkpt><trkpt lat="42.2574596" lon="12.0396417"><ele>312.5</ele><time>2026-04-30T15:59:26.102Z</time></trkpt><trkpt lat="42.2574152" lon="12.0397419"><ele>312.66666666666663</ele><time>2026-04-30T15:59:28.085Z</time></trkpt><trkpt lat="42.2573758" lon="12.0398381"><ele>312.8333333333333</ele><time>2026-04-30T15:59:30.076Z</time></trkpt><trkpt lat="42.2573292" lon="12.0399347"><ele>313.0</ele><time>2026-04-30T15:59:32.083Z</time></trkpt><trkpt lat="42.2572902" lon="12.0400361"><ele>313.0</ele><time>2026-04-30T15:59:34.08Z</time></trkpt><trkpt lat="42.2572459" lon="12.0401314"><ele>313.0</ele><time>2026-04-30T15:59:36.077Z</time></trkpt><trkpt lat="42.2572078" lon="12.0402269"><ele>313.0</ele><time>2026-04-30T15:59:38.091Z</time></trkpt><trkpt lat="42.2571694" lon="12.0403198"><ele>313.0</ele><time>2026-04-30T15:59:40.069Z</time></trkpt><trkpt lat="42.2571378" lon="12.0404058"><ele>313.0</ele><time>2026-04-30T15:59:42.071Z</time></trkpt><trkpt lat="42.2571135" lon="12.0404959"><ele>313.0</ele><time>2026-04-30T15:59:44.092Z</time></trkpt><trkpt lat="42.2570935" lon="12.0405908"><ele>313.0</ele><time>2026-04-30T15:59:46.096Z</time></trkpt><trkpt lat="42.2570758" lon="12.040686"><ele>313.0</ele><time>2026-04-30T15:59:48.073Z</time></trkpt><trkpt lat="42.2570654" lon="12.0407768"><ele>313.0</ele><time>2026-04-30T15:59:50.075Z</time></trkpt><trkpt lat="42.2570634" lon="12.0408824"><ele>313.0</ele><time>2026-04-30T15:59:52.069Z</time></trkpt><trkpt lat="42.2570589" lon="12.040984"><ele>313.0</ele><time>2026-04-30T15:59:54.1Z</time></trkpt><trkpt lat="42.2570492" lon="12.0410823"><ele>313.0</ele><time>2026-04-30T15:59:56.086Z</time></trkpt><trkpt lat="42.2570399" lon="12.0412004"><ele>313.0</ele><time>2026-04-30T15:59:58.071Z</time></trkpt><trkpt lat="42.2570361" lon="12.041323"><ele>313.0</ele><time>2026-04-30T16:00:00.093Z</time></trkpt><trkpt lat="42.2570294" lon="12.0414506"><ele>313.0</ele><time>2026-04-30T16:00:02.073Z</time></trkpt><trkpt lat="42.2570203" lon="12.0415867"><ele>313.0</ele><time>2026-04-30T16:00:04.256Z</time></trkpt><trkpt lat="42.2570087" lon="12.0417279"><ele>313.0</ele><time>2026-04-30T16:00:06.088Z</time></trkpt><trkpt lat="42.2569968" lon="12.0418812"><ele>312.75</ele><time>2026-04-30T16:00:08.11Z</time></trkpt><trkpt lat="42.2569869" lon="12.0420346"><ele>312.5</ele><time>2026-04-30T16:00:10.086Z</time></trkpt><trkpt lat="42.2569807" lon="12.0421867"><ele>312.25</ele><time>2026-04-30T16:00:12.064Z</time></trkpt><trkpt lat="42.2569717" lon="12.0423437"><ele>312.0</ele><time>2026-04-30T16:00:14.081Z</time></trkpt><trkpt lat="42.2569602" lon="12.0425047"><ele>312.0</ele><time>2026-04-30T16:00:16.079Z</time></trkpt><trkpt lat="42.2569471" lon="12.0426627"><ele>312.0</ele><time>2026-04-30T16:00:18.094Z</time></trkpt><trkpt lat="42.2569326" lon="12.0428208"><ele>312.0</ele><time>2026-04-30T16:00:20.083Z</time></trkpt><trkpt lat="42.2569216" lon="12.0429844"><ele>312.0</ele><time>2026-04-30T16:00:22.084Z</time></trkpt><trkpt lat="42.2569072" lon="12.0431406"><ele>312.0</ele><time>2026-04-30T16:00:24.093Z</time></trkpt><trkpt lat="42.2568985" lon="12.0432933"><ele>312.0</ele><time>2026-04-30T16:00:26.07Z</time></trkpt><trkpt lat="42.2568852" lon="12.0434469"><ele>312.0</ele><time>2026-04-30T16:00:28.103Z</time></trkpt><trkpt lat="42.2568661" lon="12.0435949"><ele>312.0</ele><time>2026-04-30T16:00:30.073Z</time></trkpt><trkpt lat="42.2568563" lon="12.0437361"><ele>312.0</ele><time>2026-04-30T16:00:32.096Z</time></trkpt><trkpt lat="42.2568494" lon="12.043871"><ele>312.0</ele><time>2026-04-30T16:00:34.094Z</time></trkpt><trkpt lat="42.2568406" lon="12.0440064"><ele>312.0</ele><time>2026-04-30T16:00:36.083Z</time></trkpt><trkpt lat="42.2568318" lon="12.0441412"><ele>312.0</ele><time>2026-04-30T16:00:38.07Z</time></trkpt><trkpt lat="42.2568253" lon="12.0442672"><ele>312.0</ele><time>2026-04-30T16:00:40.105Z</time></trkpt><trkpt lat="42.2568178" lon="12.0444046"><ele>312.0</ele><time>2026-04-30T16:00:42.073Z</time></trkpt><trkpt lat="42.2568061" lon="12.0445421"><ele>312.4</ele><time>2026-04-30T16:00:44.085Z</time></trkpt><trkpt lat="42.2567986" lon="12.044675"><ele>312.79999999999995</ele><time>2026-04-30T16:00:46.058Z</time></trkpt><trkpt lat="42.2567917" lon="12.0448097"><ele>313.2</ele><time>2026-04-30T16:00:48.098Z</time></trkpt><trkpt lat="42.2567781" lon="12.0449415"><ele>313.59999999999997</ele><time>2026-04-30T16:00:50.09Z</time></trkpt><trkpt lat="42.2567684" lon="12.0450747"><ele>314.0</ele><time>2026-04-30T16:00:52.089Z</time></trkpt><trkpt lat="42.2567609" lon="12.0452023"><ele>314.2</ele><time>2026-04-30T16:00:54.103Z</time></trkpt><trkpt lat="42.2567547" lon="12.0453237"><ele>314.4</ele><time>2026-04-30T16:00:56.096Z</time></trkpt><trkpt lat="42.256744" lon="12.0454456"><ele>314.6</ele><time>2026-04-30T16:00:58.08Z</time></trkpt><trkpt lat="42.2567337" lon="12.045569"><ele>314.8</ele><time>2026-04-30T16:01:00.093Z</time></trkpt><trkpt lat="42.2567222" lon="12.0456907"><ele>315.0</ele><time>2026-04-30T16:01:02.083Z</time></trkpt><trkpt lat="42.2567135" lon="12.0458195"><ele>315.2</ele><time>2026-04-30T16:01:04.076Z</time></trkpt><trkpt lat="42.2566989" lon="12.0459519"><ele>315.4</ele><time>2026-04-30T16:01:06.108Z</time></trkpt><trkpt lat="42.2566883" lon="12.0460812"><ele>315.6</ele><time>2026-04-30T16:01:08.086Z</time></trkpt><trkpt lat="42.2566788" lon="12.0462123"><ele>315.8</ele><time>2026-04-30T16:01:10.09Z</time></trkpt><trkpt lat="42.2566683" lon="12.0463429"><ele>316.0</ele><time>2026-04-30T16:01:12.105Z</time></trkpt><trkpt lat="42.2566541" lon="12.0464694"><ele>316.0</ele><time>2026-04-30T16:01:14.092Z</time></trkpt><trkpt lat="42.2566442" lon="12.0465947"><ele>316.0</ele><time>2026-04-30T16:01:16.088Z</time></trkpt><trkpt lat="42.2566331" lon="12.0467167"><ele>316.0</ele><time>2026-04-30T16:01:18.08Z</time></trkpt><trkpt lat="42.2566264" lon="12.0468371"><ele>316.0</ele><time>2026-04-30T16:01:20.082Z</time></trkpt><trkpt lat="42.256612" lon="12.0469613"><ele>316.0</ele><time>2026-04-30T16:01:22.085Z</time></trkpt><trkpt lat="42.2566037" lon="12.0470784"><ele>316.0</ele><time>2026-04-30T16:01:24.082Z</time></trkpt><trkpt lat="42.2565999" lon="12.0471985"><ele>316.0</ele><time>2026-04-30T16:01:26.081Z</time></trkpt><trkpt lat="42.2565913" lon="12.0473176"><ele>316.0</ele><time>2026-04-30T16:01:28.087Z</time></trkpt><trkpt lat="42.2565847" lon="12.0474383"><ele>316.0</ele><time>2026-04-30T16:01:30.096Z</time></trkpt><trkpt lat="42.2565751" lon="12.0475534"><ele>316.0</ele><time>2026-04-30T16:01:32.071Z</time></trkpt><trkpt lat="42.2565654" lon="12.047671"><ele>316.0</ele><time>2026-04-30T16:01:34.082Z</time></trkpt><trkpt lat="42.256556" lon="12.0477917"><ele>316.0</ele><time>2026-04-30T16:01:36.06Z</time></trkpt><trkpt lat="42.2565432" lon="12.0479134"><ele>316.0</ele><time>2026-04-30T16:01:38.07Z</time></trkpt><trkpt lat="42.2565244" lon="12.0480338"><ele>316.0</ele><time>2026-04-30T16:01:40.087Z</time></trkpt><trkpt lat="42.2565128" lon="12.0481515"><ele>316.0</ele><time>2026-04-30T16:01:42.073Z</time></trkpt><trkpt lat="42.2564923" lon="12.0482729"><ele>316.0</ele><time>2026-04-30T16:01:44.074Z</time></trkpt><trkpt lat="42.2564764" lon="12.0483891"><ele>316.0</ele><time>2026-04-30T16:01:46.045Z</time></trkpt><trkpt lat="42.2564606" lon="12.0485033"><ele>316.0</ele><time>2026-04-30T16:01:48.067Z</time></trkpt><trkpt lat="42.2564445" lon="12.0486155"><ele>316.0</ele><time>2026-04-30T16:01:50.09Z</time></trkpt><trkpt lat="42.2564253" lon="12.0487325"><ele>316.0</ele><time>2026-04-30T16:01:52.068Z</time></trkpt><trkpt lat="42.2564042" lon="12.0488473"><ele>316.0</ele><time>2026-04-30T16:01:54.08Z</time></trkpt><trkpt lat="42.2563864" lon="12.0489596"><ele>316.0</ele><time>2026-04-30T16:01:56.077Z</time></trkpt><trkpt lat="42.2563666" lon="12.0490776"><ele>315.66666666666663</ele><time>2026-04-30T16:01:58.119Z</time></trkpt><trkpt lat="42.2563505" lon="12.0491957"><ele>315.3333333333333</ele><time>2026-04-30T16:02:00.1Z</time></trkpt><trkpt lat="42.2563331" lon="12.0493152"><ele>315.0</ele><time>2026-04-30T16:02:02.091Z</time></trkpt><trkpt lat="42.2563152" lon="12.0494278"><ele>314.6666666666667</ele><time>2026-04-30T16:02:04.083Z</time></trkpt><trkpt lat="42.2562975" lon="12.0495381"><ele>314.33333333333337</ele><time>2026-04-30T16:02:06.07Z</time></trkpt><trkpt lat="42.2562793" lon="12.0496492"><ele>314.0</ele><time>2026-04-30T16:02:08.081Z</time></trkpt><trkpt lat="42.2562622" lon="12.0497606"><ele>314.0</ele><time>2026-04-30T16:02:10.098Z</time></trkpt><trkpt lat="42.2562426" lon="12.049876"><ele>314.0</ele><time>2026-04-30T16:02:12.068Z</time></trkpt><trkpt lat="42.256224" lon="12.0499911"><ele>314.0</ele><time>2026-04-30T16:02:14.064Z</time></trkpt><trkpt lat="42.256204" lon="12.050103"><ele>314.0</ele><time>2026-04-30T16:02:16.062Z</time></trkpt><trkpt lat="42.2561862" lon="12.0502126"><ele>314.0</ele><time>2026-04-30T16:02:18.065Z</time></trkpt><trkpt lat="42.2561706" lon="12.0503196"><ele>314.0</ele><time>2026-04-30T16:02:20.081Z</time></trkpt><trkpt lat="42.2561534" lon="12.0504264"><ele>314.1666666666667</ele><time>2026-04-30T16:02:22.054Z</time></trkpt><trkpt lat="42.2561365" lon="12.050532"><ele>314.33333333333337</ele><time>2026-04-30T16:02:24.09Z</time></trkpt><trkpt lat="42.2561205" lon="12.0506321"><ele>314.5</ele><time>2026-04-30T16:02:26.058Z</time></trkpt><trkpt lat="42.2561052" lon="12.0507309"><ele>314.6666666666667</ele><time>2026-04-30T16:02:28.085Z</time></trkpt><trkpt lat="42.2560931" lon="12.0508334"><ele>314.8333333333333</ele><time>2026-04-30T16:02:30.076Z</time></trkpt><trkpt lat="42.2560775" lon="12.0509314"><ele>315.0</ele><time>2026-04-30T16:02:32.064Z</time></trkpt><trkpt lat="42.2560565" lon="12.0510222"><ele>315.3333333333333</ele><time>2026-04-30T16:02:34.064Z</time></trkpt><trkpt lat="42.2560417" lon="12.05111"><ele>315.6666666666667</ele><time>2026-04-30T16:02:36.071Z</time></trkpt><trkpt lat="42.2560159" lon="12.0512287"><ele>316.0</ele><time>2026-04-30T16:02:39.083Z</time></trkpt><trkpt lat="42.2559936" lon="12.0513101"><ele>316.33333333333337</ele><time>2026-04-30T16:02:41.071Z</time></trkpt><trkpt lat="42.2559703" lon="12.0514162"><ele>316.6666666666667</ele><time>2026-04-30T16:02:44.052Z</time></trkpt><trkpt lat="42.2559547" lon="12.051521"><ele>317.0</ele><time>2026-04-30T16:02:47.072Z</time></trkpt><trkpt lat="42.2559363" lon="12.0516235"><ele>317.0</ele><time>2026-04-30T16:02:50.077Z</time></trkpt><trkpt lat="42.2559185" lon="12.0517182"><ele>317.0</ele><time>2026-04-30T16:02:53.067Z</time></trkpt><trkpt lat="42.2559037" lon="12.0518143"><ele>317.0</ele><time>2026-04-30T16:02:56.07Z</time></trkpt><trkpt lat="42.2558898" lon="12.0519063"><ele>317.0</ele><time>2026-04-30T16:02:59.085Z</time></trkpt><trkpt lat="42.2558647" lon="12.0519953"><ele>317.0</ele><time>2026-04-30T16:03:02.088Z</time></trkpt><trkpt lat="42.2558606" lon="12.0521104"><ele>317.0</ele><time>2026-04-30T16:03:05.076Z</time></trkpt><trkpt lat="42.2558486" lon="12.0522088"><ele>317.0</ele><time>2026-04-30T16:03:07.076Z</time></trkpt><trkpt lat="42.2558411" lon="12.0523244"><ele>317.0</ele><time>2026-04-30T16:03:09.094Z</time></trkpt><trkpt lat="42.2558255" lon="12.0524287"><ele>317.0</ele><time>2026-04-30T16:03:11.088Z</time></trkpt><trkpt lat="42.2558123" lon="12.0525298"><ele>317.0</ele><time>2026-04-30T16:03:13.089Z</time></trkpt><trkpt lat="42.2557935" lon="12.0526351"><ele>317.0</ele><time>2026-04-30T16:03:15.074Z</time></trkpt><trkpt lat="42.2557784" lon="12.0527438"><ele>317.0</ele><time>2026-04-30T16:03:17.046Z</time></trkpt><trkpt lat="42.2557603" lon="12.0528491"><ele>317.0</ele><time>2026-04-30T16:03:19.077Z</time></trkpt><trkpt lat="42.2557473" lon="12.0529523"><ele>317.0</ele><time>2026-04-30T16:03:21.057Z</time></trkpt><trkpt lat="42.2557358" lon="12.0530465"><ele>317.0</ele><time>2026-04-30T16:03:23.079Z</time></trkpt><trkpt lat="42.2557141" lon="12.0531597"><ele>317.0</ele><time>2026-04-30T16:03:25.075Z</time></trkpt><trkpt lat="42.2556911" lon="12.0532804"><ele>317.0</ele><time>2026-04-30T16:03:27.089Z</time></trkpt><trkpt lat="42.2556719" lon="12.053404"><ele>317.0</ele><time>2026-04-30T16:03:29.089Z</time></trkpt><trkpt lat="42.2556457" lon="12.0535347"><ele>317.0</ele><time>2026-04-30T16:03:31.084Z</time></trkpt><trkpt lat="42.255621" lon="12.0536679"><ele>317.4</ele><time>2026-04-30T16:03:33.084Z</time></trkpt><trkpt lat="42.2555987" lon="12.053801"><ele>317.79999999999995</ele><time>2026-04-30T16:03:35.101Z</time></trkpt><trkpt lat="42.2555748" lon="12.0539328"><ele>318.2</ele><time>2026-04-30T16:03:37.075Z</time></trkpt><trkpt lat="42.2555568" lon="12.0540539"><ele>318.59999999999997</ele><time>2026-04-30T16:03:39.101Z</time></trkpt><trkpt lat="42.2555365" lon="12.0541631"><ele>319.0</ele><time>2026-04-30T16:03:41.081Z</time></trkpt><trkpt lat="42.2555198" lon="12.0542676"><ele>320.14285714285717</ele><time>2026-04-30T16:03:43.072Z</time></trkpt><trkpt lat="42.2554994" lon="12.0543651"><ele>321.2857142857143</ele><time>2026-04-30T16:03:45.085Z</time></trkpt><trkpt lat="42.2554769" lon="12.0544487"><ele>322.42857142857144</ele><time>2026-04-30T16:03:47.075Z</time></trkpt><trkpt lat="42.2554453" lon="12.0545277"><ele>323.57142857142856</ele><time>2026-04-30T16:03:49.085Z</time></trkpt><trkpt lat="42.2554075" lon="12.0546186"><ele>324.7142857142857</ele><time>2026-04-30T16:03:51.08Z</time></trkpt><trkpt lat="42.255362" lon="12.0547113"><ele>325.85714285714283</ele><time>2026-04-30T16:03:53.068Z</time></trkpt><trkpt lat="42.2553183" lon="12.0547869"><ele>327.0</ele><time>2026-04-30T16:03:55.095Z</time></trkpt><trkpt lat="42.2552749" lon="12.054854"><ele>327.0</ele><time>2026-04-30T16:03:57.091Z</time></trkpt><trkpt lat="42.255227" lon="12.0549135"><ele>327.0</ele><time>2026-04-30T16:04:00.077Z</time></trkpt><trkpt lat="42.2551827" lon="12.0549843"><ele>327.0</ele><time>2026-04-30T16:04:04.092Z</time></trkpt><trkpt lat="42.255125" lon="12.0550608"><ele>327.0</ele><time>2026-04-30T16:04:08.08Z</time></trkpt><trkpt lat="42.2550738" lon="12.0551203"><ele>327.0</ele><time>2026-04-30T16:04:11.083Z</time></trkpt><trkpt lat="42.2550178" lon="12.0551938"><ele>327.0</ele><time>2026-04-30T16:04:14.065Z</time></trkpt><trkpt lat="42.2549541" lon="12.0552763"><ele>327.0</ele><time>2026-04-30T16:04:17.079Z</time></trkpt><trkpt lat="42.2548874" lon="12.0553523"><ele>327.3333333333333</ele><time>2026-04-30T16:04:20.082Z</time></trkpt><trkpt lat="42.2548258" lon="12.0554297"><ele>327.6666666666667</ele><time>2026-04-30T16:04:23.072Z</time></trkpt><trkpt lat="42.2547658" lon="12.0555129"><ele>328.0</ele><time>2026-04-30T16:04:26.074Z</time></trkpt><trkpt lat="42.254707" lon="12.0555893"><ele>328.33333333333337</ele><time>2026-04-30T16:04:29.082Z</time></trkpt><trkpt lat="42.2546502" lon="12.0556624"><ele>328.6666666666667</ele><time>2026-04-30T16:04:32.078Z</time></trkpt><trkpt lat="42.2545836" lon="12.0557451"><ele>329.0</ele><time>2026-04-30T16:04:35.062Z</time></trkpt><trkpt lat="42.2545355" lon="12.0558016"><ele>329.0</ele><time>2026-04-30T16:04:37.064Z</time></trkpt><trkpt lat="42.2544907" lon="12.0558645"><ele>329.0</ele><time>2026-04-30T16:04:39.066Z</time></trkpt><trkpt lat="42.2544392" lon="12.0559233"><ele>329.0</ele><time>2026-04-30T16:04:41.074Z</time></trkpt><trkpt lat="42.2543948" lon="12.0559962"><ele>329.0</ele><time>2026-04-30T16:04:43.09Z</time></trkpt><trkpt lat="42.2543446" lon="12.0560601"><ele>329.0</ele><time>2026-04-30T16:04:45.076Z</time></trkpt><trkpt lat="42.2542925" lon="12.0561217"><ele>329.0</ele><time>2026-04-30T16:04:47.073Z</time></trkpt><trkpt lat="42.2542436" lon="12.0561835"><ele>329.0</ele><time>2026-04-30T16:04:49.081Z</time></trkpt><trkpt lat="42.254197" lon="12.0562461"><ele>329.0</ele><time>2026-04-30T16:04:51.082Z</time></trkpt><trkpt lat="42.2541507" lon="12.0563064"><ele>329.0</ele><time>2026-04-30T16:04:53.08Z</time></trkpt><trkpt lat="42.2541013" lon="12.0563736"><ele>329.0</ele><time>2026-04-30T16:04:55.073Z</time></trkpt><trkpt lat="42.2540494" lon="12.0564511"><ele>329.0</ele><time>2026-04-30T16:04:57.074Z</time></trkpt><trkpt lat="42.2539974" lon="12.0565236"><ele>329.0</ele><time>2026-04-30T16:04:59.095Z</time></trkpt><trkpt lat="42.253945" lon="12.0565988"><ele>329.0</ele><time>2026-04-30T16:05:01.08Z</time></trkpt><trkpt lat="42.2538892" lon="12.0566731"><ele>329.0</ele><time>2026-04-30T16:05:03.06Z</time></trkpt><trkpt lat="42.2538358" lon="12.0567493"><ele>329.7142857142857</ele><time>2026-04-30T16:05:05.084Z</time></trkpt><trkpt lat="42.2537824" lon="12.0568163"><ele>330.42857142857144</ele><time>2026-04-30T16:05:07.084Z</time></trkpt><trkpt lat="42.2537306" lon="12.0568791"><ele>331.1428571428571</ele><time>2026-04-30T16:05:09.094Z</time></trkpt><trkpt lat="42.2536802" lon="12.0569433"><ele>331.8571428571429</ele><time>2026-04-30T16:05:11.07Z</time></trkpt><trkpt lat="42.2536313" lon="12.057004"><ele>332.57142857142856</ele><time>2026-04-30T16:05:13.088Z</time></trkpt><trkpt lat="42.2535823" lon="12.0570593"><ele>333.2857142857143</ele><time>2026-04-30T16:05:15.079Z</time></trkpt><trkpt lat="42.2535304" lon="12.0571223"><ele>334.0</ele><time>2026-04-30T16:05:17.09Z</time></trkpt><trkpt lat="42.2534816" lon="12.0571847"><ele>334.0</ele><time>2026-04-30T16:05:19.077Z</time></trkpt><trkpt lat="42.2534319" lon="12.0572467"><ele>334.0</ele><time>2026-04-30T16:05:21.087Z</time></trkpt><trkpt lat="42.2533847" lon="12.0573054"><ele>334.0</ele><time>2026-04-30T16:05:23.083Z</time></trkpt><trkpt lat="42.2533269" lon="12.0573929"><ele>334.0</ele><time>2026-04-30T16:05:26.082Z</time></trkpt><trkpt lat="42.2532779" lon="12.0574665"><ele>334.0</ele><time>2026-04-30T16:05:29.091Z</time></trkpt><trkpt lat="42.2532285" lon="12.0575444"><ele>334.0</ele><time>2026-04-30T16:05:32.065Z</time></trkpt><trkpt lat="42.2531809" lon="12.057646"><ele>334.0</ele><time>2026-04-30T16:05:35.077Z</time></trkpt><trkpt lat="42.253128" lon="12.0577555"><ele>334.0</ele><time>2026-04-30T16:05:38.084Z</time></trkpt><trkpt lat="42.2530938" lon="12.0578326"><ele>334.0</ele><time>2026-04-30T16:05:40.076Z</time></trkpt><trkpt lat="42.2530673" lon="12.0579191"><ele>334.0</ele><time>2026-04-30T16:05:42.089Z</time></trkpt><trkpt lat="42.2530339" lon="12.058002"><ele>334.0</ele><time>2026-04-30T16:05:44.083Z</time></trkpt><trkpt lat="42.2530003" lon="12.0580855"><ele>334.0</ele><time>2026-04-30T16:05:46.077Z</time></trkpt><trkpt lat="42.2529647" lon="12.0581669"><ele>334.0</ele><time>2026-04-30T16:05:48.07Z</time></trkpt><trkpt lat="42.2529332" lon="12.0582483"><ele>335.57142857142856</ele><time>2026-04-30T16:05:50.07Z</time></trkpt><trkpt lat="42.2528966" lon="12.058328"><ele>337.14285714285717</ele><time>2026-04-30T16:05:52.069Z</time></trkpt><trkpt lat="42.2528694" lon="12.058407"><ele>338.7142857142857</ele><time>2026-04-30T16:05:54.079Z</time></trkpt><trkpt lat="42.2528356" lon="12.0584891"><ele>340.2857142857143</ele><time>2026-04-30T16:05:56.086Z</time></trkpt><trkpt lat="42.2527998" lon="12.0585915"><ele>341.85714285714283</ele><time>2026-04-30T16:05:59.065Z</time></trkpt><trkpt lat="42.2527558" lon="12.058679"><ele>343.42857142857144</ele><time>2026-04-30T16:06:03.086Z</time></trkpt><trkpt lat="42.25272" lon="12.0587706"><ele>345.0</ele><time>2026-04-30T16:06:06.074Z</time></trkpt><trkpt lat="42.2526808" lon="12.0588598"><ele>345.0</ele><time>2026-04-30T16:06:09.089Z</time></trkpt><trkpt lat="42.2526553" lon="12.0589407"><ele>345.0</ele><time>2026-04-30T16:06:12.085Z</time></trkpt><trkpt lat="42.2526158" lon="12.059029"><ele>345.0</ele><time>2026-04-30T16:06:15.092Z</time></trkpt><trkpt lat="42.2525776" lon="12.0591179"><ele>345.0</ele><time>2026-04-30T16:06:18.062Z</time></trkpt><trkpt lat="42.2525374" lon="12.0592118"><ele>345.0</ele><time>2026-04-30T16:06:21.078Z</time></trkpt><trkpt lat="42.2524868" lon="12.0592755"><ele>345.0</ele><time>2026-04-30T16:06:24.075Z</time></trkpt><trkpt lat="42.2524426" lon="12.0593648"><ele>345.0</ele><time>2026-04-30T16:06:28.086Z</time></trkpt><trkpt lat="42.2524113" lon="12.0594575"><ele>345.0</ele><time>2026-04-30T16:06:31.083Z</time></trkpt><trkpt lat="42.2523789" lon="12.0595365"><ele>345.0</ele><time>2026-04-30T16:06:33.105Z</time></trkpt><trkpt lat="42.2523419" lon="12.0596162"><ele>345.0</ele><time>2026-04-30T16:06:35.086Z</time></trkpt><trkpt lat="42.2523075" lon="12.0597053"><ele>345.0</ele><time>2026-04-30T16:06:37.09Z</time></trkpt><trkpt lat="42.2522537" lon="12.0597897"><ele>345.0</ele><time>2026-04-30T16:06:39.057Z</time></trkpt><trkpt lat="42.2521919" lon="12.0598549"><ele>345.0</ele><time>2026-04-30T16:06:41.091Z</time></trkpt><trkpt lat="42.2521261" lon="12.059921"><ele>343.6666666666667</ele><time>2026-04-30T16:06:43.093Z</time></trkpt><trkpt lat="42.2520578" lon="12.0599733"><ele>342.3333333333333</ele><time>2026-04-30T16:06:45.09Z</time></trkpt><trkpt lat="42.2519834" lon="12.0600271"><ele>341.0</ele><time>2026-04-30T16:06:47.084Z</time></trkpt><trkpt lat="42.2519001" lon="12.0600627"><ele>339.66666666666663</ele><time>2026-04-30T16:06:49.078Z</time></trkpt><trkpt lat="42.2518135" lon="12.0600902"><ele>338.3333333333333</ele><time>2026-04-30T16:06:51.06Z</time></trkpt><trkpt lat="42.2517231" lon="12.0601008"><ele>337.0</ele><time>2026-04-30T16:06:53.063Z</time></trkpt><trkpt lat="42.2516349" lon="12.0601125"><ele>337.0</ele><time>2026-04-30T16:06:55.067Z</time></trkpt><trkpt lat="42.2515467" lon="12.0601195"><ele>337.0</ele><time>2026-04-30T16:06:57.069Z</time></trkpt><trkpt lat="42.2514634" lon="12.0601326"><ele>337.0</ele><time>2026-04-30T16:06:59.069Z</time></trkpt><trkpt lat="42.2513768" lon="12.0601457"><ele>337.0</ele><time>2026-04-30T16:07:01.072Z</time></trkpt><trkpt lat="42.2512912" lon="12.0601544"><ele>337.0</ele><time>2026-04-30T16:07:03.064Z</time></trkpt><trkpt lat="42.2512032" lon="12.0601653"><ele>337.0</ele><time>2026-04-30T16:07:05.085Z</time></trkpt><trkpt lat="42.2511136" lon="12.0601819"><ele>338.0</ele><time>2026-04-30T16:07:07.077Z</time></trkpt><trkpt lat="42.2510256" lon="12.0601972"><ele>339.0</ele><time>2026-04-30T16:07:09.078Z</time></trkpt><trkpt lat="42.2509319" lon="12.0602098"><ele>340.0</ele><time>2026-04-30T16:07:11.089Z</time></trkpt><trkpt lat="42.2508433" lon="12.0602242"><ele>341.0</ele><time>2026-04-30T16:07:13.08Z</time></trkpt><trkpt lat="42.2507565" lon="12.0602409"><ele>342.0</ele><time>2026-04-30T16:07:15.073Z</time></trkpt><trkpt lat="42.250661" lon="12.060259"><ele>342.40000000000003</ele><time>2026-04-30T16:07:17.092Z</time></trkpt><trkpt lat="42.2505742" lon="12.0602698"><ele>342.8</ele><time>2026-04-30T16:07:19.073Z</time></trkpt><trkpt lat="42.2504875" lon="12.0602956"><ele>343.2</ele><time>2026-04-30T16:07:21.085Z</time></trkpt><trkpt lat="42.2503838" lon="12.0603209"><ele>343.6</ele><time>2026-04-30T16:07:23.079Z</time></trkpt><trkpt lat="42.2502717" lon="12.0603392"><ele>344.0</ele><time>2026-04-30T16:07:25.068Z</time></trkpt><trkpt lat="42.2501527" lon="12.0603601"><ele>344.00000000000006</ele><time>2026-04-30T16:07:27.088Z</time></trkpt><trkpt lat="42.2500873" lon="12.0603711"><ele>344.0</ele><time>2026-04-30T16:07:28.077Z</time></trkpt><trkpt lat="42.2500191" lon="12.0603818"><ele>344.0</ele><time>2026-04-30T16:07:29.072Z</time></trkpt><trkpt lat="42.2499482" lon="12.0603952"><ele>344.0</ele><time>2026-04-30T16:07:30.09Z</time></trkpt><trkpt lat="42.2498777" lon="12.0604139"><ele>344.0</ele><time>2026-04-30T16:07:31.094Z</time></trkpt><trkpt lat="42.2498047" lon="12.0604378"><ele>344.00000000000006</ele><time>2026-04-30T16:07:32.06Z</time></trkpt><trkpt lat="42.2497291" lon="12.0604644"><ele>344.0</ele><time>2026-04-30T16:07:33.071Z</time></trkpt><trkpt lat="42.2496571" lon="12.0605016"><ele>344.1666666666667</ele><time>2026-04-30T16:07:34.117Z</time></trkpt><trkpt lat="42.249586" lon="12.0605541"><ele>344.33333333333337</ele><time>2026-04-30T16:07:35.068Z</time></trkpt><trkpt lat="42.2495278" lon="12.0606251"><ele>344.5</ele><time>2026-04-30T16:07:36.071Z</time></trkpt><trkpt lat="42.2494786" lon="12.0607048"><ele>344.6666666666667</ele><time>2026-04-30T16:07:37.074Z</time></trkpt><trkpt lat="42.2494418" lon="12.0607937"><ele>344.8333333333333</ele><time>2026-04-30T16:07:38.067Z</time></trkpt><trkpt lat="42.249414" lon="12.0608812"><ele>345.0</ele><time>2026-04-30T16:07:39.067Z</time></trkpt><trkpt lat="42.2493952" lon="12.0609708"><ele>343.7142857142857</ele><time>2026-04-30T16:07:40.08Z</time></trkpt><trkpt lat="42.2493908" lon="12.0610671"><ele>342.42857142857144</ele><time>2026-04-30T16:07:41.056Z</time></trkpt><trkpt lat="42.2493894" lon="12.0611633"><ele>341.1428571428571</ele><time>2026-04-30T16:07:42.065Z</time></trkpt><trkpt lat="42.249394" lon="12.0612603"><ele>339.8571428571429</ele><time>2026-04-30T16:07:43.074Z</time></trkpt><trkpt lat="42.2493969" lon="12.0613556"><ele>338.57142857142856</ele><time>2026-04-30T16:07:44.1Z</time></trkpt><trkpt lat="42.2494001" lon="12.0614507"><ele>337.2857142857143</ele><time>2026-04-30T16:07:45.081Z</time></trkpt><trkpt lat="42.2494067" lon="12.0615374"><ele>336.0</ele><time>2026-04-30T16:07:46.069Z</time></trkpt><trkpt lat="42.2494139" lon="12.0616286"><ele>335.3333333333333</ele><time>2026-04-30T16:07:47.06Z</time></trkpt><trkpt lat="42.2494214" lon="12.0617168"><ele>334.6666666666667</ele><time>2026-04-30T16:07:48.081Z</time></trkpt><trkpt lat="42.2494304" lon="12.0618042"><ele>334.0</ele><time>2026-04-30T16:07:49.089Z</time></trkpt><trkpt lat="42.2494382" lon="12.0618905"><ele>333.33333333333337</ele><time>2026-04-30T16:07:50.074Z</time></trkpt><trkpt lat="42.2494473" lon="12.0620499"><ele>332.6666666666667</ele><time>2026-04-30T16:07:52.081Z</time></trkpt><trkpt lat="42.2494555" lon="12.0622093"><ele>332.0</ele><time>2026-04-30T16:07:54.091Z</time></trkpt><trkpt lat="42.249463" lon="12.0623562"><ele>333.0</ele><time>2026-04-30T16:07:56.095Z</time></trkpt><trkpt lat="42.2494739" lon="12.0624956"><ele>334.0</ele><time>2026-04-30T16:07:58.086Z</time></trkpt><trkpt lat="42.2494844" lon="12.0626342"><ele>335.0</ele><time>2026-04-30T16:08:00.097Z</time></trkpt><trkpt lat="42.2494947" lon="12.0627683"><ele>336.0</ele><time>2026-04-30T16:08:02.088Z</time></trkpt><trkpt lat="42.2495005" lon="12.0628988"><ele>337.0</ele><time>2026-04-30T16:08:04.072Z</time></trkpt><trkpt lat="42.2495084" lon="12.063034"><ele>337.0</ele><time>2026-04-30T16:08:06.089Z</time></trkpt><trkpt lat="42.2495196" lon="12.0631625"><ele>337.0</ele><time>2026-04-30T16:08:08.074Z</time></trkpt><trkpt lat="42.2495291" lon="12.0632918"><ele>337.0</ele><time>2026-04-30T16:08:10.069Z</time></trkpt><trkpt lat="42.249534" lon="12.0634268"><ele>337.0</ele><time>2026-04-30T16:08:12.083Z</time></trkpt><trkpt lat="42.2495447" lon="12.0635587"><ele>337.0</ele><time>2026-04-30T16:08:14.066Z</time></trkpt><trkpt lat="42.2495531" lon="12.0636842"><ele>336.8</ele><time>2026-04-30T16:08:16.079Z</time></trkpt><trkpt lat="42.2495596" lon="12.0638112"><ele>336.6</ele><time>2026-04-30T16:08:18.09Z</time></trkpt><trkpt lat="42.2495563" lon="12.0639375"><ele>336.40000000000003</ele><time>2026-04-30T16:08:20.08Z</time></trkpt><trkpt lat="42.2495593" lon="12.0640661"><ele>336.20000000000005</ele><time>2026-04-30T16:08:22.069Z</time></trkpt><trkpt lat="42.249568" lon="12.0641919"><ele>336.0</ele><time>2026-04-30T16:08:24.085Z</time></trkpt><trkpt lat="42.2495755" lon="12.0643143"><ele>336.0</ele><time>2026-04-30T16:08:26.107Z</time></trkpt><trkpt lat="42.2495781" lon="12.0644344"><ele>336.0</ele><time>2026-04-30T16:08:28.106Z</time></trkpt><trkpt lat="42.2495826" lon="12.0645469"><ele>336.0</ele><time>2026-04-30T16:08:30.08Z</time></trkpt><trkpt lat="42.2495857" lon="12.0646526"><ele>336.0</ele><time>2026-04-30T16:08:32.085Z</time></trkpt><trkpt lat="42.2495893" lon="12.0647631"><ele>336.0</ele><time>2026-04-30T16:08:34.088Z</time></trkpt><trkpt lat="42.2495952" lon="12.0648735"><ele>336.0</ele><time>2026-04-30T16:08:36.079Z</time></trkpt><trkpt lat="42.2496046" lon="12.0649726"><ele>335.8333333333333</ele><time>2026-04-30T16:08:38.08Z</time></trkpt><trkpt lat="42.2496064" lon="12.0650617"><ele>335.6666666666667</ele><time>2026-04-30T16:08:40.099Z</time></trkpt><trkpt lat="42.24961" lon="12.0651476"><ele>335.5</ele><time>2026-04-30T16:08:42.069Z</time></trkpt><trkpt lat="42.2496159" lon="12.0652704"><ele>335.33333333333337</ele><time>2026-04-30T16:08:45.076Z</time></trkpt><trkpt lat="42.2496199" lon="12.0653964"><ele>335.1666666666667</ele><time>2026-04-30T16:08:48.062Z</time></trkpt><trkpt lat="42.2496202" lon="12.0655132"><ele>335.0</ele><time>2026-04-30T16:08:51.08Z</time></trkpt><trkpt lat="42.249626" lon="12.0656379"><ele>335.0</ele><time>2026-04-30T16:08:54.081Z</time></trkpt><trkpt lat="42.2496374" lon="12.065757"><ele>335.0</ele><time>2026-04-30T16:08:57.077Z</time></trkpt><trkpt lat="42.2496356" lon="12.0658779"><ele>335.0</ele><time>2026-04-30T16:09:00.066Z</time></trkpt><trkpt lat="42.2496458" lon="12.0660028"><ele>335.0</ele><time>2026-04-30T16:09:03.074Z</time></trkpt><trkpt lat="42.2496537" lon="12.0661206"><ele>335.0</ele><time>2026-04-30T16:09:06.076Z</time></trkpt><trkpt lat="42.2496567" lon="12.0662377"><ele>335.0</ele><time>2026-04-30T16:09:09.076Z</time></trkpt><trkpt lat="42.2496525" lon="12.0663536"><ele>335.0</ele><time>2026-04-30T16:09:12.062Z</time></trkpt><trkpt lat="42.2496384" lon="12.066474"><ele>335.0</ele><time>2026-04-30T16:09:15.104Z</time></trkpt><trkpt lat="42.2496216" lon="12.0665941"><ele>335.0</ele><time>2026-04-30T16:09:18.1Z</time></trkpt><trkpt lat="42.2496278" lon="12.0666992"><ele>335.0</ele><time>2026-04-30T16:09:21.059Z</time></trkpt><trkpt lat="42.2496383" lon="12.0667902"><ele>335.0</ele><time>2026-04-30T16:09:24.085Z</time></trkpt><trkpt lat="42.2496342" lon="12.0668864"><ele>335.0</ele><time>2026-04-30T16:09:28.071Z</time></trkpt><trkpt lat="42.2496961" lon="12.066905"><ele>335.0</ele><time>2026-04-30T16:09:32.05Z</time></trkpt><trkpt lat="42.2497762" lon="12.0668856"><ele>335.0</ele><time>2026-04-30T16:09:36.04Z</time></trkpt><trkpt lat="42.2498415" lon="12.0668455"><ele>340.0</ele><time>2026-04-30T16:09:40.05Z</time></trkpt></trkseg></trk></gpx>